<?xml version="1.0"?>
<gpx xmlns="http://www.topografix.com/GPX/1/1" xmlns:xsi="http://www.w3.org/2001/XMLSchema-instance" version="1.1" creator="GPX RubyGem 1.0.0 -- http://dougfales.github.io/gpx/" xsi:schemaLocation="http://www.topografix.com/GPX/1/1 http://www.topografix.com/GPX/1/1/gpx.xsd">
  <metadata>
    <name/>
    <time>2026-05-08T02:39:02+00:00</time>
    <bound minlat="90.0" minlon="180.0" maxlat="-90.0" maxlon="-180.0"/>
  </metadata>
  <trk>
    <name/>
    <trkseg>
      <trkpt lat="46.126728" lon="7.630636">
        <time>1970-01-01T00:00:00+00:00</time>
        <ele>1673.0</ele>
      </trkpt>
      <trkpt lat="46.126728" lon="7.630636">
        <time>1970-01-01T00:00:00+00:00</time>
        <ele>1673.0</ele>
      </trkpt>
      <trkpt lat="46.126642" lon="7.6308">
        <time>1970-01-01T00:00:00+00:00</time>
        <ele>1674.0</ele>
      </trkpt>
      <trkpt lat="46.126642" lon="7.6308">
        <time>1970-01-01T00:00:00+00:00</time>
        <ele>1674.0</ele>
      </trkpt>
      <trkpt lat="46.12647009318426" lon="7.630876338280888">
        <time>1970-01-01T00:00:00+00:00</time>
        <ele>1674.0</ele>
      </trkpt>
      <trkpt lat="46.126347" lon="7.630931">
        <time>1970-01-01T00:00:00+00:00</time>
        <ele>1674.0</ele>
      </trkpt>
      <trkpt lat="46.126347" lon="7.630931">
        <time>1970-01-01T00:00:00+00:00</time>
        <ele>1674.0</ele>
      </trkpt>
      <trkpt lat="46.126192" lon="7.63103">
        <time>1970-01-01T00:00:00+00:00</time>
        <ele>1675.0</ele>
      </trkpt>
      <trkpt lat="46.126192" lon="7.63103">
        <time>1970-01-01T00:00:00+00:00</time>
        <ele>1675.0</ele>
      </trkpt>
      <trkpt lat="46.126137" lon="7.631019">
        <time>1970-01-01T00:00:00+00:00</time>
        <ele>1675.0</ele>
      </trkpt>
      <trkpt lat="46.126137" lon="7.631019">
        <time>1970-01-01T00:00:00+00:00</time>
        <ele>1675.0</ele>
      </trkpt>
      <trkpt lat="46.1259588391359" lon="7.631054632172821">
        <time>1970-01-01T00:00:00+00:00</time>
        <ele>1676.0</ele>
      </trkpt>
      <trkpt lat="46.125867" lon="7.631073">
        <time>1970-01-01T00:00:00+00:00</time>
        <ele>1676.0</ele>
      </trkpt>
      <trkpt lat="46.125867" lon="7.631073">
        <time>1970-01-01T00:00:00+00:00</time>
        <ele>1676.0</ele>
      </trkpt>
      <trkpt lat="46.125771" lon="7.631116">
        <time>1970-01-01T00:00:00+00:00</time>
        <ele>1677.0</ele>
      </trkpt>
      <trkpt lat="46.125771" lon="7.631116">
        <time>1970-01-01T00:00:00+00:00</time>
        <ele>1677.0</ele>
      </trkpt>
      <trkpt lat="46.125649" lon="7.631126">
        <time>1970-01-01T00:00:00+00:00</time>
        <ele>1677.0</ele>
      </trkpt>
      <trkpt lat="46.125649" lon="7.631126">
        <time>1970-01-01T00:00:00+00:00</time>
        <ele>1677.0</ele>
      </trkpt>
      <trkpt lat="46.1255" lon="7.631105">
        <time>1970-01-01T00:00:00+00:00</time>
        <ele>1677.0</ele>
      </trkpt>
      <trkpt lat="46.1255" lon="7.631105">
        <time>1970-01-01T00:00:00+00:00</time>
        <ele>1677.0</ele>
      </trkpt>
      <trkpt lat="46.125409" lon="7.631177">
        <time>1970-01-01T00:00:00+00:00</time>
        <ele>1677.0</ele>
      </trkpt>
      <trkpt lat="46.125409" lon="7.631177">
        <time>1970-01-01T00:00:00+00:00</time>
        <ele>1677.0</ele>
      </trkpt>
      <trkpt lat="46.12524" lon="7.631235">
        <time>1970-01-01T00:00:00+00:00</time>
        <ele>1678.0</ele>
      </trkpt>
      <trkpt lat="46.12524" lon="7.631235">
        <time>1970-01-01T00:00:00+00:00</time>
        <ele>1678.0</ele>
      </trkpt>
      <trkpt lat="46.12506308186964" lon="7.631281778353112">
        <time>1970-01-01T00:00:00+00:00</time>
        <ele>1678.0</ele>
      </trkpt>
      <trkpt lat="46.124945" lon="7.631313">
        <time>1970-01-01T00:00:00+00:00</time>
        <ele>1678.0</ele>
      </trkpt>
      <trkpt lat="46.124945" lon="7.631313">
        <time>1970-01-01T00:00:00+00:00</time>
        <ele>1678.0</ele>
      </trkpt>
      <trkpt lat="46.124817" lon="7.631313">
        <time>1970-01-01T00:00:00+00:00</time>
        <ele>1679.0</ele>
      </trkpt>
      <trkpt lat="46.124817" lon="7.631313">
        <time>1970-01-01T00:00:00+00:00</time>
        <ele>1679.0</ele>
      </trkpt>
      <trkpt lat="46.124758" lon="7.631375">
        <time>1970-01-01T00:00:00+00:00</time>
        <ele>1679.0</ele>
      </trkpt>
      <trkpt lat="46.124758" lon="7.631375">
        <time>1970-01-01T00:00:00+00:00</time>
        <ele>1679.0</ele>
      </trkpt>
      <trkpt lat="46.124599" lon="7.63134">
        <time>1970-01-01T00:00:00+00:00</time>
        <ele>1679.0</ele>
      </trkpt>
      <trkpt lat="46.124599" lon="7.63134">
        <time>1970-01-01T00:00:00+00:00</time>
        <ele>1679.0</ele>
      </trkpt>
      <trkpt lat="46.124464" lon="7.631373">
        <time>1970-01-01T00:00:00+00:00</time>
        <ele>1679.0</ele>
      </trkpt>
      <trkpt lat="46.124464" lon="7.631373">
        <time>1970-01-01T00:00:00+00:00</time>
        <ele>1679.0</ele>
      </trkpt>
      <trkpt lat="46.124296" lon="7.631453">
        <time>1970-01-01T00:00:00+00:00</time>
        <ele>1680.0</ele>
      </trkpt>
      <trkpt lat="46.124296" lon="7.631453">
        <time>1970-01-01T00:00:00+00:00</time>
        <ele>1680.0</ele>
      </trkpt>
      <trkpt lat="46.124217" lon="7.631513">
        <time>1970-01-01T00:00:00+00:00</time>
        <ele>1681.0</ele>
      </trkpt>
      <trkpt lat="46.124217" lon="7.631513">
        <time>1970-01-01T00:00:00+00:00</time>
        <ele>1681.0</ele>
      </trkpt>
      <trkpt lat="46.12404208774393" lon="7.6315734749821535">
        <time>1970-01-01T00:00:00+00:00</time>
        <ele>1682.0</ele>
      </trkpt>
      <trkpt lat="46.124029" lon="7.631578">
        <time>1970-01-01T00:00:00+00:00</time>
        <ele>1682.0</ele>
      </trkpt>
      <trkpt lat="46.124029" lon="7.631578">
        <time>1970-01-01T00:00:00+00:00</time>
        <ele>1682.0</ele>
      </trkpt>
      <trkpt lat="46.12385475368568" lon="7.631642352331992">
        <time>1970-01-01T00:00:00+00:00</time>
        <ele>1683.0</ele>
      </trkpt>
      <trkpt lat="46.123853" lon="7.631643">
        <time>1970-01-01T00:00:00+00:00</time>
        <ele>1683.0</ele>
      </trkpt>
      <trkpt lat="46.123853" lon="7.631643">
        <time>1970-01-01T00:00:00+00:00</time>
        <ele>1683.0</ele>
      </trkpt>
      <trkpt lat="46.123722" lon="7.631674">
        <time>1970-01-01T00:00:00+00:00</time>
        <ele>1683.0</ele>
      </trkpt>
      <trkpt lat="46.123722" lon="7.631674">
        <time>1970-01-01T00:00:00+00:00</time>
        <ele>1683.0</ele>
      </trkpt>
      <trkpt lat="46.123569" lon="7.631675">
        <time>1970-01-01T00:00:00+00:00</time>
        <ele>1685.0</ele>
      </trkpt>
      <trkpt lat="46.123569" lon="7.631675">
        <time>1970-01-01T00:00:00+00:00</time>
        <ele>1685.0</ele>
      </trkpt>
      <trkpt lat="46.123524" lon="7.631651">
        <time>1970-01-01T00:00:00+00:00</time>
        <ele>1684.0</ele>
      </trkpt>
      <trkpt lat="46.123524" lon="7.631651">
        <time>1970-01-01T00:00:00+00:00</time>
        <ele>1684.0</ele>
      </trkpt>
      <trkpt lat="46.123344969064675" lon="7.631626047953265">
        <time>1970-01-01T00:00:00+00:00</time>
        <ele>1685.0</ele>
      </trkpt>
      <trkpt lat="46.123237" lon="7.631611">
        <time>1970-01-01T00:00:00+00:00</time>
        <ele>1685.0</ele>
      </trkpt>
      <trkpt lat="46.123237" lon="7.631611">
        <time>1970-01-01T00:00:00+00:00</time>
        <ele>1685.0</ele>
      </trkpt>
      <trkpt lat="46.123154" lon="7.63155">
        <time>1970-01-01T00:00:00+00:00</time>
        <ele>1684.0</ele>
      </trkpt>
      <trkpt lat="46.123154" lon="7.63155">
        <time>1970-01-01T00:00:00+00:00</time>
        <ele>1684.0</ele>
      </trkpt>
      <trkpt lat="46.123016" lon="7.631521">
        <time>1970-01-01T00:00:00+00:00</time>
        <ele>1684.0</ele>
      </trkpt>
      <trkpt lat="46.123016" lon="7.631521">
        <time>1970-01-01T00:00:00+00:00</time>
        <ele>1684.0</ele>
      </trkpt>
      <trkpt lat="46.122855" lon="7.631593">
        <time>1970-01-01T00:00:00+00:00</time>
        <ele>1685.0</ele>
      </trkpt>
      <trkpt lat="46.122855" lon="7.631593">
        <time>1970-01-01T00:00:00+00:00</time>
        <ele>1685.0</ele>
      </trkpt>
      <trkpt lat="46.12267544393695" lon="7.6316081863336915">
        <time>1970-01-01T00:00:00+00:00</time>
        <ele>1686.0</ele>
      </trkpt>
      <trkpt lat="46.122654" lon="7.63161">
        <time>1970-01-01T00:00:00+00:00</time>
        <ele>1686.0</ele>
      </trkpt>
      <trkpt lat="46.122654" lon="7.63161">
        <time>1970-01-01T00:00:00+00:00</time>
        <ele>1686.0</ele>
      </trkpt>
      <trkpt lat="46.122563" lon="7.63165">
        <time>1970-01-01T00:00:00+00:00</time>
        <ele>1687.0</ele>
      </trkpt>
      <trkpt lat="46.122563" lon="7.63165">
        <time>1970-01-01T00:00:00+00:00</time>
        <ele>1687.0</ele>
      </trkpt>
      <trkpt lat="46.12241957381439" lon="7.631806590907964">
        <time>1970-01-01T00:00:00+00:00</time>
        <ele>1687.0</ele>
      </trkpt>
      <trkpt lat="46.122356" lon="7.631876">
        <time>1970-01-01T00:00:00+00:00</time>
        <ele>1687.0</ele>
      </trkpt>
      <trkpt lat="46.122356" lon="7.631876">
        <time>1970-01-01T00:00:00+00:00</time>
        <ele>1687.0</ele>
      </trkpt>
      <trkpt lat="46.122301" lon="7.631979">
        <time>1970-01-01T00:00:00+00:00</time>
        <ele>1688.0</ele>
      </trkpt>
      <trkpt lat="46.122301" lon="7.631979">
        <time>1970-01-01T00:00:00+00:00</time>
        <ele>1688.0</ele>
      </trkpt>
      <trkpt lat="46.122199" lon="7.632094">
        <time>1970-01-01T00:00:00+00:00</time>
        <ele>1688.0</ele>
      </trkpt>
      <trkpt lat="46.122199" lon="7.632094">
        <time>1970-01-01T00:00:00+00:00</time>
        <ele>1688.0</ele>
      </trkpt>
      <trkpt lat="46.122127" lon="7.632179">
        <time>1970-01-01T00:00:00+00:00</time>
        <ele>1689.0</ele>
      </trkpt>
      <trkpt lat="46.122127" lon="7.632179">
        <time>1970-01-01T00:00:00+00:00</time>
        <ele>1689.0</ele>
      </trkpt>
      <trkpt lat="46.122073" lon="7.632232">
        <time>1970-01-01T00:00:00+00:00</time>
        <ele>1689.0</ele>
      </trkpt>
      <trkpt lat="46.122073" lon="7.632232">
        <time>1970-01-01T00:00:00+00:00</time>
        <ele>1689.0</ele>
      </trkpt>
      <trkpt lat="46.121901024063185" lon="7.632308007222075">
        <time>1970-01-01T00:00:00+00:00</time>
        <ele>1690.0</ele>
      </trkpt>
      <trkpt lat="46.121849" lon="7.632331">
        <time>1970-01-01T00:00:00+00:00</time>
        <ele>1690.0</ele>
      </trkpt>
      <trkpt lat="46.121849" lon="7.632331">
        <time>1970-01-01T00:00:00+00:00</time>
        <ele>1690.0</ele>
      </trkpt>
      <trkpt lat="46.121768" lon="7.632374">
        <time>1970-01-01T00:00:00+00:00</time>
        <ele>1690.0</ele>
      </trkpt>
      <trkpt lat="46.121768" lon="7.632374">
        <time>1970-01-01T00:00:00+00:00</time>
        <ele>1690.0</ele>
      </trkpt>
      <trkpt lat="46.121739" lon="7.632458">
        <time>1970-01-01T00:00:00+00:00</time>
        <ele>1691.0</ele>
      </trkpt>
      <trkpt lat="46.121739" lon="7.632458">
        <time>1970-01-01T00:00:00+00:00</time>
        <ele>1691.0</ele>
      </trkpt>
      <trkpt lat="46.121621" lon="7.632613">
        <time>1970-01-01T00:00:00+00:00</time>
        <ele>1691.0</ele>
      </trkpt>
      <trkpt lat="46.121621" lon="7.632613">
        <time>1970-01-01T00:00:00+00:00</time>
        <ele>1691.0</ele>
      </trkpt>
      <trkpt lat="46.121471" lon="7.632644">
        <time>1970-01-01T00:00:00+00:00</time>
        <ele>1691.0</ele>
      </trkpt>
      <trkpt lat="46.121471" lon="7.632644">
        <time>1970-01-01T00:00:00+00:00</time>
        <ele>1691.0</ele>
      </trkpt>
      <trkpt lat="46.121344" lon="7.632767">
        <time>1970-01-01T00:00:00+00:00</time>
        <ele>1693.0</ele>
      </trkpt>
      <trkpt lat="46.121344" lon="7.632767">
        <time>1970-01-01T00:00:00+00:00</time>
        <ele>1693.0</ele>
      </trkpt>
      <trkpt lat="46.121276" lon="7.632783">
        <time>1970-01-01T00:00:00+00:00</time>
        <ele>1693.0</ele>
      </trkpt>
      <trkpt lat="46.121276" lon="7.632783">
        <time>1970-01-01T00:00:00+00:00</time>
        <ele>1693.0</ele>
      </trkpt>
      <trkpt lat="46.121209" lon="7.632672">
        <time>1970-01-01T00:00:00+00:00</time>
        <ele>1692.0</ele>
      </trkpt>
      <trkpt lat="46.121209" lon="7.632672">
        <time>1970-01-01T00:00:00+00:00</time>
        <ele>1692.0</ele>
      </trkpt>
      <trkpt lat="46.121179" lon="7.632579">
        <time>1970-01-01T00:00:00+00:00</time>
        <ele>1691.0</ele>
      </trkpt>
      <trkpt lat="46.121179" lon="7.632579">
        <time>1970-01-01T00:00:00+00:00</time>
        <ele>1691.0</ele>
      </trkpt>
      <trkpt lat="46.121059" lon="7.632565">
        <time>1970-01-01T00:00:00+00:00</time>
        <ele>1691.0</ele>
      </trkpt>
      <trkpt lat="46.121059" lon="7.632565">
        <time>1970-01-01T00:00:00+00:00</time>
        <ele>1691.0</ele>
      </trkpt>
      <trkpt lat="46.120979" lon="7.632635">
        <time>1970-01-01T00:00:00+00:00</time>
        <ele>1691.0</ele>
      </trkpt>
      <trkpt lat="46.120979" lon="7.632635">
        <time>1970-01-01T00:00:00+00:00</time>
        <ele>1691.0</ele>
      </trkpt>
      <trkpt lat="46.120855" lon="7.632647">
        <time>1970-01-01T00:00:00+00:00</time>
        <ele>1692.0</ele>
      </trkpt>
      <trkpt lat="46.120855" lon="7.632647">
        <time>1970-01-01T00:00:00+00:00</time>
        <ele>1692.0</ele>
      </trkpt>
      <trkpt lat="46.120744" lon="7.632688">
        <time>1970-01-01T00:00:00+00:00</time>
        <ele>1693.0</ele>
      </trkpt>
      <trkpt lat="46.120744" lon="7.632688">
        <time>1970-01-01T00:00:00+00:00</time>
        <ele>1693.0</ele>
      </trkpt>
      <trkpt lat="46.120564489032525" lon="7.632704257597055">
        <time>1970-01-01T00:00:00+00:00</time>
        <ele>1693.0</ele>
      </trkpt>
      <trkpt lat="46.120479" lon="7.632712">
        <time>1970-01-01T00:00:00+00:00</time>
        <ele>1693.0</ele>
      </trkpt>
      <trkpt lat="46.120479" lon="7.632712">
        <time>1970-01-01T00:00:00+00:00</time>
        <ele>1693.0</ele>
      </trkpt>
      <trkpt lat="46.120308765036455" lon="7.6327957664106325">
        <time>1970-01-01T00:00:00+00:00</time>
        <ele>1694.0</ele>
      </trkpt>
      <trkpt lat="46.12029" lon="7.632805">
        <time>1970-01-01T00:00:00+00:00</time>
        <ele>1695.0</ele>
      </trkpt>
      <trkpt lat="46.12029" lon="7.632805">
        <time>1970-01-01T00:00:00+00:00</time>
        <ele>1695.0</ele>
      </trkpt>
      <trkpt lat="46.120223" lon="7.632789">
        <time>1970-01-01T00:00:00+00:00</time>
        <ele>1695.0</ele>
      </trkpt>
      <trkpt lat="46.120223" lon="7.632789">
        <time>1970-01-01T00:00:00+00:00</time>
        <ele>1695.0</ele>
      </trkpt>
      <trkpt lat="46.12004454078097" lon="7.632821371672289">
        <time>1970-01-01T00:00:00+00:00</time>
        <ele>1696.0</ele>
      </trkpt>
      <trkpt lat="46.120008" lon="7.632828">
        <time>1970-01-01T00:00:00+00:00</time>
        <ele>1696.0</ele>
      </trkpt>
      <trkpt lat="46.120008" lon="7.632828">
        <time>1970-01-01T00:00:00+00:00</time>
        <ele>1696.0</ele>
      </trkpt>
      <trkpt lat="46.119866" lon="7.632819">
        <time>1970-01-01T00:00:00+00:00</time>
        <ele>1696.0</ele>
      </trkpt>
      <trkpt lat="46.119866" lon="7.632819">
        <time>1970-01-01T00:00:00+00:00</time>
        <ele>1696.0</ele>
      </trkpt>
      <trkpt lat="46.119781" lon="7.632771">
        <time>1970-01-01T00:00:00+00:00</time>
        <ele>1696.0</ele>
      </trkpt>
      <trkpt lat="46.119781" lon="7.632771">
        <time>1970-01-01T00:00:00+00:00</time>
        <ele>1696.0</ele>
      </trkpt>
      <trkpt lat="46.11960156196049" lon="7.632788854531294">
        <time>1970-01-01T00:00:00+00:00</time>
        <ele>1696.0</ele>
      </trkpt>
      <trkpt lat="46.11958" lon="7.632791">
        <time>1970-01-01T00:00:00+00:00</time>
        <ele>1696.0</ele>
      </trkpt>
      <trkpt lat="46.11958" lon="7.632791">
        <time>1970-01-01T00:00:00+00:00</time>
        <ele>1696.0</ele>
      </trkpt>
      <trkpt lat="46.119449" lon="7.632794">
        <time>1970-01-01T00:00:00+00:00</time>
        <ele>1697.0</ele>
      </trkpt>
      <trkpt lat="46.119449" lon="7.632794">
        <time>1970-01-01T00:00:00+00:00</time>
        <ele>1697.0</ele>
      </trkpt>
      <trkpt lat="46.119344" lon="7.632838">
        <time>1970-01-01T00:00:00+00:00</time>
        <ele>1698.0</ele>
      </trkpt>
      <trkpt lat="46.119344" lon="7.632838">
        <time>1970-01-01T00:00:00+00:00</time>
        <ele>1698.0</ele>
      </trkpt>
      <trkpt lat="46.119173" lon="7.632827">
        <time>1970-01-01T00:00:00+00:00</time>
        <ele>1698.0</ele>
      </trkpt>
      <trkpt lat="46.119173" lon="7.632827">
        <time>1970-01-01T00:00:00+00:00</time>
        <ele>1698.0</ele>
      </trkpt>
      <trkpt lat="46.11900096573615" lon="7.632902728001313">
        <time>1970-01-01T00:00:00+00:00</time>
        <ele>1700.0</ele>
      </trkpt>
      <trkpt lat="46.118964" lon="7.632919">
        <time>1970-01-01T00:00:00+00:00</time>
        <ele>1700.0</ele>
      </trkpt>
      <trkpt lat="46.118964" lon="7.632919">
        <time>1970-01-01T00:00:00+00:00</time>
        <ele>1700.0</ele>
      </trkpt>
      <trkpt lat="46.118925" lon="7.632969">
        <time>1970-01-01T00:00:00+00:00</time>
        <ele>1701.0</ele>
      </trkpt>
      <trkpt lat="46.118925" lon="7.632969">
        <time>1970-01-01T00:00:00+00:00</time>
        <ele>1701.0</ele>
      </trkpt>
      <trkpt lat="46.118882" lon="7.632992">
        <time>1970-01-01T00:00:00+00:00</time>
        <ele>1701.0</ele>
      </trkpt>
      <trkpt lat="46.118882" lon="7.632992">
        <time>1970-01-01T00:00:00+00:00</time>
        <ele>1701.0</ele>
      </trkpt>
      <trkpt lat="46.118718" lon="7.633013">
        <time>1970-01-01T00:00:00+00:00</time>
        <ele>1701.0</ele>
      </trkpt>
      <trkpt lat="46.118718" lon="7.633013">
        <time>1970-01-01T00:00:00+00:00</time>
        <ele>1701.0</ele>
      </trkpt>
      <trkpt lat="46.11854492285219" lon="7.633083608587664">
        <time>1970-01-01T00:00:00+00:00</time>
        <ele>1701.0</ele>
      </trkpt>
      <trkpt lat="46.118517" lon="7.633095">
        <time>1970-01-01T00:00:00+00:00</time>
        <ele>1701.0</ele>
      </trkpt>
      <trkpt lat="46.118517" lon="7.633095">
        <time>1970-01-01T00:00:00+00:00</time>
        <ele>1701.0</ele>
      </trkpt>
      <trkpt lat="46.118452" lon="7.633111">
        <time>1970-01-01T00:00:00+00:00</time>
        <ele>1702.0</ele>
      </trkpt>
      <trkpt lat="46.118452" lon="7.633111">
        <time>1970-01-01T00:00:00+00:00</time>
        <ele>1702.0</ele>
      </trkpt>
      <trkpt lat="46.118347" lon="7.633112">
        <time>1970-01-01T00:00:00+00:00</time>
        <ele>1702.0</ele>
      </trkpt>
      <trkpt lat="46.118347" lon="7.633112">
        <time>1970-01-01T00:00:00+00:00</time>
        <ele>1702.0</ele>
      </trkpt>
      <trkpt lat="46.118269" lon="7.633058">
        <time>1970-01-01T00:00:00+00:00</time>
        <ele>1702.0</ele>
      </trkpt>
      <trkpt lat="46.118269" lon="7.633058">
        <time>1970-01-01T00:00:00+00:00</time>
        <ele>1702.0</ele>
      </trkpt>
      <trkpt lat="46.118178" lon="7.63303">
        <time>1970-01-01T00:00:00+00:00</time>
        <ele>1702.0</ele>
      </trkpt>
      <trkpt lat="46.118178" lon="7.63303">
        <time>1970-01-01T00:00:00+00:00</time>
        <ele>1702.0</ele>
      </trkpt>
      <trkpt lat="46.118077" lon="7.632945">
        <time>1970-01-01T00:00:00+00:00</time>
        <ele>1702.0</ele>
      </trkpt>
      <trkpt lat="46.118077" lon="7.632945">
        <time>1970-01-01T00:00:00+00:00</time>
        <ele>1702.0</ele>
      </trkpt>
      <trkpt lat="46.118018" lon="7.632957">
        <time>1970-01-01T00:00:00+00:00</time>
        <ele>1702.0</ele>
      </trkpt>
      <trkpt lat="46.118018" lon="7.632957">
        <time>1970-01-01T00:00:00+00:00</time>
        <ele>1702.0</ele>
      </trkpt>
      <trkpt lat="46.117957" lon="7.632923">
        <time>1970-01-01T00:00:00+00:00</time>
        <ele>1702.0</ele>
      </trkpt>
      <trkpt lat="46.117957" lon="7.632923">
        <time>1970-01-01T00:00:00+00:00</time>
        <ele>1702.0</ele>
      </trkpt>
      <trkpt lat="46.117891" lon="7.632941">
        <time>1970-01-01T00:00:00+00:00</time>
        <ele>1703.0</ele>
      </trkpt>
      <trkpt lat="46.117891" lon="7.632941">
        <time>1970-01-01T00:00:00+00:00</time>
        <ele>1703.0</ele>
      </trkpt>
      <trkpt lat="46.11771605418869" lon="7.633001265613929">
        <time>1970-01-01T00:00:00+00:00</time>
        <ele>1704.0</ele>
      </trkpt>
      <trkpt lat="46.117592" lon="7.633044">
        <time>1970-01-01T00:00:00+00:00</time>
        <ele>1705.0</ele>
      </trkpt>
      <trkpt lat="46.117592" lon="7.633044">
        <time>1970-01-01T00:00:00+00:00</time>
        <ele>1705.0</ele>
      </trkpt>
      <trkpt lat="46.117461" lon="7.633067">
        <time>1970-01-01T00:00:00+00:00</time>
        <ele>1707.0</ele>
      </trkpt>
      <trkpt lat="46.117461" lon="7.633067">
        <time>1970-01-01T00:00:00+00:00</time>
        <ele>1707.0</ele>
      </trkpt>
      <trkpt lat="46.117327" lon="7.63305">
        <time>1970-01-01T00:00:00+00:00</time>
        <ele>1708.0</ele>
      </trkpt>
      <trkpt lat="46.117327" lon="7.63305">
        <time>1970-01-01T00:00:00+00:00</time>
        <ele>1708.0</ele>
      </trkpt>
      <trkpt lat="46.117179" lon="7.633063">
        <time>1970-01-01T00:00:00+00:00</time>
        <ele>1709.0</ele>
      </trkpt>
      <trkpt lat="46.117179" lon="7.633063">
        <time>1970-01-01T00:00:00+00:00</time>
        <ele>1709.0</ele>
      </trkpt>
      <trkpt lat="46.117049" lon="7.633054">
        <time>1970-01-01T00:00:00+00:00</time>
        <ele>1708.0</ele>
      </trkpt>
      <trkpt lat="46.117049" lon="7.633054">
        <time>1970-01-01T00:00:00+00:00</time>
        <ele>1708.0</ele>
      </trkpt>
      <trkpt lat="46.117004" lon="7.63298">
        <time>1970-01-01T00:00:00+00:00</time>
        <ele>1708.0</ele>
      </trkpt>
      <trkpt lat="46.117004" lon="7.63298">
        <time>1970-01-01T00:00:00+00:00</time>
        <ele>1708.0</ele>
      </trkpt>
      <trkpt lat="46.116949" lon="7.632977">
        <time>1970-01-01T00:00:00+00:00</time>
        <ele>1708.0</ele>
      </trkpt>
      <trkpt lat="46.116949" lon="7.632977">
        <time>1970-01-01T00:00:00+00:00</time>
        <ele>1708.0</ele>
      </trkpt>
      <trkpt lat="46.116868" lon="7.633058">
        <time>1970-01-01T00:00:00+00:00</time>
        <ele>1708.0</ele>
      </trkpt>
      <trkpt lat="46.116868" lon="7.633058">
        <time>1970-01-01T00:00:00+00:00</time>
        <ele>1708.0</ele>
      </trkpt>
      <trkpt lat="46.116777" lon="7.63307">
        <time>1970-01-01T00:00:00+00:00</time>
        <ele>1709.0</ele>
      </trkpt>
      <trkpt lat="46.116777" lon="7.63307">
        <time>1970-01-01T00:00:00+00:00</time>
        <ele>1709.0</ele>
      </trkpt>
      <trkpt lat="46.11659863173248" lon="7.6331033966117925">
        <time>1970-01-01T00:00:00+00:00</time>
        <ele>1710.0</ele>
      </trkpt>
      <trkpt lat="46.116542" lon="7.633114">
        <time>1970-01-01T00:00:00+00:00</time>
        <ele>1710.0</ele>
      </trkpt>
      <trkpt lat="46.116542" lon="7.633114">
        <time>1970-01-01T00:00:00+00:00</time>
        <ele>1710.0</ele>
      </trkpt>
      <trkpt lat="46.116511" lon="7.633188">
        <time>1970-01-01T00:00:00+00:00</time>
        <ele>1710.0</ele>
      </trkpt>
      <trkpt lat="46.116511" lon="7.633188">
        <time>1970-01-01T00:00:00+00:00</time>
        <ele>1710.0</ele>
      </trkpt>
      <trkpt lat="46.116438" lon="7.633189">
        <time>1970-01-01T00:00:00+00:00</time>
        <ele>1711.0</ele>
      </trkpt>
      <trkpt lat="46.116438" lon="7.633189">
        <time>1970-01-01T00:00:00+00:00</time>
        <ele>1711.0</ele>
      </trkpt>
      <trkpt lat="46.116341" lon="7.633236">
        <time>1970-01-01T00:00:00+00:00</time>
        <ele>1712.0</ele>
      </trkpt>
      <trkpt lat="46.116341" lon="7.633236">
        <time>1970-01-01T00:00:00+00:00</time>
        <ele>1712.0</ele>
      </trkpt>
      <trkpt lat="46.116286" lon="7.633239">
        <time>1970-01-01T00:00:00+00:00</time>
        <ele>1712.0</ele>
      </trkpt>
      <trkpt lat="46.116286" lon="7.633239">
        <time>1970-01-01T00:00:00+00:00</time>
        <ele>1712.0</ele>
      </trkpt>
      <trkpt lat="46.116159" lon="7.633281">
        <time>1970-01-01T00:00:00+00:00</time>
        <ele>1713.0</ele>
      </trkpt>
      <trkpt lat="46.116159" lon="7.633281">
        <time>1970-01-01T00:00:00+00:00</time>
        <ele>1713.0</ele>
      </trkpt>
      <trkpt lat="46.116036" lon="7.633394">
        <time>1970-01-01T00:00:00+00:00</time>
        <ele>1715.0</ele>
      </trkpt>
      <trkpt lat="46.116036" lon="7.633394">
        <time>1970-01-01T00:00:00+00:00</time>
        <ele>1715.0</ele>
      </trkpt>
      <trkpt lat="46.115897" lon="7.633394">
        <time>1970-01-01T00:00:00+00:00</time>
        <ele>1715.0</ele>
      </trkpt>
      <trkpt lat="46.115897" lon="7.633394">
        <time>1970-01-01T00:00:00+00:00</time>
        <ele>1715.0</ele>
      </trkpt>
      <trkpt lat="46.115774" lon="7.633343">
        <time>1970-01-01T00:00:00+00:00</time>
        <ele>1716.0</ele>
      </trkpt>
      <trkpt lat="46.115774" lon="7.633343">
        <time>1970-01-01T00:00:00+00:00</time>
        <ele>1716.0</ele>
      </trkpt>
      <trkpt lat="46.115599167713114" lon="7.633403945057752">
        <time>1970-01-01T00:00:00+00:00</time>
        <ele>1719.0</ele>
      </trkpt>
      <trkpt lat="46.11549" lon="7.633442">
        <time>1970-01-01T00:00:00+00:00</time>
        <ele>1720.0</ele>
      </trkpt>
      <trkpt lat="46.11549" lon="7.633442">
        <time>1970-01-01T00:00:00+00:00</time>
        <ele>1720.0</ele>
      </trkpt>
      <trkpt lat="46.11531671489435" lon="7.633511534787616">
        <time>1970-01-01T00:00:00+00:00</time>
        <ele>1721.0</ele>
      </trkpt>
      <trkpt lat="46.115176" lon="7.633568">
        <time>1970-01-01T00:00:00+00:00</time>
        <ele>1722.0</ele>
      </trkpt>
      <trkpt lat="46.115176" lon="7.633568">
        <time>1970-01-01T00:00:00+00:00</time>
        <ele>1722.0</ele>
      </trkpt>
      <trkpt lat="46.115114" lon="7.633553">
        <time>1970-01-01T00:00:00+00:00</time>
        <ele>1721.0</ele>
      </trkpt>
      <trkpt lat="46.115114" lon="7.633553">
        <time>1970-01-01T00:00:00+00:00</time>
        <ele>1721.0</ele>
      </trkpt>
      <trkpt lat="46.115001" lon="7.633456">
        <time>1970-01-01T00:00:00+00:00</time>
        <ele>1719.0</ele>
      </trkpt>
      <trkpt lat="46.115001" lon="7.633456">
        <time>1970-01-01T00:00:00+00:00</time>
        <ele>1719.0</ele>
      </trkpt>
      <trkpt lat="46.114927" lon="7.633434">
        <time>1970-01-01T00:00:00+00:00</time>
        <ele>1718.0</ele>
      </trkpt>
      <trkpt lat="46.114927" lon="7.633434">
        <time>1970-01-01T00:00:00+00:00</time>
        <ele>1718.0</ele>
      </trkpt>
      <trkpt lat="46.114866" lon="7.633387">
        <time>1970-01-01T00:00:00+00:00</time>
        <ele>1717.0</ele>
      </trkpt>
      <trkpt lat="46.114866" lon="7.633387">
        <time>1970-01-01T00:00:00+00:00</time>
        <ele>1717.0</ele>
      </trkpt>
      <trkpt lat="46.114775" lon="7.633406">
        <time>1970-01-01T00:00:00+00:00</time>
        <ele>1717.0</ele>
      </trkpt>
      <trkpt lat="46.114775" lon="7.633406">
        <time>1970-01-01T00:00:00+00:00</time>
        <ele>1717.0</ele>
      </trkpt>
      <trkpt lat="46.114645" lon="7.633363">
        <time>1970-01-01T00:00:00+00:00</time>
        <ele>1717.0</ele>
      </trkpt>
      <trkpt lat="46.114645" lon="7.633363">
        <time>1970-01-01T00:00:00+00:00</time>
        <ele>1717.0</ele>
      </trkpt>
      <trkpt lat="46.114582" lon="7.633303">
        <time>1970-01-01T00:00:00+00:00</time>
        <ele>1716.0</ele>
      </trkpt>
      <trkpt lat="46.114582" lon="7.633303">
        <time>1970-01-01T00:00:00+00:00</time>
        <ele>1716.0</ele>
      </trkpt>
      <trkpt lat="46.114487" lon="7.633268">
        <time>1970-01-01T00:00:00+00:00</time>
        <ele>1717.0</ele>
      </trkpt>
      <trkpt lat="46.114487" lon="7.633268">
        <time>1970-01-01T00:00:00+00:00</time>
        <ele>1717.0</ele>
      </trkpt>
      <trkpt lat="46.114356" lon="7.633252">
        <time>1970-01-01T00:00:00+00:00</time>
        <ele>1717.0</ele>
      </trkpt>
      <trkpt lat="46.114356" lon="7.633252">
        <time>1970-01-01T00:00:00+00:00</time>
        <ele>1717.0</ele>
      </trkpt>
      <trkpt lat="46.114274" lon="7.633291">
        <time>1970-01-01T00:00:00+00:00</time>
        <ele>1718.0</ele>
      </trkpt>
      <trkpt lat="46.114274" lon="7.633291">
        <time>1970-01-01T00:00:00+00:00</time>
        <ele>1718.0</ele>
      </trkpt>
      <trkpt lat="46.114214" lon="7.633277">
        <time>1970-01-01T00:00:00+00:00</time>
        <ele>1718.0</ele>
      </trkpt>
      <trkpt lat="46.114214" lon="7.633277">
        <time>1970-01-01T00:00:00+00:00</time>
        <ele>1718.0</ele>
      </trkpt>
      <trkpt lat="46.114043" lon="7.633297">
        <time>1970-01-01T00:00:00+00:00</time>
        <ele>1720.0</ele>
      </trkpt>
      <trkpt lat="46.114043" lon="7.633297">
        <time>1970-01-01T00:00:00+00:00</time>
        <ele>1720.0</ele>
      </trkpt>
      <trkpt lat="46.113865322648415" lon="7.633256662439099">
        <time>1970-01-01T00:00:00+00:00</time>
        <ele>1721.0</ele>
      </trkpt>
      <trkpt lat="46.113858" lon="7.633255">
        <time>1970-01-01T00:00:00+00:00</time>
        <ele>1721.0</ele>
      </trkpt>
      <trkpt lat="46.113858" lon="7.633255">
        <time>1970-01-01T00:00:00+00:00</time>
        <ele>1721.0</ele>
      </trkpt>
      <trkpt lat="46.113705" lon="7.633241">
        <time>1970-01-01T00:00:00+00:00</time>
        <ele>1723.0</ele>
      </trkpt>
      <trkpt lat="46.113705" lon="7.633241">
        <time>1970-01-01T00:00:00+00:00</time>
        <ele>1723.0</ele>
      </trkpt>
      <trkpt lat="46.113601" lon="7.633242">
        <time>1970-01-01T00:00:00+00:00</time>
        <ele>1723.0</ele>
      </trkpt>
      <trkpt lat="46.113601" lon="7.633242">
        <time>1970-01-01T00:00:00+00:00</time>
        <ele>1723.0</ele>
      </trkpt>
      <trkpt lat="46.113422824376315" lon="7.633206529852692">
        <time>1970-01-01T00:00:00+00:00</time>
        <ele>1723.0</ele>
      </trkpt>
      <trkpt lat="46.113385" lon="7.633199">
        <time>1970-01-01T00:00:00+00:00</time>
        <ele>1723.0</ele>
      </trkpt>
      <trkpt lat="46.113385" lon="7.633199">
        <time>1970-01-01T00:00:00+00:00</time>
        <ele>1723.0</ele>
      </trkpt>
      <trkpt lat="46.11321154409119" lon="7.633130359693842">
        <time>1970-01-01T00:00:00+00:00</time>
        <ele>1723.0</ele>
      </trkpt>
      <trkpt lat="46.113198" lon="7.633125">
        <time>1970-01-01T00:00:00+00:00</time>
        <ele>1723.0</ele>
      </trkpt>
      <trkpt lat="46.113198" lon="7.633125">
        <time>1970-01-01T00:00:00+00:00</time>
        <ele>1723.0</ele>
      </trkpt>
      <trkpt lat="46.11301814072981" lon="7.6331230555754574">
        <time>1970-01-01T00:00:00+00:00</time>
        <ele>1724.0</ele>
      </trkpt>
      <trkpt lat="46.113013" lon="7.633123">
        <time>1970-01-01T00:00:00+00:00</time>
        <ele>1724.0</ele>
      </trkpt>
      <trkpt lat="46.113013" lon="7.633123">
        <time>1970-01-01T00:00:00+00:00</time>
        <ele>1724.0</ele>
      </trkpt>
      <trkpt lat="46.11284380078388" lon="7.633211013942015">
        <time>1970-01-01T00:00:00+00:00</time>
        <ele>1726.0</ele>
      </trkpt>
      <trkpt lat="46.11279" lon="7.633239">
        <time>1970-01-01T00:00:00+00:00</time>
        <ele>1727.0</ele>
      </trkpt>
      <trkpt lat="46.11279" lon="7.633239">
        <time>1970-01-01T00:00:00+00:00</time>
        <ele>1727.0</ele>
      </trkpt>
      <trkpt lat="46.1126121000027" lon="7.633277240186335">
        <time>1970-01-01T00:00:00+00:00</time>
        <ele>1729.0</ele>
      </trkpt>
      <trkpt lat="46.112576" lon="7.633285">
        <time>1970-01-01T00:00:00+00:00</time>
        <ele>1729.0</ele>
      </trkpt>
      <trkpt lat="46.112576" lon="7.633285">
        <time>1970-01-01T00:00:00+00:00</time>
        <ele>1729.0</ele>
      </trkpt>
      <trkpt lat="46.112516" lon="7.63328">
        <time>1970-01-01T00:00:00+00:00</time>
        <ele>1730.0</ele>
      </trkpt>
      <trkpt lat="46.112516" lon="7.63328">
        <time>1970-01-01T00:00:00+00:00</time>
        <ele>1730.0</ele>
      </trkpt>
      <trkpt lat="46.112377" lon="7.63337">
        <time>1970-01-01T00:00:00+00:00</time>
        <ele>1733.0</ele>
      </trkpt>
      <trkpt lat="46.112377" lon="7.63337">
        <time>1970-01-01T00:00:00+00:00</time>
        <ele>1733.0</ele>
      </trkpt>
      <trkpt lat="46.112197395846906" lon="7.633383949837133">
        <time>1970-01-01T00:00:00+00:00</time>
        <ele>1734.0</ele>
      </trkpt>
      <trkpt lat="46.112171" lon="7.633386">
        <time>1970-01-01T00:00:00+00:00</time>
        <ele>1734.0</ele>
      </trkpt>
      <trkpt lat="46.112171" lon="7.633386">
        <time>1970-01-01T00:00:00+00:00</time>
        <ele>1734.0</ele>
      </trkpt>
      <trkpt lat="46.112036" lon="7.633331">
        <time>1970-01-01T00:00:00+00:00</time>
        <ele>1733.0</ele>
      </trkpt>
      <trkpt lat="46.112036" lon="7.633331">
        <time>1970-01-01T00:00:00+00:00</time>
        <ele>1733.0</ele>
      </trkpt>
      <trkpt lat="46.111943" lon="7.633335">
        <time>1970-01-01T00:00:00+00:00</time>
        <ele>1734.0</ele>
      </trkpt>
      <trkpt lat="46.111943" lon="7.633335">
        <time>1970-01-01T00:00:00+00:00</time>
        <ele>1734.0</ele>
      </trkpt>
      <trkpt lat="46.111899" lon="7.633313">
        <time>1970-01-01T00:00:00+00:00</time>
        <ele>1733.0</ele>
      </trkpt>
      <trkpt lat="46.111899" lon="7.633313">
        <time>1970-01-01T00:00:00+00:00</time>
        <ele>1733.0</ele>
      </trkpt>
      <trkpt lat="46.111793" lon="7.633322">
        <time>1970-01-01T00:00:00+00:00</time>
        <ele>1733.0</ele>
      </trkpt>
      <trkpt lat="46.111793" lon="7.633322">
        <time>1970-01-01T00:00:00+00:00</time>
        <ele>1733.0</ele>
      </trkpt>
      <trkpt lat="46.11176" lon="7.633272">
        <time>1970-01-01T00:00:00+00:00</time>
        <ele>1732.0</ele>
      </trkpt>
      <trkpt lat="46.11176" lon="7.633272">
        <time>1970-01-01T00:00:00+00:00</time>
        <ele>1732.0</ele>
      </trkpt>
      <trkpt lat="46.111696" lon="7.633272">
        <time>1970-01-01T00:00:00+00:00</time>
        <ele>1733.0</ele>
      </trkpt>
      <trkpt lat="46.111696" lon="7.633272">
        <time>1970-01-01T00:00:00+00:00</time>
        <ele>1733.0</ele>
      </trkpt>
      <trkpt lat="46.111573" lon="7.633249">
        <time>1970-01-01T00:00:00+00:00</time>
        <ele>1732.0</ele>
      </trkpt>
      <trkpt lat="46.111573" lon="7.633249">
        <time>1970-01-01T00:00:00+00:00</time>
        <ele>1732.0</ele>
      </trkpt>
      <trkpt lat="46.111433" lon="7.633275">
        <time>1970-01-01T00:00:00+00:00</time>
        <ele>1733.0</ele>
      </trkpt>
      <trkpt lat="46.111433" lon="7.633275">
        <time>1970-01-01T00:00:00+00:00</time>
        <ele>1733.0</ele>
      </trkpt>
      <trkpt lat="46.111282" lon="7.633363">
        <time>1970-01-01T00:00:00+00:00</time>
        <ele>1734.0</ele>
      </trkpt>
      <trkpt lat="46.111282" lon="7.633363">
        <time>1970-01-01T00:00:00+00:00</time>
        <ele>1734.0</ele>
      </trkpt>
      <trkpt lat="46.111218" lon="7.633393">
        <time>1970-01-01T00:00:00+00:00</time>
        <ele>1734.0</ele>
      </trkpt>
      <trkpt lat="46.111218" lon="7.633393">
        <time>1970-01-01T00:00:00+00:00</time>
        <ele>1734.0</ele>
      </trkpt>
      <trkpt lat="46.111189" lon="7.633334">
        <time>1970-01-01T00:00:00+00:00</time>
        <ele>1733.0</ele>
      </trkpt>
      <trkpt lat="46.111189" lon="7.633334">
        <time>1970-01-01T00:00:00+00:00</time>
        <ele>1733.0</ele>
      </trkpt>
      <trkpt lat="46.111099" lon="7.633268">
        <time>1970-01-01T00:00:00+00:00</time>
        <ele>1732.0</ele>
      </trkpt>
      <trkpt lat="46.111099" lon="7.633268">
        <time>1970-01-01T00:00:00+00:00</time>
        <ele>1732.0</ele>
      </trkpt>
      <trkpt lat="46.111146" lon="7.633192">
        <time>1970-01-01T00:00:00+00:00</time>
        <ele>1731.0</ele>
      </trkpt>
      <trkpt lat="46.111146" lon="7.633192">
        <time>1970-01-01T00:00:00+00:00</time>
        <ele>1731.0</ele>
      </trkpt>
      <trkpt lat="46.1111" lon="7.633018">
        <time>1970-01-01T00:00:00+00:00</time>
        <ele>1731.0</ele>
      </trkpt>
      <trkpt lat="46.1111" lon="7.633018">
        <time>1970-01-01T00:00:00+00:00</time>
        <ele>1731.0</ele>
      </trkpt>
      <trkpt lat="46.11104" lon="7.63281">
        <time>1970-01-01T00:00:00+00:00</time>
        <ele>1732.0</ele>
      </trkpt>
      <trkpt lat="46.11104" lon="7.63281">
        <time>1970-01-01T00:00:00+00:00</time>
        <ele>1732.0</ele>
      </trkpt>
      <trkpt lat="46.111053" lon="7.632747">
        <time>1970-01-01T00:00:00+00:00</time>
        <ele>1731.0</ele>
      </trkpt>
      <trkpt lat="46.111053" lon="7.632747">
        <time>1970-01-01T00:00:00+00:00</time>
        <ele>1731.0</ele>
      </trkpt>
      <trkpt lat="46.111017" lon="7.63267">
        <time>1970-01-01T00:00:00+00:00</time>
        <ele>1732.0</ele>
      </trkpt>
      <trkpt lat="46.111017" lon="7.63267">
        <time>1970-01-01T00:00:00+00:00</time>
        <ele>1732.0</ele>
      </trkpt>
      <trkpt lat="46.111028" lon="7.632581">
        <time>1970-01-01T00:00:00+00:00</time>
        <ele>1733.0</ele>
      </trkpt>
      <trkpt lat="46.111028" lon="7.632581">
        <time>1970-01-01T00:00:00+00:00</time>
        <ele>1733.0</ele>
      </trkpt>
      <trkpt lat="46.110992" lon="7.632501">
        <time>1970-01-01T00:00:00+00:00</time>
        <ele>1735.0</ele>
      </trkpt>
      <trkpt lat="46.110992" lon="7.632501">
        <time>1970-01-01T00:00:00+00:00</time>
        <ele>1735.0</ele>
      </trkpt>
      <trkpt lat="46.110898" lon="7.632485">
        <time>1970-01-01T00:00:00+00:00</time>
        <ele>1736.0</ele>
      </trkpt>
      <trkpt lat="46.110898" lon="7.632485">
        <time>1970-01-01T00:00:00+00:00</time>
        <ele>1736.0</ele>
      </trkpt>
      <trkpt lat="46.110739" lon="7.632532">
        <time>1970-01-01T00:00:00+00:00</time>
        <ele>1736.0</ele>
      </trkpt>
      <trkpt lat="46.110739" lon="7.632532">
        <time>1970-01-01T00:00:00+00:00</time>
        <ele>1736.0</ele>
      </trkpt>
      <trkpt lat="46.110713" lon="7.63245">
        <time>1970-01-01T00:00:00+00:00</time>
        <ele>1738.0</ele>
      </trkpt>
      <trkpt lat="46.110713" lon="7.63245">
        <time>1970-01-01T00:00:00+00:00</time>
        <ele>1738.0</ele>
      </trkpt>
      <trkpt lat="46.110642" lon="7.632407">
        <time>1970-01-01T00:00:00+00:00</time>
        <ele>1739.0</ele>
      </trkpt>
      <trkpt lat="46.110642" lon="7.632407">
        <time>1970-01-01T00:00:00+00:00</time>
        <ele>1739.0</ele>
      </trkpt>
      <trkpt lat="46.110639" lon="7.632314">
        <time>1970-01-01T00:00:00+00:00</time>
        <ele>1742.0</ele>
      </trkpt>
      <trkpt lat="46.110639" lon="7.632314">
        <time>1970-01-01T00:00:00+00:00</time>
        <ele>1742.0</ele>
      </trkpt>
      <trkpt lat="46.110681" lon="7.632207">
        <time>1970-01-01T00:00:00+00:00</time>
        <ele>1744.0</ele>
      </trkpt>
      <trkpt lat="46.110681" lon="7.632207">
        <time>1970-01-01T00:00:00+00:00</time>
        <ele>1744.0</ele>
      </trkpt>
      <trkpt lat="46.110691" lon="7.632118">
        <time>1970-01-01T00:00:00+00:00</time>
        <ele>1746.0</ele>
      </trkpt>
      <trkpt lat="46.110691" lon="7.632118">
        <time>1970-01-01T00:00:00+00:00</time>
        <ele>1746.0</ele>
      </trkpt>
      <trkpt lat="46.110719" lon="7.632045">
        <time>1970-01-01T00:00:00+00:00</time>
        <ele>1748.0</ele>
      </trkpt>
      <trkpt lat="46.110719" lon="7.632045">
        <time>1970-01-01T00:00:00+00:00</time>
        <ele>1748.0</ele>
      </trkpt>
      <trkpt lat="46.110667" lon="7.631966">
        <time>1970-01-01T00:00:00+00:00</time>
        <ele>1749.0</ele>
      </trkpt>
      <trkpt lat="46.110667" lon="7.631966">
        <time>1970-01-01T00:00:00+00:00</time>
        <ele>1749.0</ele>
      </trkpt>
      <trkpt lat="46.11066" lon="7.631893">
        <time>1970-01-01T00:00:00+00:00</time>
        <ele>1751.0</ele>
      </trkpt>
      <trkpt lat="46.11066" lon="7.631893">
        <time>1970-01-01T00:00:00+00:00</time>
        <ele>1751.0</ele>
      </trkpt>
      <trkpt lat="46.110696" lon="7.631852">
        <time>1970-01-01T00:00:00+00:00</time>
        <ele>1751.0</ele>
      </trkpt>
      <trkpt lat="46.110696" lon="7.631852">
        <time>1970-01-01T00:00:00+00:00</time>
        <ele>1751.0</ele>
      </trkpt>
      <trkpt lat="46.110638" lon="7.631778">
        <time>1970-01-01T00:00:00+00:00</time>
        <ele>1754.0</ele>
      </trkpt>
      <trkpt lat="46.110638" lon="7.631778">
        <time>1970-01-01T00:00:00+00:00</time>
        <ele>1754.0</ele>
      </trkpt>
      <trkpt lat="46.110574" lon="7.631695">
        <time>1970-01-01T00:00:00+00:00</time>
        <ele>1758.0</ele>
      </trkpt>
      <trkpt lat="46.110574" lon="7.631695">
        <time>1970-01-01T00:00:00+00:00</time>
        <ele>1758.0</ele>
      </trkpt>
      <trkpt lat="46.110523" lon="7.631682">
        <time>1970-01-01T00:00:00+00:00</time>
        <ele>1760.0</ele>
      </trkpt>
      <trkpt lat="46.110523" lon="7.631682">
        <time>1970-01-01T00:00:00+00:00</time>
        <ele>1760.0</ele>
      </trkpt>
      <trkpt lat="46.110439" lon="7.631718">
        <time>1970-01-01T00:00:00+00:00</time>
        <ele>1761.0</ele>
      </trkpt>
      <trkpt lat="46.110439" lon="7.631718">
        <time>1970-01-01T00:00:00+00:00</time>
        <ele>1761.0</ele>
      </trkpt>
      <trkpt lat="46.11041" lon="7.631809">
        <time>1970-01-01T00:00:00+00:00</time>
        <ele>1760.0</ele>
      </trkpt>
      <trkpt lat="46.11041" lon="7.631809">
        <time>1970-01-01T00:00:00+00:00</time>
        <ele>1760.0</ele>
      </trkpt>
      <trkpt lat="46.110258" lon="7.631858">
        <time>1970-01-01T00:00:00+00:00</time>
        <ele>1762.0</ele>
      </trkpt>
      <trkpt lat="46.110258" lon="7.631858">
        <time>1970-01-01T00:00:00+00:00</time>
        <ele>1762.0</ele>
      </trkpt>
      <trkpt lat="46.110169" lon="7.631858">
        <time>1970-01-01T00:00:00+00:00</time>
        <ele>1765.0</ele>
      </trkpt>
      <trkpt lat="46.110169" lon="7.631858">
        <time>1970-01-01T00:00:00+00:00</time>
        <ele>1765.0</ele>
      </trkpt>
      <trkpt lat="46.110104" lon="7.631834">
        <time>1970-01-01T00:00:00+00:00</time>
        <ele>1767.0</ele>
      </trkpt>
      <trkpt lat="46.110104" lon="7.631834">
        <time>1970-01-01T00:00:00+00:00</time>
        <ele>1767.0</ele>
      </trkpt>
      <trkpt lat="46.10993691675927" lon="7.631930052684281">
        <time>1970-01-01T00:00:00+00:00</time>
        <ele>1768.0</ele>
      </trkpt>
      <trkpt lat="46.109897" lon="7.631953">
        <time>1970-01-01T00:00:00+00:00</time>
        <ele>1768.0</ele>
      </trkpt>
      <trkpt lat="46.109897" lon="7.631953">
        <time>1970-01-01T00:00:00+00:00</time>
        <ele>1768.0</ele>
      </trkpt>
      <trkpt lat="46.109839" lon="7.631949">
        <time>1970-01-01T00:00:00+00:00</time>
        <ele>1769.0</ele>
      </trkpt>
      <trkpt lat="46.109839" lon="7.631949">
        <time>1970-01-01T00:00:00+00:00</time>
        <ele>1769.0</ele>
      </trkpt>
      <trkpt lat="46.109751" lon="7.631996">
        <time>1970-01-01T00:00:00+00:00</time>
        <ele>1768.0</ele>
      </trkpt>
      <trkpt lat="46.109751" lon="7.631996">
        <time>1970-01-01T00:00:00+00:00</time>
        <ele>1768.0</ele>
      </trkpt>
      <trkpt lat="46.109659" lon="7.631946">
        <time>1970-01-01T00:00:00+00:00</time>
        <ele>1771.0</ele>
      </trkpt>
      <trkpt lat="46.109659" lon="7.631946">
        <time>1970-01-01T00:00:00+00:00</time>
        <ele>1771.0</ele>
      </trkpt>
      <trkpt lat="46.109592" lon="7.631943">
        <time>1970-01-01T00:00:00+00:00</time>
        <ele>1773.0</ele>
      </trkpt>
      <trkpt lat="46.109592" lon="7.631943">
        <time>1970-01-01T00:00:00+00:00</time>
        <ele>1773.0</ele>
      </trkpt>
      <trkpt lat="46.109412369904895" lon="7.631956235901745">
        <time>1970-01-01T00:00:00+00:00</time>
        <ele>1777.0</ele>
      </trkpt>
      <trkpt lat="46.109402" lon="7.631957">
        <time>1970-01-01T00:00:00+00:00</time>
        <ele>1777.0</ele>
      </trkpt>
      <trkpt lat="46.109402" lon="7.631957">
        <time>1970-01-01T00:00:00+00:00</time>
        <ele>1777.0</ele>
      </trkpt>
      <trkpt lat="46.109287" lon="7.631913">
        <time>1970-01-01T00:00:00+00:00</time>
        <ele>1781.0</ele>
      </trkpt>
      <trkpt lat="46.109287" lon="7.631913">
        <time>1970-01-01T00:00:00+00:00</time>
        <ele>1781.0</ele>
      </trkpt>
      <trkpt lat="46.109154" lon="7.631812">
        <time>1970-01-01T00:00:00+00:00</time>
        <ele>1786.0</ele>
      </trkpt>
      <trkpt lat="46.109154" lon="7.631812">
        <time>1970-01-01T00:00:00+00:00</time>
        <ele>1786.0</ele>
      </trkpt>
      <trkpt lat="46.109064" lon="7.631798">
        <time>1970-01-01T00:00:00+00:00</time>
        <ele>1788.0</ele>
      </trkpt>
      <trkpt lat="46.109064" lon="7.631798">
        <time>1970-01-01T00:00:00+00:00</time>
        <ele>1788.0</ele>
      </trkpt>
      <trkpt lat="46.10889570859928" lon="7.631706442502196">
        <time>1970-01-01T00:00:00+00:00</time>
        <ele>1794.0</ele>
      </trkpt>
      <trkpt lat="46.108871" lon="7.631693">
        <time>1970-01-01T00:00:00+00:00</time>
        <ele>1794.0</ele>
      </trkpt>
      <trkpt lat="46.108871" lon="7.631693">
        <time>1970-01-01T00:00:00+00:00</time>
        <ele>1794.0</ele>
      </trkpt>
      <trkpt lat="46.108806" lon="7.631732">
        <time>1970-01-01T00:00:00+00:00</time>
        <ele>1794.0</ele>
      </trkpt>
      <trkpt lat="46.108806" lon="7.631732">
        <time>1970-01-01T00:00:00+00:00</time>
        <ele>1794.0</ele>
      </trkpt>
      <trkpt lat="46.108655" lon="7.63175">
        <time>1970-01-01T00:00:00+00:00</time>
        <ele>1793.0</ele>
      </trkpt>
      <trkpt lat="46.108655" lon="7.63175">
        <time>1970-01-01T00:00:00+00:00</time>
        <ele>1793.0</ele>
      </trkpt>
      <trkpt lat="46.108567" lon="7.631702">
        <time>1970-01-01T00:00:00+00:00</time>
        <ele>1795.0</ele>
      </trkpt>
      <trkpt lat="46.108567" lon="7.631702">
        <time>1970-01-01T00:00:00+00:00</time>
        <ele>1795.0</ele>
      </trkpt>
      <trkpt lat="46.108503" lon="7.631703">
        <time>1970-01-01T00:00:00+00:00</time>
        <ele>1795.0</ele>
      </trkpt>
      <trkpt lat="46.108503" lon="7.631703">
        <time>1970-01-01T00:00:00+00:00</time>
        <ele>1795.0</ele>
      </trkpt>
      <trkpt lat="46.108451" lon="7.631735">
        <time>1970-01-01T00:00:00+00:00</time>
        <ele>1793.0</ele>
      </trkpt>
      <trkpt lat="46.108451" lon="7.631735">
        <time>1970-01-01T00:00:00+00:00</time>
        <ele>1793.0</ele>
      </trkpt>
      <trkpt lat="46.108379" lon="7.631725">
        <time>1970-01-01T00:00:00+00:00</time>
        <ele>1794.0</ele>
      </trkpt>
      <trkpt lat="46.108379" lon="7.631725">
        <time>1970-01-01T00:00:00+00:00</time>
        <ele>1794.0</ele>
      </trkpt>
      <trkpt lat="46.10820298946064" lon="7.631778416133834">
        <time>1970-01-01T00:00:00+00:00</time>
        <ele>1794.0</ele>
      </trkpt>
      <trkpt lat="46.108178" lon="7.631786">
        <time>1970-01-01T00:00:00+00:00</time>
        <ele>1794.0</ele>
      </trkpt>
      <trkpt lat="46.108178" lon="7.631786">
        <time>1970-01-01T00:00:00+00:00</time>
        <ele>1794.0</ele>
      </trkpt>
      <trkpt lat="46.108111" lon="7.631783">
        <time>1970-01-01T00:00:00+00:00</time>
        <ele>1794.0</ele>
      </trkpt>
      <trkpt lat="46.108111" lon="7.631783">
        <time>1970-01-01T00:00:00+00:00</time>
        <ele>1794.0</ele>
      </trkpt>
      <trkpt lat="46.108006" lon="7.631702">
        <time>1970-01-01T00:00:00+00:00</time>
        <ele>1799.0</ele>
      </trkpt>
      <trkpt lat="46.108006" lon="7.631702">
        <time>1970-01-01T00:00:00+00:00</time>
        <ele>1799.0</ele>
      </trkpt>
      <trkpt lat="46.10785" lon="7.6317">
        <time>1970-01-01T00:00:00+00:00</time>
        <ele>1804.0</ele>
      </trkpt>
      <trkpt lat="46.10785" lon="7.6317">
        <time>1970-01-01T00:00:00+00:00</time>
        <ele>1804.0</ele>
      </trkpt>
      <trkpt lat="46.10767089193462" lon="7.631676234852167">
        <time>1970-01-01T00:00:00+00:00</time>
        <ele>1811.0</ele>
      </trkpt>
      <trkpt lat="46.107541" lon="7.631659">
        <time>1970-01-01T00:00:00+00:00</time>
        <ele>1815.0</ele>
      </trkpt>
      <trkpt lat="46.107541" lon="7.631659">
        <time>1970-01-01T00:00:00+00:00</time>
        <ele>1815.0</ele>
      </trkpt>
      <trkpt lat="46.10736879765305" lon="7.631733912885392">
        <time>1970-01-01T00:00:00+00:00</time>
        <ele>1819.0</ele>
      </trkpt>
      <trkpt lat="46.107364" lon="7.631736">
        <time>1970-01-01T00:00:00+00:00</time>
        <ele>1820.0</ele>
      </trkpt>
      <trkpt lat="46.107364" lon="7.631736">
        <time>1970-01-01T00:00:00+00:00</time>
        <ele>1820.0</ele>
      </trkpt>
      <trkpt lat="46.107299" lon="7.631746">
        <time>1970-01-01T00:00:00+00:00</time>
        <ele>1822.0</ele>
      </trkpt>
      <trkpt lat="46.107299" lon="7.631746">
        <time>1970-01-01T00:00:00+00:00</time>
        <ele>1822.0</ele>
      </trkpt>
      <trkpt lat="46.1072" lon="7.631816">
        <time>1970-01-01T00:00:00+00:00</time>
        <ele>1824.0</ele>
      </trkpt>
      <trkpt lat="46.1072" lon="7.631816">
        <time>1970-01-01T00:00:00+00:00</time>
        <ele>1824.0</ele>
      </trkpt>
      <trkpt lat="46.107129" lon="7.631897">
        <time>1970-01-01T00:00:00+00:00</time>
        <ele>1824.0</ele>
      </trkpt>
      <trkpt lat="46.107129" lon="7.631897">
        <time>1970-01-01T00:00:00+00:00</time>
        <ele>1824.0</ele>
      </trkpt>
      <trkpt lat="46.107025" lon="7.631888">
        <time>1970-01-01T00:00:00+00:00</time>
        <ele>1828.0</ele>
      </trkpt>
      <trkpt lat="46.107025" lon="7.631888">
        <time>1970-01-01T00:00:00+00:00</time>
        <ele>1828.0</ele>
      </trkpt>
      <trkpt lat="46.10684567324996" lon="7.631908042401475">
        <time>1970-01-01T00:00:00+00:00</time>
        <ele>1833.0</ele>
      </trkpt>
      <trkpt lat="46.106685" lon="7.631926">
        <time>1970-01-01T00:00:00+00:00</time>
        <ele>1839.0</ele>
      </trkpt>
      <trkpt lat="46.106685" lon="7.631926">
        <time>1970-01-01T00:00:00+00:00</time>
        <ele>1839.0</ele>
      </trkpt>
      <trkpt lat="46.10650772398536" lon="7.631969852487834">
        <time>1970-01-01T00:00:00+00:00</time>
        <ele>1845.0</ele>
      </trkpt>
      <trkpt lat="46.106495" lon="7.631973">
        <time>1970-01-01T00:00:00+00:00</time>
        <ele>1845.0</ele>
      </trkpt>
      <trkpt lat="46.106495" lon="7.631973">
        <time>1970-01-01T00:00:00+00:00</time>
        <ele>1845.0</ele>
      </trkpt>
      <trkpt lat="46.10639505001898" lon="7.632188681537978">
        <time>1970-01-01T00:00:00+00:00</time>
        <ele>1841.0</ele>
      </trkpt>
      <trkpt lat="46.106362" lon="7.63226">
        <time>1970-01-01T00:00:00+00:00</time>
        <ele>1839.0</ele>
      </trkpt>
      <trkpt lat="46.106362" lon="7.63226">
        <time>1970-01-01T00:00:00+00:00</time>
        <ele>1839.0</ele>
      </trkpt>
      <trkpt lat="46.106423" lon="7.632369">
        <time>1970-01-01T00:00:00+00:00</time>
        <ele>1831.0</ele>
      </trkpt>
      <trkpt lat="46.106423" lon="7.632369">
        <time>1970-01-01T00:00:00+00:00</time>
        <ele>1831.0</ele>
      </trkpt>
      <trkpt lat="46.10626037811668" lon="7.632479837261254">
        <time>1970-01-01T00:00:00+00:00</time>
        <ele>1835.0</ele>
      </trkpt>
      <trkpt lat="46.106244" lon="7.632491">
        <time>1970-01-01T00:00:00+00:00</time>
        <ele>1835.0</ele>
      </trkpt>
      <trkpt lat="46.106244" lon="7.632491">
        <time>1970-01-01T00:00:00+00:00</time>
        <ele>1835.0</ele>
      </trkpt>
      <trkpt lat="46.106138" lon="7.632512">
        <time>1970-01-01T00:00:00+00:00</time>
        <ele>1839.0</ele>
      </trkpt>
      <trkpt lat="46.106138" lon="7.632512">
        <time>1970-01-01T00:00:00+00:00</time>
        <ele>1839.0</ele>
      </trkpt>
      <trkpt lat="46.106045" lon="7.632563">
        <time>1970-01-01T00:00:00+00:00</time>
        <ele>1841.0</ele>
      </trkpt>
      <trkpt lat="46.106045" lon="7.632563">
        <time>1970-01-01T00:00:00+00:00</time>
        <ele>1841.0</ele>
      </trkpt>
      <trkpt lat="46.10598" lon="7.63255">
        <time>1970-01-01T00:00:00+00:00</time>
        <ele>1844.0</ele>
      </trkpt>
      <trkpt lat="46.10598" lon="7.63255">
        <time>1970-01-01T00:00:00+00:00</time>
        <ele>1844.0</ele>
      </trkpt>
      <trkpt lat="46.105805757196116" lon="7.632614351035526">
        <time>1970-01-01T00:00:00+00:00</time>
        <ele>1846.0</ele>
      </trkpt>
      <trkpt lat="46.105804" lon="7.632615">
        <time>1970-01-01T00:00:00+00:00</time>
        <ele>1846.0</ele>
      </trkpt>
      <trkpt lat="46.105804" lon="7.632615">
        <time>1970-01-01T00:00:00+00:00</time>
        <ele>1846.0</ele>
      </trkpt>
      <trkpt lat="46.10562680653403" lon="7.632570459565931">
        <time>1970-01-01T00:00:00+00:00</time>
        <ele>1854.0</ele>
      </trkpt>
      <trkpt lat="46.105621" lon="7.632569">
        <time>1970-01-01T00:00:00+00:00</time>
        <ele>1854.0</ele>
      </trkpt>
      <trkpt lat="46.105621" lon="7.632569">
        <time>1970-01-01T00:00:00+00:00</time>
        <ele>1854.0</ele>
      </trkpt>
      <trkpt lat="46.105441171989035" lon="7.6325637875938845">
        <time>1970-01-01T00:00:00+00:00</time>
        <ele>1858.0</ele>
      </trkpt>
      <trkpt lat="46.105345" lon="7.632561">
        <time>1970-01-01T00:00:00+00:00</time>
        <ele>1863.0</ele>
      </trkpt>
      <trkpt lat="46.105345" lon="7.632561">
        <time>1970-01-01T00:00:00+00:00</time>
        <ele>1863.0</ele>
      </trkpt>
      <trkpt lat="46.105294" lon="7.632598">
        <time>1970-01-01T00:00:00+00:00</time>
        <ele>1863.0</ele>
      </trkpt>
      <trkpt lat="46.105294" lon="7.632598">
        <time>1970-01-01T00:00:00+00:00</time>
        <ele>1863.0</ele>
      </trkpt>
      <trkpt lat="46.105357" lon="7.632824">
        <time>1970-01-01T00:00:00+00:00</time>
        <ele>1859.0</ele>
      </trkpt>
      <trkpt lat="46.105357" lon="7.632824">
        <time>1970-01-01T00:00:00+00:00</time>
        <ele>1859.0</ele>
      </trkpt>
      <trkpt lat="46.105427" lon="7.633031">
        <time>1970-01-01T00:00:00+00:00</time>
        <ele>1858.0</ele>
      </trkpt>
      <trkpt lat="46.105427" lon="7.633031">
        <time>1970-01-01T00:00:00+00:00</time>
        <ele>1858.0</ele>
      </trkpt>
      <trkpt lat="46.105516" lon="7.633167">
        <time>1970-01-01T00:00:00+00:00</time>
        <ele>1855.0</ele>
      </trkpt>
      <trkpt lat="46.105516" lon="7.633167">
        <time>1970-01-01T00:00:00+00:00</time>
        <ele>1855.0</ele>
      </trkpt>
      <trkpt lat="46.105614" lon="7.633245">
        <time>1970-01-01T00:00:00+00:00</time>
        <ele>1852.0</ele>
      </trkpt>
      <trkpt lat="46.105614" lon="7.633245">
        <time>1970-01-01T00:00:00+00:00</time>
        <ele>1852.0</ele>
      </trkpt>
      <trkpt lat="46.105581" lon="7.633416">
        <time>1970-01-01T00:00:00+00:00</time>
        <ele>1855.0</ele>
      </trkpt>
      <trkpt lat="46.105581" lon="7.633416">
        <time>1970-01-01T00:00:00+00:00</time>
        <ele>1855.0</ele>
      </trkpt>
      <trkpt lat="46.10562" lon="7.633626">
        <time>1970-01-01T00:00:00+00:00</time>
        <ele>1856.0</ele>
      </trkpt>
      <trkpt lat="46.10562" lon="7.633626">
        <time>1970-01-01T00:00:00+00:00</time>
        <ele>1856.0</ele>
      </trkpt>
      <trkpt lat="46.105561" lon="7.633737">
        <time>1970-01-01T00:00:00+00:00</time>
        <ele>1859.0</ele>
      </trkpt>
      <trkpt lat="46.105561" lon="7.633737">
        <time>1970-01-01T00:00:00+00:00</time>
        <ele>1859.0</ele>
      </trkpt>
      <trkpt lat="46.105555" lon="7.633866">
        <time>1970-01-01T00:00:00+00:00</time>
        <ele>1860.0</ele>
      </trkpt>
      <trkpt lat="46.105555" lon="7.633866">
        <time>1970-01-01T00:00:00+00:00</time>
        <ele>1860.0</ele>
      </trkpt>
      <trkpt lat="46.105532" lon="7.633953">
        <time>1970-01-01T00:00:00+00:00</time>
        <ele>1861.0</ele>
      </trkpt>
      <trkpt lat="46.105532" lon="7.633953">
        <time>1970-01-01T00:00:00+00:00</time>
        <ele>1861.0</ele>
      </trkpt>
      <trkpt lat="46.105473" lon="7.633989">
        <time>1970-01-01T00:00:00+00:00</time>
        <ele>1863.0</ele>
      </trkpt>
      <trkpt lat="46.105473" lon="7.633989">
        <time>1970-01-01T00:00:00+00:00</time>
        <ele>1863.0</ele>
      </trkpt>
      <trkpt lat="46.105385" lon="7.634004">
        <time>1970-01-01T00:00:00+00:00</time>
        <ele>1865.0</ele>
      </trkpt>
      <trkpt lat="46.105385" lon="7.634004">
        <time>1970-01-01T00:00:00+00:00</time>
        <ele>1865.0</ele>
      </trkpt>
      <trkpt lat="46.105311" lon="7.63409">
        <time>1970-01-01T00:00:00+00:00</time>
        <ele>1865.0</ele>
      </trkpt>
      <trkpt lat="46.105311" lon="7.63409">
        <time>1970-01-01T00:00:00+00:00</time>
        <ele>1865.0</ele>
      </trkpt>
      <trkpt lat="46.105224" lon="7.634083">
        <time>1970-01-01T00:00:00+00:00</time>
        <ele>1868.0</ele>
      </trkpt>
      <trkpt lat="46.105224" lon="7.634083">
        <time>1970-01-01T00:00:00+00:00</time>
        <ele>1868.0</ele>
      </trkpt>
      <trkpt lat="46.105082" lon="7.634149">
        <time>1970-01-01T00:00:00+00:00</time>
        <ele>1871.0</ele>
      </trkpt>
      <trkpt lat="46.105082" lon="7.634149">
        <time>1970-01-01T00:00:00+00:00</time>
        <ele>1871.0</ele>
      </trkpt>
      <trkpt lat="46.1049118158416" lon="7.6342329575181465">
        <time>1970-01-01T00:00:00+00:00</time>
        <ele>1874.0</ele>
      </trkpt>
      <trkpt lat="46.104857" lon="7.63426">
        <time>1970-01-01T00:00:00+00:00</time>
        <ele>1875.0</ele>
      </trkpt>
      <trkpt lat="46.104857" lon="7.63426">
        <time>1970-01-01T00:00:00+00:00</time>
        <ele>1875.0</ele>
      </trkpt>
      <trkpt lat="46.104733" lon="7.634398">
        <time>1970-01-01T00:00:00+00:00</time>
        <ele>1877.0</ele>
      </trkpt>
      <trkpt lat="46.104733" lon="7.634398">
        <time>1970-01-01T00:00:00+00:00</time>
        <ele>1877.0</ele>
      </trkpt>
      <trkpt lat="46.104692" lon="7.634478">
        <time>1970-01-01T00:00:00+00:00</time>
        <ele>1877.0</ele>
      </trkpt>
      <trkpt lat="46.104692" lon="7.634478">
        <time>1970-01-01T00:00:00+00:00</time>
        <ele>1877.0</ele>
      </trkpt>
      <trkpt lat="46.104646" lon="7.634515">
        <time>1970-01-01T00:00:00+00:00</time>
        <ele>1878.0</ele>
      </trkpt>
      <trkpt lat="46.104646" lon="7.634515">
        <time>1970-01-01T00:00:00+00:00</time>
        <ele>1878.0</ele>
      </trkpt>
      <trkpt lat="46.104581" lon="7.634508">
        <time>1970-01-01T00:00:00+00:00</time>
        <ele>1880.0</ele>
      </trkpt>
      <trkpt lat="46.104581" lon="7.634508">
        <time>1970-01-01T00:00:00+00:00</time>
        <ele>1880.0</ele>
      </trkpt>
      <trkpt lat="46.104507" lon="7.634557">
        <time>1970-01-01T00:00:00+00:00</time>
        <ele>1881.0</ele>
      </trkpt>
      <trkpt lat="46.104507" lon="7.634557">
        <time>1970-01-01T00:00:00+00:00</time>
        <ele>1881.0</ele>
      </trkpt>
      <trkpt lat="46.104385" lon="7.634583">
        <time>1970-01-01T00:00:00+00:00</time>
        <ele>1881.0</ele>
      </trkpt>
      <trkpt lat="46.104385" lon="7.634583">
        <time>1970-01-01T00:00:00+00:00</time>
        <ele>1881.0</ele>
      </trkpt>
      <trkpt lat="46.104354" lon="7.634662">
        <time>1970-01-01T00:00:00+00:00</time>
        <ele>1878.0</ele>
      </trkpt>
      <trkpt lat="46.104354" lon="7.634662">
        <time>1970-01-01T00:00:00+00:00</time>
        <ele>1878.0</ele>
      </trkpt>
      <trkpt lat="46.104317" lon="7.634739">
        <time>1970-01-01T00:00:00+00:00</time>
        <ele>1876.0</ele>
      </trkpt>
      <trkpt lat="46.104317" lon="7.634739">
        <time>1970-01-01T00:00:00+00:00</time>
        <ele>1876.0</ele>
      </trkpt>
      <trkpt lat="46.104227" lon="7.634811">
        <time>1970-01-01T00:00:00+00:00</time>
        <ele>1874.0</ele>
      </trkpt>
      <trkpt lat="46.104227" lon="7.634811">
        <time>1970-01-01T00:00:00+00:00</time>
        <ele>1874.0</ele>
      </trkpt>
      <trkpt lat="46.104097" lon="7.634762">
        <time>1970-01-01T00:00:00+00:00</time>
        <ele>1876.0</ele>
      </trkpt>
      <trkpt lat="46.104097" lon="7.634762">
        <time>1970-01-01T00:00:00+00:00</time>
        <ele>1876.0</ele>
      </trkpt>
      <trkpt lat="46.103968" lon="7.634733">
        <time>1970-01-01T00:00:00+00:00</time>
        <ele>1878.0</ele>
      </trkpt>
      <trkpt lat="46.103968" lon="7.634733">
        <time>1970-01-01T00:00:00+00:00</time>
        <ele>1878.0</ele>
      </trkpt>
      <trkpt lat="46.103862" lon="7.634702">
        <time>1970-01-01T00:00:00+00:00</time>
        <ele>1880.0</ele>
      </trkpt>
      <trkpt lat="46.103862" lon="7.634702">
        <time>1970-01-01T00:00:00+00:00</time>
        <ele>1880.0</ele>
      </trkpt>
      <trkpt lat="46.10381" lon="7.634648">
        <time>1970-01-01T00:00:00+00:00</time>
        <ele>1882.0</ele>
      </trkpt>
      <trkpt lat="46.10381" lon="7.634648">
        <time>1970-01-01T00:00:00+00:00</time>
        <ele>1882.0</ele>
      </trkpt>
      <trkpt lat="46.103761" lon="7.634633">
        <time>1970-01-01T00:00:00+00:00</time>
        <ele>1883.0</ele>
      </trkpt>
      <trkpt lat="46.103761" lon="7.634633">
        <time>1970-01-01T00:00:00+00:00</time>
        <ele>1883.0</ele>
      </trkpt>
      <trkpt lat="46.103688" lon="7.634563">
        <time>1970-01-01T00:00:00+00:00</time>
        <ele>1886.0</ele>
      </trkpt>
      <trkpt lat="46.103688" lon="7.634563">
        <time>1970-01-01T00:00:00+00:00</time>
        <ele>1886.0</ele>
      </trkpt>
      <trkpt lat="46.103594" lon="7.634539">
        <time>1970-01-01T00:00:00+00:00</time>
        <ele>1888.0</ele>
      </trkpt>
      <trkpt lat="46.103594" lon="7.634539">
        <time>1970-01-01T00:00:00+00:00</time>
        <ele>1888.0</ele>
      </trkpt>
      <trkpt lat="46.103486" lon="7.634462">
        <time>1970-01-01T00:00:00+00:00</time>
        <ele>1894.0</ele>
      </trkpt>
      <trkpt lat="46.103486" lon="7.634462">
        <time>1970-01-01T00:00:00+00:00</time>
        <ele>1894.0</ele>
      </trkpt>
      <trkpt lat="46.103327" lon="7.634437">
        <time>1970-01-01T00:00:00+00:00</time>
        <ele>1899.0</ele>
      </trkpt>
      <trkpt lat="46.103327" lon="7.634437">
        <time>1970-01-01T00:00:00+00:00</time>
        <ele>1899.0</ele>
      </trkpt>
      <trkpt lat="46.10315282368078" lon="7.63437227874477">
        <time>1970-01-01T00:00:00+00:00</time>
        <ele>1905.0</ele>
      </trkpt>
      <trkpt lat="46.103144" lon="7.634369">
        <time>1970-01-01T00:00:00+00:00</time>
        <ele>1906.0</ele>
      </trkpt>
      <trkpt lat="46.103144" lon="7.634369">
        <time>1970-01-01T00:00:00+00:00</time>
        <ele>1906.0</ele>
      </trkpt>
      <trkpt lat="46.10303" lon="7.634422">
        <time>1970-01-01T00:00:00+00:00</time>
        <ele>1908.0</ele>
      </trkpt>
      <trkpt lat="46.10303" lon="7.634422">
        <time>1970-01-01T00:00:00+00:00</time>
        <ele>1908.0</ele>
      </trkpt>
      <trkpt lat="46.102931" lon="7.634401">
        <time>1970-01-01T00:00:00+00:00</time>
        <ele>1914.0</ele>
      </trkpt>
      <trkpt lat="46.102931" lon="7.634401">
        <time>1970-01-01T00:00:00+00:00</time>
        <ele>1914.0</ele>
      </trkpt>
      <trkpt lat="46.102862" lon="7.634431">
        <time>1970-01-01T00:00:00+00:00</time>
        <ele>1916.0</ele>
      </trkpt>
      <trkpt lat="46.102862" lon="7.634431">
        <time>1970-01-01T00:00:00+00:00</time>
        <ele>1916.0</ele>
      </trkpt>
      <trkpt lat="46.102775" lon="7.63447">
        <time>1970-01-01T00:00:00+00:00</time>
        <ele>1918.0</ele>
      </trkpt>
      <trkpt lat="46.102775" lon="7.63447">
        <time>1970-01-01T00:00:00+00:00</time>
        <ele>1918.0</ele>
      </trkpt>
      <trkpt lat="46.102739" lon="7.634523">
        <time>1970-01-01T00:00:00+00:00</time>
        <ele>1916.0</ele>
      </trkpt>
      <trkpt lat="46.102739" lon="7.634523">
        <time>1970-01-01T00:00:00+00:00</time>
        <ele>1916.0</ele>
      </trkpt>
      <trkpt lat="46.10259344519923" lon="7.634675392945769">
        <time>1970-01-01T00:00:00+00:00</time>
        <ele>1915.0</ele>
      </trkpt>
      <trkpt lat="46.10259" lon="7.634679">
        <time>1970-01-01T00:00:00+00:00</time>
        <ele>1915.0</ele>
      </trkpt>
      <trkpt lat="46.10259" lon="7.634679">
        <time>1970-01-01T00:00:00+00:00</time>
        <ele>1915.0</ele>
      </trkpt>
      <trkpt lat="46.102532" lon="7.634657">
        <time>1970-01-01T00:00:00+00:00</time>
        <ele>1920.0</ele>
      </trkpt>
      <trkpt lat="46.102532" lon="7.634657">
        <time>1970-01-01T00:00:00+00:00</time>
        <ele>1920.0</ele>
      </trkpt>
      <trkpt lat="46.102476" lon="7.634675">
        <time>1970-01-01T00:00:00+00:00</time>
        <ele>1922.0</ele>
      </trkpt>
      <trkpt lat="46.102476" lon="7.634675">
        <time>1970-01-01T00:00:00+00:00</time>
        <ele>1922.0</ele>
      </trkpt>
      <trkpt lat="46.102423" lon="7.63472">
        <time>1970-01-01T00:00:00+00:00</time>
        <ele>1922.0</ele>
      </trkpt>
      <trkpt lat="46.102423" lon="7.63472">
        <time>1970-01-01T00:00:00+00:00</time>
        <ele>1922.0</ele>
      </trkpt>
      <trkpt lat="46.102378" lon="7.634765">
        <time>1970-01-01T00:00:00+00:00</time>
        <ele>1922.0</ele>
      </trkpt>
      <trkpt lat="46.102378" lon="7.634765">
        <time>1970-01-01T00:00:00+00:00</time>
        <ele>1922.0</ele>
      </trkpt>
      <trkpt lat="46.102267" lon="7.634889">
        <time>1970-01-01T00:00:00+00:00</time>
        <ele>1921.0</ele>
      </trkpt>
      <trkpt lat="46.102267" lon="7.634889">
        <time>1970-01-01T00:00:00+00:00</time>
        <ele>1921.0</ele>
      </trkpt>
      <trkpt lat="46.102208" lon="7.634914">
        <time>1970-01-01T00:00:00+00:00</time>
        <ele>1921.0</ele>
      </trkpt>
      <trkpt lat="46.102208" lon="7.634914">
        <time>1970-01-01T00:00:00+00:00</time>
        <ele>1921.0</ele>
      </trkpt>
      <trkpt lat="46.102144" lon="7.634908">
        <time>1970-01-01T00:00:00+00:00</time>
        <ele>1922.0</ele>
      </trkpt>
      <trkpt lat="46.102144" lon="7.634908">
        <time>1970-01-01T00:00:00+00:00</time>
        <ele>1922.0</ele>
      </trkpt>
      <trkpt lat="46.102066" lon="7.634978">
        <time>1970-01-01T00:00:00+00:00</time>
        <ele>1920.0</ele>
      </trkpt>
      <trkpt lat="46.102066" lon="7.634978">
        <time>1970-01-01T00:00:00+00:00</time>
        <ele>1920.0</ele>
      </trkpt>
      <trkpt lat="46.10189878285583" lon="7.635073552653813">
        <time>1970-01-01T00:00:00+00:00</time>
        <ele>1919.0</ele>
      </trkpt>
      <trkpt lat="46.1018" lon="7.63513">
        <time>1970-01-01T00:00:00+00:00</time>
        <ele>1918.0</ele>
      </trkpt>
      <trkpt lat="46.1018" lon="7.63513">
        <time>1970-01-01T00:00:00+00:00</time>
        <ele>1918.0</ele>
      </trkpt>
      <trkpt lat="46.101728" lon="7.63529">
        <time>1970-01-01T00:00:00+00:00</time>
        <ele>1912.0</ele>
      </trkpt>
      <trkpt lat="46.101728" lon="7.63529">
        <time>1970-01-01T00:00:00+00:00</time>
        <ele>1912.0</ele>
      </trkpt>
      <trkpt lat="46.10167" lon="7.635329">
        <time>1970-01-01T00:00:00+00:00</time>
        <ele>1911.0</ele>
      </trkpt>
      <trkpt lat="46.10167" lon="7.635329">
        <time>1970-01-01T00:00:00+00:00</time>
        <ele>1911.0</ele>
      </trkpt>
      <trkpt lat="46.10149683943029" lon="7.6353991598860045">
        <time>1970-01-01T00:00:00+00:00</time>
        <ele>1906.0</ele>
      </trkpt>
      <trkpt lat="46.101438" lon="7.635423">
        <time>1970-01-01T00:00:00+00:00</time>
        <ele>1905.0</ele>
      </trkpt>
      <trkpt lat="46.101438" lon="7.635423">
        <time>1970-01-01T00:00:00+00:00</time>
        <ele>1905.0</ele>
      </trkpt>
      <trkpt lat="46.101389" lon="7.635418">
        <time>1970-01-01T00:00:00+00:00</time>
        <ele>1906.0</ele>
      </trkpt>
      <trkpt lat="46.101389" lon="7.635418">
        <time>1970-01-01T00:00:00+00:00</time>
        <ele>1906.0</ele>
      </trkpt>
      <trkpt lat="46.101357" lon="7.635353">
        <time>1970-01-01T00:00:00+00:00</time>
        <ele>1911.0</ele>
      </trkpt>
      <trkpt lat="46.101357" lon="7.635353">
        <time>1970-01-01T00:00:00+00:00</time>
        <ele>1911.0</ele>
      </trkpt>
      <trkpt lat="46.10138" lon="7.635447">
        <time>1970-01-01T00:00:00+00:00</time>
        <ele>1904.0</ele>
      </trkpt>
      <trkpt lat="46.10138" lon="7.635447">
        <time>1970-01-01T00:00:00+00:00</time>
        <ele>1904.0</ele>
      </trkpt>
      <trkpt lat="46.101287" lon="7.635527">
        <time>1970-01-01T00:00:00+00:00</time>
        <ele>1899.0</ele>
      </trkpt>
      <trkpt lat="46.101287" lon="7.635527">
        <time>1970-01-01T00:00:00+00:00</time>
        <ele>1899.0</ele>
      </trkpt>
      <trkpt lat="46.10116" lon="7.635619">
        <time>1970-01-01T00:00:00+00:00</time>
        <ele>1894.0</ele>
      </trkpt>
      <trkpt lat="46.10116" lon="7.635619">
        <time>1970-01-01T00:00:00+00:00</time>
        <ele>1894.0</ele>
      </trkpt>
      <trkpt lat="46.101112" lon="7.635552">
        <time>1970-01-01T00:00:00+00:00</time>
        <ele>1901.0</ele>
      </trkpt>
      <trkpt lat="46.101112" lon="7.635552">
        <time>1970-01-01T00:00:00+00:00</time>
        <ele>1901.0</ele>
      </trkpt>
      <trkpt lat="46.101155" lon="7.635462">
        <time>1970-01-01T00:00:00+00:00</time>
        <ele>1906.0</ele>
      </trkpt>
      <trkpt lat="46.101155" lon="7.635462">
        <time>1970-01-01T00:00:00+00:00</time>
        <ele>1906.0</ele>
      </trkpt>
      <trkpt lat="46.101092" lon="7.635539">
        <time>1970-01-01T00:00:00+00:00</time>
        <ele>1902.0</ele>
      </trkpt>
      <trkpt lat="46.101092" lon="7.635539">
        <time>1970-01-01T00:00:00+00:00</time>
        <ele>1902.0</ele>
      </trkpt>
      <trkpt lat="46.101262" lon="7.635522">
        <time>1970-01-01T00:00:00+00:00</time>
        <ele>1900.0</ele>
      </trkpt>
      <trkpt lat="46.101262" lon="7.635522">
        <time>1970-01-01T00:00:00+00:00</time>
        <ele>1900.0</ele>
      </trkpt>
      <trkpt lat="46.101334" lon="7.635513">
        <time>1970-01-01T00:00:00+00:00</time>
        <ele>1899.0</ele>
      </trkpt>
      <trkpt lat="46.101334" lon="7.635513">
        <time>1970-01-01T00:00:00+00:00</time>
        <ele>1899.0</ele>
      </trkpt>
      <trkpt lat="46.101427" lon="7.635605">
        <time>1970-01-01T00:00:00+00:00</time>
        <ele>1892.0</ele>
      </trkpt>
      <trkpt lat="46.101427" lon="7.635605">
        <time>1970-01-01T00:00:00+00:00</time>
        <ele>1892.0</ele>
      </trkpt>
      <trkpt lat="46.101373" lon="7.635525">
        <time>1970-01-01T00:00:00+00:00</time>
        <ele>1898.0</ele>
      </trkpt>
      <trkpt lat="46.101373" lon="7.635525">
        <time>1970-01-01T00:00:00+00:00</time>
        <ele>1898.0</ele>
      </trkpt>
      <trkpt lat="46.1012" lon="7.635572">
        <time>1970-01-01T00:00:00+00:00</time>
        <ele>1897.0</ele>
      </trkpt>
      <trkpt lat="46.1012" lon="7.635572">
        <time>1970-01-01T00:00:00+00:00</time>
        <ele>1897.0</ele>
      </trkpt>
      <trkpt lat="46.101151" lon="7.6356">
        <time>1970-01-01T00:00:00+00:00</time>
        <ele>1896.0</ele>
      </trkpt>
      <trkpt lat="46.101151" lon="7.6356">
        <time>1970-01-01T00:00:00+00:00</time>
        <ele>1896.0</ele>
      </trkpt>
      <trkpt lat="46.101207" lon="7.635693">
        <time>1970-01-01T00:00:00+00:00</time>
        <ele>1888.0</ele>
      </trkpt>
      <trkpt lat="46.101207" lon="7.635693">
        <time>1970-01-01T00:00:00+00:00</time>
        <ele>1888.0</ele>
      </trkpt>
      <trkpt lat="46.101138" lon="7.635644">
        <time>1970-01-01T00:00:00+00:00</time>
        <ele>1893.0</ele>
      </trkpt>
      <trkpt lat="46.101138" lon="7.635644">
        <time>1970-01-01T00:00:00+00:00</time>
        <ele>1893.0</ele>
      </trkpt>
      <trkpt lat="46.100993" lon="7.635622">
        <time>1970-01-01T00:00:00+00:00</time>
        <ele>1899.0</ele>
      </trkpt>
      <trkpt lat="46.100993" lon="7.635622">
        <time>1970-01-01T00:00:00+00:00</time>
        <ele>1899.0</ele>
      </trkpt>
      <trkpt lat="46.100938" lon="7.635675">
        <time>1970-01-01T00:00:00+00:00</time>
        <ele>1897.0</ele>
      </trkpt>
      <trkpt lat="46.100938" lon="7.635675">
        <time>1970-01-01T00:00:00+00:00</time>
        <ele>1897.0</ele>
      </trkpt>
      <trkpt lat="46.100763673128725" lon="7.635738869758872">
        <time>1970-01-01T00:00:00+00:00</time>
        <ele>1898.0</ele>
      </trkpt>
      <trkpt lat="46.100706" lon="7.63576">
        <time>1970-01-01T00:00:00+00:00</time>
        <ele>1898.0</ele>
      </trkpt>
      <trkpt lat="46.100706" lon="7.63576">
        <time>1970-01-01T00:00:00+00:00</time>
        <ele>1898.0</ele>
      </trkpt>
      <trkpt lat="46.100562" lon="7.635864">
        <time>1970-01-01T00:00:00+00:00</time>
        <ele>1895.0</ele>
      </trkpt>
      <trkpt lat="46.100562" lon="7.635864">
        <time>1970-01-01T00:00:00+00:00</time>
        <ele>1895.0</ele>
      </trkpt>
      <trkpt lat="46.100439" lon="7.635991">
        <time>1970-01-01T00:00:00+00:00</time>
        <ele>1897.0</ele>
      </trkpt>
      <trkpt lat="46.100439" lon="7.635991">
        <time>1970-01-01T00:00:00+00:00</time>
        <ele>1897.0</ele>
      </trkpt>
      <trkpt lat="46.100328" lon="7.636163">
        <time>1970-01-01T00:00:00+00:00</time>
        <ele>1895.0</ele>
      </trkpt>
      <trkpt lat="46.100328" lon="7.636163">
        <time>1970-01-01T00:00:00+00:00</time>
        <ele>1895.0</ele>
      </trkpt>
      <trkpt lat="46.100234" lon="7.636255">
        <time>1970-01-01T00:00:00+00:00</time>
        <ele>1895.0</ele>
      </trkpt>
      <trkpt lat="46.100234" lon="7.636255">
        <time>1970-01-01T00:00:00+00:00</time>
        <ele>1895.0</ele>
      </trkpt>
      <trkpt lat="46.100183" lon="7.636246">
        <time>1970-01-01T00:00:00+00:00</time>
        <ele>1897.0</ele>
      </trkpt>
      <trkpt lat="46.100183" lon="7.636246">
        <time>1970-01-01T00:00:00+00:00</time>
        <ele>1897.0</ele>
      </trkpt>
      <trkpt lat="46.100142" lon="7.636317">
        <time>1970-01-01T00:00:00+00:00</time>
        <ele>1895.0</ele>
      </trkpt>
      <trkpt lat="46.100142" lon="7.636317">
        <time>1970-01-01T00:00:00+00:00</time>
        <ele>1895.0</ele>
      </trkpt>
      <trkpt lat="46.100051" lon="7.636528">
        <time>1970-01-01T00:00:00+00:00</time>
        <ele>1891.0</ele>
      </trkpt>
      <trkpt lat="46.100051" lon="7.636528">
        <time>1970-01-01T00:00:00+00:00</time>
        <ele>1891.0</ele>
      </trkpt>
      <trkpt lat="46.099946" lon="7.636633">
        <time>1970-01-01T00:00:00+00:00</time>
        <ele>1891.0</ele>
      </trkpt>
      <trkpt lat="46.099946" lon="7.636633">
        <time>1970-01-01T00:00:00+00:00</time>
        <ele>1891.0</ele>
      </trkpt>
      <trkpt lat="46.099847" lon="7.636665">
        <time>1970-01-01T00:00:00+00:00</time>
        <ele>1892.0</ele>
      </trkpt>
      <trkpt lat="46.099847" lon="7.636665">
        <time>1970-01-01T00:00:00+00:00</time>
        <ele>1892.0</ele>
      </trkpt>
      <trkpt lat="46.099701" lon="7.636672">
        <time>1970-01-01T00:00:00+00:00</time>
        <ele>1895.0</ele>
      </trkpt>
      <trkpt lat="46.099701" lon="7.636672">
        <time>1970-01-01T00:00:00+00:00</time>
        <ele>1895.0</ele>
      </trkpt>
      <trkpt lat="46.099543" lon="7.636723">
        <time>1970-01-01T00:00:00+00:00</time>
        <ele>1897.0</ele>
      </trkpt>
      <trkpt lat="46.099543" lon="7.636723">
        <time>1970-01-01T00:00:00+00:00</time>
        <ele>1897.0</ele>
      </trkpt>
      <trkpt lat="46.099444" lon="7.63676">
        <time>1970-01-01T00:00:00+00:00</time>
        <ele>1898.0</ele>
      </trkpt>
      <trkpt lat="46.099444" lon="7.63676">
        <time>1970-01-01T00:00:00+00:00</time>
        <ele>1898.0</ele>
      </trkpt>
      <trkpt lat="46.099294" lon="7.636819">
        <time>1970-01-01T00:00:00+00:00</time>
        <ele>1903.0</ele>
      </trkpt>
      <trkpt lat="46.099294" lon="7.636819">
        <time>1970-01-01T00:00:00+00:00</time>
        <ele>1903.0</ele>
      </trkpt>
      <trkpt lat="46.099174" lon="7.636787">
        <time>1970-01-01T00:00:00+00:00</time>
        <ele>1908.0</ele>
      </trkpt>
      <trkpt lat="46.099174" lon="7.636787">
        <time>1970-01-01T00:00:00+00:00</time>
        <ele>1908.0</ele>
      </trkpt>
      <trkpt lat="46.098996613010364" lon="7.636829902899819">
        <time>1970-01-01T00:00:00+00:00</time>
        <ele>1912.0</ele>
      </trkpt>
      <trkpt lat="46.098959" lon="7.636839">
        <time>1970-01-01T00:00:00+00:00</time>
        <ele>1913.0</ele>
      </trkpt>
      <trkpt lat="46.098959" lon="7.636839">
        <time>1970-01-01T00:00:00+00:00</time>
        <ele>1913.0</ele>
      </trkpt>
      <trkpt lat="46.09892" lon="7.636912">
        <time>1970-01-01T00:00:00+00:00</time>
        <ele>1912.0</ele>
      </trkpt>
      <trkpt lat="46.09892" lon="7.636912">
        <time>1970-01-01T00:00:00+00:00</time>
        <ele>1912.0</ele>
      </trkpt>
      <trkpt lat="46.09884033477624" lon="7.63714455807744">
        <time>1970-01-01T00:00:00+00:00</time>
        <ele>1910.0</ele>
      </trkpt>
      <trkpt lat="46.098821" lon="7.637201">
        <time>1970-01-01T00:00:00+00:00</time>
        <ele>1909.0</ele>
      </trkpt>
      <trkpt lat="46.098821" lon="7.637201">
        <time>1970-01-01T00:00:00+00:00</time>
        <ele>1909.0</ele>
      </trkpt>
      <trkpt lat="46.098803" lon="7.637427">
        <time>1970-01-01T00:00:00+00:00</time>
        <ele>1908.0</ele>
      </trkpt>
      <trkpt lat="46.098803" lon="7.637427">
        <time>1970-01-01T00:00:00+00:00</time>
        <ele>1908.0</ele>
      </trkpt>
      <trkpt lat="46.098749" lon="7.637553">
        <time>1970-01-01T00:00:00+00:00</time>
        <ele>1908.0</ele>
      </trkpt>
      <trkpt lat="46.098749" lon="7.637553">
        <time>1970-01-01T00:00:00+00:00</time>
        <ele>1908.0</ele>
      </trkpt>
      <trkpt lat="46.098742" lon="7.637669">
        <time>1970-01-01T00:00:00+00:00</time>
        <ele>1908.0</ele>
      </trkpt>
      <trkpt lat="46.098742" lon="7.637669">
        <time>1970-01-01T00:00:00+00:00</time>
        <ele>1908.0</ele>
      </trkpt>
      <trkpt lat="46.098658" lon="7.637804">
        <time>1970-01-01T00:00:00+00:00</time>
        <ele>1908.0</ele>
      </trkpt>
      <trkpt lat="46.098658" lon="7.637804">
        <time>1970-01-01T00:00:00+00:00</time>
        <ele>1908.0</ele>
      </trkpt>
      <trkpt lat="46.098563" lon="7.637983">
        <time>1970-01-01T00:00:00+00:00</time>
        <ele>1908.0</ele>
      </trkpt>
      <trkpt lat="46.098563" lon="7.637983">
        <time>1970-01-01T00:00:00+00:00</time>
        <ele>1908.0</ele>
      </trkpt>
      <trkpt lat="46.098403224846365" lon="7.638102122303896">
        <time>1970-01-01T00:00:00+00:00</time>
        <ele>1909.0</ele>
      </trkpt>
      <trkpt lat="46.098394" lon="7.638109">
        <time>1970-01-01T00:00:00+00:00</time>
        <ele>1909.0</ele>
      </trkpt>
      <trkpt lat="46.098394" lon="7.638109">
        <time>1970-01-01T00:00:00+00:00</time>
        <ele>1909.0</ele>
      </trkpt>
      <trkpt lat="46.098278" lon="7.638142">
        <time>1970-01-01T00:00:00+00:00</time>
        <ele>1911.0</ele>
      </trkpt>
      <trkpt lat="46.098278" lon="7.638142">
        <time>1970-01-01T00:00:00+00:00</time>
        <ele>1911.0</ele>
      </trkpt>
      <trkpt lat="46.098217" lon="7.638131">
        <time>1970-01-01T00:00:00+00:00</time>
        <ele>1912.0</ele>
      </trkpt>
      <trkpt lat="46.098217" lon="7.638131">
        <time>1970-01-01T00:00:00+00:00</time>
        <ele>1912.0</ele>
      </trkpt>
      <trkpt lat="46.098161" lon="7.638151">
        <time>1970-01-01T00:00:00+00:00</time>
        <ele>1913.0</ele>
      </trkpt>
      <trkpt lat="46.098161" lon="7.638151">
        <time>1970-01-01T00:00:00+00:00</time>
        <ele>1913.0</ele>
      </trkpt>
      <trkpt lat="46.098105" lon="7.638205">
        <time>1970-01-01T00:00:00+00:00</time>
        <ele>1913.0</ele>
      </trkpt>
      <trkpt lat="46.098105" lon="7.638205">
        <time>1970-01-01T00:00:00+00:00</time>
        <ele>1913.0</ele>
      </trkpt>
      <trkpt lat="46.09794669222994" lon="7.638328128265605">
        <time>1970-01-01T00:00:00+00:00</time>
        <ele>1914.0</ele>
      </trkpt>
      <trkpt lat="46.097889" lon="7.638373">
        <time>1970-01-01T00:00:00+00:00</time>
        <ele>1914.0</ele>
      </trkpt>
      <trkpt lat="46.097889" lon="7.638373">
        <time>1970-01-01T00:00:00+00:00</time>
        <ele>1914.0</ele>
      </trkpt>
      <trkpt lat="46.097711" lon="7.638359">
        <time>1970-01-01T00:00:00+00:00</time>
        <ele>1916.0</ele>
      </trkpt>
      <trkpt lat="46.097711" lon="7.638359">
        <time>1970-01-01T00:00:00+00:00</time>
        <ele>1916.0</ele>
      </trkpt>
      <trkpt lat="46.097637" lon="7.638416">
        <time>1970-01-01T00:00:00+00:00</time>
        <ele>1916.0</ele>
      </trkpt>
      <trkpt lat="46.097637" lon="7.638416">
        <time>1970-01-01T00:00:00+00:00</time>
        <ele>1916.0</ele>
      </trkpt>
      <trkpt lat="46.09761" lon="7.63862">
        <time>1970-01-01T00:00:00+00:00</time>
        <ele>1914.0</ele>
      </trkpt>
      <trkpt lat="46.09761" lon="7.63862">
        <time>1970-01-01T00:00:00+00:00</time>
        <ele>1914.0</ele>
      </trkpt>
      <trkpt lat="46.097715770948106" lon="7.638829793616078">
        <time>1970-01-01T00:00:00+00:00</time>
        <ele>1913.0</ele>
      </trkpt>
      <trkpt lat="46.097731" lon="7.63886">
        <time>1970-01-01T00:00:00+00:00</time>
        <ele>1912.0</ele>
      </trkpt>
      <trkpt lat="46.097731" lon="7.63886">
        <time>1970-01-01T00:00:00+00:00</time>
        <ele>1912.0</ele>
      </trkpt>
      <trkpt lat="46.097762" lon="7.63902">
        <time>1970-01-01T00:00:00+00:00</time>
        <ele>1912.0</ele>
      </trkpt>
      <trkpt lat="46.097762" lon="7.63902">
        <time>1970-01-01T00:00:00+00:00</time>
        <ele>1912.0</ele>
      </trkpt>
      <trkpt lat="46.097807" lon="7.639088">
        <time>1970-01-01T00:00:00+00:00</time>
        <ele>1912.0</ele>
      </trkpt>
      <trkpt lat="46.097807" lon="7.639088">
        <time>1970-01-01T00:00:00+00:00</time>
        <ele>1912.0</ele>
      </trkpt>
      <trkpt lat="46.097925" lon="7.639036">
        <time>1970-01-01T00:00:00+00:00</time>
        <ele>1912.0</ele>
      </trkpt>
      <trkpt lat="46.097925" lon="7.639036">
        <time>1970-01-01T00:00:00+00:00</time>
        <ele>1912.0</ele>
      </trkpt>
      <trkpt lat="46.097982" lon="7.639031">
        <time>1970-01-01T00:00:00+00:00</time>
        <ele>1912.0</ele>
      </trkpt>
      <trkpt lat="46.097982" lon="7.639031">
        <time>1970-01-01T00:00:00+00:00</time>
        <ele>1912.0</ele>
      </trkpt>
      <trkpt lat="46.098077" lon="7.639064">
        <time>1970-01-01T00:00:00+00:00</time>
        <ele>1912.0</ele>
      </trkpt>
      <trkpt lat="46.098077" lon="7.639064">
        <time>1970-01-01T00:00:00+00:00</time>
        <ele>1912.0</ele>
      </trkpt>
      <trkpt lat="46.098112" lon="7.639137">
        <time>1970-01-01T00:00:00+00:00</time>
        <ele>1912.0</ele>
      </trkpt>
      <trkpt lat="46.098112" lon="7.639137">
        <time>1970-01-01T00:00:00+00:00</time>
        <ele>1912.0</ele>
      </trkpt>
      <trkpt lat="46.09818" lon="7.639194">
        <time>1970-01-01T00:00:00+00:00</time>
        <ele>1912.0</ele>
      </trkpt>
      <trkpt lat="46.09818" lon="7.639194">
        <time>1970-01-01T00:00:00+00:00</time>
        <ele>1912.0</ele>
      </trkpt>
      <trkpt lat="46.098257" lon="7.639342">
        <time>1970-01-01T00:00:00+00:00</time>
        <ele>1912.0</ele>
      </trkpt>
      <trkpt lat="46.098257" lon="7.639342">
        <time>1970-01-01T00:00:00+00:00</time>
        <ele>1912.0</ele>
      </trkpt>
      <trkpt lat="46.098308" lon="7.639424">
        <time>1970-01-01T00:00:00+00:00</time>
        <ele>1912.0</ele>
      </trkpt>
      <trkpt lat="46.098308" lon="7.639424">
        <time>1970-01-01T00:00:00+00:00</time>
        <ele>1912.0</ele>
      </trkpt>
      <trkpt lat="46.098373" lon="7.63946">
        <time>1970-01-01T00:00:00+00:00</time>
        <ele>1911.0</ele>
      </trkpt>
      <trkpt lat="46.098373" lon="7.63946">
        <time>1970-01-01T00:00:00+00:00</time>
        <ele>1911.0</ele>
      </trkpt>
      <trkpt lat="46.098364" lon="7.639624">
        <time>1970-01-01T00:00:00+00:00</time>
        <ele>1912.0</ele>
      </trkpt>
      <trkpt lat="46.098364" lon="7.639624">
        <time>1970-01-01T00:00:00+00:00</time>
        <ele>1912.0</ele>
      </trkpt>
      <trkpt lat="46.09847656784336" lon="7.639826307242983">
        <time>1970-01-01T00:00:00+00:00</time>
        <ele>1910.0</ele>
      </trkpt>
      <trkpt lat="46.098507" lon="7.639881">
        <time>1970-01-01T00:00:00+00:00</time>
        <ele>1910.0</ele>
      </trkpt>
      <trkpt lat="46.098507" lon="7.639881">
        <time>1970-01-01T00:00:00+00:00</time>
        <ele>1910.0</ele>
      </trkpt>
      <trkpt lat="46.098525" lon="7.639967">
        <time>1970-01-01T00:00:00+00:00</time>
        <ele>1910.0</ele>
      </trkpt>
      <trkpt lat="46.098525" lon="7.639967">
        <time>1970-01-01T00:00:00+00:00</time>
        <ele>1910.0</ele>
      </trkpt>
      <trkpt lat="46.098606" lon="7.639935">
        <time>1970-01-01T00:00:00+00:00</time>
        <ele>1908.0</ele>
      </trkpt>
      <trkpt lat="46.098606" lon="7.639935">
        <time>1970-01-01T00:00:00+00:00</time>
        <ele>1908.0</ele>
      </trkpt>
      <trkpt lat="46.0987" lon="7.639917">
        <time>1970-01-01T00:00:00+00:00</time>
        <ele>1906.0</ele>
      </trkpt>
      <trkpt lat="46.0987" lon="7.639917">
        <time>1970-01-01T00:00:00+00:00</time>
        <ele>1906.0</ele>
      </trkpt>
      <trkpt lat="46.098879251601986" lon="7.63993839216649">
        <time>1970-01-01T00:00:00+00:00</time>
        <ele>1904.0</ele>
      </trkpt>
      <trkpt lat="46.09905850320396" lon="7.639959784332982">
        <time>1970-01-01T00:00:00+00:00</time>
        <ele>1905.0</ele>
      </trkpt>
      <trkpt lat="46.099186" lon="7.639975">
        <time>1970-01-01T00:00:00+00:00</time>
        <ele>1909.0</ele>
      </trkpt>
      <trkpt lat="46.099186" lon="7.639975">
        <time>1970-01-01T00:00:00+00:00</time>
        <ele>1909.0</ele>
      </trkpt>
      <trkpt lat="46.099238" lon="7.640004">
        <time>1970-01-01T00:00:00+00:00</time>
        <ele>1912.0</ele>
      </trkpt>
      <trkpt lat="46.099238" lon="7.640004">
        <time>1970-01-01T00:00:00+00:00</time>
        <ele>1912.0</ele>
      </trkpt>
      <trkpt lat="46.099151" lon="7.640181">
        <time>1970-01-01T00:00:00+00:00</time>
        <ele>1916.0</ele>
      </trkpt>
      <trkpt lat="46.099151" lon="7.640181">
        <time>1970-01-01T00:00:00+00:00</time>
        <ele>1916.0</ele>
      </trkpt>
      <trkpt lat="46.099184" lon="7.640308">
        <time>1970-01-01T00:00:00+00:00</time>
        <ele>1922.0</ele>
      </trkpt>
      <trkpt lat="46.099184" lon="7.640308">
        <time>1970-01-01T00:00:00+00:00</time>
        <ele>1922.0</ele>
      </trkpt>
      <trkpt lat="46.099203" lon="7.640446">
        <time>1970-01-01T00:00:00+00:00</time>
        <ele>1929.0</ele>
      </trkpt>
      <trkpt lat="46.099203" lon="7.640446">
        <time>1970-01-01T00:00:00+00:00</time>
        <ele>1929.0</ele>
      </trkpt>
      <trkpt lat="46.099183" lon="7.640571">
        <time>1970-01-01T00:00:00+00:00</time>
        <ele>1932.0</ele>
      </trkpt>
      <trkpt lat="46.099183" lon="7.640571">
        <time>1970-01-01T00:00:00+00:00</time>
        <ele>1932.0</ele>
      </trkpt>
      <trkpt lat="46.099245" lon="7.640577">
        <time>1970-01-01T00:00:00+00:00</time>
        <ele>1933.0</ele>
      </trkpt>
      <trkpt lat="46.099245" lon="7.640577">
        <time>1970-01-01T00:00:00+00:00</time>
        <ele>1933.0</ele>
      </trkpt>
      <trkpt lat="46.099424031037195" lon="7.640552060353027">
        <time>1970-01-01T00:00:00+00:00</time>
        <ele>1939.0</ele>
      </trkpt>
      <trkpt lat="46.099446" lon="7.640549">
        <time>1970-01-01T00:00:00+00:00</time>
        <ele>1940.0</ele>
      </trkpt>
      <trkpt lat="46.099446" lon="7.640549">
        <time>1970-01-01T00:00:00+00:00</time>
        <ele>1940.0</ele>
      </trkpt>
      <trkpt lat="46.099501" lon="7.640507">
        <time>1970-01-01T00:00:00+00:00</time>
        <ele>1940.0</ele>
      </trkpt>
      <trkpt lat="46.099501" lon="7.640507">
        <time>1970-01-01T00:00:00+00:00</time>
        <ele>1940.0</ele>
      </trkpt>
      <trkpt lat="46.099661912971655" lon="7.6403911043477954">
        <time>1970-01-01T00:00:00+00:00</time>
        <ele>1941.0</ele>
      </trkpt>
      <trkpt lat="46.099669" lon="7.640386">
        <time>1970-01-01T00:00:00+00:00</time>
        <ele>1941.0</ele>
      </trkpt>
      <trkpt lat="46.099669" lon="7.640386">
        <time>1970-01-01T00:00:00+00:00</time>
        <ele>1941.0</ele>
      </trkpt>
      <trkpt lat="46.099761" lon="7.640352">
        <time>1970-01-01T00:00:00+00:00</time>
        <ele>1944.0</ele>
      </trkpt>
      <trkpt lat="46.099761" lon="7.640352">
        <time>1970-01-01T00:00:00+00:00</time>
        <ele>1944.0</ele>
      </trkpt>
      <trkpt lat="46.099815" lon="7.640297">
        <time>1970-01-01T00:00:00+00:00</time>
        <ele>1945.0</ele>
      </trkpt>
      <trkpt lat="46.099815" lon="7.640297">
        <time>1970-01-01T00:00:00+00:00</time>
        <ele>1945.0</ele>
      </trkpt>
      <trkpt lat="46.099899" lon="7.640272">
        <time>1970-01-01T00:00:00+00:00</time>
        <ele>1948.0</ele>
      </trkpt>
      <trkpt lat="46.099899" lon="7.640272">
        <time>1970-01-01T00:00:00+00:00</time>
        <ele>1948.0</ele>
      </trkpt>
      <trkpt lat="46.09986" lon="7.640334">
        <time>1970-01-01T00:00:00+00:00</time>
        <ele>1948.0</ele>
      </trkpt>
      <trkpt lat="46.09986" lon="7.640334">
        <time>1970-01-01T00:00:00+00:00</time>
        <ele>1948.0</ele>
      </trkpt>
      <trkpt lat="46.099813" lon="7.640482">
        <time>1970-01-01T00:00:00+00:00</time>
        <ele>1950.0</ele>
      </trkpt>
      <trkpt lat="46.099813" lon="7.640482">
        <time>1970-01-01T00:00:00+00:00</time>
        <ele>1950.0</ele>
      </trkpt>
      <trkpt lat="46.099798" lon="7.640639">
        <time>1970-01-01T00:00:00+00:00</time>
        <ele>1953.0</ele>
      </trkpt>
      <trkpt lat="46.099798" lon="7.640639">
        <time>1970-01-01T00:00:00+00:00</time>
        <ele>1953.0</ele>
      </trkpt>
      <trkpt lat="46.099713" lon="7.640701">
        <time>1970-01-01T00:00:00+00:00</time>
        <ele>1951.0</ele>
      </trkpt>
      <trkpt lat="46.099713" lon="7.640701">
        <time>1970-01-01T00:00:00+00:00</time>
        <ele>1951.0</ele>
      </trkpt>
      <trkpt lat="46.09966" lon="7.640753">
        <time>1970-01-01T00:00:00+00:00</time>
        <ele>1951.0</ele>
      </trkpt>
      <trkpt lat="46.09966" lon="7.640753">
        <time>1970-01-01T00:00:00+00:00</time>
        <ele>1951.0</ele>
      </trkpt>
      <trkpt lat="46.099622" lon="7.640887">
        <time>1970-01-01T00:00:00+00:00</time>
        <ele>1956.0</ele>
      </trkpt>
      <trkpt lat="46.099622" lon="7.640887">
        <time>1970-01-01T00:00:00+00:00</time>
        <ele>1956.0</ele>
      </trkpt>
      <trkpt lat="46.09955" lon="7.6409">
        <time>1970-01-01T00:00:00+00:00</time>
        <ele>1954.0</ele>
      </trkpt>
      <trkpt lat="46.09955" lon="7.6409">
        <time>1970-01-01T00:00:00+00:00</time>
        <ele>1954.0</ele>
      </trkpt>
      <trkpt lat="46.099455" lon="7.641021">
        <time>1970-01-01T00:00:00+00:00</time>
        <ele>1957.0</ele>
      </trkpt>
      <trkpt lat="46.099455" lon="7.641021">
        <time>1970-01-01T00:00:00+00:00</time>
        <ele>1957.0</ele>
      </trkpt>
      <trkpt lat="46.09939" lon="7.64111">
        <time>1970-01-01T00:00:00+00:00</time>
        <ele>1958.0</ele>
      </trkpt>
      <trkpt lat="46.09939" lon="7.64111">
        <time>1970-01-01T00:00:00+00:00</time>
        <ele>1958.0</ele>
      </trkpt>
      <trkpt lat="46.099342" lon="7.641164">
        <time>1970-01-01T00:00:00+00:00</time>
        <ele>1958.0</ele>
      </trkpt>
      <trkpt lat="46.099342" lon="7.641164">
        <time>1970-01-01T00:00:00+00:00</time>
        <ele>1958.0</ele>
      </trkpt>
      <trkpt lat="46.099241" lon="7.641295">
        <time>1970-01-01T00:00:00+00:00</time>
        <ele>1958.0</ele>
      </trkpt>
      <trkpt lat="46.099241" lon="7.641295">
        <time>1970-01-01T00:00:00+00:00</time>
        <ele>1958.0</ele>
      </trkpt>
      <trkpt lat="46.099175" lon="7.641513">
        <time>1970-01-01T00:00:00+00:00</time>
        <ele>1961.0</ele>
      </trkpt>
      <trkpt lat="46.099175" lon="7.641513">
        <time>1970-01-01T00:00:00+00:00</time>
        <ele>1961.0</ele>
      </trkpt>
      <trkpt lat="46.099093" lon="7.641577">
        <time>1970-01-01T00:00:00+00:00</time>
        <ele>1960.0</ele>
      </trkpt>
      <trkpt lat="46.099093" lon="7.641577">
        <time>1970-01-01T00:00:00+00:00</time>
        <ele>1960.0</ele>
      </trkpt>
      <trkpt lat="46.099076" lon="7.641689">
        <time>1970-01-01T00:00:00+00:00</time>
        <ele>1963.0</ele>
      </trkpt>
      <trkpt lat="46.099076" lon="7.641689">
        <time>1970-01-01T00:00:00+00:00</time>
        <ele>1963.0</ele>
      </trkpt>
      <trkpt lat="46.09897" lon="7.641804">
        <time>1970-01-01T00:00:00+00:00</time>
        <ele>1964.0</ele>
      </trkpt>
      <trkpt lat="46.09897" lon="7.641804">
        <time>1970-01-01T00:00:00+00:00</time>
        <ele>1964.0</ele>
      </trkpt>
      <trkpt lat="46.098886" lon="7.641994">
        <time>1970-01-01T00:00:00+00:00</time>
        <ele>1968.0</ele>
      </trkpt>
      <trkpt lat="46.098886" lon="7.641994">
        <time>1970-01-01T00:00:00+00:00</time>
        <ele>1968.0</ele>
      </trkpt>
      <trkpt lat="46.098844" lon="7.642052">
        <time>1970-01-01T00:00:00+00:00</time>
        <ele>1967.0</ele>
      </trkpt>
      <trkpt lat="46.098844" lon="7.642052">
        <time>1970-01-01T00:00:00+00:00</time>
        <ele>1967.0</ele>
      </trkpt>
      <trkpt lat="46.098798" lon="7.642268">
        <time>1970-01-01T00:00:00+00:00</time>
        <ele>1971.0</ele>
      </trkpt>
      <trkpt lat="46.098798" lon="7.642268">
        <time>1970-01-01T00:00:00+00:00</time>
        <ele>1971.0</ele>
      </trkpt>
      <trkpt lat="46.0988" lon="7.642359">
        <time>1970-01-01T00:00:00+00:00</time>
        <ele>1974.0</ele>
      </trkpt>
      <trkpt lat="46.0988" lon="7.642359">
        <time>1970-01-01T00:00:00+00:00</time>
        <ele>1974.0</ele>
      </trkpt>
      <trkpt lat="46.09876" lon="7.642542">
        <time>1970-01-01T00:00:00+00:00</time>
        <ele>1979.0</ele>
      </trkpt>
      <trkpt lat="46.09876" lon="7.642542">
        <time>1970-01-01T00:00:00+00:00</time>
        <ele>1979.0</ele>
      </trkpt>
      <trkpt lat="46.09876" lon="7.642679">
        <time>1970-01-01T00:00:00+00:00</time>
        <ele>1983.0</ele>
      </trkpt>
      <trkpt lat="46.09876" lon="7.642679">
        <time>1970-01-01T00:00:00+00:00</time>
        <ele>1983.0</ele>
      </trkpt>
      <trkpt lat="46.098712" lon="7.642795">
        <time>1970-01-01T00:00:00+00:00</time>
        <ele>1984.0</ele>
      </trkpt>
      <trkpt lat="46.098712" lon="7.642795">
        <time>1970-01-01T00:00:00+00:00</time>
        <ele>1984.0</ele>
      </trkpt>
      <trkpt lat="46.098754" lon="7.642856">
        <time>1970-01-01T00:00:00+00:00</time>
        <ele>1987.0</ele>
      </trkpt>
      <trkpt lat="46.098754" lon="7.642856">
        <time>1970-01-01T00:00:00+00:00</time>
        <ele>1987.0</ele>
      </trkpt>
      <trkpt lat="46.098885" lon="7.642811">
        <time>1970-01-01T00:00:00+00:00</time>
        <ele>1993.0</ele>
      </trkpt>
      <trkpt lat="46.098885" lon="7.642811">
        <time>1970-01-01T00:00:00+00:00</time>
        <ele>1993.0</ele>
      </trkpt>
      <trkpt lat="46.098873" lon="7.642933">
        <time>1970-01-01T00:00:00+00:00</time>
        <ele>1994.0</ele>
      </trkpt>
      <trkpt lat="46.098873" lon="7.642933">
        <time>1970-01-01T00:00:00+00:00</time>
        <ele>1994.0</ele>
      </trkpt>
      <trkpt lat="46.098897" lon="7.643005">
        <time>1970-01-01T00:00:00+00:00</time>
        <ele>1996.0</ele>
      </trkpt>
      <trkpt lat="46.098897" lon="7.643005">
        <time>1970-01-01T00:00:00+00:00</time>
        <ele>1996.0</ele>
      </trkpt>
      <trkpt lat="46.099004" lon="7.642961">
        <time>1970-01-01T00:00:00+00:00</time>
        <ele>1998.0</ele>
      </trkpt>
      <trkpt lat="46.099004" lon="7.642961">
        <time>1970-01-01T00:00:00+00:00</time>
        <ele>1998.0</ele>
      </trkpt>
      <trkpt lat="46.099127" lon="7.642971">
        <time>1970-01-01T00:00:00+00:00</time>
        <ele>2001.0</ele>
      </trkpt>
      <trkpt lat="46.099127" lon="7.642971">
        <time>1970-01-01T00:00:00+00:00</time>
        <ele>2001.0</ele>
      </trkpt>
      <trkpt lat="46.099209" lon="7.642859">
        <time>1970-01-01T00:00:00+00:00</time>
        <ele>2003.0</ele>
      </trkpt>
      <trkpt lat="46.099209" lon="7.642859">
        <time>1970-01-01T00:00:00+00:00</time>
        <ele>2003.0</ele>
      </trkpt>
      <trkpt lat="46.099259" lon="7.642855">
        <time>1970-01-01T00:00:00+00:00</time>
        <ele>2004.0</ele>
      </trkpt>
      <trkpt lat="46.099259" lon="7.642855">
        <time>1970-01-01T00:00:00+00:00</time>
        <ele>2004.0</ele>
      </trkpt>
      <trkpt lat="46.099239" lon="7.64293">
        <time>1970-01-01T00:00:00+00:00</time>
        <ele>2004.0</ele>
      </trkpt>
      <trkpt lat="46.099239" lon="7.64293">
        <time>1970-01-01T00:00:00+00:00</time>
        <ele>2004.0</ele>
      </trkpt>
      <trkpt lat="46.099352" lon="7.642953">
        <time>1970-01-01T00:00:00+00:00</time>
        <ele>2007.0</ele>
      </trkpt>
      <trkpt lat="46.099352" lon="7.642953">
        <time>1970-01-01T00:00:00+00:00</time>
        <ele>2007.0</ele>
      </trkpt>
      <trkpt lat="46.099371" lon="7.643083">
        <time>1970-01-01T00:00:00+00:00</time>
        <ele>2008.0</ele>
      </trkpt>
      <trkpt lat="46.099371" lon="7.643083">
        <time>1970-01-01T00:00:00+00:00</time>
        <ele>2008.0</ele>
      </trkpt>
      <trkpt lat="46.099444" lon="7.643053">
        <time>1970-01-01T00:00:00+00:00</time>
        <ele>2010.0</ele>
      </trkpt>
      <trkpt lat="46.099444" lon="7.643053">
        <time>1970-01-01T00:00:00+00:00</time>
        <ele>2010.0</ele>
      </trkpt>
      <trkpt lat="46.099552" lon="7.643018">
        <time>1970-01-01T00:00:00+00:00</time>
        <ele>2012.0</ele>
      </trkpt>
      <trkpt lat="46.099552" lon="7.643018">
        <time>1970-01-01T00:00:00+00:00</time>
        <ele>2012.0</ele>
      </trkpt>
      <trkpt lat="46.099636" lon="7.642962">
        <time>1970-01-01T00:00:00+00:00</time>
        <ele>2014.0</ele>
      </trkpt>
      <trkpt lat="46.099636" lon="7.642962">
        <time>1970-01-01T00:00:00+00:00</time>
        <ele>2014.0</ele>
      </trkpt>
      <trkpt lat="46.099709" lon="7.642854">
        <time>1970-01-01T00:00:00+00:00</time>
        <ele>2016.0</ele>
      </trkpt>
      <trkpt lat="46.099709" lon="7.642854">
        <time>1970-01-01T00:00:00+00:00</time>
        <ele>2016.0</ele>
      </trkpt>
      <trkpt lat="46.099787" lon="7.64277">
        <time>1970-01-01T00:00:00+00:00</time>
        <ele>2018.0</ele>
      </trkpt>
      <trkpt lat="46.099787" lon="7.64277">
        <time>1970-01-01T00:00:00+00:00</time>
        <ele>2018.0</ele>
      </trkpt>
      <trkpt lat="46.099784" lon="7.642944">
        <time>1970-01-01T00:00:00+00:00</time>
        <ele>2020.0</ele>
      </trkpt>
      <trkpt lat="46.099784" lon="7.642944">
        <time>1970-01-01T00:00:00+00:00</time>
        <ele>2020.0</ele>
      </trkpt>
      <trkpt lat="46.09987" lon="7.642973">
        <time>1970-01-01T00:00:00+00:00</time>
        <ele>2023.0</ele>
      </trkpt>
      <trkpt lat="46.09987" lon="7.642973">
        <time>1970-01-01T00:00:00+00:00</time>
        <ele>2023.0</ele>
      </trkpt>
      <trkpt lat="46.099913" lon="7.643045">
        <time>1970-01-01T00:00:00+00:00</time>
        <ele>2025.0</ele>
      </trkpt>
      <trkpt lat="46.099913" lon="7.643045">
        <time>1970-01-01T00:00:00+00:00</time>
        <ele>2025.0</ele>
      </trkpt>
      <trkpt lat="46.10009068206206" lon="7.643085284192205">
        <time>1970-01-01T00:00:00+00:00</time>
        <ele>2030.0</ele>
      </trkpt>
      <trkpt lat="46.10016" lon="7.643101">
        <time>1970-01-01T00:00:00+00:00</time>
        <ele>2031.0</ele>
      </trkpt>
      <trkpt lat="46.10016" lon="7.643101">
        <time>1970-01-01T00:00:00+00:00</time>
        <ele>2031.0</ele>
      </trkpt>
      <trkpt lat="46.100215" lon="7.643071">
        <time>1970-01-01T00:00:00+00:00</time>
        <ele>2032.0</ele>
      </trkpt>
      <trkpt lat="46.100215" lon="7.643071">
        <time>1970-01-01T00:00:00+00:00</time>
        <ele>2032.0</ele>
      </trkpt>
      <trkpt lat="46.100336" lon="7.643077">
        <time>1970-01-01T00:00:00+00:00</time>
        <ele>2034.0</ele>
      </trkpt>
      <trkpt lat="46.100336" lon="7.643077">
        <time>1970-01-01T00:00:00+00:00</time>
        <ele>2034.0</ele>
      </trkpt>
      <trkpt lat="46.100446" lon="7.642993">
        <time>1970-01-01T00:00:00+00:00</time>
        <ele>2035.0</ele>
      </trkpt>
      <trkpt lat="46.100446" lon="7.642993">
        <time>1970-01-01T00:00:00+00:00</time>
        <ele>2035.0</ele>
      </trkpt>
      <trkpt lat="46.10057" lon="7.643002">
        <time>1970-01-01T00:00:00+00:00</time>
        <ele>2038.0</ele>
      </trkpt>
      <trkpt lat="46.10057" lon="7.643002">
        <time>1970-01-01T00:00:00+00:00</time>
        <ele>2038.0</ele>
      </trkpt>
      <trkpt lat="46.10069" lon="7.64292">
        <time>1970-01-01T00:00:00+00:00</time>
        <ele>2040.0</ele>
      </trkpt>
      <trkpt lat="46.10069" lon="7.64292">
        <time>1970-01-01T00:00:00+00:00</time>
        <ele>2040.0</ele>
      </trkpt>
      <trkpt lat="46.100706" lon="7.642842">
        <time>1970-01-01T00:00:00+00:00</time>
        <ele>2040.0</ele>
      </trkpt>
      <trkpt lat="46.100706" lon="7.642842">
        <time>1970-01-01T00:00:00+00:00</time>
        <ele>2040.0</ele>
      </trkpt>
      <trkpt lat="46.100755" lon="7.642686">
        <time>1970-01-01T00:00:00+00:00</time>
        <ele>2038.0</ele>
      </trkpt>
      <trkpt lat="46.100755" lon="7.642686">
        <time>1970-01-01T00:00:00+00:00</time>
        <ele>2038.0</ele>
      </trkpt>
      <trkpt lat="46.100801" lon="7.642752">
        <time>1970-01-01T00:00:00+00:00</time>
        <ele>2040.0</ele>
      </trkpt>
      <trkpt lat="46.100801" lon="7.642752">
        <time>1970-01-01T00:00:00+00:00</time>
        <ele>2040.0</ele>
      </trkpt>
      <trkpt lat="46.100821" lon="7.642831">
        <time>1970-01-01T00:00:00+00:00</time>
        <ele>2043.0</ele>
      </trkpt>
      <trkpt lat="46.100821" lon="7.642831">
        <time>1970-01-01T00:00:00+00:00</time>
        <ele>2043.0</ele>
      </trkpt>
      <trkpt lat="46.100875" lon="7.642854">
        <time>1970-01-01T00:00:00+00:00</time>
        <ele>2045.0</ele>
      </trkpt>
      <trkpt lat="46.100875" lon="7.642854">
        <time>1970-01-01T00:00:00+00:00</time>
        <ele>2045.0</ele>
      </trkpt>
      <trkpt lat="46.10104036034327" lon="7.642751949045296">
        <time>1970-01-01T00:00:00+00:00</time>
        <ele>2049.0</ele>
      </trkpt>
      <trkpt lat="46.10105" lon="7.642746">
        <time>1970-01-01T00:00:00+00:00</time>
        <ele>2049.0</ele>
      </trkpt>
      <trkpt lat="46.10105" lon="7.642746">
        <time>1970-01-01T00:00:00+00:00</time>
        <ele>2049.0</ele>
      </trkpt>
      <trkpt lat="46.10120320228312" lon="7.642610094748844">
        <time>1970-01-01T00:00:00+00:00</time>
        <ele>2052.0</ele>
      </trkpt>
      <trkpt lat="46.101236" lon="7.642581">
        <time>1970-01-01T00:00:00+00:00</time>
        <ele>2052.0</ele>
      </trkpt>
      <trkpt lat="46.101236" lon="7.642581">
        <time>1970-01-01T00:00:00+00:00</time>
        <ele>2052.0</ele>
      </trkpt>
      <trkpt lat="46.101344" lon="7.642456">
        <time>1970-01-01T00:00:00+00:00</time>
        <ele>2054.0</ele>
      </trkpt>
      <trkpt lat="46.101344" lon="7.642456">
        <time>1970-01-01T00:00:00+00:00</time>
        <ele>2054.0</ele>
      </trkpt>
      <trkpt lat="46.101381" lon="7.642335">
        <time>1970-01-01T00:00:00+00:00</time>
        <ele>2054.0</ele>
      </trkpt>
      <trkpt lat="46.101381" lon="7.642335">
        <time>1970-01-01T00:00:00+00:00</time>
        <ele>2054.0</ele>
      </trkpt>
      <trkpt lat="46.10150918467739" lon="7.642153031541885">
        <time>1970-01-01T00:00:00+00:00</time>
        <ele>2058.0</ele>
      </trkpt>
      <trkpt lat="46.101524" lon="7.642132">
        <time>1970-01-01T00:00:00+00:00</time>
        <ele>2058.0</ele>
      </trkpt>
      <trkpt lat="46.101524" lon="7.642132">
        <time>1970-01-01T00:00:00+00:00</time>
        <ele>2058.0</ele>
      </trkpt>
      <trkpt lat="46.101603" lon="7.642137">
        <time>1970-01-01T00:00:00+00:00</time>
        <ele>2060.0</ele>
      </trkpt>
      <trkpt lat="46.101603" lon="7.642137">
        <time>1970-01-01T00:00:00+00:00</time>
        <ele>2060.0</ele>
      </trkpt>
      <trkpt lat="46.101642" lon="7.642198">
        <time>1970-01-01T00:00:00+00:00</time>
        <ele>2061.0</ele>
      </trkpt>
      <trkpt lat="46.101642" lon="7.642198">
        <time>1970-01-01T00:00:00+00:00</time>
        <ele>2061.0</ele>
      </trkpt>
      <trkpt lat="46.101687" lon="7.642133">
        <time>1970-01-01T00:00:00+00:00</time>
        <ele>2062.0</ele>
      </trkpt>
      <trkpt lat="46.101687" lon="7.642133">
        <time>1970-01-01T00:00:00+00:00</time>
        <ele>2062.0</ele>
      </trkpt>
      <trkpt lat="46.10174" lon="7.642101">
        <time>1970-01-01T00:00:00+00:00</time>
        <ele>2063.0</ele>
      </trkpt>
      <trkpt lat="46.10174" lon="7.642101">
        <time>1970-01-01T00:00:00+00:00</time>
        <ele>2063.0</ele>
      </trkpt>
      <trkpt lat="46.101707" lon="7.6422">
        <time>1970-01-01T00:00:00+00:00</time>
        <ele>2063.0</ele>
      </trkpt>
      <trkpt lat="46.101707" lon="7.6422">
        <time>1970-01-01T00:00:00+00:00</time>
        <ele>2063.0</ele>
      </trkpt>
      <trkpt lat="46.101834" lon="7.642167">
        <time>1970-01-01T00:00:00+00:00</time>
        <ele>2067.0</ele>
      </trkpt>
      <trkpt lat="46.101834" lon="7.642167">
        <time>1970-01-01T00:00:00+00:00</time>
        <ele>2067.0</ele>
      </trkpt>
      <trkpt lat="46.101892" lon="7.642176">
        <time>1970-01-01T00:00:00+00:00</time>
        <ele>2069.0</ele>
      </trkpt>
      <trkpt lat="46.101892" lon="7.642176">
        <time>1970-01-01T00:00:00+00:00</time>
        <ele>2069.0</ele>
      </trkpt>
      <trkpt lat="46.102034" lon="7.642098">
        <time>1970-01-01T00:00:00+00:00</time>
        <ele>2071.0</ele>
      </trkpt>
      <trkpt lat="46.102034" lon="7.642098">
        <time>1970-01-01T00:00:00+00:00</time>
        <ele>2071.0</ele>
      </trkpt>
      <trkpt lat="46.102137" lon="7.642005">
        <time>1970-01-01T00:00:00+00:00</time>
        <ele>2070.0</ele>
      </trkpt>
      <trkpt lat="46.102137" lon="7.642005">
        <time>1970-01-01T00:00:00+00:00</time>
        <ele>2070.0</ele>
      </trkpt>
      <trkpt lat="46.102125" lon="7.642068">
        <time>1970-01-01T00:00:00+00:00</time>
        <ele>2072.0</ele>
      </trkpt>
      <trkpt lat="46.102125" lon="7.642068">
        <time>1970-01-01T00:00:00+00:00</time>
        <ele>2072.0</ele>
      </trkpt>
      <trkpt lat="46.102148" lon="7.642128">
        <time>1970-01-01T00:00:00+00:00</time>
        <ele>2073.0</ele>
      </trkpt>
      <trkpt lat="46.102148" lon="7.642128">
        <time>1970-01-01T00:00:00+00:00</time>
        <ele>2073.0</ele>
      </trkpt>
      <trkpt lat="46.102262" lon="7.642272">
        <time>1970-01-01T00:00:00+00:00</time>
        <ele>2076.0</ele>
      </trkpt>
      <trkpt lat="46.102262" lon="7.642272">
        <time>1970-01-01T00:00:00+00:00</time>
        <ele>2076.0</ele>
      </trkpt>
      <trkpt lat="46.102276" lon="7.64235">
        <time>1970-01-01T00:00:00+00:00</time>
        <ele>2078.0</ele>
      </trkpt>
      <trkpt lat="46.102276" lon="7.64235">
        <time>1970-01-01T00:00:00+00:00</time>
        <ele>2078.0</ele>
      </trkpt>
      <trkpt lat="46.102249" lon="7.642442">
        <time>1970-01-01T00:00:00+00:00</time>
        <ele>2079.0</ele>
      </trkpt>
      <trkpt lat="46.102249" lon="7.642442">
        <time>1970-01-01T00:00:00+00:00</time>
        <ele>2079.0</ele>
      </trkpt>
      <trkpt lat="46.102201" lon="7.642499">
        <time>1970-01-01T00:00:00+00:00</time>
        <ele>2080.0</ele>
      </trkpt>
      <trkpt lat="46.102201" lon="7.642499">
        <time>1970-01-01T00:00:00+00:00</time>
        <ele>2080.0</ele>
      </trkpt>
      <trkpt lat="46.102195" lon="7.642683">
        <time>1970-01-01T00:00:00+00:00</time>
        <ele>2083.0</ele>
      </trkpt>
      <trkpt lat="46.102195" lon="7.642683">
        <time>1970-01-01T00:00:00+00:00</time>
        <ele>2083.0</ele>
      </trkpt>
      <trkpt lat="46.102215" lon="7.642762">
        <time>1970-01-01T00:00:00+00:00</time>
        <ele>2085.0</ele>
      </trkpt>
      <trkpt lat="46.102215" lon="7.642762">
        <time>1970-01-01T00:00:00+00:00</time>
        <ele>2085.0</ele>
      </trkpt>
      <trkpt lat="46.102271" lon="7.642737">
        <time>1970-01-01T00:00:00+00:00</time>
        <ele>2085.0</ele>
      </trkpt>
      <trkpt lat="46.102271" lon="7.642737">
        <time>1970-01-01T00:00:00+00:00</time>
        <ele>2085.0</ele>
      </trkpt>
      <trkpt lat="46.102333" lon="7.642724">
        <time>1970-01-01T00:00:00+00:00</time>
        <ele>2087.0</ele>
      </trkpt>
      <trkpt lat="46.102333" lon="7.642724">
        <time>1970-01-01T00:00:00+00:00</time>
        <ele>2087.0</ele>
      </trkpt>
      <trkpt lat="46.10237" lon="7.64265">
        <time>1970-01-01T00:00:00+00:00</time>
        <ele>2087.0</ele>
      </trkpt>
      <trkpt lat="46.10237" lon="7.64265">
        <time>1970-01-01T00:00:00+00:00</time>
        <ele>2087.0</ele>
      </trkpt>
      <trkpt lat="46.102451" lon="7.642601">
        <time>1970-01-01T00:00:00+00:00</time>
        <ele>2088.0</ele>
      </trkpt>
      <trkpt lat="46.102451" lon="7.642601">
        <time>1970-01-01T00:00:00+00:00</time>
        <ele>2088.0</ele>
      </trkpt>
      <trkpt lat="46.10251" lon="7.642604">
        <time>1970-01-01T00:00:00+00:00</time>
        <ele>2090.0</ele>
      </trkpt>
      <trkpt lat="46.10251" lon="7.642604">
        <time>1970-01-01T00:00:00+00:00</time>
        <ele>2090.0</ele>
      </trkpt>
      <trkpt lat="46.102508" lon="7.642734">
        <time>1970-01-01T00:00:00+00:00</time>
        <ele>2094.0</ele>
      </trkpt>
      <trkpt lat="46.102508" lon="7.642734">
        <time>1970-01-01T00:00:00+00:00</time>
        <ele>2094.0</ele>
      </trkpt>
      <trkpt lat="46.102493" lon="7.642816">
        <time>1970-01-01T00:00:00+00:00</time>
        <ele>2095.0</ele>
      </trkpt>
      <trkpt lat="46.102493" lon="7.642816">
        <time>1970-01-01T00:00:00+00:00</time>
        <ele>2095.0</ele>
      </trkpt>
      <trkpt lat="46.102607" lon="7.642748">
        <time>1970-01-01T00:00:00+00:00</time>
        <ele>2098.0</ele>
      </trkpt>
      <trkpt lat="46.102607" lon="7.642748">
        <time>1970-01-01T00:00:00+00:00</time>
        <ele>2098.0</ele>
      </trkpt>
      <trkpt lat="46.10273386922105" lon="7.642564119926451">
        <time>1970-01-01T00:00:00+00:00</time>
        <ele>2095.0</ele>
      </trkpt>
      <trkpt lat="46.102765" lon="7.642519">
        <time>1970-01-01T00:00:00+00:00</time>
        <ele>2094.0</ele>
      </trkpt>
      <trkpt lat="46.102765" lon="7.642519">
        <time>1970-01-01T00:00:00+00:00</time>
        <ele>2094.0</ele>
      </trkpt>
      <trkpt lat="46.102825" lon="7.642496">
        <time>1970-01-01T00:00:00+00:00</time>
        <ele>2094.0</ele>
      </trkpt>
      <trkpt lat="46.102825" lon="7.642496">
        <time>1970-01-01T00:00:00+00:00</time>
        <ele>2094.0</ele>
      </trkpt>
      <trkpt lat="46.102939" lon="7.642391">
        <time>1970-01-01T00:00:00+00:00</time>
        <ele>2095.0</ele>
      </trkpt>
      <trkpt lat="46.102939" lon="7.642391">
        <time>1970-01-01T00:00:00+00:00</time>
        <ele>2095.0</ele>
      </trkpt>
      <trkpt lat="46.10310852397304" lon="7.642304311604695">
        <time>1970-01-01T00:00:00+00:00</time>
        <ele>2099.0</ele>
      </trkpt>
      <trkpt lat="46.103203" lon="7.642256">
        <time>1970-01-01T00:00:00+00:00</time>
        <ele>2101.0</ele>
      </trkpt>
      <trkpt lat="46.103203" lon="7.642256">
        <time>1970-01-01T00:00:00+00:00</time>
        <ele>2101.0</ele>
      </trkpt>
      <trkpt lat="46.103274" lon="7.642252">
        <time>1970-01-01T00:00:00+00:00</time>
        <ele>2103.0</ele>
      </trkpt>
      <trkpt lat="46.103274" lon="7.642252">
        <time>1970-01-01T00:00:00+00:00</time>
        <ele>2103.0</ele>
      </trkpt>
      <trkpt lat="46.103328" lon="7.642214">
        <time>1970-01-01T00:00:00+00:00</time>
        <ele>2103.0</ele>
      </trkpt>
      <trkpt lat="46.103328" lon="7.642214">
        <time>1970-01-01T00:00:00+00:00</time>
        <ele>2103.0</ele>
      </trkpt>
      <trkpt lat="46.103385" lon="7.642229">
        <time>1970-01-01T00:00:00+00:00</time>
        <ele>2105.0</ele>
      </trkpt>
      <trkpt lat="46.103385" lon="7.642229">
        <time>1970-01-01T00:00:00+00:00</time>
        <ele>2105.0</ele>
      </trkpt>
      <trkpt lat="46.103529" lon="7.642161">
        <time>1970-01-01T00:00:00+00:00</time>
        <ele>2109.0</ele>
      </trkpt>
      <trkpt lat="46.103529" lon="7.642161">
        <time>1970-01-01T00:00:00+00:00</time>
        <ele>2109.0</ele>
      </trkpt>
      <trkpt lat="46.10370691135079" lon="7.642122876139116">
        <time>1970-01-01T00:00:00+00:00</time>
        <ele>2116.0</ele>
      </trkpt>
      <trkpt lat="46.103739" lon="7.642116">
        <time>1970-01-01T00:00:00+00:00</time>
        <ele>2118.0</ele>
      </trkpt>
      <trkpt lat="46.103739" lon="7.642116">
        <time>1970-01-01T00:00:00+00:00</time>
        <ele>2118.0</ele>
      </trkpt>
      <trkpt lat="46.10389541939242" lon="7.641987937339538">
        <time>1970-01-01T00:00:00+00:00</time>
        <ele>2118.0</ele>
      </trkpt>
      <trkpt lat="46.10391" lon="7.641976">
        <time>1970-01-01T00:00:00+00:00</time>
        <ele>2118.0</ele>
      </trkpt>
      <trkpt lat="46.10391" lon="7.641976">
        <time>1970-01-01T00:00:00+00:00</time>
        <ele>2118.0</ele>
      </trkpt>
      <trkpt lat="46.103979" lon="7.641966">
        <time>1970-01-01T00:00:00+00:00</time>
        <ele>2120.0</ele>
      </trkpt>
      <trkpt lat="46.103979" lon="7.641966">
        <time>1970-01-01T00:00:00+00:00</time>
        <ele>2120.0</ele>
      </trkpt>
      <trkpt lat="46.104107" lon="7.641929">
        <time>1970-01-01T00:00:00+00:00</time>
        <ele>2122.0</ele>
      </trkpt>
      <trkpt lat="46.104107" lon="7.641929">
        <time>1970-01-01T00:00:00+00:00</time>
        <ele>2122.0</ele>
      </trkpt>
      <trkpt lat="46.104254" lon="7.641872">
        <time>1970-01-01T00:00:00+00:00</time>
        <ele>2124.0</ele>
      </trkpt>
      <trkpt lat="46.104254" lon="7.641872">
        <time>1970-01-01T00:00:00+00:00</time>
        <ele>2124.0</ele>
      </trkpt>
      <trkpt lat="46.10443181169649" lon="7.641832920506265">
        <time>1970-01-01T00:00:00+00:00</time>
        <ele>2128.0</ele>
      </trkpt>
      <trkpt lat="46.104436" lon="7.641832">
        <time>1970-01-01T00:00:00+00:00</time>
        <ele>2128.0</ele>
      </trkpt>
      <trkpt lat="46.104436" lon="7.641832">
        <time>1970-01-01T00:00:00+00:00</time>
        <ele>2128.0</ele>
      </trkpt>
      <trkpt lat="46.104604645437604" lon="7.641741815274007">
        <time>1970-01-01T00:00:00+00:00</time>
        <ele>2131.0</ele>
      </trkpt>
      <trkpt lat="46.104623" lon="7.641732">
        <time>1970-01-01T00:00:00+00:00</time>
        <ele>2131.0</ele>
      </trkpt>
      <trkpt lat="46.104623" lon="7.641732">
        <time>1970-01-01T00:00:00+00:00</time>
        <ele>2131.0</ele>
      </trkpt>
      <trkpt lat="46.104714" lon="7.641733">
        <time>1970-01-01T00:00:00+00:00</time>
        <ele>2135.0</ele>
      </trkpt>
      <trkpt lat="46.104714" lon="7.641733">
        <time>1970-01-01T00:00:00+00:00</time>
        <ele>2135.0</ele>
      </trkpt>
      <trkpt lat="46.104825" lon="7.641672">
        <time>1970-01-01T00:00:00+00:00</time>
        <ele>2137.0</ele>
      </trkpt>
      <trkpt lat="46.104825" lon="7.641672">
        <time>1970-01-01T00:00:00+00:00</time>
        <ele>2137.0</ele>
      </trkpt>
      <trkpt lat="46.10500076366948" lon="7.641616921983756">
        <time>1970-01-01T00:00:00+00:00</time>
        <ele>2141.0</ele>
      </trkpt>
      <trkpt lat="46.105042" lon="7.641604">
        <time>1970-01-01T00:00:00+00:00</time>
        <ele>2142.0</ele>
      </trkpt>
      <trkpt lat="46.105042" lon="7.641604">
        <time>1970-01-01T00:00:00+00:00</time>
        <ele>2142.0</ele>
      </trkpt>
      <trkpt lat="46.105144" lon="7.641527">
        <time>1970-01-01T00:00:00+00:00</time>
        <ele>2143.0</ele>
      </trkpt>
      <trkpt lat="46.105144" lon="7.641527">
        <time>1970-01-01T00:00:00+00:00</time>
        <ele>2143.0</ele>
      </trkpt>
      <trkpt lat="46.1052" lon="7.64154">
        <time>1970-01-01T00:00:00+00:00</time>
        <ele>2146.0</ele>
      </trkpt>
      <trkpt lat="46.1052" lon="7.64154">
        <time>1970-01-01T00:00:00+00:00</time>
        <ele>2146.0</ele>
      </trkpt>
      <trkpt lat="46.105313" lon="7.641479">
        <time>1970-01-01T00:00:00+00:00</time>
        <ele>2150.0</ele>
      </trkpt>
      <trkpt lat="46.105313" lon="7.641479">
        <time>1970-01-01T00:00:00+00:00</time>
        <ele>2150.0</ele>
      </trkpt>
      <trkpt lat="46.105397" lon="7.641301">
        <time>1970-01-01T00:00:00+00:00</time>
        <ele>2150.0</ele>
      </trkpt>
      <trkpt lat="46.105397" lon="7.641301">
        <time>1970-01-01T00:00:00+00:00</time>
        <ele>2150.0</ele>
      </trkpt>
      <trkpt lat="46.105443" lon="7.64124">
        <time>1970-01-01T00:00:00+00:00</time>
        <ele>2151.0</ele>
      </trkpt>
      <trkpt lat="46.105443" lon="7.64124">
        <time>1970-01-01T00:00:00+00:00</time>
        <ele>2151.0</ele>
      </trkpt>
      <trkpt lat="46.105538" lon="7.641227">
        <time>1970-01-01T00:00:00+00:00</time>
        <ele>2153.0</ele>
      </trkpt>
      <trkpt lat="46.105538" lon="7.641227">
        <time>1970-01-01T00:00:00+00:00</time>
        <ele>2153.0</ele>
      </trkpt>
      <trkpt lat="46.105575" lon="7.641264">
        <time>1970-01-01T00:00:00+00:00</time>
        <ele>2155.0</ele>
      </trkpt>
      <trkpt lat="46.105575" lon="7.641264">
        <time>1970-01-01T00:00:00+00:00</time>
        <ele>2155.0</ele>
      </trkpt>
      <trkpt lat="46.105717" lon="7.641272">
        <time>1970-01-01T00:00:00+00:00</time>
        <ele>2158.0</ele>
      </trkpt>
      <trkpt lat="46.105717" lon="7.641272">
        <time>1970-01-01T00:00:00+00:00</time>
        <ele>2158.0</ele>
      </trkpt>
      <trkpt lat="46.10581" lon="7.64131">
        <time>1970-01-01T00:00:00+00:00</time>
        <ele>2161.0</ele>
      </trkpt>
      <trkpt lat="46.10581" lon="7.64131">
        <time>1970-01-01T00:00:00+00:00</time>
        <ele>2161.0</ele>
      </trkpt>
      <trkpt lat="46.10598861090665" lon="7.641279426961924">
        <time>1970-01-01T00:00:00+00:00</time>
        <ele>2164.0</ele>
      </trkpt>
      <trkpt lat="46.106032" lon="7.641272">
        <time>1970-01-01T00:00:00+00:00</time>
        <ele>2165.0</ele>
      </trkpt>
      <trkpt lat="46.106032" lon="7.641272">
        <time>1970-01-01T00:00:00+00:00</time>
        <ele>2165.0</ele>
      </trkpt>
      <trkpt lat="46.106091" lon="7.641321">
        <time>1970-01-01T00:00:00+00:00</time>
        <ele>2168.0</ele>
      </trkpt>
      <trkpt lat="46.106091" lon="7.641321">
        <time>1970-01-01T00:00:00+00:00</time>
        <ele>2168.0</ele>
      </trkpt>
      <trkpt lat="46.106153" lon="7.641334">
        <time>1970-01-01T00:00:00+00:00</time>
        <ele>2170.0</ele>
      </trkpt>
      <trkpt lat="46.106153" lon="7.641334">
        <time>1970-01-01T00:00:00+00:00</time>
        <ele>2170.0</ele>
      </trkpt>
      <trkpt lat="46.106301" lon="7.641252">
        <time>1970-01-01T00:00:00+00:00</time>
        <ele>2171.0</ele>
      </trkpt>
      <trkpt lat="46.106301" lon="7.641252">
        <time>1970-01-01T00:00:00+00:00</time>
        <ele>2171.0</ele>
      </trkpt>
      <trkpt lat="46.106388" lon="7.641291">
        <time>1970-01-01T00:00:00+00:00</time>
        <ele>2174.0</ele>
      </trkpt>
      <trkpt lat="46.106388" lon="7.641291">
        <time>1970-01-01T00:00:00+00:00</time>
        <ele>2174.0</ele>
      </trkpt>
      <trkpt lat="46.106444" lon="7.64129">
        <time>1970-01-01T00:00:00+00:00</time>
        <ele>2175.0</ele>
      </trkpt>
      <trkpt lat="46.106444" lon="7.64129">
        <time>1970-01-01T00:00:00+00:00</time>
        <ele>2175.0</ele>
      </trkpt>
      <trkpt lat="46.106533" lon="7.641237">
        <time>1970-01-01T00:00:00+00:00</time>
        <ele>2174.0</ele>
      </trkpt>
      <trkpt lat="46.106533" lon="7.641237">
        <time>1970-01-01T00:00:00+00:00</time>
        <ele>2174.0</ele>
      </trkpt>
      <trkpt lat="46.10670839230352" lon="7.6412944896994865">
        <time>1970-01-01T00:00:00+00:00</time>
        <ele>2179.0</ele>
      </trkpt>
      <trkpt lat="46.106713" lon="7.641296">
        <time>1970-01-01T00:00:00+00:00</time>
        <ele>2179.0</ele>
      </trkpt>
      <trkpt lat="46.106713" lon="7.641296">
        <time>1970-01-01T00:00:00+00:00</time>
        <ele>2179.0</ele>
      </trkpt>
      <trkpt lat="46.106794" lon="7.641347">
        <time>1970-01-01T00:00:00+00:00</time>
        <ele>2181.0</ele>
      </trkpt>
      <trkpt lat="46.106794" lon="7.641347">
        <time>1970-01-01T00:00:00+00:00</time>
        <ele>2181.0</ele>
      </trkpt>
      <trkpt lat="46.106948" lon="7.641381">
        <time>1970-01-01T00:00:00+00:00</time>
        <ele>2182.0</ele>
      </trkpt>
      <trkpt lat="46.106948" lon="7.641381">
        <time>1970-01-01T00:00:00+00:00</time>
        <ele>2182.0</ele>
      </trkpt>
      <trkpt lat="46.107035" lon="7.641518">
        <time>1970-01-01T00:00:00+00:00</time>
        <ele>2185.0</ele>
      </trkpt>
      <trkpt lat="46.107035" lon="7.641518">
        <time>1970-01-01T00:00:00+00:00</time>
        <ele>2185.0</ele>
      </trkpt>
      <trkpt lat="46.107018" lon="7.641594">
        <time>1970-01-01T00:00:00+00:00</time>
        <ele>2187.0</ele>
      </trkpt>
      <trkpt lat="46.107018" lon="7.641594">
        <time>1970-01-01T00:00:00+00:00</time>
        <ele>2187.0</ele>
      </trkpt>
      <trkpt lat="46.107073" lon="7.641742">
        <time>1970-01-01T00:00:00+00:00</time>
        <ele>2191.0</ele>
      </trkpt>
      <trkpt lat="46.107073" lon="7.641742">
        <time>1970-01-01T00:00:00+00:00</time>
        <ele>2191.0</ele>
      </trkpt>
      <trkpt lat="46.10718" lon="7.641841">
        <time>1970-01-01T00:00:00+00:00</time>
        <ele>2192.0</ele>
      </trkpt>
      <trkpt lat="46.10718" lon="7.641841">
        <time>1970-01-01T00:00:00+00:00</time>
        <ele>2192.0</ele>
      </trkpt>
      <trkpt lat="46.107254" lon="7.641941">
        <time>1970-01-01T00:00:00+00:00</time>
        <ele>2195.0</ele>
      </trkpt>
      <trkpt lat="46.107254" lon="7.641941">
        <time>1970-01-01T00:00:00+00:00</time>
        <ele>2195.0</ele>
      </trkpt>
      <trkpt lat="46.107312" lon="7.642017">
        <time>1970-01-01T00:00:00+00:00</time>
        <ele>2196.0</ele>
      </trkpt>
      <trkpt lat="46.107312" lon="7.642017">
        <time>1970-01-01T00:00:00+00:00</time>
        <ele>2196.0</ele>
      </trkpt>
      <trkpt lat="46.107415" lon="7.642117">
        <time>1970-01-01T00:00:00+00:00</time>
        <ele>2198.0</ele>
      </trkpt>
      <trkpt lat="46.107415" lon="7.642117">
        <time>1970-01-01T00:00:00+00:00</time>
        <ele>2198.0</ele>
      </trkpt>
      <trkpt lat="46.107502" lon="7.642065">
        <time>1970-01-01T00:00:00+00:00</time>
        <ele>2196.0</ele>
      </trkpt>
      <trkpt lat="46.107502" lon="7.642065">
        <time>1970-01-01T00:00:00+00:00</time>
        <ele>2196.0</ele>
      </trkpt>
      <trkpt lat="46.10767963619691" lon="7.642105708295126">
        <time>1970-01-01T00:00:00+00:00</time>
        <ele>2197.0</ele>
      </trkpt>
      <trkpt lat="46.107694" lon="7.642109">
        <time>1970-01-01T00:00:00+00:00</time>
        <ele>2197.0</ele>
      </trkpt>
      <trkpt lat="46.107694" lon="7.642109">
        <time>1970-01-01T00:00:00+00:00</time>
        <ele>2197.0</ele>
      </trkpt>
      <trkpt lat="46.107751" lon="7.642148">
        <time>1970-01-01T00:00:00+00:00</time>
        <ele>2199.0</ele>
      </trkpt>
      <trkpt lat="46.107751" lon="7.642148">
        <time>1970-01-01T00:00:00+00:00</time>
        <ele>2199.0</ele>
      </trkpt>
      <trkpt lat="46.107839" lon="7.642162">
        <time>1970-01-01T00:00:00+00:00</time>
        <ele>2200.0</ele>
      </trkpt>
      <trkpt lat="46.107839" lon="7.642162">
        <time>1970-01-01T00:00:00+00:00</time>
        <ele>2200.0</ele>
      </trkpt>
      <trkpt lat="46.10779" lon="7.642276">
        <time>1970-01-01T00:00:00+00:00</time>
        <ele>2202.0</ele>
      </trkpt>
      <trkpt lat="46.10779" lon="7.642276">
        <time>1970-01-01T00:00:00+00:00</time>
        <ele>2202.0</ele>
      </trkpt>
      <trkpt lat="46.107787" lon="7.642376">
        <time>1970-01-01T00:00:00+00:00</time>
        <ele>2205.0</ele>
      </trkpt>
      <trkpt lat="46.107787" lon="7.642376">
        <time>1970-01-01T00:00:00+00:00</time>
        <ele>2205.0</ele>
      </trkpt>
      <trkpt lat="46.107827" lon="7.642439">
        <time>1970-01-01T00:00:00+00:00</time>
        <ele>2206.0</ele>
      </trkpt>
      <trkpt lat="46.107827" lon="7.642439">
        <time>1970-01-01T00:00:00+00:00</time>
        <ele>2206.0</ele>
      </trkpt>
      <trkpt lat="46.107895" lon="7.642471">
        <time>1970-01-01T00:00:00+00:00</time>
        <ele>2207.0</ele>
      </trkpt>
      <trkpt lat="46.107895" lon="7.642471">
        <time>1970-01-01T00:00:00+00:00</time>
        <ele>2207.0</ele>
      </trkpt>
      <trkpt lat="46.107933" lon="7.642538">
        <time>1970-01-01T00:00:00+00:00</time>
        <ele>2208.0</ele>
      </trkpt>
      <trkpt lat="46.107933" lon="7.642538">
        <time>1970-01-01T00:00:00+00:00</time>
        <ele>2208.0</ele>
      </trkpt>
      <trkpt lat="46.107885004291845" lon="7.642788024154083">
        <time>1970-01-01T00:00:00+00:00</time>
        <ele>2214.0</ele>
      </trkpt>
      <trkpt lat="46.107847" lon="7.642986">
        <time>1970-01-01T00:00:00+00:00</time>
        <ele>2219.0</ele>
      </trkpt>
      <trkpt lat="46.107847" lon="7.642986">
        <time>1970-01-01T00:00:00+00:00</time>
        <ele>2219.0</ele>
      </trkpt>
      <trkpt lat="46.10774" lon="7.643158">
        <time>1970-01-01T00:00:00+00:00</time>
        <ele>2224.0</ele>
      </trkpt>
      <trkpt lat="46.10774" lon="7.643158">
        <time>1970-01-01T00:00:00+00:00</time>
        <ele>2224.0</ele>
      </trkpt>
      <trkpt lat="46.107732" lon="7.643241">
        <time>1970-01-01T00:00:00+00:00</time>
        <ele>2226.0</ele>
      </trkpt>
      <trkpt lat="46.107732" lon="7.643241">
        <time>1970-01-01T00:00:00+00:00</time>
        <ele>2226.0</ele>
      </trkpt>
      <trkpt lat="46.10786840373184" lon="7.643410103256597">
        <time>1970-01-01T00:00:00+00:00</time>
        <ele>2226.0</ele>
      </trkpt>
      <trkpt lat="46.107878" lon="7.643422">
        <time>1970-01-01T00:00:00+00:00</time>
        <ele>2226.0</ele>
      </trkpt>
      <trkpt lat="46.107878" lon="7.643422">
        <time>1970-01-01T00:00:00+00:00</time>
        <ele>2226.0</ele>
      </trkpt>
      <trkpt lat="46.107938" lon="7.643447">
        <time>1970-01-01T00:00:00+00:00</time>
        <ele>2226.0</ele>
      </trkpt>
      <trkpt lat="46.107938" lon="7.643447">
        <time>1970-01-01T00:00:00+00:00</time>
        <ele>2226.0</ele>
      </trkpt>
      <trkpt lat="46.108029" lon="7.643415">
        <time>1970-01-01T00:00:00+00:00</time>
        <ele>2224.0</ele>
      </trkpt>
      <trkpt lat="46.108029" lon="7.643415">
        <time>1970-01-01T00:00:00+00:00</time>
        <ele>2224.0</ele>
      </trkpt>
      <trkpt lat="46.108174" lon="7.643415">
        <time>1970-01-01T00:00:00+00:00</time>
        <ele>2224.0</ele>
      </trkpt>
      <trkpt lat="46.108174" lon="7.643415">
        <time>1970-01-01T00:00:00+00:00</time>
        <ele>2224.0</ele>
      </trkpt>
      <trkpt lat="46.108031" lon="7.643548">
        <time>1970-01-01T00:00:00+00:00</time>
        <ele>2226.0</ele>
      </trkpt>
      <trkpt lat="46.108031" lon="7.643548">
        <time>1970-01-01T00:00:00+00:00</time>
        <ele>2226.0</ele>
      </trkpt>
      <trkpt lat="46.107925" lon="7.643644">
        <time>1970-01-01T00:00:00+00:00</time>
        <ele>2229.0</ele>
      </trkpt>
      <trkpt lat="46.107925" lon="7.643644">
        <time>1970-01-01T00:00:00+00:00</time>
        <ele>2229.0</ele>
      </trkpt>
      <trkpt lat="46.107833" lon="7.643772">
        <time>1970-01-01T00:00:00+00:00</time>
        <ele>2230.0</ele>
      </trkpt>
      <trkpt lat="46.107833" lon="7.643772">
        <time>1970-01-01T00:00:00+00:00</time>
        <ele>2230.0</ele>
      </trkpt>
      <trkpt lat="46.107854" lon="7.643944">
        <time>1970-01-01T00:00:00+00:00</time>
        <ele>2233.0</ele>
      </trkpt>
      <trkpt lat="46.107854" lon="7.643944">
        <time>1970-01-01T00:00:00+00:00</time>
        <ele>2233.0</ele>
      </trkpt>
      <trkpt lat="46.107851" lon="7.64402">
        <time>1970-01-01T00:00:00+00:00</time>
        <ele>2234.0</ele>
      </trkpt>
      <trkpt lat="46.107851" lon="7.64402">
        <time>1970-01-01T00:00:00+00:00</time>
        <ele>2234.0</ele>
      </trkpt>
      <trkpt lat="46.107919" lon="7.644054">
        <time>1970-01-01T00:00:00+00:00</time>
        <ele>2235.0</ele>
      </trkpt>
      <trkpt lat="46.107919" lon="7.644054">
        <time>1970-01-01T00:00:00+00:00</time>
        <ele>2235.0</ele>
      </trkpt>
      <trkpt lat="46.107997" lon="7.644027">
        <time>1970-01-01T00:00:00+00:00</time>
        <ele>2236.0</ele>
      </trkpt>
      <trkpt lat="46.107997" lon="7.644027">
        <time>1970-01-01T00:00:00+00:00</time>
        <ele>2236.0</ele>
      </trkpt>
      <trkpt lat="46.108048" lon="7.644054">
        <time>1970-01-01T00:00:00+00:00</time>
        <ele>2238.0</ele>
      </trkpt>
      <trkpt lat="46.108048" lon="7.644054">
        <time>1970-01-01T00:00:00+00:00</time>
        <ele>2238.0</ele>
      </trkpt>
      <trkpt lat="46.108011" lon="7.644139">
        <time>1970-01-01T00:00:00+00:00</time>
        <ele>2239.0</ele>
      </trkpt>
      <trkpt lat="46.108011" lon="7.644139">
        <time>1970-01-01T00:00:00+00:00</time>
        <ele>2239.0</ele>
      </trkpt>
      <trkpt lat="46.108045" lon="7.644244">
        <time>1970-01-01T00:00:00+00:00</time>
        <ele>2241.0</ele>
      </trkpt>
      <trkpt lat="46.108045" lon="7.644244">
        <time>1970-01-01T00:00:00+00:00</time>
        <ele>2241.0</ele>
      </trkpt>
      <trkpt lat="46.108035" lon="7.644374">
        <time>1970-01-01T00:00:00+00:00</time>
        <ele>2243.0</ele>
      </trkpt>
      <trkpt lat="46.108035" lon="7.644374">
        <time>1970-01-01T00:00:00+00:00</time>
        <ele>2243.0</ele>
      </trkpt>
      <trkpt lat="46.108108" lon="7.644371">
        <time>1970-01-01T00:00:00+00:00</time>
        <ele>2244.0</ele>
      </trkpt>
      <trkpt lat="46.108108" lon="7.644371">
        <time>1970-01-01T00:00:00+00:00</time>
        <ele>2244.0</ele>
      </trkpt>
      <trkpt lat="46.10813" lon="7.64447">
        <time>1970-01-01T00:00:00+00:00</time>
        <ele>2246.0</ele>
      </trkpt>
      <trkpt lat="46.10813" lon="7.64447">
        <time>1970-01-01T00:00:00+00:00</time>
        <ele>2246.0</ele>
      </trkpt>
      <trkpt lat="46.108194" lon="7.644558">
        <time>1970-01-01T00:00:00+00:00</time>
        <ele>2250.0</ele>
      </trkpt>
      <trkpt lat="46.108194" lon="7.644558">
        <time>1970-01-01T00:00:00+00:00</time>
        <ele>2250.0</ele>
      </trkpt>
      <trkpt lat="46.108251" lon="7.644563">
        <time>1970-01-01T00:00:00+00:00</time>
        <ele>2251.0</ele>
      </trkpt>
      <trkpt lat="46.108251" lon="7.644563">
        <time>1970-01-01T00:00:00+00:00</time>
        <ele>2251.0</ele>
      </trkpt>
      <trkpt lat="46.108359" lon="7.644428">
        <time>1970-01-01T00:00:00+00:00</time>
        <ele>2252.0</ele>
      </trkpt>
      <trkpt lat="46.108359" lon="7.644428">
        <time>1970-01-01T00:00:00+00:00</time>
        <ele>2252.0</ele>
      </trkpt>
      <trkpt lat="46.108463" lon="7.644344">
        <time>1970-01-01T00:00:00+00:00</time>
        <ele>2253.0</ele>
      </trkpt>
      <trkpt lat="46.108463" lon="7.644344">
        <time>1970-01-01T00:00:00+00:00</time>
        <ele>2253.0</ele>
      </trkpt>
      <trkpt lat="46.108532" lon="7.644293">
        <time>1970-01-01T00:00:00+00:00</time>
        <ele>2255.0</ele>
      </trkpt>
      <trkpt lat="46.108532" lon="7.644293">
        <time>1970-01-01T00:00:00+00:00</time>
        <ele>2255.0</ele>
      </trkpt>
      <trkpt lat="46.10868526614946" lon="7.64415722618282">
        <time>1970-01-01T00:00:00+00:00</time>
        <ele>2256.0</ele>
      </trkpt>
      <trkpt lat="46.108716" lon="7.64413">
        <time>1970-01-01T00:00:00+00:00</time>
        <ele>2256.0</ele>
      </trkpt>
      <trkpt lat="46.108716" lon="7.64413">
        <time>1970-01-01T00:00:00+00:00</time>
        <ele>2256.0</ele>
      </trkpt>
      <trkpt lat="46.108765" lon="7.644097">
        <time>1970-01-01T00:00:00+00:00</time>
        <ele>2256.0</ele>
      </trkpt>
      <trkpt lat="46.108765" lon="7.644097">
        <time>1970-01-01T00:00:00+00:00</time>
        <ele>2256.0</ele>
      </trkpt>
      <trkpt lat="46.108867" lon="7.644048">
        <time>1970-01-01T00:00:00+00:00</time>
        <ele>2258.0</ele>
      </trkpt>
      <trkpt lat="46.108867" lon="7.644048">
        <time>1970-01-01T00:00:00+00:00</time>
        <ele>2258.0</ele>
      </trkpt>
      <trkpt lat="46.10898" lon="7.644042">
        <time>1970-01-01T00:00:00+00:00</time>
        <ele>2262.0</ele>
      </trkpt>
      <trkpt lat="46.10898" lon="7.644042">
        <time>1970-01-01T00:00:00+00:00</time>
        <ele>2262.0</ele>
      </trkpt>
      <trkpt lat="46.108983" lon="7.644135">
        <time>1970-01-01T00:00:00+00:00</time>
        <ele>2266.0</ele>
      </trkpt>
      <trkpt lat="46.108983" lon="7.644135">
        <time>1970-01-01T00:00:00+00:00</time>
        <ele>2266.0</ele>
      </trkpt>
      <trkpt lat="46.109122" lon="7.644101">
        <time>1970-01-01T00:00:00+00:00</time>
        <ele>2270.0</ele>
      </trkpt>
      <trkpt lat="46.109122" lon="7.644101">
        <time>1970-01-01T00:00:00+00:00</time>
        <ele>2270.0</ele>
      </trkpt>
      <trkpt lat="46.109149" lon="7.644026">
        <time>1970-01-01T00:00:00+00:00</time>
        <ele>2268.0</ele>
      </trkpt>
      <trkpt lat="46.109149" lon="7.644026">
        <time>1970-01-01T00:00:00+00:00</time>
        <ele>2268.0</ele>
      </trkpt>
      <trkpt lat="46.109231" lon="7.64397">
        <time>1970-01-01T00:00:00+00:00</time>
        <ele>2269.0</ele>
      </trkpt>
      <trkpt lat="46.109231" lon="7.64397">
        <time>1970-01-01T00:00:00+00:00</time>
        <ele>2269.0</ele>
      </trkpt>
      <trkpt lat="46.109278" lon="7.643939">
        <time>1970-01-01T00:00:00+00:00</time>
        <ele>2269.0</ele>
      </trkpt>
      <trkpt lat="46.109278" lon="7.643939">
        <time>1970-01-01T00:00:00+00:00</time>
        <ele>2269.0</ele>
      </trkpt>
      <trkpt lat="46.109359" lon="7.643876">
        <time>1970-01-01T00:00:00+00:00</time>
        <ele>2268.0</ele>
      </trkpt>
      <trkpt lat="46.109359" lon="7.643876">
        <time>1970-01-01T00:00:00+00:00</time>
        <ele>2268.0</ele>
      </trkpt>
      <trkpt lat="46.109417" lon="7.643876">
        <time>1970-01-01T00:00:00+00:00</time>
        <ele>2270.0</ele>
      </trkpt>
      <trkpt lat="46.109417" lon="7.643876">
        <time>1970-01-01T00:00:00+00:00</time>
        <ele>2270.0</ele>
      </trkpt>
      <trkpt lat="46.109443" lon="7.643959">
        <time>1970-01-01T00:00:00+00:00</time>
        <ele>2275.0</ele>
      </trkpt>
      <trkpt lat="46.109443" lon="7.643959">
        <time>1970-01-01T00:00:00+00:00</time>
        <ele>2275.0</ele>
      </trkpt>
      <trkpt lat="46.109487" lon="7.644014">
        <time>1970-01-01T00:00:00+00:00</time>
        <ele>2278.0</ele>
      </trkpt>
      <trkpt lat="46.109487" lon="7.644014">
        <time>1970-01-01T00:00:00+00:00</time>
        <ele>2278.0</ele>
      </trkpt>
      <trkpt lat="46.109537" lon="7.644034">
        <time>1970-01-01T00:00:00+00:00</time>
        <ele>2281.0</ele>
      </trkpt>
      <trkpt lat="46.109537" lon="7.644034">
        <time>1970-01-01T00:00:00+00:00</time>
        <ele>2281.0</ele>
      </trkpt>
      <trkpt lat="46.109625" lon="7.644024">
        <time>1970-01-01T00:00:00+00:00</time>
        <ele>2284.0</ele>
      </trkpt>
      <trkpt lat="46.109625" lon="7.644024">
        <time>1970-01-01T00:00:00+00:00</time>
        <ele>2284.0</ele>
      </trkpt>
      <trkpt lat="46.109709" lon="7.644015">
        <time>1970-01-01T00:00:00+00:00</time>
        <ele>2287.0</ele>
      </trkpt>
      <trkpt lat="46.109709" lon="7.644015">
        <time>1970-01-01T00:00:00+00:00</time>
        <ele>2287.0</ele>
      </trkpt>
      <trkpt lat="46.109771" lon="7.644095">
        <time>1970-01-01T00:00:00+00:00</time>
        <ele>2292.0</ele>
      </trkpt>
      <trkpt lat="46.109771" lon="7.644095">
        <time>1970-01-01T00:00:00+00:00</time>
        <ele>2292.0</ele>
      </trkpt>
      <trkpt lat="46.109821" lon="7.644109">
        <time>1970-01-01T00:00:00+00:00</time>
        <ele>2294.0</ele>
      </trkpt>
      <trkpt lat="46.109821" lon="7.644109">
        <time>1970-01-01T00:00:00+00:00</time>
        <ele>2294.0</ele>
      </trkpt>
      <trkpt lat="46.109914" lon="7.644138">
        <time>1970-01-01T00:00:00+00:00</time>
        <ele>2297.0</ele>
      </trkpt>
      <trkpt lat="46.109914" lon="7.644138">
        <time>1970-01-01T00:00:00+00:00</time>
        <ele>2297.0</ele>
      </trkpt>
      <trkpt lat="46.109964" lon="7.644109">
        <time>1970-01-01T00:00:00+00:00</time>
        <ele>2298.0</ele>
      </trkpt>
      <trkpt lat="46.109964" lon="7.644109">
        <time>1970-01-01T00:00:00+00:00</time>
        <ele>2298.0</ele>
      </trkpt>
      <trkpt lat="46.110021" lon="7.644112">
        <time>1970-01-01T00:00:00+00:00</time>
        <ele>2300.0</ele>
      </trkpt>
      <trkpt lat="46.110021" lon="7.644112">
        <time>1970-01-01T00:00:00+00:00</time>
        <ele>2300.0</ele>
      </trkpt>
      <trkpt lat="46.110065" lon="7.644049">
        <time>1970-01-01T00:00:00+00:00</time>
        <ele>2301.0</ele>
      </trkpt>
      <trkpt lat="46.110065" lon="7.644049">
        <time>1970-01-01T00:00:00+00:00</time>
        <ele>2301.0</ele>
      </trkpt>
      <trkpt lat="46.110181" lon="7.644037">
        <time>1970-01-01T00:00:00+00:00</time>
        <ele>2305.0</ele>
      </trkpt>
      <trkpt lat="46.110181" lon="7.644037">
        <time>1970-01-01T00:00:00+00:00</time>
        <ele>2305.0</ele>
      </trkpt>
      <trkpt lat="46.110206" lon="7.643982">
        <time>1970-01-01T00:00:00+00:00</time>
        <ele>2305.0</ele>
      </trkpt>
      <trkpt lat="46.110206" lon="7.643982">
        <time>1970-01-01T00:00:00+00:00</time>
        <ele>2305.0</ele>
      </trkpt>
      <trkpt lat="46.110263" lon="7.643984">
        <time>1970-01-01T00:00:00+00:00</time>
        <ele>2307.0</ele>
      </trkpt>
      <trkpt lat="46.110263" lon="7.643984">
        <time>1970-01-01T00:00:00+00:00</time>
        <ele>2307.0</ele>
      </trkpt>
      <trkpt lat="46.110342" lon="7.643928">
        <time>1970-01-01T00:00:00+00:00</time>
        <ele>2310.0</ele>
      </trkpt>
      <trkpt lat="46.110342" lon="7.643928">
        <time>1970-01-01T00:00:00+00:00</time>
        <ele>2310.0</ele>
      </trkpt>
      <trkpt lat="46.110428" lon="7.643808">
        <time>1970-01-01T00:00:00+00:00</time>
        <ele>2311.0</ele>
      </trkpt>
      <trkpt lat="46.110428" lon="7.643808">
        <time>1970-01-01T00:00:00+00:00</time>
        <ele>2311.0</ele>
      </trkpt>
      <trkpt lat="46.110473" lon="7.643775">
        <time>1970-01-01T00:00:00+00:00</time>
        <ele>2312.0</ele>
      </trkpt>
      <trkpt lat="46.110473" lon="7.643775">
        <time>1970-01-01T00:00:00+00:00</time>
        <ele>2312.0</ele>
      </trkpt>
      <trkpt lat="46.110455" lon="7.64384">
        <time>1970-01-01T00:00:00+00:00</time>
        <ele>2313.0</ele>
      </trkpt>
      <trkpt lat="46.110455" lon="7.64384">
        <time>1970-01-01T00:00:00+00:00</time>
        <ele>2313.0</ele>
      </trkpt>
      <trkpt lat="46.11059" lon="7.643921">
        <time>1970-01-01T00:00:00+00:00</time>
        <ele>2322.0</ele>
      </trkpt>
      <trkpt lat="46.11059" lon="7.643921">
        <time>1970-01-01T00:00:00+00:00</time>
        <ele>2322.0</ele>
      </trkpt>
      <trkpt lat="46.110675" lon="7.64394">
        <time>1970-01-01T00:00:00+00:00</time>
        <ele>2327.0</ele>
      </trkpt>
      <trkpt lat="46.110675" lon="7.64394">
        <time>1970-01-01T00:00:00+00:00</time>
        <ele>2327.0</ele>
      </trkpt>
      <trkpt lat="46.1107" lon="7.644013">
        <time>1970-01-01T00:00:00+00:00</time>
        <ele>2329.0</ele>
      </trkpt>
      <trkpt lat="46.1107" lon="7.644013">
        <time>1970-01-01T00:00:00+00:00</time>
        <ele>2329.0</ele>
      </trkpt>
      <trkpt lat="46.110753" lon="7.644074">
        <time>1970-01-01T00:00:00+00:00</time>
        <ele>2333.0</ele>
      </trkpt>
      <trkpt lat="46.110753" lon="7.644074">
        <time>1970-01-01T00:00:00+00:00</time>
        <ele>2333.0</ele>
      </trkpt>
      <trkpt lat="46.110808" lon="7.644075">
        <time>1970-01-01T00:00:00+00:00</time>
        <ele>2335.0</ele>
      </trkpt>
      <trkpt lat="46.110808" lon="7.644075">
        <time>1970-01-01T00:00:00+00:00</time>
        <ele>2335.0</ele>
      </trkpt>
      <trkpt lat="46.110828" lon="7.64417">
        <time>1970-01-01T00:00:00+00:00</time>
        <ele>2338.0</ele>
      </trkpt>
      <trkpt lat="46.110828" lon="7.64417">
        <time>1970-01-01T00:00:00+00:00</time>
        <ele>2338.0</ele>
      </trkpt>
      <trkpt lat="46.110877" lon="7.644213">
        <time>1970-01-01T00:00:00+00:00</time>
        <ele>2341.0</ele>
      </trkpt>
      <trkpt lat="46.110877" lon="7.644213">
        <time>1970-01-01T00:00:00+00:00</time>
        <ele>2341.0</ele>
      </trkpt>
      <trkpt lat="46.110912" lon="7.644261">
        <time>1970-01-01T00:00:00+00:00</time>
        <ele>2344.0</ele>
      </trkpt>
      <trkpt lat="46.110912" lon="7.644261">
        <time>1970-01-01T00:00:00+00:00</time>
        <ele>2344.0</ele>
      </trkpt>
      <trkpt lat="46.110962" lon="7.644222">
        <time>1970-01-01T00:00:00+00:00</time>
        <ele>2346.0</ele>
      </trkpt>
      <trkpt lat="46.110962" lon="7.644222">
        <time>1970-01-01T00:00:00+00:00</time>
        <ele>2346.0</ele>
      </trkpt>
      <trkpt lat="46.111001" lon="7.644282">
        <time>1970-01-01T00:00:00+00:00</time>
        <ele>2348.0</ele>
      </trkpt>
      <trkpt lat="46.111001" lon="7.644282">
        <time>1970-01-01T00:00:00+00:00</time>
        <ele>2348.0</ele>
      </trkpt>
      <trkpt lat="46.11106" lon="7.644375">
        <time>1970-01-01T00:00:00+00:00</time>
        <ele>2352.0</ele>
      </trkpt>
      <trkpt lat="46.11106" lon="7.644375">
        <time>1970-01-01T00:00:00+00:00</time>
        <ele>2352.0</ele>
      </trkpt>
      <trkpt lat="46.111151" lon="7.644335">
        <time>1970-01-01T00:00:00+00:00</time>
        <ele>2356.0</ele>
      </trkpt>
      <trkpt lat="46.111151" lon="7.644335">
        <time>1970-01-01T00:00:00+00:00</time>
        <ele>2356.0</ele>
      </trkpt>
      <trkpt lat="46.111192" lon="7.644267">
        <time>1970-01-01T00:00:00+00:00</time>
        <ele>2357.0</ele>
      </trkpt>
      <trkpt lat="46.111192" lon="7.644267">
        <time>1970-01-01T00:00:00+00:00</time>
        <ele>2357.0</ele>
      </trkpt>
      <trkpt lat="46.111238" lon="7.644313">
        <time>1970-01-01T00:00:00+00:00</time>
        <ele>2359.0</ele>
      </trkpt>
      <trkpt lat="46.111238" lon="7.644313">
        <time>1970-01-01T00:00:00+00:00</time>
        <ele>2359.0</ele>
      </trkpt>
      <trkpt lat="46.111295" lon="7.644285">
        <time>1970-01-01T00:00:00+00:00</time>
        <ele>2361.0</ele>
      </trkpt>
      <trkpt lat="46.111295" lon="7.644285">
        <time>1970-01-01T00:00:00+00:00</time>
        <ele>2361.0</ele>
      </trkpt>
      <trkpt lat="46.111398" lon="7.644331">
        <time>1970-01-01T00:00:00+00:00</time>
        <ele>2364.0</ele>
      </trkpt>
      <trkpt lat="46.111398" lon="7.644331">
        <time>1970-01-01T00:00:00+00:00</time>
        <ele>2364.0</ele>
      </trkpt>
      <trkpt lat="46.111546" lon="7.644328">
        <time>1970-01-01T00:00:00+00:00</time>
        <ele>2367.0</ele>
      </trkpt>
      <trkpt lat="46.111546" lon="7.644328">
        <time>1970-01-01T00:00:00+00:00</time>
        <ele>2367.0</ele>
      </trkpt>
      <trkpt lat="46.1117214605062" lon="7.64438506032722">
        <time>1970-01-01T00:00:00+00:00</time>
        <ele>2372.0</ele>
      </trkpt>
      <trkpt lat="46.111792" lon="7.644408">
        <time>1970-01-01T00:00:00+00:00</time>
        <ele>2373.0</ele>
      </trkpt>
      <trkpt lat="46.111792" lon="7.644408">
        <time>1970-01-01T00:00:00+00:00</time>
        <ele>2373.0</ele>
      </trkpt>
      <trkpt lat="46.111835" lon="7.644384">
        <time>1970-01-01T00:00:00+00:00</time>
        <ele>2374.0</ele>
      </trkpt>
      <trkpt lat="46.111835" lon="7.644384">
        <time>1970-01-01T00:00:00+00:00</time>
        <ele>2374.0</ele>
      </trkpt>
      <trkpt lat="46.111867" lon="7.644439">
        <time>1970-01-01T00:00:00+00:00</time>
        <ele>2375.0</ele>
      </trkpt>
      <trkpt lat="46.111867" lon="7.644439">
        <time>1970-01-01T00:00:00+00:00</time>
        <ele>2375.0</ele>
      </trkpt>
      <trkpt lat="46.111994" lon="7.644423">
        <time>1970-01-01T00:00:00+00:00</time>
        <ele>2377.0</ele>
      </trkpt>
      <trkpt lat="46.111994" lon="7.644423">
        <time>1970-01-01T00:00:00+00:00</time>
        <ele>2377.0</ele>
      </trkpt>
      <trkpt lat="46.112118" lon="7.644455">
        <time>1970-01-01T00:00:00+00:00</time>
        <ele>2380.0</ele>
      </trkpt>
      <trkpt lat="46.112118" lon="7.644455">
        <time>1970-01-01T00:00:00+00:00</time>
        <ele>2380.0</ele>
      </trkpt>
      <trkpt lat="46.112098" lon="7.644527">
        <time>1970-01-01T00:00:00+00:00</time>
        <ele>2380.0</ele>
      </trkpt>
      <trkpt lat="46.112098" lon="7.644527">
        <time>1970-01-01T00:00:00+00:00</time>
        <ele>2380.0</ele>
      </trkpt>
      <trkpt lat="46.11215" lon="7.644454">
        <time>1970-01-01T00:00:00+00:00</time>
        <ele>2380.0</ele>
      </trkpt>
      <trkpt lat="46.11215" lon="7.644454">
        <time>1970-01-01T00:00:00+00:00</time>
        <ele>2380.0</ele>
      </trkpt>
      <trkpt lat="46.112243" lon="7.644559">
        <time>1970-01-01T00:00:00+00:00</time>
        <ele>2384.0</ele>
      </trkpt>
      <trkpt lat="46.112243" lon="7.644559">
        <time>1970-01-01T00:00:00+00:00</time>
        <ele>2384.0</ele>
      </trkpt>
      <trkpt lat="46.112378" lon="7.644536">
        <time>1970-01-01T00:00:00+00:00</time>
        <ele>2387.0</ele>
      </trkpt>
      <trkpt lat="46.112378" lon="7.644536">
        <time>1970-01-01T00:00:00+00:00</time>
        <ele>2387.0</ele>
      </trkpt>
      <trkpt lat="46.112508" lon="7.644633">
        <time>1970-01-01T00:00:00+00:00</time>
        <ele>2391.0</ele>
      </trkpt>
      <trkpt lat="46.112508" lon="7.644633">
        <time>1970-01-01T00:00:00+00:00</time>
        <ele>2391.0</ele>
      </trkpt>
      <trkpt lat="46.11268651088727" lon="7.644664768886718">
        <time>1970-01-01T00:00:00+00:00</time>
        <ele>2397.0</ele>
      </trkpt>
      <trkpt lat="46.112744" lon="7.644675">
        <time>1970-01-01T00:00:00+00:00</time>
        <ele>2399.0</ele>
      </trkpt>
      <trkpt lat="46.112744" lon="7.644675">
        <time>1970-01-01T00:00:00+00:00</time>
        <ele>2399.0</ele>
      </trkpt>
      <trkpt lat="46.112834" lon="7.644609">
        <time>1970-01-01T00:00:00+00:00</time>
        <ele>2399.0</ele>
      </trkpt>
      <trkpt lat="46.112834" lon="7.644609">
        <time>1970-01-01T00:00:00+00:00</time>
        <ele>2399.0</ele>
      </trkpt>
      <trkpt lat="46.112895" lon="7.644589">
        <time>1970-01-01T00:00:00+00:00</time>
        <ele>2401.0</ele>
      </trkpt>
      <trkpt lat="46.112895" lon="7.644589">
        <time>1970-01-01T00:00:00+00:00</time>
        <ele>2401.0</ele>
      </trkpt>
      <trkpt lat="46.113008" lon="7.64458">
        <time>1970-01-01T00:00:00+00:00</time>
        <ele>2402.0</ele>
      </trkpt>
      <trkpt lat="46.113008" lon="7.64458">
        <time>1970-01-01T00:00:00+00:00</time>
        <ele>2402.0</ele>
      </trkpt>
      <trkpt lat="46.113112" lon="7.644541">
        <time>1970-01-01T00:00:00+00:00</time>
        <ele>2403.0</ele>
      </trkpt>
      <trkpt lat="46.113112" lon="7.644541">
        <time>1970-01-01T00:00:00+00:00</time>
        <ele>2403.0</ele>
      </trkpt>
      <trkpt lat="46.113287630855424" lon="7.644596960811777">
        <time>1970-01-01T00:00:00+00:00</time>
        <ele>2409.0</ele>
      </trkpt>
      <trkpt lat="46.113316" lon="7.644606">
        <time>1970-01-01T00:00:00+00:00</time>
        <ele>2410.0</ele>
      </trkpt>
      <trkpt lat="46.113316" lon="7.644606">
        <time>1970-01-01T00:00:00+00:00</time>
        <ele>2410.0</ele>
      </trkpt>
      <trkpt lat="46.113495488426906" lon="7.644589234597486">
        <time>1970-01-01T00:00:00+00:00</time>
        <ele>2413.0</ele>
      </trkpt>
      <trkpt lat="46.113498" lon="7.644589">
        <time>1970-01-01T00:00:00+00:00</time>
        <ele>2413.0</ele>
      </trkpt>
      <trkpt lat="46.113498" lon="7.644589">
        <time>1970-01-01T00:00:00+00:00</time>
        <ele>2413.0</ele>
      </trkpt>
      <trkpt lat="46.113514" lon="7.644675">
        <time>1970-01-01T00:00:00+00:00</time>
        <ele>2415.0</ele>
      </trkpt>
      <trkpt lat="46.113514" lon="7.644675">
        <time>1970-01-01T00:00:00+00:00</time>
        <ele>2415.0</ele>
      </trkpt>
      <trkpt lat="46.113604" lon="7.644692">
        <time>1970-01-01T00:00:00+00:00</time>
        <ele>2417.0</ele>
      </trkpt>
      <trkpt lat="46.113604" lon="7.644692">
        <time>1970-01-01T00:00:00+00:00</time>
        <ele>2417.0</ele>
      </trkpt>
      <trkpt lat="46.113659" lon="7.644753">
        <time>1970-01-01T00:00:00+00:00</time>
        <ele>2419.0</ele>
      </trkpt>
      <trkpt lat="46.113659" lon="7.644753">
        <time>1970-01-01T00:00:00+00:00</time>
        <ele>2419.0</ele>
      </trkpt>
      <trkpt lat="46.113765" lon="7.644824">
        <time>1970-01-01T00:00:00+00:00</time>
        <ele>2422.0</ele>
      </trkpt>
      <trkpt lat="46.113765" lon="7.644824">
        <time>1970-01-01T00:00:00+00:00</time>
        <ele>2422.0</ele>
      </trkpt>
      <trkpt lat="46.11394383583704" lon="7.644851706960669">
        <time>1970-01-01T00:00:00+00:00</time>
        <ele>2426.0</ele>
      </trkpt>
      <trkpt lat="46.113978" lon="7.644857">
        <time>1970-01-01T00:00:00+00:00</time>
        <ele>2427.0</ele>
      </trkpt>
      <trkpt lat="46.113978" lon="7.644857">
        <time>1970-01-01T00:00:00+00:00</time>
        <ele>2427.0</ele>
      </trkpt>
      <trkpt lat="46.114112" lon="7.644847">
        <time>1970-01-01T00:00:00+00:00</time>
        <ele>2430.0</ele>
      </trkpt>
      <trkpt lat="46.114112" lon="7.644847">
        <time>1970-01-01T00:00:00+00:00</time>
        <ele>2430.0</ele>
      </trkpt>
      <trkpt lat="46.11429098201389" lon="7.644821332036767">
        <time>1970-01-01T00:00:00+00:00</time>
        <ele>2433.0</ele>
      </trkpt>
      <trkpt lat="46.11437" lon="7.64481">
        <time>1970-01-01T00:00:00+00:00</time>
        <ele>2434.0</ele>
      </trkpt>
      <trkpt lat="46.11437" lon="7.64481">
        <time>1970-01-01T00:00:00+00:00</time>
        <ele>2434.0</ele>
      </trkpt>
      <trkpt lat="46.11452268982805" lon="7.644947132751232">
        <time>1970-01-01T00:00:00+00:00</time>
        <ele>2442.0</ele>
      </trkpt>
      <trkpt lat="46.114635" lon="7.645048">
        <time>1970-01-01T00:00:00+00:00</time>
        <ele>2447.0</ele>
      </trkpt>
      <trkpt lat="46.114635" lon="7.645048">
        <time>1970-01-01T00:00:00+00:00</time>
        <ele>2447.0</ele>
      </trkpt>
      <trkpt lat="46.114683" lon="7.64511">
        <time>1970-01-01T00:00:00+00:00</time>
        <ele>2450.0</ele>
      </trkpt>
      <trkpt lat="46.114683" lon="7.64511">
        <time>1970-01-01T00:00:00+00:00</time>
        <ele>2450.0</ele>
      </trkpt>
      <trkpt lat="46.114736" lon="7.645138">
        <time>1970-01-01T00:00:00+00:00</time>
        <ele>2451.0</ele>
      </trkpt>
      <trkpt lat="46.114736" lon="7.645138">
        <time>1970-01-01T00:00:00+00:00</time>
        <ele>2451.0</ele>
      </trkpt>
      <trkpt lat="46.114862" lon="7.645117">
        <time>1970-01-01T00:00:00+00:00</time>
        <ele>2452.0</ele>
      </trkpt>
      <trkpt lat="46.114862" lon="7.645117">
        <time>1970-01-01T00:00:00+00:00</time>
        <ele>2452.0</ele>
      </trkpt>
      <trkpt lat="46.114922" lon="7.645149">
        <time>1970-01-01T00:00:00+00:00</time>
        <ele>2455.0</ele>
      </trkpt>
      <trkpt lat="46.114922" lon="7.645149">
        <time>1970-01-01T00:00:00+00:00</time>
        <ele>2455.0</ele>
      </trkpt>
      <trkpt lat="46.115073" lon="7.645164">
        <time>1970-01-01T00:00:00+00:00</time>
        <ele>2459.0</ele>
      </trkpt>
      <trkpt lat="46.115073" lon="7.645164">
        <time>1970-01-01T00:00:00+00:00</time>
        <ele>2459.0</ele>
      </trkpt>
      <trkpt lat="46.115232" lon="7.645141">
        <time>1970-01-01T00:00:00+00:00</time>
        <ele>2463.0</ele>
      </trkpt>
      <trkpt lat="46.115232" lon="7.645141">
        <time>1970-01-01T00:00:00+00:00</time>
        <ele>2463.0</ele>
      </trkpt>
      <trkpt lat="46.11540939806361" lon="7.645098179777748">
        <time>1970-01-01T00:00:00+00:00</time>
        <ele>2469.0</ele>
      </trkpt>
      <trkpt lat="46.115493" lon="7.645078">
        <time>1970-01-01T00:00:00+00:00</time>
        <ele>2471.0</ele>
      </trkpt>
      <trkpt lat="46.115493" lon="7.645078">
        <time>1970-01-01T00:00:00+00:00</time>
        <ele>2471.0</ele>
      </trkpt>
      <trkpt lat="46.115578" lon="7.645095">
        <time>1970-01-01T00:00:00+00:00</time>
        <ele>2475.0</ele>
      </trkpt>
      <trkpt lat="46.115578" lon="7.645095">
        <time>1970-01-01T00:00:00+00:00</time>
        <ele>2475.0</ele>
      </trkpt>
      <trkpt lat="46.115632" lon="7.645072">
        <time>1970-01-01T00:00:00+00:00</time>
        <ele>2475.0</ele>
      </trkpt>
      <trkpt lat="46.115632" lon="7.645072">
        <time>1970-01-01T00:00:00+00:00</time>
        <ele>2475.0</ele>
      </trkpt>
      <trkpt lat="46.115716" lon="7.645108">
        <time>1970-01-01T00:00:00+00:00</time>
        <ele>2479.0</ele>
      </trkpt>
      <trkpt lat="46.115716" lon="7.645108">
        <time>1970-01-01T00:00:00+00:00</time>
        <ele>2479.0</ele>
      </trkpt>
      <trkpt lat="46.115793" lon="7.64513">
        <time>1970-01-01T00:00:00+00:00</time>
        <ele>2483.0</ele>
      </trkpt>
      <trkpt lat="46.115793" lon="7.64513">
        <time>1970-01-01T00:00:00+00:00</time>
        <ele>2483.0</ele>
      </trkpt>
      <trkpt lat="46.115842" lon="7.645116">
        <time>1970-01-01T00:00:00+00:00</time>
        <ele>2484.0</ele>
      </trkpt>
      <trkpt lat="46.115842" lon="7.645116">
        <time>1970-01-01T00:00:00+00:00</time>
        <ele>2484.0</ele>
      </trkpt>
      <trkpt lat="46.115905" lon="7.645109">
        <time>1970-01-01T00:00:00+00:00</time>
        <ele>2487.0</ele>
      </trkpt>
      <trkpt lat="46.115905" lon="7.645109">
        <time>1970-01-01T00:00:00+00:00</time>
        <ele>2487.0</ele>
      </trkpt>
      <trkpt lat="46.116029" lon="7.645203">
        <time>1970-01-01T00:00:00+00:00</time>
        <ele>2495.0</ele>
      </trkpt>
      <trkpt lat="46.116029" lon="7.645203">
        <time>1970-01-01T00:00:00+00:00</time>
        <ele>2495.0</ele>
      </trkpt>
      <trkpt lat="46.116168" lon="7.64526">
        <time>1970-01-01T00:00:00+00:00</time>
        <ele>2501.0</ele>
      </trkpt>
      <trkpt lat="46.116168" lon="7.64526">
        <time>1970-01-01T00:00:00+00:00</time>
        <ele>2501.0</ele>
      </trkpt>
      <trkpt lat="46.116226" lon="7.645353">
        <time>1970-01-01T00:00:00+00:00</time>
        <ele>2506.0</ele>
      </trkpt>
      <trkpt lat="46.116226" lon="7.645353">
        <time>1970-01-01T00:00:00+00:00</time>
        <ele>2506.0</ele>
      </trkpt>
      <trkpt lat="46.116298" lon="7.645433">
        <time>1970-01-01T00:00:00+00:00</time>
        <ele>2513.0</ele>
      </trkpt>
      <trkpt lat="46.116298" lon="7.645433">
        <time>1970-01-01T00:00:00+00:00</time>
        <ele>2513.0</ele>
      </trkpt>
      <trkpt lat="46.116364" lon="7.645464">
        <time>1970-01-01T00:00:00+00:00</time>
        <ele>2517.0</ele>
      </trkpt>
      <trkpt lat="46.116364" lon="7.645464">
        <time>1970-01-01T00:00:00+00:00</time>
        <ele>2517.0</ele>
      </trkpt>
      <trkpt lat="46.116429" lon="7.645451">
        <time>1970-01-01T00:00:00+00:00</time>
        <ele>2518.0</ele>
      </trkpt>
      <trkpt lat="46.116429" lon="7.645451">
        <time>1970-01-01T00:00:00+00:00</time>
        <ele>2518.0</ele>
      </trkpt>
      <trkpt lat="46.116498" lon="7.645384">
        <time>1970-01-01T00:00:00+00:00</time>
        <ele>2517.0</ele>
      </trkpt>
      <trkpt lat="46.116498" lon="7.645384">
        <time>1970-01-01T00:00:00+00:00</time>
        <ele>2517.0</ele>
      </trkpt>
      <trkpt lat="46.116448" lon="7.64548">
        <time>1970-01-01T00:00:00+00:00</time>
        <ele>2521.0</ele>
      </trkpt>
      <trkpt lat="46.116448" lon="7.64548">
        <time>1970-01-01T00:00:00+00:00</time>
        <ele>2521.0</ele>
      </trkpt>
      <trkpt lat="46.116389" lon="7.645482">
        <time>1970-01-01T00:00:00+00:00</time>
        <ele>2519.0</ele>
      </trkpt>
      <trkpt lat="46.116389" lon="7.645482">
        <time>1970-01-01T00:00:00+00:00</time>
        <ele>2519.0</ele>
      </trkpt>
      <trkpt lat="46.116423" lon="7.645545">
        <time>1970-01-01T00:00:00+00:00</time>
        <ele>2524.0</ele>
      </trkpt>
      <trkpt lat="46.116423" lon="7.645545">
        <time>1970-01-01T00:00:00+00:00</time>
        <ele>2524.0</ele>
      </trkpt>
      <trkpt lat="46.11654" lon="7.645583">
        <time>1970-01-01T00:00:00+00:00</time>
        <ele>2530.0</ele>
      </trkpt>
      <trkpt lat="46.11654" lon="7.645583">
        <time>1970-01-01T00:00:00+00:00</time>
        <ele>2530.0</ele>
      </trkpt>
      <trkpt lat="46.116614" lon="7.645568">
        <time>1970-01-01T00:00:00+00:00</time>
        <ele>2532.0</ele>
      </trkpt>
      <trkpt lat="46.116614" lon="7.645568">
        <time>1970-01-01T00:00:00+00:00</time>
        <ele>2532.0</ele>
      </trkpt>
      <trkpt lat="46.116665" lon="7.645523">
        <time>1970-01-01T00:00:00+00:00</time>
        <ele>2531.0</ele>
      </trkpt>
      <trkpt lat="46.116665" lon="7.645523">
        <time>1970-01-01T00:00:00+00:00</time>
        <ele>2531.0</ele>
      </trkpt>
      <trkpt lat="46.116725" lon="7.645514">
        <time>1970-01-01T00:00:00+00:00</time>
        <ele>2532.0</ele>
      </trkpt>
      <trkpt lat="46.116725" lon="7.645514">
        <time>1970-01-01T00:00:00+00:00</time>
        <ele>2532.0</ele>
      </trkpt>
      <trkpt lat="46.116811" lon="7.645533">
        <time>1970-01-01T00:00:00+00:00</time>
        <ele>2535.0</ele>
      </trkpt>
      <trkpt lat="46.116811" lon="7.645533">
        <time>1970-01-01T00:00:00+00:00</time>
        <ele>2535.0</ele>
      </trkpt>
      <trkpt lat="46.116859" lon="7.645565">
        <time>1970-01-01T00:00:00+00:00</time>
        <ele>2539.0</ele>
      </trkpt>
      <trkpt lat="46.116859" lon="7.645565">
        <time>1970-01-01T00:00:00+00:00</time>
        <ele>2539.0</ele>
      </trkpt>
      <trkpt lat="46.116897" lon="7.645505">
        <time>1970-01-01T00:00:00+00:00</time>
        <ele>2536.0</ele>
      </trkpt>
      <trkpt lat="46.116897" lon="7.645505">
        <time>1970-01-01T00:00:00+00:00</time>
        <ele>2536.0</ele>
      </trkpt>
      <trkpt lat="46.116978" lon="7.645464">
        <time>1970-01-01T00:00:00+00:00</time>
        <ele>2537.0</ele>
      </trkpt>
      <trkpt lat="46.116978" lon="7.645464">
        <time>1970-01-01T00:00:00+00:00</time>
        <ele>2537.0</ele>
      </trkpt>
      <trkpt lat="46.117131" lon="7.645488">
        <time>1970-01-01T00:00:00+00:00</time>
        <ele>2544.0</ele>
      </trkpt>
      <trkpt lat="46.117131" lon="7.645488">
        <time>1970-01-01T00:00:00+00:00</time>
        <ele>2544.0</ele>
      </trkpt>
      <trkpt lat="46.11731071049655" lon="7.645477271015132">
        <time>1970-01-01T00:00:00+00:00</time>
        <ele>2548.0</ele>
      </trkpt>
      <trkpt lat="46.117399" lon="7.645472">
        <time>1970-01-01T00:00:00+00:00</time>
        <ele>2550.0</ele>
      </trkpt>
      <trkpt lat="46.117399" lon="7.645472">
        <time>1970-01-01T00:00:00+00:00</time>
        <ele>2550.0</ele>
      </trkpt>
      <trkpt lat="46.117454" lon="7.645442">
        <time>1970-01-01T00:00:00+00:00</time>
        <ele>2550.0</ele>
      </trkpt>
      <trkpt lat="46.117454" lon="7.645442">
        <time>1970-01-01T00:00:00+00:00</time>
        <ele>2550.0</ele>
      </trkpt>
      <trkpt lat="46.11751" lon="7.645458">
        <time>1970-01-01T00:00:00+00:00</time>
        <ele>2552.0</ele>
      </trkpt>
      <trkpt lat="46.11751" lon="7.645458">
        <time>1970-01-01T00:00:00+00:00</time>
        <ele>2552.0</ele>
      </trkpt>
      <trkpt lat="46.117556" lon="7.645523">
        <time>1970-01-01T00:00:00+00:00</time>
        <ele>2556.0</ele>
      </trkpt>
      <trkpt lat="46.117556" lon="7.645523">
        <time>1970-01-01T00:00:00+00:00</time>
        <ele>2556.0</ele>
      </trkpt>
      <trkpt lat="46.11761" lon="7.645507">
        <time>1970-01-01T00:00:00+00:00</time>
        <ele>2556.0</ele>
      </trkpt>
      <trkpt lat="46.11761" lon="7.645507">
        <time>1970-01-01T00:00:00+00:00</time>
        <ele>2556.0</ele>
      </trkpt>
      <trkpt lat="46.117719" lon="7.645575">
        <time>1970-01-01T00:00:00+00:00</time>
        <ele>2561.0</ele>
      </trkpt>
      <trkpt lat="46.117719" lon="7.645575">
        <time>1970-01-01T00:00:00+00:00</time>
        <ele>2561.0</ele>
      </trkpt>
      <trkpt lat="46.11789702483037" lon="7.64561201506374">
        <time>1970-01-01T00:00:00+00:00</time>
        <ele>2565.0</ele>
      </trkpt>
      <trkpt lat="46.117921" lon="7.645617">
        <time>1970-01-01T00:00:00+00:00</time>
        <ele>2565.0</ele>
      </trkpt>
      <trkpt lat="46.117921" lon="7.645617">
        <time>1970-01-01T00:00:00+00:00</time>
        <ele>2565.0</ele>
      </trkpt>
      <trkpt lat="46.11795" lon="7.645724">
        <time>1970-01-01T00:00:00+00:00</time>
        <ele>2567.0</ele>
      </trkpt>
      <trkpt lat="46.11795" lon="7.645724">
        <time>1970-01-01T00:00:00+00:00</time>
        <ele>2567.0</ele>
      </trkpt>
      <trkpt lat="46.117964" lon="7.645875">
        <time>1970-01-01T00:00:00+00:00</time>
        <ele>2570.0</ele>
      </trkpt>
      <trkpt lat="46.117964" lon="7.645875">
        <time>1970-01-01T00:00:00+00:00</time>
        <ele>2570.0</ele>
      </trkpt>
      <trkpt lat="46.117915" lon="7.646081">
        <time>1970-01-01T00:00:00+00:00</time>
        <ele>2571.0</ele>
      </trkpt>
      <trkpt lat="46.117915" lon="7.646081">
        <time>1970-01-01T00:00:00+00:00</time>
        <ele>2571.0</ele>
      </trkpt>
      <trkpt lat="46.117921" lon="7.64615">
        <time>1970-01-01T00:00:00+00:00</time>
        <ele>2571.0</ele>
      </trkpt>
      <trkpt lat="46.117921" lon="7.64615">
        <time>1970-01-01T00:00:00+00:00</time>
        <ele>2571.0</ele>
      </trkpt>
      <trkpt lat="46.117834" lon="7.646255">
        <time>1970-01-01T00:00:00+00:00</time>
        <ele>2572.0</ele>
      </trkpt>
      <trkpt lat="46.117834" lon="7.646255">
        <time>1970-01-01T00:00:00+00:00</time>
        <ele>2572.0</ele>
      </trkpt>
      <trkpt lat="46.117836" lon="7.646355">
        <time>1970-01-01T00:00:00+00:00</time>
        <ele>2572.0</ele>
      </trkpt>
      <trkpt lat="46.117836" lon="7.646355">
        <time>1970-01-01T00:00:00+00:00</time>
        <ele>2572.0</ele>
      </trkpt>
      <trkpt lat="46.117744" lon="7.646534">
        <time>1970-01-01T00:00:00+00:00</time>
        <ele>2575.0</ele>
      </trkpt>
      <trkpt lat="46.117744" lon="7.646534">
        <time>1970-01-01T00:00:00+00:00</time>
        <ele>2575.0</ele>
      </trkpt>
      <trkpt lat="46.117688" lon="7.646779">
        <time>1970-01-01T00:00:00+00:00</time>
        <ele>2579.0</ele>
      </trkpt>
      <trkpt lat="46.117688" lon="7.646779">
        <time>1970-01-01T00:00:00+00:00</time>
        <ele>2579.0</ele>
      </trkpt>
      <trkpt lat="46.117650072124306" lon="7.6470326426687105">
        <time>1970-01-01T00:00:00+00:00</time>
        <ele>2578.0</ele>
      </trkpt>
      <trkpt lat="46.11764" lon="7.6471">
        <time>1970-01-01T00:00:00+00:00</time>
        <ele>2577.0</ele>
      </trkpt>
      <trkpt lat="46.11764" lon="7.6471">
        <time>1970-01-01T00:00:00+00:00</time>
        <ele>2577.0</ele>
      </trkpt>
      <trkpt lat="46.117663" lon="7.647238">
        <time>1970-01-01T00:00:00+00:00</time>
        <ele>2573.0</ele>
      </trkpt>
      <trkpt lat="46.117663" lon="7.647238">
        <time>1970-01-01T00:00:00+00:00</time>
        <ele>2573.0</ele>
      </trkpt>
      <trkpt lat="46.117698" lon="7.647318">
        <time>1970-01-01T00:00:00+00:00</time>
        <ele>2569.0</ele>
      </trkpt>
      <trkpt lat="46.117698" lon="7.647318">
        <time>1970-01-01T00:00:00+00:00</time>
        <ele>2569.0</ele>
      </trkpt>
      <trkpt lat="46.117685" lon="7.647432">
        <time>1970-01-01T00:00:00+00:00</time>
        <ele>2567.0</ele>
      </trkpt>
      <trkpt lat="46.117685" lon="7.647432">
        <time>1970-01-01T00:00:00+00:00</time>
        <ele>2567.0</ele>
      </trkpt>
      <trkpt lat="46.11771226921545" lon="7.647688478026469">
        <time>1970-01-01T00:00:00+00:00</time>
        <ele>2563.0</ele>
      </trkpt>
      <trkpt lat="46.11773953843091" lon="7.647944956052937">
        <time>1970-01-01T00:00:00+00:00</time>
        <ele>2559.0</ele>
      </trkpt>
      <trkpt lat="46.117759" lon="7.648128">
        <time>1970-01-01T00:00:00+00:00</time>
        <ele>2555.0</ele>
      </trkpt>
      <trkpt lat="46.117759" lon="7.648128">
        <time>1970-01-01T00:00:00+00:00</time>
        <ele>2555.0</ele>
      </trkpt>
      <trkpt lat="46.117747" lon="7.648306">
        <time>1970-01-01T00:00:00+00:00</time>
        <ele>2552.0</ele>
      </trkpt>
      <trkpt lat="46.117747" lon="7.648306">
        <time>1970-01-01T00:00:00+00:00</time>
        <ele>2552.0</ele>
      </trkpt>
      <trkpt lat="46.117717" lon="7.648389">
        <time>1970-01-01T00:00:00+00:00</time>
        <ele>2553.0</ele>
      </trkpt>
      <trkpt lat="46.117717" lon="7.648389">
        <time>1970-01-01T00:00:00+00:00</time>
        <ele>2553.0</ele>
      </trkpt>
      <trkpt lat="46.117731" lon="7.64861">
        <time>1970-01-01T00:00:00+00:00</time>
        <ele>2549.0</ele>
      </trkpt>
      <trkpt lat="46.117731" lon="7.64861">
        <time>1970-01-01T00:00:00+00:00</time>
        <ele>2549.0</ele>
      </trkpt>
      <trkpt lat="46.11768331333973" lon="7.648860191655938">
        <time>1970-01-01T00:00:00+00:00</time>
        <ele>2549.0</ele>
      </trkpt>
      <trkpt lat="46.117658" lon="7.648993">
        <time>1970-01-01T00:00:00+00:00</time>
        <ele>2550.0</ele>
      </trkpt>
      <trkpt lat="46.117658" lon="7.648993">
        <time>1970-01-01T00:00:00+00:00</time>
        <ele>2550.0</ele>
      </trkpt>
      <trkpt lat="46.117598" lon="7.649116">
        <time>1970-01-01T00:00:00+00:00</time>
        <ele>2553.0</ele>
      </trkpt>
      <trkpt lat="46.117598" lon="7.649116">
        <time>1970-01-01T00:00:00+00:00</time>
        <ele>2553.0</ele>
      </trkpt>
      <trkpt lat="46.117596" lon="7.649198">
        <time>1970-01-01T00:00:00+00:00</time>
        <ele>2554.0</ele>
      </trkpt>
      <trkpt lat="46.117596" lon="7.649198">
        <time>1970-01-01T00:00:00+00:00</time>
        <ele>2554.0</ele>
      </trkpt>
      <trkpt lat="46.117603" lon="7.6494">
        <time>1970-01-01T00:00:00+00:00</time>
        <ele>2555.0</ele>
      </trkpt>
      <trkpt lat="46.117603" lon="7.6494">
        <time>1970-01-01T00:00:00+00:00</time>
        <ele>2555.0</ele>
      </trkpt>
      <trkpt lat="46.11759478572013" lon="7.649659206164884">
        <time>1970-01-01T00:00:00+00:00</time>
        <ele>2556.0</ele>
      </trkpt>
      <trkpt lat="46.117594" lon="7.649684">
        <time>1970-01-01T00:00:00+00:00</time>
        <ele>2556.0</ele>
      </trkpt>
      <trkpt lat="46.117594" lon="7.649684">
        <time>1970-01-01T00:00:00+00:00</time>
        <ele>2556.0</ele>
      </trkpt>
      <trkpt lat="46.117569" lon="7.649761">
        <time>1970-01-01T00:00:00+00:00</time>
        <ele>2558.0</ele>
      </trkpt>
      <trkpt lat="46.117569" lon="7.649761">
        <time>1970-01-01T00:00:00+00:00</time>
        <ele>2558.0</ele>
      </trkpt>
      <trkpt lat="46.117566" lon="7.649853">
        <time>1970-01-01T00:00:00+00:00</time>
        <ele>2558.0</ele>
      </trkpt>
      <trkpt lat="46.117566" lon="7.649853">
        <time>1970-01-01T00:00:00+00:00</time>
        <ele>2558.0</ele>
      </trkpt>
      <trkpt lat="46.117611" lon="7.650085">
        <time>1970-01-01T00:00:00+00:00</time>
        <ele>2556.0</ele>
      </trkpt>
      <trkpt lat="46.117611" lon="7.650085">
        <time>1970-01-01T00:00:00+00:00</time>
        <ele>2556.0</ele>
      </trkpt>
      <trkpt lat="46.117571" lon="7.650325">
        <time>1970-01-01T00:00:00+00:00</time>
        <ele>2557.0</ele>
      </trkpt>
      <trkpt lat="46.117571" lon="7.650325">
        <time>1970-01-01T00:00:00+00:00</time>
        <ele>2557.0</ele>
      </trkpt>
      <trkpt lat="46.117595" lon="7.650546">
        <time>1970-01-01T00:00:00+00:00</time>
        <ele>2556.0</ele>
      </trkpt>
      <trkpt lat="46.117595" lon="7.650546">
        <time>1970-01-01T00:00:00+00:00</time>
        <ele>2556.0</ele>
      </trkpt>
      <trkpt lat="46.11758249059117" lon="7.650804848536474">
        <time>1970-01-01T00:00:00+00:00</time>
        <ele>2555.0</ele>
      </trkpt>
      <trkpt lat="46.117582" lon="7.650815">
        <time>1970-01-01T00:00:00+00:00</time>
        <ele>2555.0</ele>
      </trkpt>
      <trkpt lat="46.117582" lon="7.650815">
        <time>1970-01-01T00:00:00+00:00</time>
        <ele>2555.0</ele>
      </trkpt>
      <trkpt lat="46.117596" lon="7.650903">
        <time>1970-01-01T00:00:00+00:00</time>
        <ele>2554.0</ele>
      </trkpt>
      <trkpt lat="46.117596" lon="7.650903">
        <time>1970-01-01T00:00:00+00:00</time>
        <ele>2554.0</ele>
      </trkpt>
      <trkpt lat="46.11768657581942" lon="7.651127175153064">
        <time>1970-01-01T00:00:00+00:00</time>
        <ele>2550.0</ele>
      </trkpt>
      <trkpt lat="46.117716" lon="7.6512">
        <time>1970-01-01T00:00:00+00:00</time>
        <ele>2549.0</ele>
      </trkpt>
      <trkpt lat="46.117716" lon="7.6512">
        <time>1970-01-01T00:00:00+00:00</time>
        <ele>2549.0</ele>
      </trkpt>
      <trkpt lat="46.117748" lon="7.651387">
        <time>1970-01-01T00:00:00+00:00</time>
        <ele>2548.0</ele>
      </trkpt>
      <trkpt lat="46.117748" lon="7.651387">
        <time>1970-01-01T00:00:00+00:00</time>
        <ele>2548.0</ele>
      </trkpt>
      <trkpt lat="46.117768" lon="7.651526">
        <time>1970-01-01T00:00:00+00:00</time>
        <ele>2549.0</ele>
      </trkpt>
      <trkpt lat="46.117768" lon="7.651526">
        <time>1970-01-01T00:00:00+00:00</time>
        <ele>2549.0</ele>
      </trkpt>
      <trkpt lat="46.117726" lon="7.651751">
        <time>1970-01-01T00:00:00+00:00</time>
        <ele>2550.0</ele>
      </trkpt>
      <trkpt lat="46.117726" lon="7.651751">
        <time>1970-01-01T00:00:00+00:00</time>
        <ele>2550.0</ele>
      </trkpt>
      <trkpt lat="46.117728" lon="7.651956">
        <time>1970-01-01T00:00:00+00:00</time>
        <ele>2551.0</ele>
      </trkpt>
      <trkpt lat="46.117728" lon="7.651956">
        <time>1970-01-01T00:00:00+00:00</time>
        <ele>2551.0</ele>
      </trkpt>
      <trkpt lat="46.117698" lon="7.652076">
        <time>1970-01-01T00:00:00+00:00</time>
        <ele>2552.0</ele>
      </trkpt>
      <trkpt lat="46.117698" lon="7.652076">
        <time>1970-01-01T00:00:00+00:00</time>
        <ele>2552.0</ele>
      </trkpt>
      <trkpt lat="46.117721" lon="7.652254">
        <time>1970-01-01T00:00:00+00:00</time>
        <ele>2552.0</ele>
      </trkpt>
      <trkpt lat="46.117721" lon="7.652254">
        <time>1970-01-01T00:00:00+00:00</time>
        <ele>2552.0</ele>
      </trkpt>
      <trkpt lat="46.117745" lon="7.652345">
        <time>1970-01-01T00:00:00+00:00</time>
        <ele>2552.0</ele>
      </trkpt>
      <trkpt lat="46.117745" lon="7.652345">
        <time>1970-01-01T00:00:00+00:00</time>
        <ele>2552.0</ele>
      </trkpt>
      <trkpt lat="46.117855830697145" lon="7.652549364117855">
        <time>1970-01-01T00:00:00+00:00</time>
        <ele>2552.0</ele>
      </trkpt>
      <trkpt lat="46.117918" lon="7.652664">
        <time>1970-01-01T00:00:00+00:00</time>
        <ele>2552.0</ele>
      </trkpt>
      <trkpt lat="46.117918" lon="7.652664">
        <time>1970-01-01T00:00:00+00:00</time>
        <ele>2552.0</ele>
      </trkpt>
      <trkpt lat="46.117936" lon="7.652848">
        <time>1970-01-01T00:00:00+00:00</time>
        <ele>2553.0</ele>
      </trkpt>
      <trkpt lat="46.117936" lon="7.652848">
        <time>1970-01-01T00:00:00+00:00</time>
        <ele>2553.0</ele>
      </trkpt>
      <trkpt lat="46.11802703340557" lon="7.653071790455344">
        <time>1970-01-01T00:00:00+00:00</time>
        <ele>2552.0</ele>
      </trkpt>
      <trkpt lat="46.118056" lon="7.653143">
        <time>1970-01-01T00:00:00+00:00</time>
        <ele>2552.0</ele>
      </trkpt>
      <trkpt lat="46.118056" lon="7.653143">
        <time>1970-01-01T00:00:00+00:00</time>
        <ele>2552.0</ele>
      </trkpt>
      <trkpt lat="46.118124" lon="7.653364">
        <time>1970-01-01T00:00:00+00:00</time>
        <ele>2552.0</ele>
      </trkpt>
      <trkpt lat="46.118124" lon="7.653364">
        <time>1970-01-01T00:00:00+00:00</time>
        <ele>2552.0</ele>
      </trkpt>
      <trkpt lat="46.118189" lon="7.653498">
        <time>1970-01-01T00:00:00+00:00</time>
        <ele>2552.0</ele>
      </trkpt>
      <trkpt lat="46.118189" lon="7.653498">
        <time>1970-01-01T00:00:00+00:00</time>
        <ele>2552.0</ele>
      </trkpt>
      <trkpt lat="46.118232" lon="7.653566">
        <time>1970-01-01T00:00:00+00:00</time>
        <ele>2552.0</ele>
      </trkpt>
      <trkpt lat="46.118232" lon="7.653566">
        <time>1970-01-01T00:00:00+00:00</time>
        <ele>2552.0</ele>
      </trkpt>
      <trkpt lat="46.118235" lon="7.653656">
        <time>1970-01-01T00:00:00+00:00</time>
        <ele>2552.0</ele>
      </trkpt>
      <trkpt lat="46.118235" lon="7.653656">
        <time>1970-01-01T00:00:00+00:00</time>
        <ele>2552.0</ele>
      </trkpt>
      <trkpt lat="46.11824688452559" lon="7.653914912878915">
        <time>1970-01-01T00:00:00+00:00</time>
        <ele>2553.0</ele>
      </trkpt>
      <trkpt lat="46.118249" lon="7.653961">
        <time>1970-01-01T00:00:00+00:00</time>
        <ele>2553.0</ele>
      </trkpt>
      <trkpt lat="46.118249" lon="7.653961">
        <time>1970-01-01T00:00:00+00:00</time>
        <ele>2553.0</ele>
      </trkpt>
      <trkpt lat="46.118208" lon="7.654142">
        <time>1970-01-01T00:00:00+00:00</time>
        <ele>2554.0</ele>
      </trkpt>
      <trkpt lat="46.118208" lon="7.654142">
        <time>1970-01-01T00:00:00+00:00</time>
        <ele>2554.0</ele>
      </trkpt>
      <trkpt lat="46.118175" lon="7.654222">
        <time>1970-01-01T00:00:00+00:00</time>
        <ele>2554.0</ele>
      </trkpt>
      <trkpt lat="46.118175" lon="7.654222">
        <time>1970-01-01T00:00:00+00:00</time>
        <ele>2554.0</ele>
      </trkpt>
      <trkpt lat="46.118184" lon="7.654313">
        <time>1970-01-01T00:00:00+00:00</time>
        <ele>2554.0</ele>
      </trkpt>
      <trkpt lat="46.118184" lon="7.654313">
        <time>1970-01-01T00:00:00+00:00</time>
        <ele>2554.0</ele>
      </trkpt>
      <trkpt lat="46.118148" lon="7.654439">
        <time>1970-01-01T00:00:00+00:00</time>
        <ele>2555.0</ele>
      </trkpt>
      <trkpt lat="46.118148" lon="7.654439">
        <time>1970-01-01T00:00:00+00:00</time>
        <ele>2555.0</ele>
      </trkpt>
      <trkpt lat="46.118199" lon="7.654599">
        <time>1970-01-01T00:00:00+00:00</time>
        <ele>2556.0</ele>
      </trkpt>
      <trkpt lat="46.118199" lon="7.654599">
        <time>1970-01-01T00:00:00+00:00</time>
        <ele>2556.0</ele>
      </trkpt>
      <trkpt lat="46.118272" lon="7.654686">
        <time>1970-01-01T00:00:00+00:00</time>
        <ele>2556.0</ele>
      </trkpt>
      <trkpt lat="46.118272" lon="7.654686">
        <time>1970-01-01T00:00:00+00:00</time>
        <ele>2556.0</ele>
      </trkpt>
      <trkpt lat="46.118306" lon="7.654768">
        <time>1970-01-01T00:00:00+00:00</time>
        <ele>2556.0</ele>
      </trkpt>
      <trkpt lat="46.118306" lon="7.654768">
        <time>1970-01-01T00:00:00+00:00</time>
        <ele>2556.0</ele>
      </trkpt>
      <trkpt lat="46.11843219667846" lon="7.654952892807977">
        <time>1970-01-01T00:00:00+00:00</time>
        <ele>2558.0</ele>
      </trkpt>
      <trkpt lat="46.118435" lon="7.654957">
        <time>1970-01-01T00:00:00+00:00</time>
        <ele>2558.0</ele>
      </trkpt>
      <trkpt lat="46.118435" lon="7.654957">
        <time>1970-01-01T00:00:00+00:00</time>
        <ele>2558.0</ele>
      </trkpt>
      <trkpt lat="46.118501310232595" lon="7.655198203471064">
        <time>1970-01-01T00:00:00+00:00</time>
        <ele>2561.0</ele>
      </trkpt>
      <trkpt lat="46.118515" lon="7.655248">
        <time>1970-01-01T00:00:00+00:00</time>
        <ele>2561.0</ele>
      </trkpt>
      <trkpt lat="46.118515" lon="7.655248">
        <time>1970-01-01T00:00:00+00:00</time>
        <ele>2561.0</ele>
      </trkpt>
      <trkpt lat="46.118533" lon="7.655372">
        <time>1970-01-01T00:00:00+00:00</time>
        <ele>2562.0</ele>
      </trkpt>
      <trkpt lat="46.118533" lon="7.655372">
        <time>1970-01-01T00:00:00+00:00</time>
        <ele>2562.0</ele>
      </trkpt>
      <trkpt lat="46.118572" lon="7.655469">
        <time>1970-01-01T00:00:00+00:00</time>
        <ele>2561.0</ele>
      </trkpt>
      <trkpt lat="46.118572" lon="7.655469">
        <time>1970-01-01T00:00:00+00:00</time>
        <ele>2561.0</ele>
      </trkpt>
      <trkpt lat="46.118653" lon="7.655461">
        <time>1970-01-01T00:00:00+00:00</time>
        <ele>2559.0</ele>
      </trkpt>
      <trkpt lat="46.118653" lon="7.655461">
        <time>1970-01-01T00:00:00+00:00</time>
        <ele>2559.0</ele>
      </trkpt>
      <trkpt lat="46.118574" lon="7.655516">
        <time>1970-01-01T00:00:00+00:00</time>
        <ele>2562.0</ele>
      </trkpt>
      <trkpt lat="46.118574" lon="7.655516">
        <time>1970-01-01T00:00:00+00:00</time>
        <ele>2562.0</ele>
      </trkpt>
      <trkpt lat="46.118670616925584" lon="7.6557348669130585">
        <time>1970-01-01T00:00:00+00:00</time>
        <ele>2560.0</ele>
      </trkpt>
      <trkpt lat="46.118721" lon="7.655849">
        <time>1970-01-01T00:00:00+00:00</time>
        <ele>2559.0</ele>
      </trkpt>
      <trkpt lat="46.118721" lon="7.655849">
        <time>1970-01-01T00:00:00+00:00</time>
        <ele>2559.0</ele>
      </trkpt>
      <trkpt lat="46.118751" lon="7.655971">
        <time>1970-01-01T00:00:00+00:00</time>
        <ele>2559.0</ele>
      </trkpt>
      <trkpt lat="46.118751" lon="7.655971">
        <time>1970-01-01T00:00:00+00:00</time>
        <ele>2559.0</ele>
      </trkpt>
      <trkpt lat="46.118805" lon="7.656055">
        <time>1970-01-01T00:00:00+00:00</time>
        <ele>2559.0</ele>
      </trkpt>
      <trkpt lat="46.118805" lon="7.656055">
        <time>1970-01-01T00:00:00+00:00</time>
        <ele>2559.0</ele>
      </trkpt>
      <trkpt lat="46.118878" lon="7.656266">
        <time>1970-01-01T00:00:00+00:00</time>
        <ele>2558.0</ele>
      </trkpt>
      <trkpt lat="46.118878" lon="7.656266">
        <time>1970-01-01T00:00:00+00:00</time>
        <ele>2558.0</ele>
      </trkpt>
      <trkpt lat="46.11892" lon="7.656483">
        <time>1970-01-01T00:00:00+00:00</time>
        <ele>2559.0</ele>
      </trkpt>
      <trkpt lat="46.11892" lon="7.656483">
        <time>1970-01-01T00:00:00+00:00</time>
        <ele>2559.0</ele>
      </trkpt>
      <trkpt lat="46.119003" lon="7.656664">
        <time>1970-01-01T00:00:00+00:00</time>
        <ele>2560.0</ele>
      </trkpt>
      <trkpt lat="46.119003" lon="7.656664">
        <time>1970-01-01T00:00:00+00:00</time>
        <ele>2560.0</ele>
      </trkpt>
      <trkpt lat="46.119046" lon="7.656824">
        <time>1970-01-01T00:00:00+00:00</time>
        <ele>2560.0</ele>
      </trkpt>
      <trkpt lat="46.119046" lon="7.656824">
        <time>1970-01-01T00:00:00+00:00</time>
        <ele>2560.0</ele>
      </trkpt>
      <trkpt lat="46.119125" lon="7.657039">
        <time>1970-01-01T00:00:00+00:00</time>
        <ele>2562.0</ele>
      </trkpt>
      <trkpt lat="46.119125" lon="7.657039">
        <time>1970-01-01T00:00:00+00:00</time>
        <ele>2562.0</ele>
      </trkpt>
      <trkpt lat="46.11917275960056" lon="7.6572891693362894">
        <time>1970-01-01T00:00:00+00:00</time>
        <ele>2563.0</ele>
      </trkpt>
      <trkpt lat="46.119188" lon="7.657369">
        <time>1970-01-01T00:00:00+00:00</time>
        <ele>2564.0</ele>
      </trkpt>
      <trkpt lat="46.119188" lon="7.657369">
        <time>1970-01-01T00:00:00+00:00</time>
        <ele>2564.0</ele>
      </trkpt>
      <trkpt lat="46.119236" lon="7.657485">
        <time>1970-01-01T00:00:00+00:00</time>
        <ele>2564.0</ele>
      </trkpt>
      <trkpt lat="46.119236" lon="7.657485">
        <time>1970-01-01T00:00:00+00:00</time>
        <ele>2564.0</ele>
      </trkpt>
      <trkpt lat="46.119263" lon="7.657711">
        <time>1970-01-01T00:00:00+00:00</time>
        <ele>2564.0</ele>
      </trkpt>
      <trkpt lat="46.119263" lon="7.657711">
        <time>1970-01-01T00:00:00+00:00</time>
        <ele>2564.0</ele>
      </trkpt>
      <trkpt lat="46.119324" lon="7.657862">
        <time>1970-01-01T00:00:00+00:00</time>
        <ele>2565.0</ele>
      </trkpt>
      <trkpt lat="46.119324" lon="7.657862">
        <time>1970-01-01T00:00:00+00:00</time>
        <ele>2565.0</ele>
      </trkpt>
      <trkpt lat="46.119387" lon="7.657969">
        <time>1970-01-01T00:00:00+00:00</time>
        <ele>2564.0</ele>
      </trkpt>
      <trkpt lat="46.119387" lon="7.657969">
        <time>1970-01-01T00:00:00+00:00</time>
        <ele>2564.0</ele>
      </trkpt>
      <trkpt lat="46.119425" lon="7.658145">
        <time>1970-01-01T00:00:00+00:00</time>
        <ele>2565.0</ele>
      </trkpt>
      <trkpt lat="46.119425" lon="7.658145">
        <time>1970-01-01T00:00:00+00:00</time>
        <ele>2565.0</ele>
      </trkpt>
      <trkpt lat="46.119411" lon="7.658284">
        <time>1970-01-01T00:00:00+00:00</time>
        <ele>2566.0</ele>
      </trkpt>
      <trkpt lat="46.119411" lon="7.658284">
        <time>1970-01-01T00:00:00+00:00</time>
        <ele>2566.0</ele>
      </trkpt>
      <trkpt lat="46.119461" lon="7.658348">
        <time>1970-01-01T00:00:00+00:00</time>
        <ele>2565.0</ele>
      </trkpt>
      <trkpt lat="46.119461" lon="7.658348">
        <time>1970-01-01T00:00:00+00:00</time>
        <ele>2565.0</ele>
      </trkpt>
      <trkpt lat="46.119529" lon="7.658588">
        <time>1970-01-01T00:00:00+00:00</time>
        <ele>2566.0</ele>
      </trkpt>
      <trkpt lat="46.119529" lon="7.658588">
        <time>1970-01-01T00:00:00+00:00</time>
        <ele>2566.0</ele>
      </trkpt>
      <trkpt lat="46.11955" lon="7.658768">
        <time>1970-01-01T00:00:00+00:00</time>
        <ele>2567.0</ele>
      </trkpt>
      <trkpt lat="46.11955" lon="7.658768">
        <time>1970-01-01T00:00:00+00:00</time>
        <ele>2567.0</ele>
      </trkpt>
      <trkpt lat="46.119618" lon="7.658992">
        <time>1970-01-01T00:00:00+00:00</time>
        <ele>2566.0</ele>
      </trkpt>
      <trkpt lat="46.119618" lon="7.658992">
        <time>1970-01-01T00:00:00+00:00</time>
        <ele>2566.0</ele>
      </trkpt>
      <trkpt lat="46.119594" lon="7.659088">
        <time>1970-01-01T00:00:00+00:00</time>
        <ele>2567.0</ele>
      </trkpt>
      <trkpt lat="46.119594" lon="7.659088">
        <time>1970-01-01T00:00:00+00:00</time>
        <ele>2567.0</ele>
      </trkpt>
      <trkpt lat="46.119641" lon="7.659141">
        <time>1970-01-01T00:00:00+00:00</time>
        <ele>2565.0</ele>
      </trkpt>
      <trkpt lat="46.119641" lon="7.659141">
        <time>1970-01-01T00:00:00+00:00</time>
        <ele>2565.0</ele>
      </trkpt>
      <trkpt lat="46.119707" lon="7.659368">
        <time>1970-01-01T00:00:00+00:00</time>
        <ele>2565.0</ele>
      </trkpt>
      <trkpt lat="46.119707" lon="7.659368">
        <time>1970-01-01T00:00:00+00:00</time>
        <ele>2565.0</ele>
      </trkpt>
      <trkpt lat="46.119772" lon="7.659471">
        <time>1970-01-01T00:00:00+00:00</time>
        <ele>2564.0</ele>
      </trkpt>
      <trkpt lat="46.119772" lon="7.659471">
        <time>1970-01-01T00:00:00+00:00</time>
        <ele>2564.0</ele>
      </trkpt>
      <trkpt lat="46.119772" lon="7.659644">
        <time>1970-01-01T00:00:00+00:00</time>
        <ele>2565.0</ele>
      </trkpt>
      <trkpt lat="46.119772" lon="7.659644">
        <time>1970-01-01T00:00:00+00:00</time>
        <ele>2565.0</ele>
      </trkpt>
      <trkpt lat="46.119807" lon="7.659773">
        <time>1970-01-01T00:00:00+00:00</time>
        <ele>2565.0</ele>
      </trkpt>
      <trkpt lat="46.119807" lon="7.659773">
        <time>1970-01-01T00:00:00+00:00</time>
        <ele>2565.0</ele>
      </trkpt>
      <trkpt lat="46.119844" lon="7.659844">
        <time>1970-01-01T00:00:00+00:00</time>
        <ele>2565.0</ele>
      </trkpt>
      <trkpt lat="46.119844" lon="7.659844">
        <time>1970-01-01T00:00:00+00:00</time>
        <ele>2565.0</ele>
      </trkpt>
      <trkpt lat="46.119796" lon="7.660011">
        <time>1970-01-01T00:00:00+00:00</time>
        <ele>2566.0</ele>
      </trkpt>
      <trkpt lat="46.119796" lon="7.660011">
        <time>1970-01-01T00:00:00+00:00</time>
        <ele>2566.0</ele>
      </trkpt>
      <trkpt lat="46.1196860507592" lon="7.660216359739026">
        <time>1970-01-01T00:00:00+00:00</time>
        <ele>2567.0</ele>
      </trkpt>
      <trkpt lat="46.119675" lon="7.660237">
        <time>1970-01-01T00:00:00+00:00</time>
        <ele>2567.0</ele>
      </trkpt>
      <trkpt lat="46.119675" lon="7.660237">
        <time>1970-01-01T00:00:00+00:00</time>
        <ele>2567.0</ele>
      </trkpt>
      <trkpt lat="46.11967174337916" lon="7.6604964441275065">
        <time>1970-01-01T00:00:00+00:00</time>
        <ele>2567.0</ele>
      </trkpt>
      <trkpt lat="46.119669" lon="7.660715">
        <time>1970-01-01T00:00:00+00:00</time>
        <ele>2567.0</ele>
      </trkpt>
      <trkpt lat="46.119669" lon="7.660715">
        <time>1970-01-01T00:00:00+00:00</time>
        <ele>2567.0</ele>
      </trkpt>
      <trkpt lat="46.119649" lon="7.660797">
        <time>1970-01-01T00:00:00+00:00</time>
        <ele>2567.0</ele>
      </trkpt>
      <trkpt lat="46.119649" lon="7.660797">
        <time>1970-01-01T00:00:00+00:00</time>
        <ele>2567.0</ele>
      </trkpt>
      <trkpt lat="46.119658" lon="7.660948">
        <time>1970-01-01T00:00:00+00:00</time>
        <ele>2567.0</ele>
      </trkpt>
      <trkpt lat="46.119658" lon="7.660948">
        <time>1970-01-01T00:00:00+00:00</time>
        <ele>2567.0</ele>
      </trkpt>
      <trkpt lat="46.119677" lon="7.661173">
        <time>1970-01-01T00:00:00+00:00</time>
        <ele>2569.0</ele>
      </trkpt>
      <trkpt lat="46.119677" lon="7.661173">
        <time>1970-01-01T00:00:00+00:00</time>
        <ele>2569.0</ele>
      </trkpt>
      <trkpt lat="46.119639" lon="7.661392">
        <time>1970-01-01T00:00:00+00:00</time>
        <ele>2570.0</ele>
      </trkpt>
      <trkpt lat="46.119639" lon="7.661392">
        <time>1970-01-01T00:00:00+00:00</time>
        <ele>2570.0</ele>
      </trkpt>
      <trkpt lat="46.119651" lon="7.661516">
        <time>1970-01-01T00:00:00+00:00</time>
        <ele>2571.0</ele>
      </trkpt>
      <trkpt lat="46.119651" lon="7.661516">
        <time>1970-01-01T00:00:00+00:00</time>
        <ele>2571.0</ele>
      </trkpt>
      <trkpt lat="46.119645" lon="7.661712">
        <time>1970-01-01T00:00:00+00:00</time>
        <ele>2571.0</ele>
      </trkpt>
      <trkpt lat="46.119645" lon="7.661712">
        <time>1970-01-01T00:00:00+00:00</time>
        <ele>2571.0</ele>
      </trkpt>
      <trkpt lat="46.11963684274241" lon="7.661971219518844">
        <time>1970-01-01T00:00:00+00:00</time>
        <ele>2573.0</ele>
      </trkpt>
      <trkpt lat="46.119636" lon="7.661998">
        <time>1970-01-01T00:00:00+00:00</time>
        <ele>2573.0</ele>
      </trkpt>
      <trkpt lat="46.119636" lon="7.661998">
        <time>1970-01-01T00:00:00+00:00</time>
        <ele>2573.0</ele>
      </trkpt>
      <trkpt lat="46.119653" lon="7.662079">
        <time>1970-01-01T00:00:00+00:00</time>
        <ele>2574.0</ele>
      </trkpt>
      <trkpt lat="46.119653" lon="7.662079">
        <time>1970-01-01T00:00:00+00:00</time>
        <ele>2574.0</ele>
      </trkpt>
      <trkpt lat="46.11965" lon="7.662157">
        <time>1970-01-01T00:00:00+00:00</time>
        <ele>2574.0</ele>
      </trkpt>
      <trkpt lat="46.11965" lon="7.662157">
        <time>1970-01-01T00:00:00+00:00</time>
        <ele>2574.0</ele>
      </trkpt>
      <trkpt lat="46.11967" lon="7.66224">
        <time>1970-01-01T00:00:00+00:00</time>
        <ele>2575.0</ele>
      </trkpt>
      <trkpt lat="46.11967" lon="7.66224">
        <time>1970-01-01T00:00:00+00:00</time>
        <ele>2575.0</ele>
      </trkpt>
      <trkpt lat="46.119682" lon="7.662418">
        <time>1970-01-01T00:00:00+00:00</time>
        <ele>2576.0</ele>
      </trkpt>
      <trkpt lat="46.119682" lon="7.662418">
        <time>1970-01-01T00:00:00+00:00</time>
        <ele>2576.0</ele>
      </trkpt>
      <trkpt lat="46.119731" lon="7.662414">
        <time>1970-01-01T00:00:00+00:00</time>
        <ele>2575.0</ele>
      </trkpt>
      <trkpt lat="46.119731" lon="7.662414">
        <time>1970-01-01T00:00:00+00:00</time>
        <ele>2575.0</ele>
      </trkpt>
      <trkpt lat="46.119698" lon="7.662538">
        <time>1970-01-01T00:00:00+00:00</time>
        <ele>2576.0</ele>
      </trkpt>
      <trkpt lat="46.119698" lon="7.662538">
        <time>1970-01-01T00:00:00+00:00</time>
        <ele>2576.0</ele>
      </trkpt>
      <trkpt lat="46.119696" lon="7.662683">
        <time>1970-01-01T00:00:00+00:00</time>
        <ele>2577.0</ele>
      </trkpt>
      <trkpt lat="46.119696" lon="7.662683">
        <time>1970-01-01T00:00:00+00:00</time>
        <ele>2577.0</ele>
      </trkpt>
      <trkpt lat="46.11973324339568" lon="7.662936863146074">
        <time>1970-01-01T00:00:00+00:00</time>
        <ele>2579.0</ele>
      </trkpt>
      <trkpt lat="46.119745" lon="7.663017">
        <time>1970-01-01T00:00:00+00:00</time>
        <ele>2579.0</ele>
      </trkpt>
      <trkpt lat="46.119745" lon="7.663017">
        <time>1970-01-01T00:00:00+00:00</time>
        <ele>2579.0</ele>
      </trkpt>
      <trkpt lat="46.119778" lon="7.663153">
        <time>1970-01-01T00:00:00+00:00</time>
        <ele>2580.0</ele>
      </trkpt>
      <trkpt lat="46.119778" lon="7.663153">
        <time>1970-01-01T00:00:00+00:00</time>
        <ele>2580.0</ele>
      </trkpt>
      <trkpt lat="46.119757" lon="7.663287">
        <time>1970-01-01T00:00:00+00:00</time>
        <ele>2582.0</ele>
      </trkpt>
      <trkpt lat="46.119757" lon="7.663287">
        <time>1970-01-01T00:00:00+00:00</time>
        <ele>2582.0</ele>
      </trkpt>
      <trkpt lat="46.119761" lon="7.663427">
        <time>1970-01-01T00:00:00+00:00</time>
        <ele>2583.0</ele>
      </trkpt>
      <trkpt lat="46.119761" lon="7.663427">
        <time>1970-01-01T00:00:00+00:00</time>
        <ele>2583.0</ele>
      </trkpt>
      <trkpt lat="46.11974121906131" lon="7.663684913008274">
        <time>1970-01-01T00:00:00+00:00</time>
        <ele>2585.0</ele>
      </trkpt>
      <trkpt lat="46.119735" lon="7.663766">
        <time>1970-01-01T00:00:00+00:00</time>
        <ele>2586.0</ele>
      </trkpt>
      <trkpt lat="46.119735" lon="7.663766">
        <time>1970-01-01T00:00:00+00:00</time>
        <ele>2586.0</ele>
      </trkpt>
      <trkpt lat="46.119757" lon="7.663894">
        <time>1970-01-01T00:00:00+00:00</time>
        <ele>2585.0</ele>
      </trkpt>
      <trkpt lat="46.119757" lon="7.663894">
        <time>1970-01-01T00:00:00+00:00</time>
        <ele>2585.0</ele>
      </trkpt>
      <trkpt lat="46.119728" lon="7.664131">
        <time>1970-01-01T00:00:00+00:00</time>
        <ele>2587.0</ele>
      </trkpt>
      <trkpt lat="46.119728" lon="7.664131">
        <time>1970-01-01T00:00:00+00:00</time>
        <ele>2587.0</ele>
      </trkpt>
      <trkpt lat="46.119748" lon="7.664301">
        <time>1970-01-01T00:00:00+00:00</time>
        <ele>2588.0</ele>
      </trkpt>
      <trkpt lat="46.119748" lon="7.664301">
        <time>1970-01-01T00:00:00+00:00</time>
        <ele>2588.0</ele>
      </trkpt>
      <trkpt lat="46.119726" lon="7.664391">
        <time>1970-01-01T00:00:00+00:00</time>
        <ele>2589.0</ele>
      </trkpt>
      <trkpt lat="46.119726" lon="7.664391">
        <time>1970-01-01T00:00:00+00:00</time>
        <ele>2589.0</ele>
      </trkpt>
      <trkpt lat="46.119715" lon="7.664549">
        <time>1970-01-01T00:00:00+00:00</time>
        <ele>2591.0</ele>
      </trkpt>
      <trkpt lat="46.119715" lon="7.664549">
        <time>1970-01-01T00:00:00+00:00</time>
        <ele>2591.0</ele>
      </trkpt>
      <trkpt lat="46.119689" lon="7.664677">
        <time>1970-01-01T00:00:00+00:00</time>
        <ele>2593.0</ele>
      </trkpt>
      <trkpt lat="46.119689" lon="7.664677">
        <time>1970-01-01T00:00:00+00:00</time>
        <ele>2593.0</ele>
      </trkpt>
      <trkpt lat="46.119643" lon="7.664779">
        <time>1970-01-01T00:00:00+00:00</time>
        <ele>2596.0</ele>
      </trkpt>
      <trkpt lat="46.119643" lon="7.664779">
        <time>1970-01-01T00:00:00+00:00</time>
        <ele>2596.0</ele>
      </trkpt>
      <trkpt lat="46.119726" lon="7.664801">
        <time>1970-01-01T00:00:00+00:00</time>
        <ele>2594.0</ele>
      </trkpt>
      <trkpt lat="46.119726" lon="7.664801">
        <time>1970-01-01T00:00:00+00:00</time>
        <ele>2594.0</ele>
      </trkpt>
      <trkpt lat="46.119695" lon="7.664882">
        <time>1970-01-01T00:00:00+00:00</time>
        <ele>2597.0</ele>
      </trkpt>
      <trkpt lat="46.119695" lon="7.664882">
        <time>1970-01-01T00:00:00+00:00</time>
        <ele>2597.0</ele>
      </trkpt>
      <trkpt lat="46.119629" lon="7.664788">
        <time>1970-01-01T00:00:00+00:00</time>
        <ele>2596.0</ele>
      </trkpt>
      <trkpt lat="46.119629" lon="7.664788">
        <time>1970-01-01T00:00:00+00:00</time>
        <ele>2596.0</ele>
      </trkpt>
      <trkpt lat="46.119808759042066" lon="7.6647968769897314">
        <time>1970-01-01T00:00:00+00:00</time>
        <ele>2592.0</ele>
      </trkpt>
      <trkpt lat="46.119872" lon="7.6648">
        <time>1970-01-01T00:00:00+00:00</time>
        <ele>2591.0</ele>
      </trkpt>
      <trkpt lat="46.119872" lon="7.6648">
        <time>1970-01-01T00:00:00+00:00</time>
        <ele>2591.0</ele>
      </trkpt>
      <trkpt lat="46.120032" lon="7.66475">
        <time>1970-01-01T00:00:00+00:00</time>
        <ele>2590.0</ele>
      </trkpt>
      <trkpt lat="46.120032" lon="7.66475">
        <time>1970-01-01T00:00:00+00:00</time>
        <ele>2590.0</ele>
      </trkpt>
      <trkpt lat="46.120147" lon="7.664672">
        <time>1970-01-01T00:00:00+00:00</time>
        <ele>2590.0</ele>
      </trkpt>
      <trkpt lat="46.120147" lon="7.664672">
        <time>1970-01-01T00:00:00+00:00</time>
        <ele>2590.0</ele>
      </trkpt>
      <trkpt lat="46.120095" lon="7.664693">
        <time>1970-01-01T00:00:00+00:00</time>
        <ele>2590.0</ele>
      </trkpt>
      <trkpt lat="46.120095" lon="7.664693">
        <time>1970-01-01T00:00:00+00:00</time>
        <ele>2590.0</ele>
      </trkpt>
      <trkpt lat="46.120173" lon="7.664835">
        <time>1970-01-01T00:00:00+00:00</time>
        <ele>2592.0</ele>
      </trkpt>
      <trkpt lat="46.120173" lon="7.664835">
        <time>1970-01-01T00:00:00+00:00</time>
        <ele>2592.0</ele>
      </trkpt>
      <trkpt lat="46.120211" lon="7.66501">
        <time>1970-01-01T00:00:00+00:00</time>
        <ele>2596.0</ele>
      </trkpt>
      <trkpt lat="46.120211" lon="7.66501">
        <time>1970-01-01T00:00:00+00:00</time>
        <ele>2596.0</ele>
      </trkpt>
      <trkpt lat="46.12030666856094" lon="7.665229738725921">
        <time>1970-01-01T00:00:00+00:00</time>
        <ele>2599.0</ele>
      </trkpt>
      <trkpt lat="46.120339" lon="7.665304">
        <time>1970-01-01T00:00:00+00:00</time>
        <ele>2600.0</ele>
      </trkpt>
      <trkpt lat="46.120339" lon="7.665304">
        <time>1970-01-01T00:00:00+00:00</time>
        <ele>2600.0</ele>
      </trkpt>
      <trkpt lat="46.120438" lon="7.665434">
        <time>1970-01-01T00:00:00+00:00</time>
        <ele>2599.0</ele>
      </trkpt>
      <trkpt lat="46.120438" lon="7.665434">
        <time>1970-01-01T00:00:00+00:00</time>
        <ele>2599.0</ele>
      </trkpt>
      <trkpt lat="46.12044" lon="7.665515">
        <time>1970-01-01T00:00:00+00:00</time>
        <ele>2600.0</ele>
      </trkpt>
      <trkpt lat="46.12044" lon="7.665515">
        <time>1970-01-01T00:00:00+00:00</time>
        <ele>2600.0</ele>
      </trkpt>
      <trkpt lat="46.120459" lon="7.665596">
        <time>1970-01-01T00:00:00+00:00</time>
        <ele>2601.0</ele>
      </trkpt>
      <trkpt lat="46.120459" lon="7.665596">
        <time>1970-01-01T00:00:00+00:00</time>
        <ele>2601.0</ele>
      </trkpt>
      <trkpt lat="46.120475" lon="7.665834">
        <time>1970-01-01T00:00:00+00:00</time>
        <ele>2604.0</ele>
      </trkpt>
      <trkpt lat="46.120475" lon="7.665834">
        <time>1970-01-01T00:00:00+00:00</time>
        <ele>2604.0</ele>
      </trkpt>
      <trkpt lat="46.120497" lon="7.665916">
        <time>1970-01-01T00:00:00+00:00</time>
        <ele>2605.0</ele>
      </trkpt>
      <trkpt lat="46.120497" lon="7.665916">
        <time>1970-01-01T00:00:00+00:00</time>
        <ele>2605.0</ele>
      </trkpt>
      <trkpt lat="46.120503" lon="7.666015">
        <time>1970-01-01T00:00:00+00:00</time>
        <ele>2606.0</ele>
      </trkpt>
      <trkpt lat="46.120503" lon="7.666015">
        <time>1970-01-01T00:00:00+00:00</time>
        <ele>2606.0</ele>
      </trkpt>
      <trkpt lat="46.120503" lon="7.666196">
        <time>1970-01-01T00:00:00+00:00</time>
        <ele>2608.0</ele>
      </trkpt>
      <trkpt lat="46.120503" lon="7.666196">
        <time>1970-01-01T00:00:00+00:00</time>
        <ele>2608.0</ele>
      </trkpt>
      <trkpt lat="46.120538" lon="7.666321">
        <time>1970-01-01T00:00:00+00:00</time>
        <ele>2609.0</ele>
      </trkpt>
      <trkpt lat="46.120538" lon="7.666321">
        <time>1970-01-01T00:00:00+00:00</time>
        <ele>2609.0</ele>
      </trkpt>
      <trkpt lat="46.12055940450489" lon="7.6665786468181665">
        <time>1970-01-01T00:00:00+00:00</time>
        <ele>2614.0</ele>
      </trkpt>
      <trkpt lat="46.120565" lon="7.666646">
        <time>1970-01-01T00:00:00+00:00</time>
        <ele>2616.0</ele>
      </trkpt>
      <trkpt lat="46.120565" lon="7.666646">
        <time>1970-01-01T00:00:00+00:00</time>
        <ele>2616.0</ele>
      </trkpt>
      <trkpt lat="46.120596" lon="7.666762">
        <time>1970-01-01T00:00:00+00:00</time>
        <ele>2618.0</ele>
      </trkpt>
      <trkpt lat="46.120596" lon="7.666762">
        <time>1970-01-01T00:00:00+00:00</time>
        <ele>2618.0</ele>
      </trkpt>
      <trkpt lat="46.120608" lon="7.666942">
        <time>1970-01-01T00:00:00+00:00</time>
        <ele>2622.0</ele>
      </trkpt>
      <trkpt lat="46.120608" lon="7.666942">
        <time>1970-01-01T00:00:00+00:00</time>
        <ele>2622.0</ele>
      </trkpt>
      <trkpt lat="46.120585" lon="7.667021">
        <time>1970-01-01T00:00:00+00:00</time>
        <ele>2623.0</ele>
      </trkpt>
      <trkpt lat="46.120585" lon="7.667021">
        <time>1970-01-01T00:00:00+00:00</time>
        <ele>2623.0</ele>
      </trkpt>
      <trkpt lat="46.120623482461596" lon="7.66727448230136">
        <time>1970-01-01T00:00:00+00:00</time>
        <ele>2626.0</ele>
      </trkpt>
      <trkpt lat="46.120631" lon="7.667324">
        <time>1970-01-01T00:00:00+00:00</time>
        <ele>2627.0</ele>
      </trkpt>
      <trkpt lat="46.120631" lon="7.667324">
        <time>1970-01-01T00:00:00+00:00</time>
        <ele>2627.0</ele>
      </trkpt>
      <trkpt lat="46.120594" lon="7.667524">
        <time>1970-01-01T00:00:00+00:00</time>
        <ele>2631.0</ele>
      </trkpt>
      <trkpt lat="46.120594" lon="7.667524">
        <time>1970-01-01T00:00:00+00:00</time>
        <ele>2631.0</ele>
      </trkpt>
      <trkpt lat="46.120601" lon="7.66765">
        <time>1970-01-01T00:00:00+00:00</time>
        <ele>2634.0</ele>
      </trkpt>
      <trkpt lat="46.120601" lon="7.66765">
        <time>1970-01-01T00:00:00+00:00</time>
        <ele>2634.0</ele>
      </trkpt>
      <trkpt lat="46.120572" lon="7.667728">
        <time>1970-01-01T00:00:00+00:00</time>
        <ele>2635.0</ele>
      </trkpt>
      <trkpt lat="46.120572" lon="7.667728">
        <time>1970-01-01T00:00:00+00:00</time>
        <ele>2635.0</ele>
      </trkpt>
      <trkpt lat="46.120564" lon="7.667859">
        <time>1970-01-01T00:00:00+00:00</time>
        <ele>2639.0</ele>
      </trkpt>
      <trkpt lat="46.120564" lon="7.667859">
        <time>1970-01-01T00:00:00+00:00</time>
        <ele>2639.0</ele>
      </trkpt>
      <trkpt lat="46.12058" lon="7.668053">
        <time>1970-01-01T00:00:00+00:00</time>
        <ele>2644.0</ele>
      </trkpt>
      <trkpt lat="46.12058" lon="7.668053">
        <time>1970-01-01T00:00:00+00:00</time>
        <ele>2644.0</ele>
      </trkpt>
      <trkpt lat="46.120627" lon="7.668125">
        <time>1970-01-01T00:00:00+00:00</time>
        <ele>2646.0</ele>
      </trkpt>
      <trkpt lat="46.120627" lon="7.668125">
        <time>1970-01-01T00:00:00+00:00</time>
        <ele>2646.0</ele>
      </trkpt>
      <trkpt lat="46.120667" lon="7.668235">
        <time>1970-01-01T00:00:00+00:00</time>
        <ele>2649.0</ele>
      </trkpt>
      <trkpt lat="46.120667" lon="7.668235">
        <time>1970-01-01T00:00:00+00:00</time>
        <ele>2649.0</ele>
      </trkpt>
      <trkpt lat="46.120674" lon="7.668314">
        <time>1970-01-01T00:00:00+00:00</time>
        <ele>2651.0</ele>
      </trkpt>
      <trkpt lat="46.120674" lon="7.668314">
        <time>1970-01-01T00:00:00+00:00</time>
        <ele>2651.0</ele>
      </trkpt>
      <trkpt lat="46.120718" lon="7.668423">
        <time>1970-01-01T00:00:00+00:00</time>
        <ele>2654.0</ele>
      </trkpt>
      <trkpt lat="46.120718" lon="7.668423">
        <time>1970-01-01T00:00:00+00:00</time>
        <ele>2654.0</ele>
      </trkpt>
      <trkpt lat="46.120723" lon="7.668542">
        <time>1970-01-01T00:00:00+00:00</time>
        <ele>2657.0</ele>
      </trkpt>
      <trkpt lat="46.120723" lon="7.668542">
        <time>1970-01-01T00:00:00+00:00</time>
        <ele>2657.0</ele>
      </trkpt>
      <trkpt lat="46.120775" lon="7.668596">
        <time>1970-01-01T00:00:00+00:00</time>
        <ele>2657.0</ele>
      </trkpt>
      <trkpt lat="46.120775" lon="7.668596">
        <time>1970-01-01T00:00:00+00:00</time>
        <ele>2657.0</ele>
      </trkpt>
      <trkpt lat="46.120824" lon="7.668695">
        <time>1970-01-01T00:00:00+00:00</time>
        <ele>2659.0</ele>
      </trkpt>
      <trkpt lat="46.120824" lon="7.668695">
        <time>1970-01-01T00:00:00+00:00</time>
        <ele>2659.0</ele>
      </trkpt>
      <trkpt lat="46.120838" lon="7.668777">
        <time>1970-01-01T00:00:00+00:00</time>
        <ele>2660.0</ele>
      </trkpt>
      <trkpt lat="46.120838" lon="7.668777">
        <time>1970-01-01T00:00:00+00:00</time>
        <ele>2660.0</ele>
      </trkpt>
      <trkpt lat="46.120833" lon="7.668862">
        <time>1970-01-01T00:00:00+00:00</time>
        <ele>2661.0</ele>
      </trkpt>
      <trkpt lat="46.120833" lon="7.668862">
        <time>1970-01-01T00:00:00+00:00</time>
        <ele>2661.0</ele>
      </trkpt>
      <trkpt lat="46.12087" lon="7.668927">
        <time>1970-01-01T00:00:00+00:00</time>
        <ele>2663.0</ele>
      </trkpt>
      <trkpt lat="46.12087" lon="7.668927">
        <time>1970-01-01T00:00:00+00:00</time>
        <ele>2663.0</ele>
      </trkpt>
      <trkpt lat="46.12082" lon="7.669164">
        <time>1970-01-01T00:00:00+00:00</time>
        <ele>2668.0</ele>
      </trkpt>
      <trkpt lat="46.12082" lon="7.669164">
        <time>1970-01-01T00:00:00+00:00</time>
        <ele>2668.0</ele>
      </trkpt>
      <trkpt lat="46.120826" lon="7.669244">
        <time>1970-01-01T00:00:00+00:00</time>
        <ele>2670.0</ele>
      </trkpt>
      <trkpt lat="46.120826" lon="7.669244">
        <time>1970-01-01T00:00:00+00:00</time>
        <ele>2670.0</ele>
      </trkpt>
      <trkpt lat="46.120777" lon="7.669293">
        <time>1970-01-01T00:00:00+00:00</time>
        <ele>2672.0</ele>
      </trkpt>
      <trkpt lat="46.120777" lon="7.669293">
        <time>1970-01-01T00:00:00+00:00</time>
        <ele>2672.0</ele>
      </trkpt>
      <trkpt lat="46.120709" lon="7.669287">
        <time>1970-01-01T00:00:00+00:00</time>
        <ele>2673.0</ele>
      </trkpt>
      <trkpt lat="46.120709" lon="7.669287">
        <time>1970-01-01T00:00:00+00:00</time>
        <ele>2673.0</ele>
      </trkpt>
      <trkpt lat="46.12064621788065" lon="7.669530170180583">
        <time>1970-01-01T00:00:00+00:00</time>
        <ele>2681.0</ele>
      </trkpt>
      <trkpt lat="46.120638" lon="7.669562">
        <time>1970-01-01T00:00:00+00:00</time>
        <ele>2682.0</ele>
      </trkpt>
      <trkpt lat="46.120638" lon="7.669562">
        <time>1970-01-01T00:00:00+00:00</time>
        <ele>2682.0</ele>
      </trkpt>
      <trkpt lat="46.120653" lon="7.669646">
        <time>1970-01-01T00:00:00+00:00</time>
        <ele>2683.0</ele>
      </trkpt>
      <trkpt lat="46.120653" lon="7.669646">
        <time>1970-01-01T00:00:00+00:00</time>
        <ele>2683.0</ele>
      </trkpt>
      <trkpt lat="46.120663" lon="7.669725">
        <time>1970-01-01T00:00:00+00:00</time>
        <ele>2684.0</ele>
      </trkpt>
      <trkpt lat="46.120663" lon="7.669725">
        <time>1970-01-01T00:00:00+00:00</time>
        <ele>2684.0</ele>
      </trkpt>
      <trkpt lat="46.120651" lon="7.669861">
        <time>1970-01-01T00:00:00+00:00</time>
        <ele>2686.0</ele>
      </trkpt>
      <trkpt lat="46.120651" lon="7.669861">
        <time>1970-01-01T00:00:00+00:00</time>
        <ele>2686.0</ele>
      </trkpt>
      <trkpt lat="46.120677" lon="7.669936">
        <time>1970-01-01T00:00:00+00:00</time>
        <ele>2687.0</ele>
      </trkpt>
      <trkpt lat="46.120677" lon="7.669936">
        <time>1970-01-01T00:00:00+00:00</time>
        <ele>2687.0</ele>
      </trkpt>
      <trkpt lat="46.120641" lon="7.670052">
        <time>1970-01-01T00:00:00+00:00</time>
        <ele>2689.0</ele>
      </trkpt>
      <trkpt lat="46.120641" lon="7.670052">
        <time>1970-01-01T00:00:00+00:00</time>
        <ele>2689.0</ele>
      </trkpt>
      <trkpt lat="46.120662878064195" lon="7.670309564483021">
        <time>1970-01-01T00:00:00+00:00</time>
        <ele>2692.0</ele>
      </trkpt>
      <trkpt lat="46.120663" lon="7.670311">
        <time>1970-01-01T00:00:00+00:00</time>
        <ele>2692.0</ele>
      </trkpt>
      <trkpt lat="46.120663" lon="7.670311">
        <time>1970-01-01T00:00:00+00:00</time>
        <ele>2692.0</ele>
      </trkpt>
      <trkpt lat="46.120702" lon="7.670375">
        <time>1970-01-01T00:00:00+00:00</time>
        <ele>2693.0</ele>
      </trkpt>
      <trkpt lat="46.120702" lon="7.670375">
        <time>1970-01-01T00:00:00+00:00</time>
        <ele>2693.0</ele>
      </trkpt>
      <trkpt lat="46.12065" lon="7.67058">
        <time>1970-01-01T00:00:00+00:00</time>
        <ele>2696.0</ele>
      </trkpt>
      <trkpt lat="46.12065" lon="7.67058">
        <time>1970-01-01T00:00:00+00:00</time>
        <ele>2696.0</ele>
      </trkpt>
      <trkpt lat="46.12057" lon="7.670656">
        <time>1970-01-01T00:00:00+00:00</time>
        <ele>2698.0</ele>
      </trkpt>
      <trkpt lat="46.12057" lon="7.670656">
        <time>1970-01-01T00:00:00+00:00</time>
        <ele>2698.0</ele>
      </trkpt>
      <trkpt lat="46.120542" lon="7.67073">
        <time>1970-01-01T00:00:00+00:00</time>
        <ele>2699.0</ele>
      </trkpt>
      <trkpt lat="46.120542" lon="7.67073">
        <time>1970-01-01T00:00:00+00:00</time>
        <ele>2699.0</ele>
      </trkpt>
      <trkpt lat="46.120487" lon="7.670758">
        <time>1970-01-01T00:00:00+00:00</time>
        <ele>2700.0</ele>
      </trkpt>
      <trkpt lat="46.120487" lon="7.670758">
        <time>1970-01-01T00:00:00+00:00</time>
        <ele>2700.0</ele>
      </trkpt>
      <trkpt lat="46.120513" lon="7.670864">
        <time>1970-01-01T00:00:00+00:00</time>
        <ele>2701.0</ele>
      </trkpt>
      <trkpt lat="46.120513" lon="7.670864">
        <time>1970-01-01T00:00:00+00:00</time>
        <ele>2701.0</ele>
      </trkpt>
      <trkpt lat="46.120525" lon="7.670939">
        <time>1970-01-01T00:00:00+00:00</time>
        <ele>2701.0</ele>
      </trkpt>
      <trkpt lat="46.120525" lon="7.670939">
        <time>1970-01-01T00:00:00+00:00</time>
        <ele>2701.0</ele>
      </trkpt>
      <trkpt lat="46.120549" lon="7.671112">
        <time>1970-01-01T00:00:00+00:00</time>
        <ele>2703.0</ele>
      </trkpt>
      <trkpt lat="46.120549" lon="7.671112">
        <time>1970-01-01T00:00:00+00:00</time>
        <ele>2703.0</ele>
      </trkpt>
      <trkpt lat="46.120578" lon="7.671364">
        <time>1970-01-01T00:00:00+00:00</time>
        <ele>2708.0</ele>
      </trkpt>
      <trkpt lat="46.120578" lon="7.671364">
        <time>1970-01-01T00:00:00+00:00</time>
        <ele>2708.0</ele>
      </trkpt>
      <trkpt lat="46.120602" lon="7.671442">
        <time>1970-01-01T00:00:00+00:00</time>
        <ele>2710.0</ele>
      </trkpt>
      <trkpt lat="46.120602" lon="7.671442">
        <time>1970-01-01T00:00:00+00:00</time>
        <ele>2710.0</ele>
      </trkpt>
      <trkpt lat="46.120661" lon="7.671466">
        <time>1970-01-01T00:00:00+00:00</time>
        <ele>2712.0</ele>
      </trkpt>
      <trkpt lat="46.120661" lon="7.671466">
        <time>1970-01-01T00:00:00+00:00</time>
        <ele>2712.0</ele>
      </trkpt>
      <trkpt lat="46.120646" lon="7.671551">
        <time>1970-01-01T00:00:00+00:00</time>
        <ele>2713.0</ele>
      </trkpt>
      <trkpt lat="46.120646" lon="7.671551">
        <time>1970-01-01T00:00:00+00:00</time>
        <ele>2713.0</ele>
      </trkpt>
      <trkpt lat="46.120607" lon="7.671615">
        <time>1970-01-01T00:00:00+00:00</time>
        <ele>2712.0</ele>
      </trkpt>
      <trkpt lat="46.120607" lon="7.671615">
        <time>1970-01-01T00:00:00+00:00</time>
        <ele>2712.0</ele>
      </trkpt>
      <trkpt lat="46.120649" lon="7.671747">
        <time>1970-01-01T00:00:00+00:00</time>
        <ele>2715.0</ele>
      </trkpt>
      <trkpt lat="46.120649" lon="7.671747">
        <time>1970-01-01T00:00:00+00:00</time>
        <ele>2715.0</ele>
      </trkpt>
      <trkpt lat="46.120699" lon="7.671967">
        <time>1970-01-01T00:00:00+00:00</time>
        <ele>2720.0</ele>
      </trkpt>
      <trkpt lat="46.120699" lon="7.671967">
        <time>1970-01-01T00:00:00+00:00</time>
        <ele>2720.0</ele>
      </trkpt>
      <trkpt lat="46.12080674071342" lon="7.672174785661589">
        <time>1970-01-01T00:00:00+00:00</time>
        <ele>2726.0</ele>
      </trkpt>
      <trkpt lat="46.120825" lon="7.67221">
        <time>1970-01-01T00:00:00+00:00</time>
        <ele>2727.0</ele>
      </trkpt>
      <trkpt lat="46.120825" lon="7.67221">
        <time>1970-01-01T00:00:00+00:00</time>
        <ele>2727.0</ele>
      </trkpt>
      <trkpt lat="46.12098416461198" lon="7.672330859435656">
        <time>1970-01-01T00:00:00+00:00</time>
        <ele>2733.0</ele>
      </trkpt>
      <trkpt lat="46.121066" lon="7.672393">
        <time>1970-01-01T00:00:00+00:00</time>
        <ele>2734.0</ele>
      </trkpt>
      <trkpt lat="46.121066" lon="7.672393">
        <time>1970-01-01T00:00:00+00:00</time>
        <ele>2734.0</ele>
      </trkpt>
      <trkpt lat="46.121159" lon="7.672439">
        <time>1970-01-01T00:00:00+00:00</time>
        <ele>2736.0</ele>
      </trkpt>
      <trkpt lat="46.121159" lon="7.672439">
        <time>1970-01-01T00:00:00+00:00</time>
        <ele>2736.0</ele>
      </trkpt>
      <trkpt lat="46.121204" lon="7.672392">
        <time>1970-01-01T00:00:00+00:00</time>
        <ele>2737.0</ele>
      </trkpt>
      <trkpt lat="46.121204" lon="7.672392">
        <time>1970-01-01T00:00:00+00:00</time>
        <ele>2737.0</ele>
      </trkpt>
      <trkpt lat="46.12138288665492" lon="7.672419019338504">
        <time>1970-01-01T00:00:00+00:00</time>
        <ele>2742.0</ele>
      </trkpt>
      <trkpt lat="46.121396" lon="7.672421">
        <time>1970-01-01T00:00:00+00:00</time>
        <ele>2743.0</ele>
      </trkpt>
      <trkpt lat="46.121396" lon="7.672421">
        <time>1970-01-01T00:00:00+00:00</time>
        <ele>2743.0</ele>
      </trkpt>
      <trkpt lat="46.121471" lon="7.672353">
        <time>1970-01-01T00:00:00+00:00</time>
        <ele>2745.0</ele>
      </trkpt>
      <trkpt lat="46.121471" lon="7.672353">
        <time>1970-01-01T00:00:00+00:00</time>
        <ele>2745.0</ele>
      </trkpt>
      <trkpt lat="46.121632" lon="7.672335">
        <time>1970-01-01T00:00:00+00:00</time>
        <ele>2748.0</ele>
      </trkpt>
      <trkpt lat="46.121632" lon="7.672335">
        <time>1970-01-01T00:00:00+00:00</time>
        <ele>2748.0</ele>
      </trkpt>
      <trkpt lat="46.121699" lon="7.672258">
        <time>1970-01-01T00:00:00+00:00</time>
        <ele>2749.0</ele>
      </trkpt>
      <trkpt lat="46.121699" lon="7.672258">
        <time>1970-01-01T00:00:00+00:00</time>
        <ele>2749.0</ele>
      </trkpt>
      <trkpt lat="46.121842" lon="7.672191">
        <time>1970-01-01T00:00:00+00:00</time>
        <ele>2752.0</ele>
      </trkpt>
      <trkpt lat="46.121842" lon="7.672191">
        <time>1970-01-01T00:00:00+00:00</time>
        <ele>2752.0</ele>
      </trkpt>
      <trkpt lat="46.121931" lon="7.672188">
        <time>1970-01-01T00:00:00+00:00</time>
        <ele>2754.0</ele>
      </trkpt>
      <trkpt lat="46.121931" lon="7.672188">
        <time>1970-01-01T00:00:00+00:00</time>
        <ele>2754.0</ele>
      </trkpt>
      <trkpt lat="46.122087" lon="7.672226">
        <time>1970-01-01T00:00:00+00:00</time>
        <ele>2757.0</ele>
      </trkpt>
      <trkpt lat="46.122087" lon="7.672226">
        <time>1970-01-01T00:00:00+00:00</time>
        <ele>2757.0</ele>
      </trkpt>
      <trkpt lat="46.122229" lon="7.672133">
        <time>1970-01-01T00:00:00+00:00</time>
        <ele>2760.0</ele>
      </trkpt>
      <trkpt lat="46.122229" lon="7.672133">
        <time>1970-01-01T00:00:00+00:00</time>
        <ele>2760.0</ele>
      </trkpt>
      <trkpt lat="46.122349" lon="7.672084">
        <time>1970-01-01T00:00:00+00:00</time>
        <ele>2763.0</ele>
      </trkpt>
      <trkpt lat="46.122349" lon="7.672084">
        <time>1970-01-01T00:00:00+00:00</time>
        <ele>2763.0</ele>
      </trkpt>
      <trkpt lat="46.122525" lon="7.672098">
        <time>1970-01-01T00:00:00+00:00</time>
        <ele>2767.0</ele>
      </trkpt>
      <trkpt lat="46.122525" lon="7.672098">
        <time>1970-01-01T00:00:00+00:00</time>
        <ele>2767.0</ele>
      </trkpt>
      <trkpt lat="46.12269678999613" lon="7.672021121603944">
        <time>1970-01-01T00:00:00+00:00</time>
        <ele>2771.0</ele>
      </trkpt>
      <trkpt lat="46.122706" lon="7.672017">
        <time>1970-01-01T00:00:00+00:00</time>
        <ele>2772.0</ele>
      </trkpt>
      <trkpt lat="46.122706" lon="7.672017">
        <time>1970-01-01T00:00:00+00:00</time>
        <ele>2772.0</ele>
      </trkpt>
      <trkpt lat="46.122867" lon="7.671999">
        <time>1970-01-01T00:00:00+00:00</time>
        <ele>2775.0</ele>
      </trkpt>
      <trkpt lat="46.122867" lon="7.671999">
        <time>1970-01-01T00:00:00+00:00</time>
        <ele>2775.0</ele>
      </trkpt>
      <trkpt lat="46.122951" lon="7.671935">
        <time>1970-01-01T00:00:00+00:00</time>
        <ele>2778.0</ele>
      </trkpt>
      <trkpt lat="46.122951" lon="7.671935">
        <time>1970-01-01T00:00:00+00:00</time>
        <ele>2778.0</ele>
      </trkpt>
      <trkpt lat="46.123063" lon="7.671904">
        <time>1970-01-01T00:00:00+00:00</time>
        <ele>2780.0</ele>
      </trkpt>
      <trkpt lat="46.123063" lon="7.671904">
        <time>1970-01-01T00:00:00+00:00</time>
        <ele>2780.0</ele>
      </trkpt>
      <trkpt lat="46.123141" lon="7.671843">
        <time>1970-01-01T00:00:00+00:00</time>
        <ele>2783.0</ele>
      </trkpt>
      <trkpt lat="46.123141" lon="7.671843">
        <time>1970-01-01T00:00:00+00:00</time>
        <ele>2783.0</ele>
      </trkpt>
      <trkpt lat="46.123320586611314" lon="7.671828585021165">
        <time>1970-01-01T00:00:00+00:00</time>
        <ele>2785.0</ele>
      </trkpt>
      <trkpt lat="46.12344" lon="7.671819">
        <time>1970-01-01T00:00:00+00:00</time>
        <ele>2788.0</ele>
      </trkpt>
      <trkpt lat="46.12344" lon="7.671819">
        <time>1970-01-01T00:00:00+00:00</time>
        <ele>2788.0</ele>
      </trkpt>
      <trkpt lat="46.123488" lon="7.671776">
        <time>1970-01-01T00:00:00+00:00</time>
        <ele>2789.0</ele>
      </trkpt>
      <trkpt lat="46.123488" lon="7.671776">
        <time>1970-01-01T00:00:00+00:00</time>
        <ele>2789.0</ele>
      </trkpt>
      <trkpt lat="46.123585" lon="7.671753">
        <time>1970-01-01T00:00:00+00:00</time>
        <ele>2792.0</ele>
      </trkpt>
      <trkpt lat="46.123585" lon="7.671753">
        <time>1970-01-01T00:00:00+00:00</time>
        <ele>2792.0</ele>
      </trkpt>
      <trkpt lat="46.123652" lon="7.671781">
        <time>1970-01-01T00:00:00+00:00</time>
        <ele>2793.0</ele>
      </trkpt>
      <trkpt lat="46.123652" lon="7.671781">
        <time>1970-01-01T00:00:00+00:00</time>
        <ele>2793.0</ele>
      </trkpt>
      <trkpt lat="46.123806" lon="7.671737">
        <time>1970-01-01T00:00:00+00:00</time>
        <ele>2796.0</ele>
      </trkpt>
      <trkpt lat="46.123806" lon="7.671737">
        <time>1970-01-01T00:00:00+00:00</time>
        <ele>2796.0</ele>
      </trkpt>
      <trkpt lat="46.123983531996046" lon="7.671695344447853">
        <time>1970-01-01T00:00:00+00:00</time>
        <ele>2800.0</ele>
      </trkpt>
      <trkpt lat="46.123985" lon="7.671695">
        <time>1970-01-01T00:00:00+00:00</time>
        <ele>2800.0</ele>
      </trkpt>
      <trkpt lat="46.123985" lon="7.671695">
        <time>1970-01-01T00:00:00+00:00</time>
        <ele>2800.0</ele>
      </trkpt>
      <trkpt lat="46.1241100007025" lon="7.671508404748444">
        <time>1970-01-01T00:00:00+00:00</time>
        <ele>2805.0</ele>
      </trkpt>
      <trkpt lat="46.124123" lon="7.671489">
        <time>1970-01-01T00:00:00+00:00</time>
        <ele>2805.0</ele>
      </trkpt>
      <trkpt lat="46.124123" lon="7.671489">
        <time>1970-01-01T00:00:00+00:00</time>
        <ele>2805.0</ele>
      </trkpt>
      <trkpt lat="46.1242" lon="7.671421">
        <time>1970-01-01T00:00:00+00:00</time>
        <ele>2808.0</ele>
      </trkpt>
      <trkpt lat="46.1242" lon="7.671421">
        <time>1970-01-01T00:00:00+00:00</time>
        <ele>2808.0</ele>
      </trkpt>
      <trkpt lat="46.124259" lon="7.671219">
        <time>1970-01-01T00:00:00+00:00</time>
        <ele>2814.0</ele>
      </trkpt>
      <trkpt lat="46.124259" lon="7.671219">
        <time>1970-01-01T00:00:00+00:00</time>
        <ele>2814.0</ele>
      </trkpt>
      <trkpt lat="46.124316" lon="7.671058">
        <time>1970-01-01T00:00:00+00:00</time>
        <ele>2818.0</ele>
      </trkpt>
      <trkpt lat="46.124316" lon="7.671058">
        <time>1970-01-01T00:00:00+00:00</time>
        <ele>2818.0</ele>
      </trkpt>
      <trkpt lat="46.124356" lon="7.670987">
        <time>1970-01-01T00:00:00+00:00</time>
        <ele>2820.0</ele>
      </trkpt>
      <trkpt lat="46.124356" lon="7.670987">
        <time>1970-01-01T00:00:00+00:00</time>
        <ele>2820.0</ele>
      </trkpt>
      <trkpt lat="46.124335" lon="7.670805">
        <time>1970-01-01T00:00:00+00:00</time>
        <ele>2822.0</ele>
      </trkpt>
      <trkpt lat="46.124335" lon="7.670805">
        <time>1970-01-01T00:00:00+00:00</time>
        <ele>2822.0</ele>
      </trkpt>
      <trkpt lat="46.124366" lon="7.670725">
        <time>1970-01-01T00:00:00+00:00</time>
        <ele>2822.0</ele>
      </trkpt>
      <trkpt lat="46.124366" lon="7.670725">
        <time>1970-01-01T00:00:00+00:00</time>
        <ele>2822.0</ele>
      </trkpt>
      <trkpt lat="46.124388" lon="7.670655">
        <time>1970-01-01T00:00:00+00:00</time>
        <ele>2823.0</ele>
      </trkpt>
      <trkpt lat="46.124388" lon="7.670655">
        <time>1970-01-01T00:00:00+00:00</time>
        <ele>2823.0</ele>
      </trkpt>
      <trkpt lat="46.1243178861058" lon="7.670416020247953">
        <time>1970-01-01T00:00:00+00:00</time>
        <ele>2823.0</ele>
      </trkpt>
      <trkpt lat="46.124317" lon="7.670413">
        <time>1970-01-01T00:00:00+00:00</time>
        <ele>2823.0</ele>
      </trkpt>
      <trkpt lat="46.124317" lon="7.670413">
        <time>1970-01-01T00:00:00+00:00</time>
        <ele>2823.0</ele>
      </trkpt>
      <trkpt lat="46.12427" lon="7.670302">
        <time>1970-01-01T00:00:00+00:00</time>
        <ele>2822.0</ele>
      </trkpt>
      <trkpt lat="46.12427" lon="7.670302">
        <time>1970-01-01T00:00:00+00:00</time>
        <ele>2822.0</ele>
      </trkpt>
      <trkpt lat="46.124257" lon="7.67022">
        <time>1970-01-01T00:00:00+00:00</time>
        <ele>2822.0</ele>
      </trkpt>
      <trkpt lat="46.124257" lon="7.67022">
        <time>1970-01-01T00:00:00+00:00</time>
        <ele>2822.0</ele>
      </trkpt>
      <trkpt lat="46.1243491424275" lon="7.669997130503486">
        <time>1970-01-01T00:00:00+00:00</time>
        <ele>2824.0</ele>
      </trkpt>
      <trkpt lat="46.124417" lon="7.669833">
        <time>1970-01-01T00:00:00+00:00</time>
        <ele>2825.0</ele>
      </trkpt>
      <trkpt lat="46.124417" lon="7.669833">
        <time>1970-01-01T00:00:00+00:00</time>
        <ele>2825.0</ele>
      </trkpt>
      <trkpt lat="46.124462" lon="7.669775">
        <time>1970-01-01T00:00:00+00:00</time>
        <ele>2825.0</ele>
      </trkpt>
      <trkpt lat="46.124462" lon="7.669775">
        <time>1970-01-01T00:00:00+00:00</time>
        <ele>2825.0</ele>
      </trkpt>
      <trkpt lat="46.12463934814069" lon="7.6697317443559285">
        <time>1970-01-01T00:00:00+00:00</time>
        <ele>2830.0</ele>
      </trkpt>
      <trkpt lat="46.124667" lon="7.669725">
        <time>1970-01-01T00:00:00+00:00</time>
        <ele>2831.0</ele>
      </trkpt>
      <trkpt lat="46.124667" lon="7.669725">
        <time>1970-01-01T00:00:00+00:00</time>
        <ele>2831.0</ele>
      </trkpt>
      <trkpt lat="46.124748" lon="7.669664">
        <time>1970-01-01T00:00:00+00:00</time>
        <ele>2832.0</ele>
      </trkpt>
      <trkpt lat="46.124748" lon="7.669664">
        <time>1970-01-01T00:00:00+00:00</time>
        <ele>2832.0</ele>
      </trkpt>
      <trkpt lat="46.124821" lon="7.669576">
        <time>1970-01-01T00:00:00+00:00</time>
        <ele>2834.0</ele>
      </trkpt>
      <trkpt lat="46.124821" lon="7.669576">
        <time>1970-01-01T00:00:00+00:00</time>
        <ele>2834.0</ele>
      </trkpt>
      <trkpt lat="46.124853" lon="7.66945">
        <time>1970-01-01T00:00:00+00:00</time>
        <ele>2834.0</ele>
      </trkpt>
      <trkpt lat="46.124853" lon="7.66945">
        <time>1970-01-01T00:00:00+00:00</time>
        <ele>2834.0</ele>
      </trkpt>
      <trkpt lat="46.124938" lon="7.669491">
        <time>1970-01-01T00:00:00+00:00</time>
        <ele>2838.0</ele>
      </trkpt>
      <trkpt lat="46.124938" lon="7.669491">
        <time>1970-01-01T00:00:00+00:00</time>
        <ele>2838.0</ele>
      </trkpt>
      <trkpt lat="46.125039" lon="7.669425">
        <time>1970-01-01T00:00:00+00:00</time>
        <ele>2841.0</ele>
      </trkpt>
      <trkpt lat="46.125039" lon="7.669425">
        <time>1970-01-01T00:00:00+00:00</time>
        <ele>2841.0</ele>
      </trkpt>
      <trkpt lat="46.12506" lon="7.669325">
        <time>1970-01-01T00:00:00+00:00</time>
        <ele>2841.0</ele>
      </trkpt>
      <trkpt lat="46.12506" lon="7.669325">
        <time>1970-01-01T00:00:00+00:00</time>
        <ele>2841.0</ele>
      </trkpt>
      <trkpt lat="46.12522712995536" lon="7.669229090196072">
        <time>1970-01-01T00:00:00+00:00</time>
        <ele>2846.0</ele>
      </trkpt>
      <trkpt lat="46.125236" lon="7.669224">
        <time>1970-01-01T00:00:00+00:00</time>
        <ele>2846.0</ele>
      </trkpt>
      <trkpt lat="46.125236" lon="7.669224">
        <time>1970-01-01T00:00:00+00:00</time>
        <ele>2846.0</ele>
      </trkpt>
      <trkpt lat="46.125254" lon="7.669145">
        <time>1970-01-01T00:00:00+00:00</time>
        <ele>2845.0</ele>
      </trkpt>
      <trkpt lat="46.125254" lon="7.669145">
        <time>1970-01-01T00:00:00+00:00</time>
        <ele>2845.0</ele>
      </trkpt>
      <trkpt lat="46.125362" lon="7.669063">
        <time>1970-01-01T00:00:00+00:00</time>
        <ele>2847.0</ele>
      </trkpt>
      <trkpt lat="46.125362" lon="7.669063">
        <time>1970-01-01T00:00:00+00:00</time>
        <ele>2847.0</ele>
      </trkpt>
      <trkpt lat="46.125369" lon="7.669154">
        <time>1970-01-01T00:00:00+00:00</time>
        <ele>2849.0</ele>
      </trkpt>
      <trkpt lat="46.125369" lon="7.669154">
        <time>1970-01-01T00:00:00+00:00</time>
        <ele>2849.0</ele>
      </trkpt>
      <trkpt lat="46.125463" lon="7.669147">
        <time>1970-01-01T00:00:00+00:00</time>
        <ele>2852.0</ele>
      </trkpt>
      <trkpt lat="46.125463" lon="7.669147">
        <time>1970-01-01T00:00:00+00:00</time>
        <ele>2852.0</ele>
      </trkpt>
      <trkpt lat="46.125527" lon="7.669044">
        <time>1970-01-01T00:00:00+00:00</time>
        <ele>2853.0</ele>
      </trkpt>
      <trkpt lat="46.125527" lon="7.669044">
        <time>1970-01-01T00:00:00+00:00</time>
        <ele>2853.0</ele>
      </trkpt>
      <trkpt lat="46.125586" lon="7.66888">
        <time>1970-01-01T00:00:00+00:00</time>
        <ele>2854.0</ele>
      </trkpt>
      <trkpt lat="46.125586" lon="7.66888">
        <time>1970-01-01T00:00:00+00:00</time>
        <ele>2854.0</ele>
      </trkpt>
      <trkpt lat="46.125666" lon="7.668818">
        <time>1970-01-01T00:00:00+00:00</time>
        <ele>2857.0</ele>
      </trkpt>
      <trkpt lat="46.125666" lon="7.668818">
        <time>1970-01-01T00:00:00+00:00</time>
        <ele>2857.0</ele>
      </trkpt>
      <trkpt lat="46.125736" lon="7.668826">
        <time>1970-01-01T00:00:00+00:00</time>
        <ele>2860.0</ele>
      </trkpt>
      <trkpt lat="46.125736" lon="7.668826">
        <time>1970-01-01T00:00:00+00:00</time>
        <ele>2860.0</ele>
      </trkpt>
      <trkpt lat="46.125866" lon="7.668981">
        <time>1970-01-01T00:00:00+00:00</time>
        <ele>2867.0</ele>
      </trkpt>
      <trkpt lat="46.125866" lon="7.668981">
        <time>1970-01-01T00:00:00+00:00</time>
        <ele>2867.0</ele>
      </trkpt>
      <trkpt lat="46.125897" lon="7.669101">
        <time>1970-01-01T00:00:00+00:00</time>
        <ele>2869.0</ele>
      </trkpt>
      <trkpt lat="46.125897" lon="7.669101">
        <time>1970-01-01T00:00:00+00:00</time>
        <ele>2869.0</ele>
      </trkpt>
      <trkpt lat="46.125922" lon="7.669231">
        <time>1970-01-01T00:00:00+00:00</time>
        <ele>2871.0</ele>
      </trkpt>
      <trkpt lat="46.125922" lon="7.669231">
        <time>1970-01-01T00:00:00+00:00</time>
        <ele>2871.0</ele>
      </trkpt>
      <trkpt lat="46.125978" lon="7.669265">
        <time>1970-01-01T00:00:00+00:00</time>
        <ele>2873.0</ele>
      </trkpt>
      <trkpt lat="46.125978" lon="7.669265">
        <time>1970-01-01T00:00:00+00:00</time>
        <ele>2873.0</ele>
      </trkpt>
      <trkpt lat="46.12604" lon="7.669363">
        <time>1970-01-01T00:00:00+00:00</time>
        <ele>2876.0</ele>
      </trkpt>
      <trkpt lat="46.12604" lon="7.669363">
        <time>1970-01-01T00:00:00+00:00</time>
        <ele>2876.0</ele>
      </trkpt>
      <trkpt lat="46.1261" lon="7.669343">
        <time>1970-01-01T00:00:00+00:00</time>
        <ele>2878.0</ele>
      </trkpt>
      <trkpt lat="46.1261" lon="7.669343">
        <time>1970-01-01T00:00:00+00:00</time>
        <ele>2878.0</ele>
      </trkpt>
      <trkpt lat="46.12619" lon="7.669381">
        <time>1970-01-01T00:00:00+00:00</time>
        <ele>2882.0</ele>
      </trkpt>
      <trkpt lat="46.12619" lon="7.669381">
        <time>1970-01-01T00:00:00+00:00</time>
        <ele>2882.0</ele>
      </trkpt>
      <trkpt lat="46.126274" lon="7.669307">
        <time>1970-01-01T00:00:00+00:00</time>
        <ele>2885.0</ele>
      </trkpt>
      <trkpt lat="46.126274" lon="7.669307">
        <time>1970-01-01T00:00:00+00:00</time>
        <ele>2885.0</ele>
      </trkpt>
      <trkpt lat="46.12645351888352" lon="7.669290923682072">
        <time>1970-01-01T00:00:00+00:00</time>
        <ele>2890.0</ele>
      </trkpt>
      <trkpt lat="46.126475" lon="7.669289">
        <time>1970-01-01T00:00:00+00:00</time>
        <ele>2891.0</ele>
      </trkpt>
      <trkpt lat="46.126475" lon="7.669289">
        <time>1970-01-01T00:00:00+00:00</time>
        <ele>2891.0</ele>
      </trkpt>
      <trkpt lat="46.126589" lon="7.669223">
        <time>1970-01-01T00:00:00+00:00</time>
        <ele>2894.0</ele>
      </trkpt>
      <trkpt lat="46.126589" lon="7.669223">
        <time>1970-01-01T00:00:00+00:00</time>
        <ele>2894.0</ele>
      </trkpt>
      <trkpt lat="46.126673" lon="7.669088">
        <time>1970-01-01T00:00:00+00:00</time>
        <ele>2898.0</ele>
      </trkpt>
      <trkpt lat="46.126673" lon="7.669088">
        <time>1970-01-01T00:00:00+00:00</time>
        <ele>2898.0</ele>
      </trkpt>
      <trkpt lat="46.126732" lon="7.66911">
        <time>1970-01-01T00:00:00+00:00</time>
        <ele>2900.0</ele>
      </trkpt>
      <trkpt lat="46.126732" lon="7.66911">
        <time>1970-01-01T00:00:00+00:00</time>
        <ele>2900.0</ele>
      </trkpt>
      <trkpt lat="46.126794" lon="7.66922">
        <time>1970-01-01T00:00:00+00:00</time>
        <ele>2903.0</ele>
      </trkpt>
      <trkpt lat="46.126794" lon="7.66922">
        <time>1970-01-01T00:00:00+00:00</time>
        <ele>2903.0</ele>
      </trkpt>
      <trkpt lat="46.126859257577244" lon="7.668978163096109">
        <time>1970-01-01T00:00:00+00:00</time>
        <ele>2905.0</ele>
      </trkpt>
      <trkpt lat="46.126862" lon="7.668968">
        <time>1970-01-01T00:00:00+00:00</time>
        <ele>2905.0</ele>
      </trkpt>
      <trkpt lat="46.126862" lon="7.668968">
        <time>1970-01-01T00:00:00+00:00</time>
        <ele>2905.0</ele>
      </trkpt>
      <trkpt lat="46.12692" lon="7.668879">
        <time>1970-01-01T00:00:00+00:00</time>
        <ele>2907.0</ele>
      </trkpt>
      <trkpt lat="46.12692" lon="7.668879">
        <time>1970-01-01T00:00:00+00:00</time>
        <ele>2907.0</ele>
      </trkpt>
      <trkpt lat="46.12709852482362" lon="7.66891061377085">
        <time>1970-01-01T00:00:00+00:00</time>
        <ele>2911.0</ele>
      </trkpt>
      <trkpt lat="46.127112" lon="7.668913">
        <time>1970-01-01T00:00:00+00:00</time>
        <ele>2911.0</ele>
      </trkpt>
      <trkpt lat="46.127112" lon="7.668913">
        <time>1970-01-01T00:00:00+00:00</time>
        <ele>2911.0</ele>
      </trkpt>
      <trkpt lat="46.127200248789" lon="7.669139137521817">
        <time>1970-01-01T00:00:00+00:00</time>
        <ele>2915.0</ele>
      </trkpt>
      <trkpt lat="46.127208" lon="7.669159">
        <time>1970-01-01T00:00:00+00:00</time>
        <ele>2916.0</ele>
      </trkpt>
      <trkpt lat="46.127208" lon="7.669159">
        <time>1970-01-01T00:00:00+00:00</time>
        <ele>2916.0</ele>
      </trkpt>
      <trkpt lat="46.127195" lon="7.669383">
        <time>1970-01-01T00:00:00+00:00</time>
        <ele>2918.0</ele>
      </trkpt>
      <trkpt lat="46.127195" lon="7.669383">
        <time>1970-01-01T00:00:00+00:00</time>
        <ele>2918.0</ele>
      </trkpt>
      <trkpt lat="46.127224" lon="7.669461">
        <time>1970-01-01T00:00:00+00:00</time>
        <ele>2920.0</ele>
      </trkpt>
      <trkpt lat="46.127224" lon="7.669461">
        <time>1970-01-01T00:00:00+00:00</time>
        <ele>2920.0</ele>
      </trkpt>
      <trkpt lat="46.127208" lon="7.669561">
        <time>1970-01-01T00:00:00+00:00</time>
        <ele>2921.0</ele>
      </trkpt>
      <trkpt lat="46.127208" lon="7.669561">
        <time>1970-01-01T00:00:00+00:00</time>
        <ele>2921.0</ele>
      </trkpt>
      <trkpt lat="46.127271" lon="7.669754">
        <time>1970-01-01T00:00:00+00:00</time>
        <ele>2926.0</ele>
      </trkpt>
      <trkpt lat="46.127271" lon="7.669754">
        <time>1970-01-01T00:00:00+00:00</time>
        <ele>2926.0</ele>
      </trkpt>
      <trkpt lat="46.127268" lon="7.669911">
        <time>1970-01-01T00:00:00+00:00</time>
        <ele>2927.0</ele>
      </trkpt>
      <trkpt lat="46.127268" lon="7.669911">
        <time>1970-01-01T00:00:00+00:00</time>
        <ele>2927.0</ele>
      </trkpt>
      <trkpt lat="46.127307" lon="7.670037">
        <time>1970-01-01T00:00:00+00:00</time>
        <ele>2930.0</ele>
      </trkpt>
      <trkpt lat="46.127307" lon="7.670037">
        <time>1970-01-01T00:00:00+00:00</time>
        <ele>2930.0</ele>
      </trkpt>
      <trkpt lat="46.127318" lon="7.670167">
        <time>1970-01-01T00:00:00+00:00</time>
        <ele>2932.0</ele>
      </trkpt>
      <trkpt lat="46.127318" lon="7.670167">
        <time>1970-01-01T00:00:00+00:00</time>
        <ele>2932.0</ele>
      </trkpt>
      <trkpt lat="46.127367" lon="7.670229">
        <time>1970-01-01T00:00:00+00:00</time>
        <ele>2935.0</ele>
      </trkpt>
      <trkpt lat="46.127367" lon="7.670229">
        <time>1970-01-01T00:00:00+00:00</time>
        <ele>2935.0</ele>
      </trkpt>
      <trkpt lat="46.127393" lon="7.670304">
        <time>1970-01-01T00:00:00+00:00</time>
        <ele>2937.0</ele>
      </trkpt>
      <trkpt lat="46.127393" lon="7.670304">
        <time>1970-01-01T00:00:00+00:00</time>
        <ele>2937.0</ele>
      </trkpt>
      <trkpt lat="46.127398" lon="7.67044">
        <time>1970-01-01T00:00:00+00:00</time>
        <ele>2938.0</ele>
      </trkpt>
      <trkpt lat="46.127398" lon="7.67044">
        <time>1970-01-01T00:00:00+00:00</time>
        <ele>2938.0</ele>
      </trkpt>
      <trkpt lat="46.127426" lon="7.670559">
        <time>1970-01-01T00:00:00+00:00</time>
        <ele>2941.0</ele>
      </trkpt>
      <trkpt lat="46.127426" lon="7.670559">
        <time>1970-01-01T00:00:00+00:00</time>
        <ele>2941.0</ele>
      </trkpt>
      <trkpt lat="46.127411" lon="7.670643">
        <time>1970-01-01T00:00:00+00:00</time>
        <ele>2941.0</ele>
      </trkpt>
      <trkpt lat="46.127411" lon="7.670643">
        <time>1970-01-01T00:00:00+00:00</time>
        <ele>2941.0</ele>
      </trkpt>
      <trkpt lat="46.127445" lon="7.670754">
        <time>1970-01-01T00:00:00+00:00</time>
        <ele>2943.0</ele>
      </trkpt>
      <trkpt lat="46.127445" lon="7.670754">
        <time>1970-01-01T00:00:00+00:00</time>
        <ele>2943.0</ele>
      </trkpt>
      <trkpt lat="46.127492" lon="7.670709">
        <time>1970-01-01T00:00:00+00:00</time>
        <ele>2945.0</ele>
      </trkpt>
      <trkpt lat="46.127492" lon="7.670709">
        <time>1970-01-01T00:00:00+00:00</time>
        <ele>2945.0</ele>
      </trkpt>
      <trkpt lat="46.127561" lon="7.670699">
        <time>1970-01-01T00:00:00+00:00</time>
        <ele>2948.0</ele>
      </trkpt>
      <trkpt lat="46.127561" lon="7.670699">
        <time>1970-01-01T00:00:00+00:00</time>
        <ele>2948.0</ele>
      </trkpt>
      <trkpt lat="46.12761" lon="7.670652">
        <time>1970-01-01T00:00:00+00:00</time>
        <ele>2949.0</ele>
      </trkpt>
      <trkpt lat="46.12761" lon="7.670652">
        <time>1970-01-01T00:00:00+00:00</time>
        <ele>2949.0</ele>
      </trkpt>
      <trkpt lat="46.127687" lon="7.670618">
        <time>1970-01-01T00:00:00+00:00</time>
        <ele>2952.0</ele>
      </trkpt>
      <trkpt lat="46.127687" lon="7.670618">
        <time>1970-01-01T00:00:00+00:00</time>
        <ele>2952.0</ele>
      </trkpt>
      <trkpt lat="46.127737" lon="7.670506">
        <time>1970-01-01T00:00:00+00:00</time>
        <ele>2954.0</ele>
      </trkpt>
      <trkpt lat="46.127737" lon="7.670506">
        <time>1970-01-01T00:00:00+00:00</time>
        <ele>2954.0</ele>
      </trkpt>
      <trkpt lat="46.127742" lon="7.670388">
        <time>1970-01-01T00:00:00+00:00</time>
        <ele>2954.0</ele>
      </trkpt>
      <trkpt lat="46.127742" lon="7.670388">
        <time>1970-01-01T00:00:00+00:00</time>
        <ele>2954.0</ele>
      </trkpt>
      <trkpt lat="46.1278" lon="7.670504">
        <time>1970-01-01T00:00:00+00:00</time>
        <ele>2958.0</ele>
      </trkpt>
      <trkpt lat="46.1278" lon="7.670504">
        <time>1970-01-01T00:00:00+00:00</time>
        <ele>2958.0</ele>
      </trkpt>
      <trkpt lat="46.1278" lon="7.670728">
        <time>1970-01-01T00:00:00+00:00</time>
        <ele>2959.0</ele>
      </trkpt>
      <trkpt lat="46.1278" lon="7.670728">
        <time>1970-01-01T00:00:00+00:00</time>
        <ele>2959.0</ele>
      </trkpt>
      <trkpt lat="46.127776" lon="7.670812">
        <time>1970-01-01T00:00:00+00:00</time>
        <ele>2958.0</ele>
      </trkpt>
      <trkpt lat="46.127776" lon="7.670812">
        <time>1970-01-01T00:00:00+00:00</time>
        <ele>2958.0</ele>
      </trkpt>
      <trkpt lat="46.127773" lon="7.670909">
        <time>1970-01-01T00:00:00+00:00</time>
        <ele>2958.0</ele>
      </trkpt>
      <trkpt lat="46.127773" lon="7.670909">
        <time>1970-01-01T00:00:00+00:00</time>
        <ele>2958.0</ele>
      </trkpt>
      <trkpt lat="46.127804" lon="7.671042">
        <time>1970-01-01T00:00:00+00:00</time>
        <ele>2963.0</ele>
      </trkpt>
      <trkpt lat="46.127804" lon="7.671042">
        <time>1970-01-01T00:00:00+00:00</time>
        <ele>2963.0</ele>
      </trkpt>
      <trkpt lat="46.127759" lon="7.671138">
        <time>1970-01-01T00:00:00+00:00</time>
        <ele>2963.0</ele>
      </trkpt>
      <trkpt lat="46.127759" lon="7.671138">
        <time>1970-01-01T00:00:00+00:00</time>
        <ele>2963.0</ele>
      </trkpt>
      <trkpt lat="46.127712" lon="7.671104">
        <time>1970-01-01T00:00:00+00:00</time>
        <ele>2959.0</ele>
      </trkpt>
      <trkpt lat="46.127712" lon="7.671104">
        <time>1970-01-01T00:00:00+00:00</time>
        <ele>2959.0</ele>
      </trkpt>
      <trkpt lat="46.127833" lon="7.671065">
        <time>1970-01-01T00:00:00+00:00</time>
        <ele>2965.0</ele>
      </trkpt>
      <trkpt lat="46.127833" lon="7.671065">
        <time>1970-01-01T00:00:00+00:00</time>
        <ele>2965.0</ele>
      </trkpt>
      <trkpt lat="46.127893" lon="7.671066">
        <time>1970-01-01T00:00:00+00:00</time>
        <ele>2968.0</ele>
      </trkpt>
      <trkpt lat="46.127893" lon="7.671066">
        <time>1970-01-01T00:00:00+00:00</time>
        <ele>2968.0</ele>
      </trkpt>
      <trkpt lat="46.127925" lon="7.670988">
        <time>1970-01-01T00:00:00+00:00</time>
        <ele>2968.0</ele>
      </trkpt>
      <trkpt lat="46.127925" lon="7.670988">
        <time>1970-01-01T00:00:00+00:00</time>
        <ele>2968.0</ele>
      </trkpt>
      <trkpt lat="46.128017" lon="7.670892">
        <time>1970-01-01T00:00:00+00:00</time>
        <ele>2973.0</ele>
      </trkpt>
      <trkpt lat="46.128017" lon="7.670892">
        <time>1970-01-01T00:00:00+00:00</time>
        <ele>2973.0</ele>
      </trkpt>
      <trkpt lat="46.128077" lon="7.670878">
        <time>1970-01-01T00:00:00+00:00</time>
        <ele>2976.0</ele>
      </trkpt>
      <trkpt lat="46.128077" lon="7.670878">
        <time>1970-01-01T00:00:00+00:00</time>
        <ele>2976.0</ele>
      </trkpt>
      <trkpt lat="46.12816366994967" lon="7.6711054092257385">
        <time>1970-01-01T00:00:00+00:00</time>
        <ele>2984.0</ele>
      </trkpt>
      <trkpt lat="46.128186" lon="7.671164">
        <time>1970-01-01T00:00:00+00:00</time>
        <ele>2986.0</ele>
      </trkpt>
      <trkpt lat="46.128186" lon="7.671164">
        <time>1970-01-01T00:00:00+00:00</time>
        <ele>2986.0</ele>
      </trkpt>
      <trkpt lat="46.128193" lon="7.671237">
        <time>1970-01-01T00:00:00+00:00</time>
        <ele>2988.0</ele>
      </trkpt>
      <trkpt lat="46.128193" lon="7.671237">
        <time>1970-01-01T00:00:00+00:00</time>
        <ele>2988.0</ele>
      </trkpt>
      <trkpt lat="46.128239" lon="7.671166">
        <time>1970-01-01T00:00:00+00:00</time>
        <ele>2988.0</ele>
      </trkpt>
      <trkpt lat="46.128239" lon="7.671166">
        <time>1970-01-01T00:00:00+00:00</time>
        <ele>2988.0</ele>
      </trkpt>
      <trkpt lat="46.128304" lon="7.671162">
        <time>1970-01-01T00:00:00+00:00</time>
        <ele>2992.0</ele>
      </trkpt>
      <trkpt lat="46.128304" lon="7.671162">
        <time>1970-01-01T00:00:00+00:00</time>
        <ele>2992.0</ele>
      </trkpt>
      <trkpt lat="46.128382" lon="7.6713">
        <time>1970-01-01T00:00:00+00:00</time>
        <ele>2998.0</ele>
      </trkpt>
      <trkpt lat="46.128382" lon="7.6713">
        <time>1970-01-01T00:00:00+00:00</time>
        <ele>2998.0</ele>
      </trkpt>
      <trkpt lat="46.128455" lon="7.67148">
        <time>1970-01-01T00:00:00+00:00</time>
        <ele>3005.0</ele>
      </trkpt>
      <trkpt lat="46.128455" lon="7.67148">
        <time>1970-01-01T00:00:00+00:00</time>
        <ele>3005.0</ele>
      </trkpt>
      <trkpt lat="46.128477" lon="7.671548">
        <time>1970-01-01T00:00:00+00:00</time>
        <ele>3006.0</ele>
      </trkpt>
      <trkpt lat="46.128477" lon="7.671548">
        <time>1970-01-01T00:00:00+00:00</time>
        <ele>3006.0</ele>
      </trkpt>
      <trkpt lat="46.128503" lon="7.671623">
        <time>1970-01-01T00:00:00+00:00</time>
        <ele>3008.0</ele>
      </trkpt>
      <trkpt lat="46.128503" lon="7.671623">
        <time>1970-01-01T00:00:00+00:00</time>
        <ele>3008.0</ele>
      </trkpt>
      <trkpt lat="46.128586" lon="7.671641">
        <time>1970-01-01T00:00:00+00:00</time>
        <ele>3013.0</ele>
      </trkpt>
      <trkpt lat="46.128586" lon="7.671641">
        <time>1970-01-01T00:00:00+00:00</time>
        <ele>3013.0</ele>
      </trkpt>
      <trkpt lat="46.128615" lon="7.671761">
        <time>1970-01-01T00:00:00+00:00</time>
        <ele>3015.0</ele>
      </trkpt>
      <trkpt lat="46.128615" lon="7.671761">
        <time>1970-01-01T00:00:00+00:00</time>
        <ele>3015.0</ele>
      </trkpt>
      <trkpt lat="46.128597" lon="7.671842">
        <time>1970-01-01T00:00:00+00:00</time>
        <ele>3015.0</ele>
      </trkpt>
      <trkpt lat="46.128597" lon="7.671842">
        <time>1970-01-01T00:00:00+00:00</time>
        <ele>3015.0</ele>
      </trkpt>
      <trkpt lat="46.128686" lon="7.671867">
        <time>1970-01-01T00:00:00+00:00</time>
        <ele>3020.0</ele>
      </trkpt>
      <trkpt lat="46.128686" lon="7.671867">
        <time>1970-01-01T00:00:00+00:00</time>
        <ele>3020.0</ele>
      </trkpt>
      <trkpt lat="46.128749" lon="7.671941">
        <time>1970-01-01T00:00:00+00:00</time>
        <ele>3024.0</ele>
      </trkpt>
      <trkpt lat="46.128749" lon="7.671941">
        <time>1970-01-01T00:00:00+00:00</time>
        <ele>3024.0</ele>
      </trkpt>
      <trkpt lat="46.128719" lon="7.672024">
        <time>1970-01-01T00:00:00+00:00</time>
        <ele>3023.0</ele>
      </trkpt>
      <trkpt lat="46.128719" lon="7.672024">
        <time>1970-01-01T00:00:00+00:00</time>
        <ele>3023.0</ele>
      </trkpt>
      <trkpt lat="46.12875" lon="7.672098">
        <time>1970-01-01T00:00:00+00:00</time>
        <ele>3026.0</ele>
      </trkpt>
      <trkpt lat="46.12875" lon="7.672098">
        <time>1970-01-01T00:00:00+00:00</time>
        <ele>3026.0</ele>
      </trkpt>
      <trkpt lat="46.128826" lon="7.672182">
        <time>1970-01-01T00:00:00+00:00</time>
        <ele>3030.0</ele>
      </trkpt>
      <trkpt lat="46.128826" lon="7.672182">
        <time>1970-01-01T00:00:00+00:00</time>
        <ele>3030.0</ele>
      </trkpt>
      <trkpt lat="46.128854" lon="7.672278">
        <time>1970-01-01T00:00:00+00:00</time>
        <ele>3032.0</ele>
      </trkpt>
      <trkpt lat="46.128854" lon="7.672278">
        <time>1970-01-01T00:00:00+00:00</time>
        <ele>3032.0</ele>
      </trkpt>
      <trkpt lat="46.12898" lon="7.672241">
        <time>1970-01-01T00:00:00+00:00</time>
        <ele>3037.0</ele>
      </trkpt>
      <trkpt lat="46.12898" lon="7.672241">
        <time>1970-01-01T00:00:00+00:00</time>
        <ele>3037.0</ele>
      </trkpt>
      <trkpt lat="46.129034" lon="7.672297">
        <time>1970-01-01T00:00:00+00:00</time>
        <ele>3040.0</ele>
      </trkpt>
      <trkpt lat="46.129034" lon="7.672297">
        <time>1970-01-01T00:00:00+00:00</time>
        <ele>3040.0</ele>
      </trkpt>
      <trkpt lat="46.129074" lon="7.672351">
        <time>1970-01-01T00:00:00+00:00</time>
        <ele>3042.0</ele>
      </trkpt>
      <trkpt lat="46.129074" lon="7.672351">
        <time>1970-01-01T00:00:00+00:00</time>
        <ele>3042.0</ele>
      </trkpt>
      <trkpt lat="46.129162" lon="7.672234">
        <time>1970-01-01T00:00:00+00:00</time>
        <ele>3044.0</ele>
      </trkpt>
      <trkpt lat="46.129162" lon="7.672234">
        <time>1970-01-01T00:00:00+00:00</time>
        <ele>3044.0</ele>
      </trkpt>
      <trkpt lat="46.129221" lon="7.672245">
        <time>1970-01-01T00:00:00+00:00</time>
        <ele>3046.0</ele>
      </trkpt>
      <trkpt lat="46.129221" lon="7.672245">
        <time>1970-01-01T00:00:00+00:00</time>
        <ele>3046.0</ele>
      </trkpt>
      <trkpt lat="46.129247" lon="7.67237">
        <time>1970-01-01T00:00:00+00:00</time>
        <ele>3048.0</ele>
      </trkpt>
      <trkpt lat="46.129247" lon="7.67237">
        <time>1970-01-01T00:00:00+00:00</time>
        <ele>3048.0</ele>
      </trkpt>
      <trkpt lat="46.12929822063407" lon="7.672618785936928">
        <time>1970-01-01T00:00:00+00:00</time>
        <ele>3055.0</ele>
      </trkpt>
      <trkpt lat="46.12931" lon="7.672676">
        <time>1970-01-01T00:00:00+00:00</time>
        <ele>3056.0</ele>
      </trkpt>
      <trkpt lat="46.12931" lon="7.672676">
        <time>1970-01-01T00:00:00+00:00</time>
        <ele>3056.0</ele>
      </trkpt>
      <trkpt lat="46.129369" lon="7.672785">
        <time>1970-01-01T00:00:00+00:00</time>
        <ele>3060.0</ele>
      </trkpt>
      <trkpt lat="46.129369" lon="7.672785">
        <time>1970-01-01T00:00:00+00:00</time>
        <ele>3060.0</ele>
      </trkpt>
      <trkpt lat="46.12944337482638" lon="7.673021304828128">
        <time>1970-01-01T00:00:00+00:00</time>
        <ele>3067.0</ele>
      </trkpt>
      <trkpt lat="46.129448" lon="7.673036">
        <time>1970-01-01T00:00:00+00:00</time>
        <ele>3068.0</ele>
      </trkpt>
      <trkpt lat="46.129448" lon="7.673036">
        <time>1970-01-01T00:00:00+00:00</time>
        <ele>3068.0</ele>
      </trkpt>
      <trkpt lat="46.129489" lon="7.673092">
        <time>1970-01-01T00:00:00+00:00</time>
        <ele>3070.0</ele>
      </trkpt>
      <trkpt lat="46.129489" lon="7.673092">
        <time>1970-01-01T00:00:00+00:00</time>
        <ele>3070.0</ele>
      </trkpt>
      <trkpt lat="46.129527" lon="7.673211">
        <time>1970-01-01T00:00:00+00:00</time>
        <ele>3072.0</ele>
      </trkpt>
      <trkpt lat="46.129527" lon="7.673211">
        <time>1970-01-01T00:00:00+00:00</time>
        <ele>3072.0</ele>
      </trkpt>
      <trkpt lat="46.129526" lon="7.673332">
        <time>1970-01-01T00:00:00+00:00</time>
        <ele>3074.0</ele>
      </trkpt>
      <trkpt lat="46.129526" lon="7.673332">
        <time>1970-01-01T00:00:00+00:00</time>
        <ele>3074.0</ele>
      </trkpt>
      <trkpt lat="46.129622" lon="7.67335">
        <time>1970-01-01T00:00:00+00:00</time>
        <ele>3075.0</ele>
      </trkpt>
      <trkpt lat="46.129622" lon="7.67335">
        <time>1970-01-01T00:00:00+00:00</time>
        <ele>3075.0</ele>
      </trkpt>
      <trkpt lat="46.129706" lon="7.673465">
        <time>1970-01-01T00:00:00+00:00</time>
        <ele>3078.0</ele>
      </trkpt>
      <trkpt lat="46.129706" lon="7.673465">
        <time>1970-01-01T00:00:00+00:00</time>
        <ele>3078.0</ele>
      </trkpt>
      <trkpt lat="46.12977" lon="7.673476">
        <time>1970-01-01T00:00:00+00:00</time>
        <ele>3079.0</ele>
      </trkpt>
      <trkpt lat="46.12977" lon="7.673476">
        <time>1970-01-01T00:00:00+00:00</time>
        <ele>3079.0</ele>
      </trkpt>
      <trkpt lat="46.129813" lon="7.67353">
        <time>1970-01-01T00:00:00+00:00</time>
        <ele>3081.0</ele>
      </trkpt>
      <trkpt lat="46.129813" lon="7.67353">
        <time>1970-01-01T00:00:00+00:00</time>
        <ele>3081.0</ele>
      </trkpt>
      <trkpt lat="46.129788" lon="7.673647">
        <time>1970-01-01T00:00:00+00:00</time>
        <ele>3082.0</ele>
      </trkpt>
      <trkpt lat="46.129788" lon="7.673647">
        <time>1970-01-01T00:00:00+00:00</time>
        <ele>3082.0</ele>
      </trkpt>
      <trkpt lat="46.129773" lon="7.673716">
        <time>1970-01-01T00:00:00+00:00</time>
        <ele>3083.0</ele>
      </trkpt>
      <trkpt lat="46.129773" lon="7.673716">
        <time>1970-01-01T00:00:00+00:00</time>
        <ele>3083.0</ele>
      </trkpt>
      <trkpt lat="46.129808" lon="7.673783">
        <time>1970-01-01T00:00:00+00:00</time>
        <ele>3084.0</ele>
      </trkpt>
      <trkpt lat="46.129808" lon="7.673783">
        <time>1970-01-01T00:00:00+00:00</time>
        <ele>3084.0</ele>
      </trkpt>
      <trkpt lat="46.12993" lon="7.6739">
        <time>1970-01-01T00:00:00+00:00</time>
        <ele>3088.0</ele>
      </trkpt>
      <trkpt lat="46.12993" lon="7.6739">
        <time>1970-01-01T00:00:00+00:00</time>
        <ele>3088.0</ele>
      </trkpt>
      <trkpt lat="46.129979" lon="7.674">
        <time>1970-01-01T00:00:00+00:00</time>
        <ele>3090.0</ele>
      </trkpt>
      <trkpt lat="46.129979" lon="7.674">
        <time>1970-01-01T00:00:00+00:00</time>
        <ele>3090.0</ele>
      </trkpt>
      <trkpt lat="46.130009" lon="7.674054">
        <time>1970-01-01T00:00:00+00:00</time>
        <ele>3091.0</ele>
      </trkpt>
      <trkpt lat="46.130009" lon="7.674054">
        <time>1970-01-01T00:00:00+00:00</time>
        <ele>3091.0</ele>
      </trkpt>
      <trkpt lat="46.130048" lon="7.674183">
        <time>1970-01-01T00:00:00+00:00</time>
        <ele>3093.0</ele>
      </trkpt>
      <trkpt lat="46.130048" lon="7.674183">
        <time>1970-01-01T00:00:00+00:00</time>
        <ele>3093.0</ele>
      </trkpt>
      <trkpt lat="46.130056" lon="7.674266">
        <time>1970-01-01T00:00:00+00:00</time>
        <ele>3095.0</ele>
      </trkpt>
      <trkpt lat="46.130056" lon="7.674266">
        <time>1970-01-01T00:00:00+00:00</time>
        <ele>3095.0</ele>
      </trkpt>
      <trkpt lat="46.130096" lon="7.67432">
        <time>1970-01-01T00:00:00+00:00</time>
        <ele>3096.0</ele>
      </trkpt>
      <trkpt lat="46.130096" lon="7.67432">
        <time>1970-01-01T00:00:00+00:00</time>
        <ele>3096.0</ele>
      </trkpt>
      <trkpt lat="46.13007" lon="7.674446">
        <time>1970-01-01T00:00:00+00:00</time>
        <ele>3097.0</ele>
      </trkpt>
      <trkpt lat="46.13007" lon="7.674446">
        <time>1970-01-01T00:00:00+00:00</time>
        <ele>3097.0</ele>
      </trkpt>
      <trkpt lat="46.13007" lon="7.674534">
        <time>1970-01-01T00:00:00+00:00</time>
        <ele>3099.0</ele>
      </trkpt>
      <trkpt lat="46.13007" lon="7.674534">
        <time>1970-01-01T00:00:00+00:00</time>
        <ele>3099.0</ele>
      </trkpt>
      <trkpt lat="46.130139" lon="7.674633">
        <time>1970-01-01T00:00:00+00:00</time>
        <ele>3102.0</ele>
      </trkpt>
      <trkpt lat="46.130139" lon="7.674633">
        <time>1970-01-01T00:00:00+00:00</time>
        <ele>3102.0</ele>
      </trkpt>
      <trkpt lat="46.13018" lon="7.674741">
        <time>1970-01-01T00:00:00+00:00</time>
        <ele>3105.0</ele>
      </trkpt>
      <trkpt lat="46.13018" lon="7.674741">
        <time>1970-01-01T00:00:00+00:00</time>
        <ele>3105.0</ele>
      </trkpt>
      <trkpt lat="46.130317" lon="7.674904">
        <time>1970-01-01T00:00:00+00:00</time>
        <ele>3109.0</ele>
      </trkpt>
      <trkpt lat="46.130317" lon="7.674904">
        <time>1970-01-01T00:00:00+00:00</time>
        <ele>3109.0</ele>
      </trkpt>
      <trkpt lat="46.130361" lon="7.675015">
        <time>1970-01-01T00:00:00+00:00</time>
        <ele>3112.0</ele>
      </trkpt>
      <trkpt lat="46.130361" lon="7.675015">
        <time>1970-01-01T00:00:00+00:00</time>
        <ele>3112.0</ele>
      </trkpt>
      <trkpt lat="46.130412" lon="7.675061">
        <time>1970-01-01T00:00:00+00:00</time>
        <ele>3114.0</ele>
      </trkpt>
      <trkpt lat="46.130412" lon="7.675061">
        <time>1970-01-01T00:00:00+00:00</time>
        <ele>3114.0</ele>
      </trkpt>
      <trkpt lat="46.130426" lon="7.675151">
        <time>1970-01-01T00:00:00+00:00</time>
        <ele>3114.0</ele>
      </trkpt>
      <trkpt lat="46.130426" lon="7.675151">
        <time>1970-01-01T00:00:00+00:00</time>
        <ele>3114.0</ele>
      </trkpt>
      <trkpt lat="46.130498" lon="7.675226">
        <time>1970-01-01T00:00:00+00:00</time>
        <ele>3117.0</ele>
      </trkpt>
      <trkpt lat="46.130498" lon="7.675226">
        <time>1970-01-01T00:00:00+00:00</time>
        <ele>3117.0</ele>
      </trkpt>
      <trkpt lat="46.130539" lon="7.675282">
        <time>1970-01-01T00:00:00+00:00</time>
        <ele>3118.0</ele>
      </trkpt>
      <trkpt lat="46.130539" lon="7.675282">
        <time>1970-01-01T00:00:00+00:00</time>
        <ele>3118.0</ele>
      </trkpt>
      <trkpt lat="46.130605" lon="7.675375">
        <time>1970-01-01T00:00:00+00:00</time>
        <ele>3121.0</ele>
      </trkpt>
      <trkpt lat="46.130605" lon="7.675375">
        <time>1970-01-01T00:00:00+00:00</time>
        <ele>3121.0</ele>
      </trkpt>
      <trkpt lat="46.130628" lon="7.675458">
        <time>1970-01-01T00:00:00+00:00</time>
        <ele>3122.0</ele>
      </trkpt>
      <trkpt lat="46.130628" lon="7.675458">
        <time>1970-01-01T00:00:00+00:00</time>
        <ele>3122.0</ele>
      </trkpt>
      <trkpt lat="46.130684" lon="7.675562">
        <time>1970-01-01T00:00:00+00:00</time>
        <ele>3124.0</ele>
      </trkpt>
      <trkpt lat="46.130684" lon="7.675562">
        <time>1970-01-01T00:00:00+00:00</time>
        <ele>3124.0</ele>
      </trkpt>
      <trkpt lat="46.130715" lon="7.675641">
        <time>1970-01-01T00:00:00+00:00</time>
        <ele>3126.0</ele>
      </trkpt>
      <trkpt lat="46.130715" lon="7.675641">
        <time>1970-01-01T00:00:00+00:00</time>
        <ele>3126.0</ele>
      </trkpt>
      <trkpt lat="46.130721" lon="7.675723">
        <time>1970-01-01T00:00:00+00:00</time>
        <ele>3127.0</ele>
      </trkpt>
      <trkpt lat="46.130721" lon="7.675723">
        <time>1970-01-01T00:00:00+00:00</time>
        <ele>3127.0</ele>
      </trkpt>
      <trkpt lat="46.130697" lon="7.675886">
        <time>1970-01-01T00:00:00+00:00</time>
        <ele>3131.0</ele>
      </trkpt>
      <trkpt lat="46.130697" lon="7.675886">
        <time>1970-01-01T00:00:00+00:00</time>
        <ele>3131.0</ele>
      </trkpt>
      <trkpt lat="46.130649" lon="7.676084">
        <time>1970-01-01T00:00:00+00:00</time>
        <ele>3136.0</ele>
      </trkpt>
      <trkpt lat="46.130649" lon="7.676084">
        <time>1970-01-01T00:00:00+00:00</time>
        <ele>3136.0</ele>
      </trkpt>
      <trkpt lat="46.130648" lon="7.676227">
        <time>1970-01-01T00:00:00+00:00</time>
        <ele>3140.0</ele>
      </trkpt>
      <trkpt lat="46.130648" lon="7.676227">
        <time>1970-01-01T00:00:00+00:00</time>
        <ele>3140.0</ele>
      </trkpt>
      <trkpt lat="46.130679" lon="7.676159">
        <time>1970-01-01T00:00:00+00:00</time>
        <ele>3139.0</ele>
      </trkpt>
      <trkpt lat="46.130679" lon="7.676159">
        <time>1970-01-01T00:00:00+00:00</time>
        <ele>3139.0</ele>
      </trkpt>
      <trkpt lat="46.130765" lon="7.67616">
        <time>1970-01-01T00:00:00+00:00</time>
        <ele>3140.0</ele>
      </trkpt>
      <trkpt lat="46.130765" lon="7.67616">
        <time>1970-01-01T00:00:00+00:00</time>
        <ele>3140.0</ele>
      </trkpt>
      <trkpt lat="46.130845" lon="7.676198">
        <time>1970-01-01T00:00:00+00:00</time>
        <ele>3143.0</ele>
      </trkpt>
      <trkpt lat="46.130845" lon="7.676198">
        <time>1970-01-01T00:00:00+00:00</time>
        <ele>3143.0</ele>
      </trkpt>
      <trkpt lat="46.130917" lon="7.676182">
        <time>1970-01-01T00:00:00+00:00</time>
        <ele>3146.0</ele>
      </trkpt>
      <trkpt lat="46.130917" lon="7.676182">
        <time>1970-01-01T00:00:00+00:00</time>
        <ele>3146.0</ele>
      </trkpt>
      <trkpt lat="46.130891" lon="7.676257">
        <time>1970-01-01T00:00:00+00:00</time>
        <ele>3147.0</ele>
      </trkpt>
      <trkpt lat="46.130891" lon="7.676257">
        <time>1970-01-01T00:00:00+00:00</time>
        <ele>3147.0</ele>
      </trkpt>
      <trkpt lat="46.130909" lon="7.676384">
        <time>1970-01-01T00:00:00+00:00</time>
        <ele>3152.0</ele>
      </trkpt>
      <trkpt lat="46.130909" lon="7.676384">
        <time>1970-01-01T00:00:00+00:00</time>
        <ele>3152.0</ele>
      </trkpt>
      <trkpt lat="46.130911" lon="7.676603">
        <time>1970-01-01T00:00:00+00:00</time>
        <ele>3159.0</ele>
      </trkpt>
      <trkpt lat="46.130911" lon="7.676603">
        <time>1970-01-01T00:00:00+00:00</time>
        <ele>3159.0</ele>
      </trkpt>
      <trkpt lat="46.130965" lon="7.676611">
        <time>1970-01-01T00:00:00+00:00</time>
        <ele>3162.0</ele>
      </trkpt>
      <trkpt lat="46.130965" lon="7.676611">
        <time>1970-01-01T00:00:00+00:00</time>
        <ele>3162.0</ele>
      </trkpt>
      <trkpt lat="46.130915" lon="7.676723">
        <time>1970-01-01T00:00:00+00:00</time>
        <ele>3164.0</ele>
      </trkpt>
      <trkpt lat="46.130915" lon="7.676723">
        <time>1970-01-01T00:00:00+00:00</time>
        <ele>3164.0</ele>
      </trkpt>
      <trkpt lat="46.131028" lon="7.676759">
        <time>1970-01-01T00:00:00+00:00</time>
        <ele>3170.0</ele>
      </trkpt>
      <trkpt lat="46.131028" lon="7.676759">
        <time>1970-01-01T00:00:00+00:00</time>
        <ele>3170.0</ele>
      </trkpt>
      <trkpt lat="46.130963" lon="7.676662">
        <time>1970-01-01T00:00:00+00:00</time>
        <ele>3163.0</ele>
      </trkpt>
      <trkpt lat="46.130963" lon="7.676662">
        <time>1970-01-01T00:00:00+00:00</time>
        <ele>3163.0</ele>
      </trkpt>
      <trkpt lat="46.130922" lon="7.676795">
        <time>1970-01-01T00:00:00+00:00</time>
        <ele>3167.0</ele>
      </trkpt>
      <trkpt lat="46.130922" lon="7.676795">
        <time>1970-01-01T00:00:00+00:00</time>
        <ele>3167.0</ele>
      </trkpt>
      <trkpt lat="46.130889" lon="7.676859">
        <time>1970-01-01T00:00:00+00:00</time>
        <ele>3168.0</ele>
      </trkpt>
      <trkpt lat="46.130889" lon="7.676859">
        <time>1970-01-01T00:00:00+00:00</time>
        <ele>3168.0</ele>
      </trkpt>
      <trkpt lat="46.130859" lon="7.676935">
        <time>1970-01-01T00:00:00+00:00</time>
        <ele>3169.0</ele>
      </trkpt>
      <trkpt lat="46.130859" lon="7.676935">
        <time>1970-01-01T00:00:00+00:00</time>
        <ele>3169.0</ele>
      </trkpt>
      <trkpt lat="46.130825" lon="7.677009">
        <time>1970-01-01T00:00:00+00:00</time>
        <ele>3171.0</ele>
      </trkpt>
      <trkpt lat="46.130825" lon="7.677009">
        <time>1970-01-01T00:00:00+00:00</time>
        <ele>3171.0</ele>
      </trkpt>
      <trkpt lat="46.130879" lon="7.677037">
        <time>1970-01-01T00:00:00+00:00</time>
        <ele>3174.0</ele>
      </trkpt>
      <trkpt lat="46.130879" lon="7.677037">
        <time>1970-01-01T00:00:00+00:00</time>
        <ele>3174.0</ele>
      </trkpt>
      <trkpt lat="46.130892" lon="7.677111">
        <time>1970-01-01T00:00:00+00:00</time>
        <ele>3177.0</ele>
      </trkpt>
      <trkpt lat="46.130892" lon="7.677111">
        <time>1970-01-01T00:00:00+00:00</time>
        <ele>3177.0</ele>
      </trkpt>
      <trkpt lat="46.130815" lon="7.677256">
        <time>1970-01-01T00:00:00+00:00</time>
        <ele>3183.0</ele>
      </trkpt>
      <trkpt lat="46.130815" lon="7.677256">
        <time>1970-01-01T00:00:00+00:00</time>
        <ele>3183.0</ele>
      </trkpt>
      <trkpt lat="46.130884" lon="7.677324">
        <time>1970-01-01T00:00:00+00:00</time>
        <ele>3190.0</ele>
      </trkpt>
      <trkpt lat="46.130884" lon="7.677324">
        <time>1970-01-01T00:00:00+00:00</time>
        <ele>3190.0</ele>
      </trkpt>
      <trkpt lat="46.130951" lon="7.677349">
        <time>1970-01-01T00:00:00+00:00</time>
        <ele>3194.0</ele>
      </trkpt>
      <trkpt lat="46.130951" lon="7.677349">
        <time>1970-01-01T00:00:00+00:00</time>
        <ele>3194.0</ele>
      </trkpt>
      <trkpt lat="46.131044" lon="7.677366">
        <time>1970-01-01T00:00:00+00:00</time>
        <ele>3199.0</ele>
      </trkpt>
      <trkpt lat="46.131044" lon="7.677366">
        <time>1970-01-01T00:00:00+00:00</time>
        <ele>3199.0</ele>
      </trkpt>
      <trkpt lat="46.13109" lon="7.677318">
        <time>1970-01-01T00:00:00+00:00</time>
        <ele>3199.0</ele>
      </trkpt>
      <trkpt lat="46.13109" lon="7.677318">
        <time>1970-01-01T00:00:00+00:00</time>
        <ele>3199.0</ele>
      </trkpt>
      <trkpt lat="46.131144" lon="7.677353">
        <time>1970-01-01T00:00:00+00:00</time>
        <ele>3203.0</ele>
      </trkpt>
      <trkpt lat="46.131144" lon="7.677353">
        <time>1970-01-01T00:00:00+00:00</time>
        <ele>3203.0</ele>
      </trkpt>
      <trkpt lat="46.131239" lon="7.677377">
        <time>1970-01-01T00:00:00+00:00</time>
        <ele>3209.0</ele>
      </trkpt>
      <trkpt lat="46.131239" lon="7.677377">
        <time>1970-01-01T00:00:00+00:00</time>
        <ele>3209.0</ele>
      </trkpt>
      <trkpt lat="46.131236" lon="7.677467">
        <time>1970-01-01T00:00:00+00:00</time>
        <ele>3214.0</ele>
      </trkpt>
      <trkpt lat="46.131236" lon="7.677467">
        <time>1970-01-01T00:00:00+00:00</time>
        <ele>3214.0</ele>
      </trkpt>
      <trkpt lat="46.131292" lon="7.677498">
        <time>1970-01-01T00:00:00+00:00</time>
        <ele>3217.0</ele>
      </trkpt>
      <trkpt lat="46.131292" lon="7.677498">
        <time>1970-01-01T00:00:00+00:00</time>
        <ele>3217.0</ele>
      </trkpt>
      <trkpt lat="46.13132" lon="7.677445">
        <time>1970-01-01T00:00:00+00:00</time>
        <ele>3215.0</ele>
      </trkpt>
      <trkpt lat="46.13132" lon="7.677445">
        <time>1970-01-01T00:00:00+00:00</time>
        <ele>3215.0</ele>
      </trkpt>
      <trkpt lat="46.131407" lon="7.677453">
        <time>1970-01-01T00:00:00+00:00</time>
        <ele>3218.0</ele>
      </trkpt>
      <trkpt lat="46.131407" lon="7.677453">
        <time>1970-01-01T00:00:00+00:00</time>
        <ele>3218.0</ele>
      </trkpt>
      <trkpt lat="46.131372" lon="7.677502">
        <time>1970-01-01T00:00:00+00:00</time>
        <ele>3219.0</ele>
      </trkpt>
      <trkpt lat="46.131372" lon="7.677502">
        <time>1970-01-01T00:00:00+00:00</time>
        <ele>3219.0</ele>
      </trkpt>
      <trkpt lat="46.131388" lon="7.677586">
        <time>1970-01-01T00:00:00+00:00</time>
        <ele>3224.0</ele>
      </trkpt>
      <trkpt lat="46.131388" lon="7.677586">
        <time>1970-01-01T00:00:00+00:00</time>
        <ele>3224.0</ele>
      </trkpt>
      <trkpt lat="46.131343" lon="7.677631">
        <time>1970-01-01T00:00:00+00:00</time>
        <ele>3225.0</ele>
      </trkpt>
      <trkpt lat="46.131343" lon="7.677631">
        <time>1970-01-01T00:00:00+00:00</time>
        <ele>3225.0</ele>
      </trkpt>
      <trkpt lat="46.131262" lon="7.67773">
        <time>1970-01-01T00:00:00+00:00</time>
        <ele>3225.0</ele>
      </trkpt>
      <trkpt lat="46.131262" lon="7.67773">
        <time>1970-01-01T00:00:00+00:00</time>
        <ele>3225.0</ele>
      </trkpt>
      <trkpt lat="46.131259" lon="7.6779">
        <time>1970-01-01T00:00:00+00:00</time>
        <ele>3227.0</ele>
      </trkpt>
      <trkpt lat="46.131259" lon="7.6779">
        <time>1970-01-01T00:00:00+00:00</time>
        <ele>3227.0</ele>
      </trkpt>
      <trkpt lat="46.131173" lon="7.677944">
        <time>1970-01-01T00:00:00+00:00</time>
        <ele>3227.0</ele>
      </trkpt>
      <trkpt lat="46.131173" lon="7.677944">
        <time>1970-01-01T00:00:00+00:00</time>
        <ele>3227.0</ele>
      </trkpt>
      <trkpt lat="46.131117" lon="7.677948">
        <time>1970-01-01T00:00:00+00:00</time>
        <ele>3226.0</ele>
      </trkpt>
      <trkpt lat="46.131117" lon="7.677948">
        <time>1970-01-01T00:00:00+00:00</time>
        <ele>3226.0</ele>
      </trkpt>
      <trkpt lat="46.131041" lon="7.678029">
        <time>1970-01-01T00:00:00+00:00</time>
        <ele>3226.0</ele>
      </trkpt>
      <trkpt lat="46.131041" lon="7.678029">
        <time>1970-01-01T00:00:00+00:00</time>
        <ele>3226.0</ele>
      </trkpt>
      <trkpt lat="46.13093391680466" lon="7.67823753043304">
        <time>1970-01-01T00:00:00+00:00</time>
        <ele>3229.0</ele>
      </trkpt>
      <trkpt lat="46.130832" lon="7.678436">
        <time>1970-01-01T00:00:00+00:00</time>
        <ele>3230.0</ele>
      </trkpt>
      <trkpt lat="46.130832" lon="7.678436">
        <time>1970-01-01T00:00:00+00:00</time>
        <ele>3230.0</ele>
      </trkpt>
      <trkpt lat="46.130772761850196" lon="7.678681058872343">
        <time>1970-01-01T00:00:00+00:00</time>
        <ele>3231.0</ele>
      </trkpt>
      <trkpt lat="46.130737" lon="7.678829">
        <time>1970-01-01T00:00:00+00:00</time>
        <ele>3233.0</ele>
      </trkpt>
      <trkpt lat="46.130737" lon="7.678829">
        <time>1970-01-01T00:00:00+00:00</time>
        <ele>3233.0</ele>
      </trkpt>
      <trkpt lat="46.130703" lon="7.678905">
        <time>1970-01-01T00:00:00+00:00</time>
        <ele>3233.0</ele>
      </trkpt>
      <trkpt lat="46.130703" lon="7.678905">
        <time>1970-01-01T00:00:00+00:00</time>
        <ele>3233.0</ele>
      </trkpt>
      <trkpt lat="46.130679" lon="7.679029">
        <time>1970-01-01T00:00:00+00:00</time>
        <ele>3236.0</ele>
      </trkpt>
      <trkpt lat="46.130679" lon="7.679029">
        <time>1970-01-01T00:00:00+00:00</time>
        <ele>3236.0</ele>
      </trkpt>
      <trkpt lat="46.130612" lon="7.679176">
        <time>1970-01-01T00:00:00+00:00</time>
        <ele>3235.0</ele>
      </trkpt>
      <trkpt lat="46.130612" lon="7.679176">
        <time>1970-01-01T00:00:00+00:00</time>
        <ele>3235.0</ele>
      </trkpt>
      <trkpt lat="46.130554" lon="7.679204">
        <time>1970-01-01T00:00:00+00:00</time>
        <ele>3234.0</ele>
      </trkpt>
      <trkpt lat="46.130554" lon="7.679204">
        <time>1970-01-01T00:00:00+00:00</time>
        <ele>3234.0</ele>
      </trkpt>
      <trkpt lat="46.130451" lon="7.679308">
        <time>1970-01-01T00:00:00+00:00</time>
        <ele>3233.0</ele>
      </trkpt>
      <trkpt lat="46.130451" lon="7.679308">
        <time>1970-01-01T00:00:00+00:00</time>
        <ele>3233.0</ele>
      </trkpt>
      <trkpt lat="46.130358" lon="7.679301">
        <time>1970-01-01T00:00:00+00:00</time>
        <ele>3229.0</ele>
      </trkpt>
      <trkpt lat="46.130358" lon="7.679301">
        <time>1970-01-01T00:00:00+00:00</time>
        <ele>3229.0</ele>
      </trkpt>
      <trkpt lat="46.130324" lon="7.679371">
        <time>1970-01-01T00:00:00+00:00</time>
        <ele>3230.0</ele>
      </trkpt>
      <trkpt lat="46.130324" lon="7.679371">
        <time>1970-01-01T00:00:00+00:00</time>
        <ele>3230.0</ele>
      </trkpt>
      <trkpt lat="46.13023" lon="7.679399">
        <time>1970-01-01T00:00:00+00:00</time>
        <ele>3227.0</ele>
      </trkpt>
      <trkpt lat="46.13023" lon="7.679399">
        <time>1970-01-01T00:00:00+00:00</time>
        <ele>3227.0</ele>
      </trkpt>
      <trkpt lat="46.130186" lon="7.679531">
        <time>1970-01-01T00:00:00+00:00</time>
        <ele>3230.0</ele>
      </trkpt>
      <trkpt lat="46.130186" lon="7.679531">
        <time>1970-01-01T00:00:00+00:00</time>
        <ele>3230.0</ele>
      </trkpt>
      <trkpt lat="46.130294" lon="7.679496">
        <time>1970-01-01T00:00:00+00:00</time>
        <ele>3234.0</ele>
      </trkpt>
      <trkpt lat="46.130294" lon="7.679496">
        <time>1970-01-01T00:00:00+00:00</time>
        <ele>3234.0</ele>
      </trkpt>
      <trkpt lat="46.130303" lon="7.679391">
        <time>1970-01-01T00:00:00+00:00</time>
        <ele>3230.0</ele>
      </trkpt>
      <trkpt lat="46.130303" lon="7.679391">
        <time>1970-01-01T00:00:00+00:00</time>
        <ele>3230.0</ele>
      </trkpt>
      <trkpt lat="46.130249" lon="7.679378">
        <time>1970-01-01T00:00:00+00:00</time>
        <ele>3227.0</ele>
      </trkpt>
      <trkpt lat="46.130249" lon="7.679378">
        <time>1970-01-01T00:00:00+00:00</time>
        <ele>3227.0</ele>
      </trkpt>
      <trkpt lat="46.130138" lon="7.679492">
        <time>1970-01-01T00:00:00+00:00</time>
        <ele>3226.0</ele>
      </trkpt>
      <trkpt lat="46.130138" lon="7.679492">
        <time>1970-01-01T00:00:00+00:00</time>
        <ele>3226.0</ele>
      </trkpt>
      <trkpt lat="46.130081106838986" lon="7.679738210058865">
        <time>1970-01-01T00:00:00+00:00</time>
        <ele>3234.0</ele>
      </trkpt>
      <trkpt lat="46.13008" lon="7.679743">
        <time>1970-01-01T00:00:00+00:00</time>
        <ele>3234.0</ele>
      </trkpt>
      <trkpt lat="46.13008" lon="7.679743">
        <time>1970-01-01T00:00:00+00:00</time>
        <ele>3234.0</ele>
      </trkpt>
      <trkpt lat="46.130019" lon="7.679814">
        <time>1970-01-01T00:00:00+00:00</time>
        <ele>3232.0</ele>
      </trkpt>
      <trkpt lat="46.130019" lon="7.679814">
        <time>1970-01-01T00:00:00+00:00</time>
        <ele>3232.0</ele>
      </trkpt>
      <trkpt lat="46.12992810548398" lon="7.680037956591025">
        <time>1970-01-01T00:00:00+00:00</time>
        <ele>3233.0</ele>
      </trkpt>
      <trkpt lat="46.129922" lon="7.680053">
        <time>1970-01-01T00:00:00+00:00</time>
        <ele>3233.0</ele>
      </trkpt>
      <trkpt lat="46.129922" lon="7.680053">
        <time>1970-01-01T00:00:00+00:00</time>
        <ele>3233.0</ele>
      </trkpt>
      <trkpt lat="46.129899" lon="7.680179">
        <time>1970-01-01T00:00:00+00:00</time>
        <ele>3235.0</ele>
      </trkpt>
      <trkpt lat="46.129899" lon="7.680179">
        <time>1970-01-01T00:00:00+00:00</time>
        <ele>3235.0</ele>
      </trkpt>
      <trkpt lat="46.129843" lon="7.680396">
        <time>1970-01-01T00:00:00+00:00</time>
        <ele>3235.0</ele>
      </trkpt>
      <trkpt lat="46.129843" lon="7.680396">
        <time>1970-01-01T00:00:00+00:00</time>
        <ele>3235.0</ele>
      </trkpt>
      <trkpt lat="46.12977111492553" lon="7.680633905365517">
        <time>1970-01-01T00:00:00+00:00</time>
        <ele>3240.0</ele>
      </trkpt>
      <trkpt lat="46.129759" lon="7.680674">
        <time>1970-01-01T00:00:00+00:00</time>
        <ele>3241.0</ele>
      </trkpt>
      <trkpt lat="46.129759" lon="7.680674">
        <time>1970-01-01T00:00:00+00:00</time>
        <ele>3241.0</ele>
      </trkpt>
      <trkpt lat="46.129753" lon="7.680799">
        <time>1970-01-01T00:00:00+00:00</time>
        <ele>3245.0</ele>
      </trkpt>
      <trkpt lat="46.129753" lon="7.680799">
        <time>1970-01-01T00:00:00+00:00</time>
        <ele>3245.0</ele>
      </trkpt>
      <trkpt lat="46.129791" lon="7.68088">
        <time>1970-01-01T00:00:00+00:00</time>
        <ele>3250.0</ele>
      </trkpt>
      <trkpt lat="46.129791" lon="7.68088">
        <time>1970-01-01T00:00:00+00:00</time>
        <ele>3250.0</ele>
      </trkpt>
      <trkpt lat="46.129743" lon="7.680963">
        <time>1970-01-01T00:00:00+00:00</time>
        <ele>3249.0</ele>
      </trkpt>
      <trkpt lat="46.129743" lon="7.680963">
        <time>1970-01-01T00:00:00+00:00</time>
        <ele>3249.0</ele>
      </trkpt>
      <trkpt lat="46.129744" lon="7.681037">
        <time>1970-01-01T00:00:00+00:00</time>
        <ele>3250.0</ele>
      </trkpt>
      <trkpt lat="46.129744" lon="7.681037">
        <time>1970-01-01T00:00:00+00:00</time>
        <ele>3250.0</ele>
      </trkpt>
      <trkpt lat="46.129842" lon="7.681046">
        <time>1970-01-01T00:00:00+00:00</time>
        <ele>3254.0</ele>
      </trkpt>
      <trkpt lat="46.129842" lon="7.681046">
        <time>1970-01-01T00:00:00+00:00</time>
        <ele>3254.0</ele>
      </trkpt>
      <trkpt lat="46.129885" lon="7.680987">
        <time>1970-01-01T00:00:00+00:00</time>
        <ele>3255.0</ele>
      </trkpt>
      <trkpt lat="46.129885" lon="7.680987">
        <time>1970-01-01T00:00:00+00:00</time>
        <ele>3255.0</ele>
      </trkpt>
      <trkpt lat="46.13006059471256" lon="7.68104321348884">
        <time>1970-01-01T00:00:00+00:00</time>
        <ele>3261.0</ele>
      </trkpt>
      <trkpt lat="46.130188" lon="7.681084">
        <time>1970-01-01T00:00:00+00:00</time>
        <ele>3262.0</ele>
      </trkpt>
      <trkpt lat="46.130188" lon="7.681084">
        <time>1970-01-01T00:00:00+00:00</time>
        <ele>3262.0</ele>
      </trkpt>
      <trkpt lat="46.130282" lon="7.681236">
        <time>1970-01-01T00:00:00+00:00</time>
        <ele>3261.0</ele>
      </trkpt>
      <trkpt lat="46.130282" lon="7.681236">
        <time>1970-01-01T00:00:00+00:00</time>
        <ele>3261.0</ele>
      </trkpt>
      <trkpt lat="46.130264" lon="7.68131">
        <time>1970-01-01T00:00:00+00:00</time>
        <ele>3260.0</ele>
      </trkpt>
      <trkpt lat="46.130264" lon="7.68131">
        <time>1970-01-01T00:00:00+00:00</time>
        <ele>3260.0</ele>
      </trkpt>
      <trkpt lat="46.130288" lon="7.681252">
        <time>1970-01-01T00:00:00+00:00</time>
        <ele>3260.0</ele>
      </trkpt>
      <trkpt lat="46.130288" lon="7.681252">
        <time>1970-01-01T00:00:00+00:00</time>
        <ele>3260.0</ele>
      </trkpt>
      <trkpt lat="46.130388712779656" lon="7.681467035394407">
        <time>1970-01-01T00:00:00+00:00</time>
        <ele>3257.0</ele>
      </trkpt>
      <trkpt lat="46.130399" lon="7.681489">
        <time>1970-01-01T00:00:00+00:00</time>
        <ele>3256.0</ele>
      </trkpt>
      <trkpt lat="46.130399" lon="7.681489">
        <time>1970-01-01T00:00:00+00:00</time>
        <ele>3256.0</ele>
      </trkpt>
      <trkpt lat="46.130408" lon="7.681587">
        <time>1970-01-01T00:00:00+00:00</time>
        <ele>3255.0</ele>
      </trkpt>
      <trkpt lat="46.130408" lon="7.681587">
        <time>1970-01-01T00:00:00+00:00</time>
        <ele>3255.0</ele>
      </trkpt>
      <trkpt lat="46.130434" lon="7.681664">
        <time>1970-01-01T00:00:00+00:00</time>
        <ele>3254.0</ele>
      </trkpt>
      <trkpt lat="46.130434" lon="7.681664">
        <time>1970-01-01T00:00:00+00:00</time>
        <ele>3254.0</ele>
      </trkpt>
      <trkpt lat="46.130411" lon="7.681795">
        <time>1970-01-01T00:00:00+00:00</time>
        <ele>3254.0</ele>
      </trkpt>
      <trkpt lat="46.130411" lon="7.681795">
        <time>1970-01-01T00:00:00+00:00</time>
        <ele>3254.0</ele>
      </trkpt>
      <trkpt lat="46.130412" lon="7.682048">
        <time>1970-01-01T00:00:00+00:00</time>
        <ele>3254.0</ele>
      </trkpt>
      <trkpt lat="46.130412" lon="7.682048">
        <time>1970-01-01T00:00:00+00:00</time>
        <ele>3254.0</ele>
      </trkpt>
      <trkpt lat="46.13038649083716" lon="7.682304913711425">
        <time>1970-01-01T00:00:00+00:00</time>
        <ele>3254.0</ele>
      </trkpt>
      <trkpt lat="46.13037" lon="7.682471">
        <time>1970-01-01T00:00:00+00:00</time>
        <ele>3255.0</ele>
      </trkpt>
      <trkpt lat="46.13037" lon="7.682471">
        <time>1970-01-01T00:00:00+00:00</time>
        <ele>3255.0</ele>
      </trkpt>
      <trkpt lat="46.130395" lon="7.682612">
        <time>1970-01-01T00:00:00+00:00</time>
        <ele>3256.0</ele>
      </trkpt>
      <trkpt lat="46.130395" lon="7.682612">
        <time>1970-01-01T00:00:00+00:00</time>
        <ele>3256.0</ele>
      </trkpt>
      <trkpt lat="46.130362" lon="7.682835">
        <time>1970-01-01T00:00:00+00:00</time>
        <ele>3258.0</ele>
      </trkpt>
      <trkpt lat="46.130362" lon="7.682835">
        <time>1970-01-01T00:00:00+00:00</time>
        <ele>3258.0</ele>
      </trkpt>
      <trkpt lat="46.130378" lon="7.682932">
        <time>1970-01-01T00:00:00+00:00</time>
        <ele>3259.0</ele>
      </trkpt>
      <trkpt lat="46.130378" lon="7.682932">
        <time>1970-01-01T00:00:00+00:00</time>
        <ele>3259.0</ele>
      </trkpt>
      <trkpt lat="46.130361" lon="7.683062">
        <time>1970-01-01T00:00:00+00:00</time>
        <ele>3260.0</ele>
      </trkpt>
      <trkpt lat="46.130361" lon="7.683062">
        <time>1970-01-01T00:00:00+00:00</time>
        <ele>3260.0</ele>
      </trkpt>
      <trkpt lat="46.13037847952805" lon="7.683320308581217">
        <time>1970-01-01T00:00:00+00:00</time>
        <ele>3261.0</ele>
      </trkpt>
      <trkpt lat="46.130379" lon="7.683328">
        <time>1970-01-01T00:00:00+00:00</time>
        <ele>3262.0</ele>
      </trkpt>
      <trkpt lat="46.130379" lon="7.683328">
        <time>1970-01-01T00:00:00+00:00</time>
        <ele>3262.0</ele>
      </trkpt>
      <trkpt lat="46.130371" lon="7.683503">
        <time>1970-01-01T00:00:00+00:00</time>
        <ele>3263.0</ele>
      </trkpt>
      <trkpt lat="46.130371" lon="7.683503">
        <time>1970-01-01T00:00:00+00:00</time>
        <ele>3263.0</ele>
      </trkpt>
      <trkpt lat="46.130344" lon="7.683684">
        <time>1970-01-01T00:00:00+00:00</time>
        <ele>3265.0</ele>
      </trkpt>
      <trkpt lat="46.130344" lon="7.683684">
        <time>1970-01-01T00:00:00+00:00</time>
        <ele>3265.0</ele>
      </trkpt>
      <trkpt lat="46.130355" lon="7.683777">
        <time>1970-01-01T00:00:00+00:00</time>
        <ele>3266.0</ele>
      </trkpt>
      <trkpt lat="46.130355" lon="7.683777">
        <time>1970-01-01T00:00:00+00:00</time>
        <ele>3266.0</ele>
      </trkpt>
      <trkpt lat="46.130329" lon="7.683938">
        <time>1970-01-01T00:00:00+00:00</time>
        <ele>3268.0</ele>
      </trkpt>
      <trkpt lat="46.130329" lon="7.683938">
        <time>1970-01-01T00:00:00+00:00</time>
        <ele>3268.0</ele>
      </trkpt>
      <trkpt lat="46.13026514932257" lon="7.6841806325742406">
        <time>1970-01-01T00:00:00+00:00</time>
        <ele>3270.0</ele>
      </trkpt>
      <trkpt lat="46.13020129864513" lon="7.68442326514848">
        <time>1970-01-01T00:00:00+00:00</time>
        <ele>3273.0</ele>
      </trkpt>
      <trkpt lat="46.130179" lon="7.684508">
        <time>1970-01-01T00:00:00+00:00</time>
        <ele>3274.0</ele>
      </trkpt>
      <trkpt lat="46.130179" lon="7.684508">
        <time>1970-01-01T00:00:00+00:00</time>
        <ele>3274.0</ele>
      </trkpt>
      <trkpt lat="46.130147" lon="7.684662">
        <time>1970-01-01T00:00:00+00:00</time>
        <ele>3276.0</ele>
      </trkpt>
      <trkpt lat="46.130147" lon="7.684662">
        <time>1970-01-01T00:00:00+00:00</time>
        <ele>3276.0</ele>
      </trkpt>
      <trkpt lat="46.130091" lon="7.684851">
        <time>1970-01-01T00:00:00+00:00</time>
        <ele>3277.0</ele>
      </trkpt>
      <trkpt lat="46.130091" lon="7.684851">
        <time>1970-01-01T00:00:00+00:00</time>
        <ele>3277.0</ele>
      </trkpt>
      <trkpt lat="46.130047" lon="7.68501">
        <time>1970-01-01T00:00:00+00:00</time>
        <ele>3279.0</ele>
      </trkpt>
      <trkpt lat="46.130047" lon="7.68501">
        <time>1970-01-01T00:00:00+00:00</time>
        <ele>3279.0</ele>
      </trkpt>
      <trkpt lat="46.130045" lon="7.685111">
        <time>1970-01-01T00:00:00+00:00</time>
        <ele>3280.0</ele>
      </trkpt>
      <trkpt lat="46.130045" lon="7.685111">
        <time>1970-01-01T00:00:00+00:00</time>
        <ele>3280.0</ele>
      </trkpt>
      <trkpt lat="46.130026" lon="7.685278">
        <time>1970-01-01T00:00:00+00:00</time>
        <ele>3282.0</ele>
      </trkpt>
      <trkpt lat="46.130026" lon="7.685278">
        <time>1970-01-01T00:00:00+00:00</time>
        <ele>3282.0</ele>
      </trkpt>
      <trkpt lat="46.1299682134415" lon="7.685523775742504">
        <time>1970-01-01T00:00:00+00:00</time>
        <ele>3285.0</ele>
      </trkpt>
      <trkpt lat="46.129910426882994" lon="7.6857695514850075">
        <time>1970-01-01T00:00:00+00:00</time>
        <ele>3288.0</ele>
      </trkpt>
      <trkpt lat="46.129868" lon="7.68595">
        <time>1970-01-01T00:00:00+00:00</time>
        <ele>3290.0</ele>
      </trkpt>
      <trkpt lat="46.129868" lon="7.68595">
        <time>1970-01-01T00:00:00+00:00</time>
        <ele>3290.0</ele>
      </trkpt>
      <trkpt lat="46.12978906793398" lon="7.68618320837688">
        <time>1970-01-01T00:00:00+00:00</time>
        <ele>3292.0</ele>
      </trkpt>
      <trkpt lat="46.12978" lon="7.68621">
        <time>1970-01-01T00:00:00+00:00</time>
        <ele>3293.0</ele>
      </trkpt>
      <trkpt lat="46.12978" lon="7.68621">
        <time>1970-01-01T00:00:00+00:00</time>
        <ele>3293.0</ele>
      </trkpt>
      <trkpt lat="46.12968953465424" lon="7.6864343171328535">
        <time>1970-01-01T00:00:00+00:00</time>
        <ele>3296.0</ele>
      </trkpt>
      <trkpt lat="46.129682" lon="7.686453">
        <time>1970-01-01T00:00:00+00:00</time>
        <ele>3296.0</ele>
      </trkpt>
      <trkpt lat="46.129682" lon="7.686453">
        <time>1970-01-01T00:00:00+00:00</time>
        <ele>3296.0</ele>
      </trkpt>
      <trkpt lat="46.129647" lon="7.686515">
        <time>1970-01-01T00:00:00+00:00</time>
        <ele>3297.0</ele>
      </trkpt>
      <trkpt lat="46.129647" lon="7.686515">
        <time>1970-01-01T00:00:00+00:00</time>
        <ele>3297.0</ele>
      </trkpt>
      <trkpt lat="46.12961888492954" lon="7.686771343289451">
        <time>1970-01-01T00:00:00+00:00</time>
        <ele>3298.0</ele>
      </trkpt>
      <trkpt lat="46.129613" lon="7.686825">
        <time>1970-01-01T00:00:00+00:00</time>
        <ele>3298.0</ele>
      </trkpt>
      <trkpt lat="46.129613" lon="7.686825">
        <time>1970-01-01T00:00:00+00:00</time>
        <ele>3298.0</ele>
      </trkpt>
      <trkpt lat="46.129540581679166" lon="7.687062567418361">
        <time>1970-01-01T00:00:00+00:00</time>
        <ele>3300.0</ele>
      </trkpt>
      <trkpt lat="46.129531" lon="7.687094">
        <time>1970-01-01T00:00:00+00:00</time>
        <ele>3301.0</ele>
      </trkpt>
      <trkpt lat="46.129531" lon="7.687094">
        <time>1970-01-01T00:00:00+00:00</time>
        <ele>3301.0</ele>
      </trkpt>
      <trkpt lat="46.129428126290115" lon="7.687306891427397">
        <time>1970-01-01T00:00:00+00:00</time>
        <ele>3304.0</ele>
      </trkpt>
      <trkpt lat="46.129387" lon="7.687392">
        <time>1970-01-01T00:00:00+00:00</time>
        <ele>3305.0</ele>
      </trkpt>
      <trkpt lat="46.129387" lon="7.687392">
        <time>1970-01-01T00:00:00+00:00</time>
        <ele>3305.0</ele>
      </trkpt>
      <trkpt lat="46.12934" lon="7.687447">
        <time>1970-01-01T00:00:00+00:00</time>
        <ele>3307.0</ele>
      </trkpt>
      <trkpt lat="46.12934" lon="7.687447">
        <time>1970-01-01T00:00:00+00:00</time>
        <ele>3307.0</ele>
      </trkpt>
      <trkpt lat="46.12930407365516" lon="7.68770130216636">
        <time>1970-01-01T00:00:00+00:00</time>
        <ele>3307.0</ele>
      </trkpt>
      <trkpt lat="46.129289" lon="7.687808">
        <time>1970-01-01T00:00:00+00:00</time>
        <ele>3307.0</ele>
      </trkpt>
      <trkpt lat="46.129289" lon="7.687808">
        <time>1970-01-01T00:00:00+00:00</time>
        <ele>3307.0</ele>
      </trkpt>
      <trkpt lat="46.129264" lon="7.687935">
        <time>1970-01-01T00:00:00+00:00</time>
        <ele>3308.0</ele>
      </trkpt>
      <trkpt lat="46.129264" lon="7.687935">
        <time>1970-01-01T00:00:00+00:00</time>
        <ele>3308.0</ele>
      </trkpt>
      <trkpt lat="46.1291827686367" lon="7.688166556070074">
        <time>1970-01-01T00:00:00+00:00</time>
        <ele>3311.0</ele>
      </trkpt>
      <trkpt lat="46.129177" lon="7.688183">
        <time>1970-01-01T00:00:00+00:00</time>
        <ele>3311.0</ele>
      </trkpt>
      <trkpt lat="46.129177" lon="7.688183">
        <time>1970-01-01T00:00:00+00:00</time>
        <ele>3311.0</ele>
      </trkpt>
      <trkpt lat="46.12911724269605" lon="7.688427788955948">
        <time>1970-01-01T00:00:00+00:00</time>
        <ele>3312.0</ele>
      </trkpt>
      <trkpt lat="46.129094" lon="7.688523">
        <time>1970-01-01T00:00:00+00:00</time>
        <ele>3312.0</ele>
      </trkpt>
      <trkpt lat="46.129094" lon="7.688523">
        <time>1970-01-01T00:00:00+00:00</time>
        <ele>3312.0</ele>
      </trkpt>
      <trkpt lat="46.129097" lon="7.688651">
        <time>1970-01-01T00:00:00+00:00</time>
        <ele>3312.0</ele>
      </trkpt>
      <trkpt lat="46.129097" lon="7.688651">
        <time>1970-01-01T00:00:00+00:00</time>
        <ele>3312.0</ele>
      </trkpt>
      <trkpt lat="46.129076" lon="7.688863">
        <time>1970-01-01T00:00:00+00:00</time>
        <ele>3312.0</ele>
      </trkpt>
      <trkpt lat="46.129076" lon="7.688863">
        <time>1970-01-01T00:00:00+00:00</time>
        <ele>3312.0</ele>
      </trkpt>
      <trkpt lat="46.129042" lon="7.689036">
        <time>1970-01-01T00:00:00+00:00</time>
        <ele>3312.0</ele>
      </trkpt>
      <trkpt lat="46.129042" lon="7.689036">
        <time>1970-01-01T00:00:00+00:00</time>
        <ele>3312.0</ele>
      </trkpt>
      <trkpt lat="46.12901903146982" lon="7.689293405941664">
        <time>1970-01-01T00:00:00+00:00</time>
        <ele>3313.0</ele>
      </trkpt>
      <trkpt lat="46.129013" lon="7.689361">
        <time>1970-01-01T00:00:00+00:00</time>
        <ele>3313.0</ele>
      </trkpt>
      <trkpt lat="46.129013" lon="7.689361">
        <time>1970-01-01T00:00:00+00:00</time>
        <ele>3313.0</ele>
      </trkpt>
      <trkpt lat="46.129027" lon="7.68945">
        <time>1970-01-01T00:00:00+00:00</time>
        <ele>3313.0</ele>
      </trkpt>
      <trkpt lat="46.129027" lon="7.68945">
        <time>1970-01-01T00:00:00+00:00</time>
        <ele>3313.0</ele>
      </trkpt>
      <trkpt lat="46.128994" lon="7.689615">
        <time>1970-01-01T00:00:00+00:00</time>
        <ele>3314.0</ele>
      </trkpt>
      <trkpt lat="46.128994" lon="7.689615">
        <time>1970-01-01T00:00:00+00:00</time>
        <ele>3314.0</ele>
      </trkpt>
      <trkpt lat="46.128959" lon="7.689703">
        <time>1970-01-01T00:00:00+00:00</time>
        <ele>3315.0</ele>
      </trkpt>
      <trkpt lat="46.128959" lon="7.689703">
        <time>1970-01-01T00:00:00+00:00</time>
        <ele>3315.0</ele>
      </trkpt>
      <trkpt lat="46.128953" lon="7.689804">
        <time>1970-01-01T00:00:00+00:00</time>
        <ele>3315.0</ele>
      </trkpt>
      <trkpt lat="46.128953" lon="7.689804">
        <time>1970-01-01T00:00:00+00:00</time>
        <ele>3315.0</ele>
      </trkpt>
      <trkpt lat="46.128932" lon="7.689883">
        <time>1970-01-01T00:00:00+00:00</time>
        <ele>3316.0</ele>
      </trkpt>
      <trkpt lat="46.128932" lon="7.689883">
        <time>1970-01-01T00:00:00+00:00</time>
        <ele>3316.0</ele>
      </trkpt>
      <trkpt lat="46.12889" lon="7.690132">
        <time>1970-01-01T00:00:00+00:00</time>
        <ele>3317.0</ele>
      </trkpt>
      <trkpt lat="46.12889" lon="7.690132">
        <time>1970-01-01T00:00:00+00:00</time>
        <ele>3317.0</ele>
      </trkpt>
      <trkpt lat="46.128843" lon="7.690194">
        <time>1970-01-01T00:00:00+00:00</time>
        <ele>3319.0</ele>
      </trkpt>
      <trkpt lat="46.128843" lon="7.690194">
        <time>1970-01-01T00:00:00+00:00</time>
        <ele>3319.0</ele>
      </trkpt>
      <trkpt lat="46.128812" lon="7.690271">
        <time>1970-01-01T00:00:00+00:00</time>
        <ele>3320.0</ele>
      </trkpt>
      <trkpt lat="46.128812" lon="7.690271">
        <time>1970-01-01T00:00:00+00:00</time>
        <ele>3320.0</ele>
      </trkpt>
      <trkpt lat="46.128799" lon="7.690506">
        <time>1970-01-01T00:00:00+00:00</time>
        <ele>3321.0</ele>
      </trkpt>
      <trkpt lat="46.128799" lon="7.690506">
        <time>1970-01-01T00:00:00+00:00</time>
        <ele>3321.0</ele>
      </trkpt>
      <trkpt lat="46.12878" lon="7.690586">
        <time>1970-01-01T00:00:00+00:00</time>
        <ele>3322.0</ele>
      </trkpt>
      <trkpt lat="46.12878" lon="7.690586">
        <time>1970-01-01T00:00:00+00:00</time>
        <ele>3322.0</ele>
      </trkpt>
      <trkpt lat="46.128787" lon="7.690834">
        <time>1970-01-01T00:00:00+00:00</time>
        <ele>3322.0</ele>
      </trkpt>
      <trkpt lat="46.128787" lon="7.690834">
        <time>1970-01-01T00:00:00+00:00</time>
        <ele>3322.0</ele>
      </trkpt>
      <trkpt lat="46.128758" lon="7.691037">
        <time>1970-01-01T00:00:00+00:00</time>
        <ele>3323.0</ele>
      </trkpt>
      <trkpt lat="46.128758" lon="7.691037">
        <time>1970-01-01T00:00:00+00:00</time>
        <ele>3323.0</ele>
      </trkpt>
      <trkpt lat="46.128683" lon="7.691232">
        <time>1970-01-01T00:00:00+00:00</time>
        <ele>3326.0</ele>
      </trkpt>
      <trkpt lat="46.128683" lon="7.691232">
        <time>1970-01-01T00:00:00+00:00</time>
        <ele>3326.0</ele>
      </trkpt>
      <trkpt lat="46.128634" lon="7.691282">
        <time>1970-01-01T00:00:00+00:00</time>
        <ele>3327.0</ele>
      </trkpt>
      <trkpt lat="46.128634" lon="7.691282">
        <time>1970-01-01T00:00:00+00:00</time>
        <ele>3327.0</ele>
      </trkpt>
      <trkpt lat="46.128582" lon="7.691447">
        <time>1970-01-01T00:00:00+00:00</time>
        <ele>3329.0</ele>
      </trkpt>
      <trkpt lat="46.128582" lon="7.691447">
        <time>1970-01-01T00:00:00+00:00</time>
        <ele>3329.0</ele>
      </trkpt>
      <trkpt lat="46.128588" lon="7.691528">
        <time>1970-01-01T00:00:00+00:00</time>
        <ele>3330.0</ele>
      </trkpt>
      <trkpt lat="46.128588" lon="7.691528">
        <time>1970-01-01T00:00:00+00:00</time>
        <ele>3330.0</ele>
      </trkpt>
      <trkpt lat="46.12855235426694" lon="7.691782380913242">
        <time>1970-01-01T00:00:00+00:00</time>
        <ele>3332.0</ele>
      </trkpt>
      <trkpt lat="46.128544" lon="7.691842">
        <time>1970-01-01T00:00:00+00:00</time>
        <ele>3332.0</ele>
      </trkpt>
      <trkpt lat="46.128544" lon="7.691842">
        <time>1970-01-01T00:00:00+00:00</time>
        <ele>3332.0</ele>
      </trkpt>
      <trkpt lat="46.128485835540836" lon="7.692087583272029">
        <time>1970-01-01T00:00:00+00:00</time>
        <ele>3333.0</ele>
      </trkpt>
      <trkpt lat="46.12842767108167" lon="7.692333166544058">
        <time>1970-01-01T00:00:00+00:00</time>
        <ele>3334.0</ele>
      </trkpt>
      <trkpt lat="46.128369506622505" lon="7.692578749816086">
        <time>1970-01-01T00:00:00+00:00</time>
        <ele>3334.0</ele>
      </trkpt>
      <trkpt lat="46.12831134216334" lon="7.692824333088114">
        <time>1970-01-01T00:00:00+00:00</time>
        <ele>3336.0</ele>
      </trkpt>
      <trkpt lat="46.128301" lon="7.692868">
        <time>1970-01-01T00:00:00+00:00</time>
        <ele>3336.0</ele>
      </trkpt>
      <trkpt lat="46.128301" lon="7.692868">
        <time>1970-01-01T00:00:00+00:00</time>
        <ele>3336.0</ele>
      </trkpt>
      <trkpt lat="46.128215" lon="7.693064">
        <time>1970-01-01T00:00:00+00:00</time>
        <ele>3337.0</ele>
      </trkpt>
      <trkpt lat="46.128215" lon="7.693064">
        <time>1970-01-01T00:00:00+00:00</time>
        <ele>3337.0</ele>
      </trkpt>
      <trkpt lat="46.128179" lon="7.693296">
        <time>1970-01-01T00:00:00+00:00</time>
        <ele>3337.0</ele>
      </trkpt>
      <trkpt lat="46.128179" lon="7.693296">
        <time>1970-01-01T00:00:00+00:00</time>
        <ele>3337.0</ele>
      </trkpt>
      <trkpt lat="46.128116" lon="7.693423">
        <time>1970-01-01T00:00:00+00:00</time>
        <ele>3338.0</ele>
      </trkpt>
      <trkpt lat="46.128116" lon="7.693423">
        <time>1970-01-01T00:00:00+00:00</time>
        <ele>3338.0</ele>
      </trkpt>
      <trkpt lat="46.128064" lon="7.693607">
        <time>1970-01-01T00:00:00+00:00</time>
        <ele>3338.0</ele>
      </trkpt>
      <trkpt lat="46.128064" lon="7.693607">
        <time>1970-01-01T00:00:00+00:00</time>
        <ele>3338.0</ele>
      </trkpt>
      <trkpt lat="46.128028" lon="7.693809">
        <time>1970-01-01T00:00:00+00:00</time>
        <ele>3339.0</ele>
      </trkpt>
      <trkpt lat="46.128028" lon="7.693809">
        <time>1970-01-01T00:00:00+00:00</time>
        <ele>3339.0</ele>
      </trkpt>
      <trkpt lat="46.127962" lon="7.693968">
        <time>1970-01-01T00:00:00+00:00</time>
        <ele>3340.0</ele>
      </trkpt>
      <trkpt lat="46.127962" lon="7.693968">
        <time>1970-01-01T00:00:00+00:00</time>
        <ele>3340.0</ele>
      </trkpt>
      <trkpt lat="46.127949" lon="7.694157">
        <time>1970-01-01T00:00:00+00:00</time>
        <ele>3341.0</ele>
      </trkpt>
      <trkpt lat="46.127949" lon="7.694157">
        <time>1970-01-01T00:00:00+00:00</time>
        <ele>3341.0</ele>
      </trkpt>
      <trkpt lat="46.127898" lon="7.694319">
        <time>1970-01-01T00:00:00+00:00</time>
        <ele>3341.0</ele>
      </trkpt>
      <trkpt lat="46.127898" lon="7.694319">
        <time>1970-01-01T00:00:00+00:00</time>
        <ele>3341.0</ele>
      </trkpt>
      <trkpt lat="46.127914" lon="7.694381">
        <time>1970-01-01T00:00:00+00:00</time>
        <ele>3341.0</ele>
      </trkpt>
      <trkpt lat="46.127914" lon="7.694381">
        <time>1970-01-01T00:00:00+00:00</time>
        <ele>3341.0</ele>
      </trkpt>
      <trkpt lat="46.12780758267734" lon="7.694590227278433">
        <time>1970-01-01T00:00:00+00:00</time>
        <ele>3342.0</ele>
      </trkpt>
      <trkpt lat="46.127796" lon="7.694613">
        <time>1970-01-01T00:00:00+00:00</time>
        <ele>3342.0</ele>
      </trkpt>
      <trkpt lat="46.127796" lon="7.694613">
        <time>1970-01-01T00:00:00+00:00</time>
        <ele>3342.0</ele>
      </trkpt>
      <trkpt lat="46.127772" lon="7.694697">
        <time>1970-01-01T00:00:00+00:00</time>
        <ele>3342.0</ele>
      </trkpt>
      <trkpt lat="46.127772" lon="7.694697">
        <time>1970-01-01T00:00:00+00:00</time>
        <ele>3342.0</ele>
      </trkpt>
      <trkpt lat="46.127749" lon="7.69488">
        <time>1970-01-01T00:00:00+00:00</time>
        <ele>3343.0</ele>
      </trkpt>
      <trkpt lat="46.127749" lon="7.69488">
        <time>1970-01-01T00:00:00+00:00</time>
        <ele>3343.0</ele>
      </trkpt>
      <trkpt lat="46.127715" lon="7.694966">
        <time>1970-01-01T00:00:00+00:00</time>
        <ele>3343.0</ele>
      </trkpt>
      <trkpt lat="46.127715" lon="7.694966">
        <time>1970-01-01T00:00:00+00:00</time>
        <ele>3343.0</ele>
      </trkpt>
      <trkpt lat="46.127664" lon="7.695074">
        <time>1970-01-01T00:00:00+00:00</time>
        <ele>3344.0</ele>
      </trkpt>
      <trkpt lat="46.127664" lon="7.695074">
        <time>1970-01-01T00:00:00+00:00</time>
        <ele>3344.0</ele>
      </trkpt>
      <trkpt lat="46.127649" lon="7.695153">
        <time>1970-01-01T00:00:00+00:00</time>
        <ele>3344.0</ele>
      </trkpt>
      <trkpt lat="46.127649" lon="7.695153">
        <time>1970-01-01T00:00:00+00:00</time>
        <ele>3344.0</ele>
      </trkpt>
      <trkpt lat="46.127567" lon="7.695371">
        <time>1970-01-01T00:00:00+00:00</time>
        <ele>3345.0</ele>
      </trkpt>
      <trkpt lat="46.127567" lon="7.695371">
        <time>1970-01-01T00:00:00+00:00</time>
        <ele>3345.0</ele>
      </trkpt>
      <trkpt lat="46.127526" lon="7.695437">
        <time>1970-01-01T00:00:00+00:00</time>
        <ele>3346.0</ele>
      </trkpt>
      <trkpt lat="46.127526" lon="7.695437">
        <time>1970-01-01T00:00:00+00:00</time>
        <ele>3346.0</ele>
      </trkpt>
      <trkpt lat="46.127501" lon="7.695624">
        <time>1970-01-01T00:00:00+00:00</time>
        <ele>3346.0</ele>
      </trkpt>
      <trkpt lat="46.127501" lon="7.695624">
        <time>1970-01-01T00:00:00+00:00</time>
        <ele>3346.0</ele>
      </trkpt>
      <trkpt lat="46.12750936267428" lon="7.695883242902547">
        <time>1970-01-01T00:00:00+00:00</time>
        <ele>3346.0</ele>
      </trkpt>
      <trkpt lat="46.12751" lon="7.695903">
        <time>1970-01-01T00:00:00+00:00</time>
        <ele>3346.0</ele>
      </trkpt>
      <trkpt lat="46.12751" lon="7.695903">
        <time>1970-01-01T00:00:00+00:00</time>
        <ele>3346.0</ele>
      </trkpt>
      <trkpt lat="46.127508" lon="7.696032">
        <time>1970-01-01T00:00:00+00:00</time>
        <ele>3347.0</ele>
      </trkpt>
      <trkpt lat="46.127508" lon="7.696032">
        <time>1970-01-01T00:00:00+00:00</time>
        <ele>3347.0</ele>
      </trkpt>
      <trkpt lat="46.127442" lon="7.696252">
        <time>1970-01-01T00:00:00+00:00</time>
        <ele>3348.0</ele>
      </trkpt>
      <trkpt lat="46.127442" lon="7.696252">
        <time>1970-01-01T00:00:00+00:00</time>
        <ele>3348.0</ele>
      </trkpt>
      <trkpt lat="46.127405" lon="7.696465">
        <time>1970-01-01T00:00:00+00:00</time>
        <ele>3348.0</ele>
      </trkpt>
      <trkpt lat="46.127405" lon="7.696465">
        <time>1970-01-01T00:00:00+00:00</time>
        <ele>3348.0</ele>
      </trkpt>
      <trkpt lat="46.127406" lon="7.696562">
        <time>1970-01-01T00:00:00+00:00</time>
        <ele>3349.0</ele>
      </trkpt>
      <trkpt lat="46.127406" lon="7.696562">
        <time>1970-01-01T00:00:00+00:00</time>
        <ele>3349.0</ele>
      </trkpt>
      <trkpt lat="46.12738" lon="7.696648">
        <time>1970-01-01T00:00:00+00:00</time>
        <ele>3349.0</ele>
      </trkpt>
      <trkpt lat="46.12738" lon="7.696648">
        <time>1970-01-01T00:00:00+00:00</time>
        <ele>3349.0</ele>
      </trkpt>
      <trkpt lat="46.127367" lon="7.696774">
        <time>1970-01-01T00:00:00+00:00</time>
        <ele>3350.0</ele>
      </trkpt>
      <trkpt lat="46.127367" lon="7.696774">
        <time>1970-01-01T00:00:00+00:00</time>
        <ele>3350.0</ele>
      </trkpt>
      <trkpt lat="46.127323" lon="7.696886">
        <time>1970-01-01T00:00:00+00:00</time>
        <ele>3351.0</ele>
      </trkpt>
      <trkpt lat="46.127323" lon="7.696886">
        <time>1970-01-01T00:00:00+00:00</time>
        <ele>3351.0</ele>
      </trkpt>
      <trkpt lat="46.127296" lon="7.697132">
        <time>1970-01-01T00:00:00+00:00</time>
        <ele>3353.0</ele>
      </trkpt>
      <trkpt lat="46.127296" lon="7.697132">
        <time>1970-01-01T00:00:00+00:00</time>
        <ele>3353.0</ele>
      </trkpt>
      <trkpt lat="46.127263" lon="7.697214">
        <time>1970-01-01T00:00:00+00:00</time>
        <ele>3354.0</ele>
      </trkpt>
      <trkpt lat="46.127263" lon="7.697214">
        <time>1970-01-01T00:00:00+00:00</time>
        <ele>3354.0</ele>
      </trkpt>
      <trkpt lat="46.12728" lon="7.697308">
        <time>1970-01-01T00:00:00+00:00</time>
        <ele>3354.0</ele>
      </trkpt>
      <trkpt lat="46.12728" lon="7.697308">
        <time>1970-01-01T00:00:00+00:00</time>
        <ele>3354.0</ele>
      </trkpt>
      <trkpt lat="46.127283" lon="7.697449">
        <time>1970-01-01T00:00:00+00:00</time>
        <ele>3355.0</ele>
      </trkpt>
      <trkpt lat="46.127283" lon="7.697449">
        <time>1970-01-01T00:00:00+00:00</time>
        <ele>3355.0</ele>
      </trkpt>
      <trkpt lat="46.127251" lon="7.697537">
        <time>1970-01-01T00:00:00+00:00</time>
        <ele>3356.0</ele>
      </trkpt>
      <trkpt lat="46.127251" lon="7.697537">
        <time>1970-01-01T00:00:00+00:00</time>
        <ele>3356.0</ele>
      </trkpt>
      <trkpt lat="46.127239" lon="7.697668">
        <time>1970-01-01T00:00:00+00:00</time>
        <ele>3357.0</ele>
      </trkpt>
      <trkpt lat="46.127239" lon="7.697668">
        <time>1970-01-01T00:00:00+00:00</time>
        <ele>3357.0</ele>
      </trkpt>
      <trkpt lat="46.1271688238931" lon="7.697906954085544">
        <time>1970-01-01T00:00:00+00:00</time>
        <ele>3359.0</ele>
      </trkpt>
      <trkpt lat="46.12716" lon="7.697937">
        <time>1970-01-01T00:00:00+00:00</time>
        <ele>3359.0</ele>
      </trkpt>
      <trkpt lat="46.12716" lon="7.697937">
        <time>1970-01-01T00:00:00+00:00</time>
        <ele>3359.0</ele>
      </trkpt>
      <trkpt lat="46.127157" lon="7.698157">
        <time>1970-01-01T00:00:00+00:00</time>
        <ele>3362.0</ele>
      </trkpt>
      <trkpt lat="46.127157" lon="7.698157">
        <time>1970-01-01T00:00:00+00:00</time>
        <ele>3362.0</ele>
      </trkpt>
      <trkpt lat="46.127141" lon="7.698243">
        <time>1970-01-01T00:00:00+00:00</time>
        <ele>3363.0</ele>
      </trkpt>
      <trkpt lat="46.127141" lon="7.698243">
        <time>1970-01-01T00:00:00+00:00</time>
        <ele>3363.0</ele>
      </trkpt>
      <trkpt lat="46.127153" lon="7.698325">
        <time>1970-01-01T00:00:00+00:00</time>
        <ele>3364.0</ele>
      </trkpt>
      <trkpt lat="46.127153" lon="7.698325">
        <time>1970-01-01T00:00:00+00:00</time>
        <ele>3364.0</ele>
      </trkpt>
      <trkpt lat="46.127112" lon="7.698488">
        <time>1970-01-01T00:00:00+00:00</time>
        <ele>3365.0</ele>
      </trkpt>
      <trkpt lat="46.127112" lon="7.698488">
        <time>1970-01-01T00:00:00+00:00</time>
        <ele>3365.0</ele>
      </trkpt>
      <trkpt lat="46.12706607978117" lon="7.698738921195753">
        <time>1970-01-01T00:00:00+00:00</time>
        <ele>3368.0</ele>
      </trkpt>
      <trkpt lat="46.127056" lon="7.698794">
        <time>1970-01-01T00:00:00+00:00</time>
        <ele>3368.0</ele>
      </trkpt>
      <trkpt lat="46.127056" lon="7.698794">
        <time>1970-01-01T00:00:00+00:00</time>
        <ele>3368.0</ele>
      </trkpt>
      <trkpt lat="46.12704" lon="7.698978">
        <time>1970-01-01T00:00:00+00:00</time>
        <ele>3370.0</ele>
      </trkpt>
      <trkpt lat="46.12704" lon="7.698978">
        <time>1970-01-01T00:00:00+00:00</time>
        <ele>3370.0</ele>
      </trkpt>
      <trkpt lat="46.12698" lon="7.69913">
        <time>1970-01-01T00:00:00+00:00</time>
        <ele>3371.0</ele>
      </trkpt>
      <trkpt lat="46.12698" lon="7.69913">
        <time>1970-01-01T00:00:00+00:00</time>
        <ele>3371.0</ele>
      </trkpt>
      <trkpt lat="46.126956" lon="7.699255">
        <time>1970-01-01T00:00:00+00:00</time>
        <ele>3372.0</ele>
      </trkpt>
      <trkpt lat="46.126956" lon="7.699255">
        <time>1970-01-01T00:00:00+00:00</time>
        <ele>3372.0</ele>
      </trkpt>
      <trkpt lat="46.126948" lon="7.699435">
        <time>1970-01-01T00:00:00+00:00</time>
        <ele>3374.0</ele>
      </trkpt>
      <trkpt lat="46.126948" lon="7.699435">
        <time>1970-01-01T00:00:00+00:00</time>
        <ele>3374.0</ele>
      </trkpt>
      <trkpt lat="46.1269" lon="7.6996">
        <time>1970-01-01T00:00:00+00:00</time>
        <ele>3375.0</ele>
      </trkpt>
      <trkpt lat="46.1269" lon="7.6996">
        <time>1970-01-01T00:00:00+00:00</time>
        <ele>3375.0</ele>
      </trkpt>
      <trkpt lat="46.126831" lon="7.699796">
        <time>1970-01-01T00:00:00+00:00</time>
        <ele>3377.0</ele>
      </trkpt>
      <trkpt lat="46.126831" lon="7.699796">
        <time>1970-01-01T00:00:00+00:00</time>
        <ele>3377.0</ele>
      </trkpt>
      <trkpt lat="46.126818" lon="7.699922">
        <time>1970-01-01T00:00:00+00:00</time>
        <ele>3379.0</ele>
      </trkpt>
      <trkpt lat="46.126818" lon="7.699922">
        <time>1970-01-01T00:00:00+00:00</time>
        <ele>3379.0</ele>
      </trkpt>
      <trkpt lat="46.126781" lon="7.700042">
        <time>1970-01-01T00:00:00+00:00</time>
        <ele>3381.0</ele>
      </trkpt>
      <trkpt lat="46.126781" lon="7.700042">
        <time>1970-01-01T00:00:00+00:00</time>
        <ele>3381.0</ele>
      </trkpt>
      <trkpt lat="46.126788" lon="7.700128">
        <time>1970-01-01T00:00:00+00:00</time>
        <ele>3382.0</ele>
      </trkpt>
      <trkpt lat="46.126788" lon="7.700128">
        <time>1970-01-01T00:00:00+00:00</time>
        <ele>3382.0</ele>
      </trkpt>
      <trkpt lat="46.126863" lon="7.700316">
        <time>1970-01-01T00:00:00+00:00</time>
        <ele>3385.0</ele>
      </trkpt>
      <trkpt lat="46.126863" lon="7.700316">
        <time>1970-01-01T00:00:00+00:00</time>
        <ele>3385.0</ele>
      </trkpt>
      <trkpt lat="46.126969" lon="7.700415">
        <time>1970-01-01T00:00:00+00:00</time>
        <ele>3386.0</ele>
      </trkpt>
      <trkpt lat="46.126969" lon="7.700415">
        <time>1970-01-01T00:00:00+00:00</time>
        <ele>3386.0</ele>
      </trkpt>
      <trkpt lat="46.12711" lon="7.70048">
        <time>1970-01-01T00:00:00+00:00</time>
        <ele>3387.0</ele>
      </trkpt>
      <trkpt lat="46.12711" lon="7.70048">
        <time>1970-01-01T00:00:00+00:00</time>
        <ele>3387.0</ele>
      </trkpt>
      <trkpt lat="46.127237" lon="7.700502">
        <time>1970-01-01T00:00:00+00:00</time>
        <ele>3387.0</ele>
      </trkpt>
      <trkpt lat="46.127237" lon="7.700502">
        <time>1970-01-01T00:00:00+00:00</time>
        <ele>3387.0</ele>
      </trkpt>
      <trkpt lat="46.127355" lon="7.700587">
        <time>1970-01-01T00:00:00+00:00</time>
        <ele>3389.0</ele>
      </trkpt>
      <trkpt lat="46.127355" lon="7.700587">
        <time>1970-01-01T00:00:00+00:00</time>
        <ele>3389.0</ele>
      </trkpt>
      <trkpt lat="46.127532110421036" lon="7.700632240161896">
        <time>1970-01-01T00:00:00+00:00</time>
        <ele>3390.0</ele>
      </trkpt>
      <trkpt lat="46.127539" lon="7.700634">
        <time>1970-01-01T00:00:00+00:00</time>
        <ele>3390.0</ele>
      </trkpt>
      <trkpt lat="46.127539" lon="7.700634">
        <time>1970-01-01T00:00:00+00:00</time>
        <ele>3390.0</ele>
      </trkpt>
      <trkpt lat="46.127718246699786" lon="7.700612511360552">
        <time>1970-01-01T00:00:00+00:00</time>
        <ele>3390.0</ele>
      </trkpt>
      <trkpt lat="46.127881" lon="7.700593">
        <time>1970-01-01T00:00:00+00:00</time>
        <ele>3391.0</ele>
      </trkpt>
      <trkpt lat="46.127881" lon="7.700593">
        <time>1970-01-01T00:00:00+00:00</time>
        <ele>3391.0</ele>
      </trkpt>
      <trkpt lat="46.128057" lon="7.700622">
        <time>1970-01-01T00:00:00+00:00</time>
        <ele>3392.0</ele>
      </trkpt>
      <trkpt lat="46.128057" lon="7.700622">
        <time>1970-01-01T00:00:00+00:00</time>
        <ele>3392.0</ele>
      </trkpt>
      <trkpt lat="46.128189" lon="7.700653">
        <time>1970-01-01T00:00:00+00:00</time>
        <ele>3392.0</ele>
      </trkpt>
      <trkpt lat="46.128189" lon="7.700653">
        <time>1970-01-01T00:00:00+00:00</time>
        <ele>3392.0</ele>
      </trkpt>
      <trkpt lat="46.128315" lon="7.700725">
        <time>1970-01-01T00:00:00+00:00</time>
        <ele>3392.0</ele>
      </trkpt>
      <trkpt lat="46.128315" lon="7.700725">
        <time>1970-01-01T00:00:00+00:00</time>
        <ele>3392.0</ele>
      </trkpt>
      <trkpt lat="46.128408883653314" lon="7.700946367772026">
        <time>1970-01-01T00:00:00+00:00</time>
        <ele>3393.0</ele>
      </trkpt>
      <trkpt lat="46.12841" lon="7.700949">
        <time>1970-01-01T00:00:00+00:00</time>
        <ele>3393.0</ele>
      </trkpt>
      <trkpt lat="46.12841" lon="7.700949">
        <time>1970-01-01T00:00:00+00:00</time>
        <ele>3393.0</ele>
      </trkpt>
      <trkpt lat="46.128442" lon="7.701138">
        <time>1970-01-01T00:00:00+00:00</time>
        <ele>3394.0</ele>
      </trkpt>
      <trkpt lat="46.128442" lon="7.701138">
        <time>1970-01-01T00:00:00+00:00</time>
        <ele>3394.0</ele>
      </trkpt>
      <trkpt lat="46.128496" lon="7.70113">
        <time>1970-01-01T00:00:00+00:00</time>
        <ele>3394.0</ele>
      </trkpt>
      <trkpt lat="46.128496" lon="7.70113">
        <time>1970-01-01T00:00:00+00:00</time>
        <ele>3394.0</ele>
      </trkpt>
      <trkpt lat="46.12858242084148" lon="7.701357608379027">
        <time>1970-01-01T00:00:00+00:00</time>
        <ele>3397.0</ele>
      </trkpt>
      <trkpt lat="46.128668" lon="7.701583">
        <time>1970-01-01T00:00:00+00:00</time>
        <ele>3401.0</ele>
      </trkpt>
      <trkpt lat="46.128668" lon="7.701583">
        <time>1970-01-01T00:00:00+00:00</time>
        <ele>3401.0</ele>
      </trkpt>
      <trkpt lat="46.12849476278993" lon="7.701652799458428">
        <time>1970-01-01T00:00:00+00:00</time>
        <ele>3401.0</ele>
      </trkpt>
      <trkpt lat="46.128462" lon="7.701666">
        <time>1970-01-01T00:00:00+00:00</time>
        <ele>3401.0</ele>
      </trkpt>
      <trkpt lat="46.128462" lon="7.701666">
        <time>1970-01-01T00:00:00+00:00</time>
        <ele>3401.0</ele>
      </trkpt>
      <trkpt lat="46.12843936572633" lon="7.701923464862981">
        <time>1970-01-01T00:00:00+00:00</time>
        <ele>3405.0</ele>
      </trkpt>
      <trkpt lat="46.12843" lon="7.70203">
        <time>1970-01-01T00:00:00+00:00</time>
        <ele>3406.0</ele>
      </trkpt>
      <trkpt lat="46.12843" lon="7.70203">
        <time>1970-01-01T00:00:00+00:00</time>
        <ele>3406.0</ele>
      </trkpt>
      <trkpt lat="46.12844" lon="7.702226">
        <time>1970-01-01T00:00:00+00:00</time>
        <ele>3408.0</ele>
      </trkpt>
      <trkpt lat="46.12844" lon="7.702226">
        <time>1970-01-01T00:00:00+00:00</time>
        <ele>3408.0</ele>
      </trkpt>
      <trkpt lat="46.128442" lon="7.702342">
        <time>1970-01-01T00:00:00+00:00</time>
        <ele>3410.0</ele>
      </trkpt>
      <trkpt lat="46.128442" lon="7.702342">
        <time>1970-01-01T00:00:00+00:00</time>
        <ele>3410.0</ele>
      </trkpt>
      <trkpt lat="46.12837662972847" lon="7.7025837804563215">
        <time>1970-01-01T00:00:00+00:00</time>
        <ele>3413.0</ele>
      </trkpt>
      <trkpt lat="46.128369" lon="7.702612">
        <time>1970-01-01T00:00:00+00:00</time>
        <ele>3413.0</ele>
      </trkpt>
      <trkpt lat="46.128369" lon="7.702612">
        <time>1970-01-01T00:00:00+00:00</time>
        <ele>3413.0</ele>
      </trkpt>
      <trkpt lat="46.128377" lon="7.702777">
        <time>1970-01-01T00:00:00+00:00</time>
        <ele>3415.0</ele>
      </trkpt>
      <trkpt lat="46.128377" lon="7.702777">
        <time>1970-01-01T00:00:00+00:00</time>
        <ele>3415.0</ele>
      </trkpt>
      <trkpt lat="46.128362" lon="7.702911">
        <time>1970-01-01T00:00:00+00:00</time>
        <ele>3417.0</ele>
      </trkpt>
      <trkpt lat="46.128362" lon="7.702911">
        <time>1970-01-01T00:00:00+00:00</time>
        <ele>3417.0</ele>
      </trkpt>
      <trkpt lat="46.128356" lon="7.70313">
        <time>1970-01-01T00:00:00+00:00</time>
        <ele>3421.0</ele>
      </trkpt>
      <trkpt lat="46.128356" lon="7.70313">
        <time>1970-01-01T00:00:00+00:00</time>
        <ele>3421.0</ele>
      </trkpt>
      <trkpt lat="46.128374" lon="7.703319">
        <time>1970-01-01T00:00:00+00:00</time>
        <ele>3425.0</ele>
      </trkpt>
      <trkpt lat="46.128374" lon="7.703319">
        <time>1970-01-01T00:00:00+00:00</time>
        <ele>3425.0</ele>
      </trkpt>
      <trkpt lat="46.128366" lon="7.703535">
        <time>1970-01-01T00:00:00+00:00</time>
        <ele>3429.0</ele>
      </trkpt>
      <trkpt lat="46.128366" lon="7.703535">
        <time>1970-01-01T00:00:00+00:00</time>
        <ele>3429.0</ele>
      </trkpt>
      <trkpt lat="46.128374" lon="7.703735">
        <time>1970-01-01T00:00:00+00:00</time>
        <ele>3434.0</ele>
      </trkpt>
      <trkpt lat="46.128374" lon="7.703735">
        <time>1970-01-01T00:00:00+00:00</time>
        <ele>3434.0</ele>
      </trkpt>
      <trkpt lat="46.128343" lon="7.703859">
        <time>1970-01-01T00:00:00+00:00</time>
        <ele>3438.0</ele>
      </trkpt>
      <trkpt lat="46.128343" lon="7.703859">
        <time>1970-01-01T00:00:00+00:00</time>
        <ele>3438.0</ele>
      </trkpt>
      <trkpt lat="46.128341" lon="7.703944">
        <time>1970-01-01T00:00:00+00:00</time>
        <ele>3439.0</ele>
      </trkpt>
      <trkpt lat="46.128341" lon="7.703944">
        <time>1970-01-01T00:00:00+00:00</time>
        <ele>3439.0</ele>
      </trkpt>
      <trkpt lat="46.128293" lon="7.704046">
        <time>1970-01-01T00:00:00+00:00</time>
        <ele>3442.0</ele>
      </trkpt>
      <trkpt lat="46.128293" lon="7.704046">
        <time>1970-01-01T00:00:00+00:00</time>
        <ele>3442.0</ele>
      </trkpt>
      <trkpt lat="46.128185" lon="7.704166">
        <time>1970-01-01T00:00:00+00:00</time>
        <ele>3446.0</ele>
      </trkpt>
      <trkpt lat="46.128185" lon="7.704166">
        <time>1970-01-01T00:00:00+00:00</time>
        <ele>3446.0</ele>
      </trkpt>
      <trkpt lat="46.128197" lon="7.704298">
        <time>1970-01-01T00:00:00+00:00</time>
        <ele>3448.0</ele>
      </trkpt>
      <trkpt lat="46.128197" lon="7.704298">
        <time>1970-01-01T00:00:00+00:00</time>
        <ele>3448.0</ele>
      </trkpt>
      <trkpt lat="46.128181" lon="7.704381">
        <time>1970-01-01T00:00:00+00:00</time>
        <ele>3450.0</ele>
      </trkpt>
      <trkpt lat="46.128181" lon="7.704381">
        <time>1970-01-01T00:00:00+00:00</time>
        <ele>3450.0</ele>
      </trkpt>
      <trkpt lat="46.128185" lon="7.704458">
        <time>1970-01-01T00:00:00+00:00</time>
        <ele>3452.0</ele>
      </trkpt>
      <trkpt lat="46.128185" lon="7.704458">
        <time>1970-01-01T00:00:00+00:00</time>
        <ele>3452.0</ele>
      </trkpt>
      <trkpt lat="46.128188" lon="7.704581">
        <time>1970-01-01T00:00:00+00:00</time>
        <ele>3455.0</ele>
      </trkpt>
      <trkpt lat="46.128188" lon="7.704581">
        <time>1970-01-01T00:00:00+00:00</time>
        <ele>3455.0</ele>
      </trkpt>
      <trkpt lat="46.128179" lon="7.704704">
        <time>1970-01-01T00:00:00+00:00</time>
        <ele>3460.0</ele>
      </trkpt>
      <trkpt lat="46.128179" lon="7.704704">
        <time>1970-01-01T00:00:00+00:00</time>
        <ele>3460.0</ele>
      </trkpt>
      <trkpt lat="46.12824206564292" lon="7.704947050736204">
        <time>1970-01-01T00:00:00+00:00</time>
        <ele>3467.0</ele>
      </trkpt>
      <trkpt lat="46.128268" lon="7.705047">
        <time>1970-01-01T00:00:00+00:00</time>
        <ele>3469.0</ele>
      </trkpt>
      <trkpt lat="46.128268" lon="7.705047">
        <time>1970-01-01T00:00:00+00:00</time>
        <ele>3469.0</ele>
      </trkpt>
      <trkpt lat="46.128291" lon="7.70527">
        <time>1970-01-01T00:00:00+00:00</time>
        <ele>3474.0</ele>
      </trkpt>
      <trkpt lat="46.128291" lon="7.70527">
        <time>1970-01-01T00:00:00+00:00</time>
        <ele>3474.0</ele>
      </trkpt>
      <trkpt lat="46.128276" lon="7.705388">
        <time>1970-01-01T00:00:00+00:00</time>
        <ele>3476.0</ele>
      </trkpt>
      <trkpt lat="46.128276" lon="7.705388">
        <time>1970-01-01T00:00:00+00:00</time>
        <ele>3476.0</ele>
      </trkpt>
      <trkpt lat="46.12831725912552" lon="7.705640606890945">
        <time>1970-01-01T00:00:00+00:00</time>
        <ele>3481.0</ele>
      </trkpt>
      <trkpt lat="46.128325" lon="7.705688">
        <time>1970-01-01T00:00:00+00:00</time>
        <ele>3481.0</ele>
      </trkpt>
      <trkpt lat="46.128325" lon="7.705688">
        <time>1970-01-01T00:00:00+00:00</time>
        <ele>3481.0</ele>
      </trkpt>
      <trkpt lat="46.12831" lon="7.705861">
        <time>1970-01-01T00:00:00+00:00</time>
        <ele>3484.0</ele>
      </trkpt>
      <trkpt lat="46.12831" lon="7.705861">
        <time>1970-01-01T00:00:00+00:00</time>
        <ele>3484.0</ele>
      </trkpt>
      <trkpt lat="46.128347" lon="7.706024">
        <time>1970-01-01T00:00:00+00:00</time>
        <ele>3487.0</ele>
      </trkpt>
      <trkpt lat="46.128347" lon="7.706024">
        <time>1970-01-01T00:00:00+00:00</time>
        <ele>3487.0</ele>
      </trkpt>
      <trkpt lat="46.128345" lon="7.70615">
        <time>1970-01-01T00:00:00+00:00</time>
        <ele>3490.0</ele>
      </trkpt>
      <trkpt lat="46.128345" lon="7.70615">
        <time>1970-01-01T00:00:00+00:00</time>
        <ele>3490.0</ele>
      </trkpt>
      <trkpt lat="46.128325" lon="7.70633">
        <time>1970-01-01T00:00:00+00:00</time>
        <ele>3494.0</ele>
      </trkpt>
      <trkpt lat="46.128325" lon="7.70633">
        <time>1970-01-01T00:00:00+00:00</time>
        <ele>3494.0</ele>
      </trkpt>
      <trkpt lat="46.12833" lon="7.706428">
        <time>1970-01-01T00:00:00+00:00</time>
        <ele>3496.0</ele>
      </trkpt>
      <trkpt lat="46.12833" lon="7.706428">
        <time>1970-01-01T00:00:00+00:00</time>
        <ele>3496.0</ele>
      </trkpt>
      <trkpt lat="46.128363" lon="7.706633">
        <time>1970-01-01T00:00:00+00:00</time>
        <ele>3499.0</ele>
      </trkpt>
      <trkpt lat="46.128363" lon="7.706633">
        <time>1970-01-01T00:00:00+00:00</time>
        <ele>3499.0</ele>
      </trkpt>
      <trkpt lat="46.128393" lon="7.706725">
        <time>1970-01-01T00:00:00+00:00</time>
        <ele>3500.0</ele>
      </trkpt>
      <trkpt lat="46.128393" lon="7.706725">
        <time>1970-01-01T00:00:00+00:00</time>
        <ele>3500.0</ele>
      </trkpt>
      <trkpt lat="46.128392" lon="7.706814">
        <time>1970-01-01T00:00:00+00:00</time>
        <ele>3501.0</ele>
      </trkpt>
      <trkpt lat="46.128392" lon="7.706814">
        <time>1970-01-01T00:00:00+00:00</time>
        <ele>3501.0</ele>
      </trkpt>
      <trkpt lat="46.128389" lon="7.706937">
        <time>1970-01-01T00:00:00+00:00</time>
        <ele>3503.0</ele>
      </trkpt>
      <trkpt lat="46.128389" lon="7.706937">
        <time>1970-01-01T00:00:00+00:00</time>
        <ele>3503.0</ele>
      </trkpt>
      <trkpt lat="46.128383" lon="7.707023">
        <time>1970-01-01T00:00:00+00:00</time>
        <ele>3505.0</ele>
      </trkpt>
      <trkpt lat="46.128383" lon="7.707023">
        <time>1970-01-01T00:00:00+00:00</time>
        <ele>3505.0</ele>
      </trkpt>
      <trkpt lat="46.128405" lon="7.707113">
        <time>1970-01-01T00:00:00+00:00</time>
        <ele>3506.0</ele>
      </trkpt>
      <trkpt lat="46.128405" lon="7.707113">
        <time>1970-01-01T00:00:00+00:00</time>
        <ele>3506.0</ele>
      </trkpt>
      <trkpt lat="46.128406" lon="7.707201">
        <time>1970-01-01T00:00:00+00:00</time>
        <ele>3508.0</ele>
      </trkpt>
      <trkpt lat="46.128406" lon="7.707201">
        <time>1970-01-01T00:00:00+00:00</time>
        <ele>3508.0</ele>
      </trkpt>
      <trkpt lat="46.128434" lon="7.70736">
        <time>1970-01-01T00:00:00+00:00</time>
        <ele>3510.0</ele>
      </trkpt>
      <trkpt lat="46.128434" lon="7.70736">
        <time>1970-01-01T00:00:00+00:00</time>
        <ele>3510.0</ele>
      </trkpt>
      <trkpt lat="46.128444" lon="7.707545">
        <time>1970-01-01T00:00:00+00:00</time>
        <ele>3513.0</ele>
      </trkpt>
      <trkpt lat="46.128444" lon="7.707545">
        <time>1970-01-01T00:00:00+00:00</time>
        <ele>3513.0</ele>
      </trkpt>
      <trkpt lat="46.128413" lon="7.707613">
        <time>1970-01-01T00:00:00+00:00</time>
        <ele>3514.0</ele>
      </trkpt>
      <trkpt lat="46.128413" lon="7.707613">
        <time>1970-01-01T00:00:00+00:00</time>
        <ele>3514.0</ele>
      </trkpt>
      <trkpt lat="46.128399" lon="7.707704">
        <time>1970-01-01T00:00:00+00:00</time>
        <ele>3517.0</ele>
      </trkpt>
      <trkpt lat="46.128399" lon="7.707704">
        <time>1970-01-01T00:00:00+00:00</time>
        <ele>3517.0</ele>
      </trkpt>
      <trkpt lat="46.128447" lon="7.707816">
        <time>1970-01-01T00:00:00+00:00</time>
        <ele>3518.0</ele>
      </trkpt>
      <trkpt lat="46.128447" lon="7.707816">
        <time>1970-01-01T00:00:00+00:00</time>
        <ele>3518.0</ele>
      </trkpt>
      <trkpt lat="46.128505" lon="7.707956">
        <time>1970-01-01T00:00:00+00:00</time>
        <ele>3520.0</ele>
      </trkpt>
      <trkpt lat="46.128505" lon="7.707956">
        <time>1970-01-01T00:00:00+00:00</time>
        <ele>3520.0</ele>
      </trkpt>
      <trkpt lat="46.128554" lon="7.708155">
        <time>1970-01-01T00:00:00+00:00</time>
        <ele>3524.0</ele>
      </trkpt>
      <trkpt lat="46.128554" lon="7.708155">
        <time>1970-01-01T00:00:00+00:00</time>
        <ele>3524.0</ele>
      </trkpt>
      <trkpt lat="46.128541" lon="7.708235">
        <time>1970-01-01T00:00:00+00:00</time>
        <ele>3526.0</ele>
      </trkpt>
      <trkpt lat="46.128541" lon="7.708235">
        <time>1970-01-01T00:00:00+00:00</time>
        <ele>3526.0</ele>
      </trkpt>
      <trkpt lat="46.128548" lon="7.708406">
        <time>1970-01-01T00:00:00+00:00</time>
        <ele>3529.0</ele>
      </trkpt>
      <trkpt lat="46.128548" lon="7.708406">
        <time>1970-01-01T00:00:00+00:00</time>
        <ele>3529.0</ele>
      </trkpt>
      <trkpt lat="46.128535" lon="7.708491">
        <time>1970-01-01T00:00:00+00:00</time>
        <ele>3532.0</ele>
      </trkpt>
      <trkpt lat="46.128535" lon="7.708491">
        <time>1970-01-01T00:00:00+00:00</time>
        <ele>3532.0</ele>
      </trkpt>
      <trkpt lat="46.128544" lon="7.708576">
        <time>1970-01-01T00:00:00+00:00</time>
        <ele>3534.0</ele>
      </trkpt>
      <trkpt lat="46.128544" lon="7.708576">
        <time>1970-01-01T00:00:00+00:00</time>
        <ele>3534.0</ele>
      </trkpt>
      <trkpt lat="46.12863673802358" lon="7.708798371819998">
        <time>1970-01-01T00:00:00+00:00</time>
        <ele>3536.0</ele>
      </trkpt>
      <trkpt lat="46.128637" lon="7.708799">
        <time>1970-01-01T00:00:00+00:00</time>
        <ele>3536.0</ele>
      </trkpt>
      <trkpt lat="46.128637" lon="7.708799">
        <time>1970-01-01T00:00:00+00:00</time>
        <ele>3536.0</ele>
      </trkpt>
      <trkpt lat="46.128641" lon="7.708924">
        <time>1970-01-01T00:00:00+00:00</time>
        <ele>3539.0</ele>
      </trkpt>
      <trkpt lat="46.128641" lon="7.708924">
        <time>1970-01-01T00:00:00+00:00</time>
        <ele>3539.0</ele>
      </trkpt>
      <trkpt lat="46.128628" lon="7.709048">
        <time>1970-01-01T00:00:00+00:00</time>
        <ele>3543.0</ele>
      </trkpt>
      <trkpt lat="46.128628" lon="7.709048">
        <time>1970-01-01T00:00:00+00:00</time>
        <ele>3543.0</ele>
      </trkpt>
      <trkpt lat="46.128707" lon="7.709232">
        <time>1970-01-01T00:00:00+00:00</time>
        <ele>3545.0</ele>
      </trkpt>
      <trkpt lat="46.128707" lon="7.709232">
        <time>1970-01-01T00:00:00+00:00</time>
        <ele>3545.0</ele>
      </trkpt>
      <trkpt lat="46.12873178477493" lon="7.709489053522866">
        <time>1970-01-01T00:00:00+00:00</time>
        <ele>3551.0</ele>
      </trkpt>
      <trkpt lat="46.128742" lon="7.709595">
        <time>1970-01-01T00:00:00+00:00</time>
        <ele>3552.0</ele>
      </trkpt>
      <trkpt lat="46.128742" lon="7.709595">
        <time>1970-01-01T00:00:00+00:00</time>
        <ele>3552.0</ele>
      </trkpt>
      <trkpt lat="46.128757" lon="7.709849">
        <time>1970-01-01T00:00:00+00:00</time>
        <ele>3557.0</ele>
      </trkpt>
      <trkpt lat="46.128757" lon="7.709849">
        <time>1970-01-01T00:00:00+00:00</time>
        <ele>3557.0</ele>
      </trkpt>
      <trkpt lat="46.128768" lon="7.709914">
        <time>1970-01-01T00:00:00+00:00</time>
        <ele>3558.0</ele>
      </trkpt>
      <trkpt lat="46.128768" lon="7.709914">
        <time>1970-01-01T00:00:00+00:00</time>
        <ele>3558.0</ele>
      </trkpt>
      <trkpt lat="46.12873018923943" lon="7.710167730103831">
        <time>1970-01-01T00:00:00+00:00</time>
        <ele>3564.0</ele>
      </trkpt>
      <trkpt lat="46.12873" lon="7.710169">
        <time>1970-01-01T00:00:00+00:00</time>
        <ele>3564.0</ele>
      </trkpt>
      <trkpt lat="46.12873" lon="7.710169">
        <time>1970-01-01T00:00:00+00:00</time>
        <ele>3564.0</ele>
      </trkpt>
      <trkpt lat="46.128692" lon="7.71011">
        <time>1970-01-01T00:00:00+00:00</time>
        <ele>3564.0</ele>
      </trkpt>
      <trkpt lat="46.128692" lon="7.71011">
        <time>1970-01-01T00:00:00+00:00</time>
        <ele>3564.0</ele>
      </trkpt>
      <trkpt lat="46.128746" lon="7.71016">
        <time>1970-01-01T00:00:00+00:00</time>
        <ele>3563.0</ele>
      </trkpt>
      <trkpt lat="46.128746" lon="7.71016">
        <time>1970-01-01T00:00:00+00:00</time>
        <ele>3563.0</ele>
      </trkpt>
      <trkpt lat="46.12869" lon="7.710269">
        <time>1970-01-01T00:00:00+00:00</time>
        <ele>3566.0</ele>
      </trkpt>
      <trkpt lat="46.12869" lon="7.710269">
        <time>1970-01-01T00:00:00+00:00</time>
        <ele>3566.0</ele>
      </trkpt>
      <trkpt lat="46.12852891539594" lon="7.710384459484989">
        <time>1970-01-01T00:00:00+00:00</time>
        <ele>3573.0</ele>
      </trkpt>
      <trkpt lat="46.128517" lon="7.710393">
        <time>1970-01-01T00:00:00+00:00</time>
        <ele>3573.0</ele>
      </trkpt>
      <trkpt lat="46.128517" lon="7.710393">
        <time>1970-01-01T00:00:00+00:00</time>
        <ele>3573.0</ele>
      </trkpt>
      <trkpt lat="46.128373" lon="7.710465">
        <time>1970-01-01T00:00:00+00:00</time>
        <ele>3579.0</ele>
      </trkpt>
      <trkpt lat="46.128373" lon="7.710465">
        <time>1970-01-01T00:00:00+00:00</time>
        <ele>3579.0</ele>
      </trkpt>
      <trkpt lat="46.128325" lon="7.710431">
        <time>1970-01-01T00:00:00+00:00</time>
        <ele>3581.0</ele>
      </trkpt>
      <trkpt lat="46.128325" lon="7.710431">
        <time>1970-01-01T00:00:00+00:00</time>
        <ele>3581.0</ele>
      </trkpt>
      <trkpt lat="46.128231" lon="7.710532">
        <time>1970-01-01T00:00:00+00:00</time>
        <ele>3585.0</ele>
      </trkpt>
      <trkpt lat="46.128231" lon="7.710532">
        <time>1970-01-01T00:00:00+00:00</time>
        <ele>3585.0</ele>
      </trkpt>
      <trkpt lat="46.1280690865006" lon="7.7106450188287825">
        <time>1970-01-01T00:00:00+00:00</time>
        <ele>3590.0</ele>
      </trkpt>
      <trkpt lat="46.128029" lon="7.710673">
        <time>1970-01-01T00:00:00+00:00</time>
        <ele>3592.0</ele>
      </trkpt>
      <trkpt lat="46.128029" lon="7.710673">
        <time>1970-01-01T00:00:00+00:00</time>
        <ele>3592.0</ele>
      </trkpt>
      <trkpt lat="46.12786904898392" lon="7.710791693809554">
        <time>1970-01-01T00:00:00+00:00</time>
        <ele>3599.0</ele>
      </trkpt>
      <trkpt lat="46.127777" lon="7.71086">
        <time>1970-01-01T00:00:00+00:00</time>
        <ele>3603.0</ele>
      </trkpt>
      <trkpt lat="46.127777" lon="7.71086">
        <time>1970-01-01T00:00:00+00:00</time>
        <ele>3603.0</ele>
      </trkpt>
      <trkpt lat="46.127728" lon="7.710848">
        <time>1970-01-01T00:00:00+00:00</time>
        <ele>3605.0</ele>
      </trkpt>
      <trkpt lat="46.127728" lon="7.710848">
        <time>1970-01-01T00:00:00+00:00</time>
        <ele>3605.0</ele>
      </trkpt>
      <trkpt lat="46.127573" lon="7.710972">
        <time>1970-01-01T00:00:00+00:00</time>
        <ele>3611.0</ele>
      </trkpt>
      <trkpt lat="46.127573" lon="7.710972">
        <time>1970-01-01T00:00:00+00:00</time>
        <ele>3611.0</ele>
      </trkpt>
      <trkpt lat="46.127455" lon="7.711113">
        <time>1970-01-01T00:00:00+00:00</time>
        <ele>3616.0</ele>
      </trkpt>
      <trkpt lat="46.127455" lon="7.711113">
        <time>1970-01-01T00:00:00+00:00</time>
        <ele>3616.0</ele>
      </trkpt>
      <trkpt lat="46.127371" lon="7.711194">
        <time>1970-01-01T00:00:00+00:00</time>
        <ele>3620.0</ele>
      </trkpt>
      <trkpt lat="46.127371" lon="7.711194">
        <time>1970-01-01T00:00:00+00:00</time>
        <ele>3620.0</ele>
      </trkpt>
      <trkpt lat="46.127311" lon="7.711186">
        <time>1970-01-01T00:00:00+00:00</time>
        <ele>3622.0</ele>
      </trkpt>
      <trkpt lat="46.127311" lon="7.711186">
        <time>1970-01-01T00:00:00+00:00</time>
        <ele>3622.0</ele>
      </trkpt>
      <trkpt lat="46.127244" lon="7.711237">
        <time>1970-01-01T00:00:00+00:00</time>
        <ele>3626.0</ele>
      </trkpt>
      <trkpt lat="46.127244" lon="7.711237">
        <time>1970-01-01T00:00:00+00:00</time>
        <ele>3626.0</ele>
      </trkpt>
      <trkpt lat="46.127221" lon="7.711322">
        <time>1970-01-01T00:00:00+00:00</time>
        <ele>3627.0</ele>
      </trkpt>
      <trkpt lat="46.127221" lon="7.711322">
        <time>1970-01-01T00:00:00+00:00</time>
        <ele>3627.0</ele>
      </trkpt>
      <trkpt lat="46.127136" lon="7.711448">
        <time>1970-01-01T00:00:00+00:00</time>
        <ele>3631.0</ele>
      </trkpt>
      <trkpt lat="46.127136" lon="7.711448">
        <time>1970-01-01T00:00:00+00:00</time>
        <ele>3631.0</ele>
      </trkpt>
      <trkpt lat="46.127033" lon="7.711475">
        <time>1970-01-01T00:00:00+00:00</time>
        <ele>3636.0</ele>
      </trkpt>
      <trkpt lat="46.127033" lon="7.711475">
        <time>1970-01-01T00:00:00+00:00</time>
        <ele>3636.0</ele>
      </trkpt>
      <trkpt lat="46.126925" lon="7.711557">
        <time>1970-01-01T00:00:00+00:00</time>
        <ele>3640.0</ele>
      </trkpt>
      <trkpt lat="46.126925" lon="7.711557">
        <time>1970-01-01T00:00:00+00:00</time>
        <ele>3640.0</ele>
      </trkpt>
      <trkpt lat="46.126887" lon="7.71166">
        <time>1970-01-01T00:00:00+00:00</time>
        <ele>3643.0</ele>
      </trkpt>
      <trkpt lat="46.126887" lon="7.71166">
        <time>1970-01-01T00:00:00+00:00</time>
        <ele>3643.0</ele>
      </trkpt>
      <trkpt lat="46.126737" lon="7.711691">
        <time>1970-01-01T00:00:00+00:00</time>
        <ele>3653.0</ele>
      </trkpt>
      <trkpt lat="46.126737" lon="7.711691">
        <time>1970-01-01T00:00:00+00:00</time>
        <ele>3653.0</ele>
      </trkpt>
      <trkpt lat="46.126674" lon="7.711795">
        <time>1970-01-01T00:00:00+00:00</time>
        <ele>3657.0</ele>
      </trkpt>
      <trkpt lat="46.126674" lon="7.711795">
        <time>1970-01-01T00:00:00+00:00</time>
        <ele>3657.0</ele>
      </trkpt>
      <trkpt lat="46.126609" lon="7.711813">
        <time>1970-01-01T00:00:00+00:00</time>
        <ele>3661.0</ele>
      </trkpt>
      <trkpt lat="46.126609" lon="7.711813">
        <time>1970-01-01T00:00:00+00:00</time>
        <ele>3661.0</ele>
      </trkpt>
      <trkpt lat="46.126556" lon="7.711772">
        <time>1970-01-01T00:00:00+00:00</time>
        <ele>3665.0</ele>
      </trkpt>
      <trkpt lat="46.126556" lon="7.711772">
        <time>1970-01-01T00:00:00+00:00</time>
        <ele>3665.0</ele>
      </trkpt>
      <trkpt lat="46.126514" lon="7.711722">
        <time>1970-01-01T00:00:00+00:00</time>
        <ele>3666.0</ele>
      </trkpt>
      <trkpt lat="46.126514" lon="7.711722">
        <time>1970-01-01T00:00:00+00:00</time>
        <ele>3666.0</ele>
      </trkpt>
      <trkpt lat="46.126459" lon="7.711694">
        <time>1970-01-01T00:00:00+00:00</time>
        <ele>3669.0</ele>
      </trkpt>
      <trkpt lat="46.126459" lon="7.711694">
        <time>1970-01-01T00:00:00+00:00</time>
        <ele>3669.0</ele>
      </trkpt>
      <trkpt lat="46.12645" lon="7.711614">
        <time>1970-01-01T00:00:00+00:00</time>
        <ele>3669.0</ele>
      </trkpt>
      <trkpt lat="46.12645" lon="7.711614">
        <time>1970-01-01T00:00:00+00:00</time>
        <ele>3669.0</ele>
      </trkpt>
      <trkpt lat="46.1262861230973" lon="7.711507038428774">
        <time>1970-01-01T00:00:00+00:00</time>
        <ele>3676.0</ele>
      </trkpt>
      <trkpt lat="46.126283" lon="7.711505">
        <time>1970-01-01T00:00:00+00:00</time>
        <ele>3677.0</ele>
      </trkpt>
      <trkpt lat="46.126283" lon="7.711505">
        <time>1970-01-01T00:00:00+00:00</time>
        <ele>3677.0</ele>
      </trkpt>
      <trkpt lat="46.12613150889582" lon="7.711365098379199">
        <time>1970-01-01T00:00:00+00:00</time>
        <ele>3684.0</ele>
      </trkpt>
      <trkpt lat="46.1261" lon="7.711336">
        <time>1970-01-01T00:00:00+00:00</time>
        <ele>3686.0</ele>
      </trkpt>
      <trkpt lat="46.1261" lon="7.711336">
        <time>1970-01-01T00:00:00+00:00</time>
        <ele>3686.0</ele>
      </trkpt>
      <trkpt lat="46.126066" lon="7.711272">
        <time>1970-01-01T00:00:00+00:00</time>
        <ele>3688.0</ele>
      </trkpt>
      <trkpt lat="46.126066" lon="7.711272">
        <time>1970-01-01T00:00:00+00:00</time>
        <ele>3688.0</ele>
      </trkpt>
      <trkpt lat="46.126024" lon="7.711204">
        <time>1970-01-01T00:00:00+00:00</time>
        <ele>3690.0</ele>
      </trkpt>
      <trkpt lat="46.126024" lon="7.711204">
        <time>1970-01-01T00:00:00+00:00</time>
        <ele>3690.0</ele>
      </trkpt>
      <trkpt lat="46.125948" lon="7.711148">
        <time>1970-01-01T00:00:00+00:00</time>
        <ele>3693.0</ele>
      </trkpt>
      <trkpt lat="46.125948" lon="7.711148">
        <time>1970-01-01T00:00:00+00:00</time>
        <ele>3693.0</ele>
      </trkpt>
      <trkpt lat="46.125894" lon="7.711049">
        <time>1970-01-01T00:00:00+00:00</time>
        <ele>3693.0</ele>
      </trkpt>
      <trkpt lat="46.125894" lon="7.711049">
        <time>1970-01-01T00:00:00+00:00</time>
        <ele>3693.0</ele>
      </trkpt>
      <trkpt lat="46.125783" lon="7.710973">
        <time>1970-01-01T00:00:00+00:00</time>
        <ele>3696.0</ele>
      </trkpt>
      <trkpt lat="46.125783" lon="7.710973">
        <time>1970-01-01T00:00:00+00:00</time>
        <ele>3696.0</ele>
      </trkpt>
      <trkpt lat="46.125719" lon="7.710892">
        <time>1970-01-01T00:00:00+00:00</time>
        <ele>3698.0</ele>
      </trkpt>
      <trkpt lat="46.125719" lon="7.710892">
        <time>1970-01-01T00:00:00+00:00</time>
        <ele>3698.0</ele>
      </trkpt>
      <trkpt lat="46.125597" lon="7.710836">
        <time>1970-01-01T00:00:00+00:00</time>
        <ele>3704.0</ele>
      </trkpt>
      <trkpt lat="46.125597" lon="7.710836">
        <time>1970-01-01T00:00:00+00:00</time>
        <ele>3704.0</ele>
      </trkpt>
      <trkpt lat="46.12544865477229" lon="7.7109827501177355">
        <time>1970-01-01T00:00:00+00:00</time>
        <ele>3712.0</ele>
      </trkpt>
      <trkpt lat="46.125411" lon="7.71102">
        <time>1970-01-01T00:00:00+00:00</time>
        <ele>3713.0</ele>
      </trkpt>
      <trkpt lat="46.125411" lon="7.71102">
        <time>1970-01-01T00:00:00+00:00</time>
        <ele>3713.0</ele>
      </trkpt>
      <trkpt lat="46.12528569852739" lon="7.711206179074866">
        <time>1970-01-01T00:00:00+00:00</time>
        <ele>3719.0</ele>
      </trkpt>
      <trkpt lat="46.125199" lon="7.711335">
        <time>1970-01-01T00:00:00+00:00</time>
        <ele>3723.0</ele>
      </trkpt>
      <trkpt lat="46.125199" lon="7.711335">
        <time>1970-01-01T00:00:00+00:00</time>
        <ele>3723.0</ele>
      </trkpt>
      <trkpt lat="46.125073" lon="7.711471">
        <time>1970-01-01T00:00:00+00:00</time>
        <ele>3731.0</ele>
      </trkpt>
      <trkpt lat="46.125073" lon="7.711471">
        <time>1970-01-01T00:00:00+00:00</time>
        <ele>3731.0</ele>
      </trkpt>
      <trkpt lat="46.125041" lon="7.711549">
        <time>1970-01-01T00:00:00+00:00</time>
        <ele>3734.0</ele>
      </trkpt>
      <trkpt lat="46.125041" lon="7.711549">
        <time>1970-01-01T00:00:00+00:00</time>
        <ele>3734.0</ele>
      </trkpt>
      <trkpt lat="46.124947" lon="7.711675">
        <time>1970-01-01T00:00:00+00:00</time>
        <ele>3741.0</ele>
      </trkpt>
      <trkpt lat="46.124947" lon="7.711675">
        <time>1970-01-01T00:00:00+00:00</time>
        <ele>3741.0</ele>
      </trkpt>
      <trkpt lat="46.124901" lon="7.711805">
        <time>1970-01-01T00:00:00+00:00</time>
        <ele>3745.0</ele>
      </trkpt>
      <trkpt lat="46.124901" lon="7.711805">
        <time>1970-01-01T00:00:00+00:00</time>
        <ele>3745.0</ele>
      </trkpt>
      <trkpt lat="46.124799" lon="7.711993">
        <time>1970-01-01T00:00:00+00:00</time>
        <ele>3751.0</ele>
      </trkpt>
      <trkpt lat="46.124799" lon="7.711993">
        <time>1970-01-01T00:00:00+00:00</time>
        <ele>3751.0</ele>
      </trkpt>
      <trkpt lat="46.124726" lon="7.712083">
        <time>1970-01-01T00:00:00+00:00</time>
        <ele>3755.0</ele>
      </trkpt>
      <trkpt lat="46.124726" lon="7.712083">
        <time>1970-01-01T00:00:00+00:00</time>
        <ele>3755.0</ele>
      </trkpt>
      <trkpt lat="46.12454625114803" lon="7.7120922973544115">
        <time>1970-01-01T00:00:00+00:00</time>
        <ele>3763.0</ele>
      </trkpt>
      <trkpt lat="46.124378" lon="7.712101">
        <time>1970-01-01T00:00:00+00:00</time>
        <ele>3772.0</ele>
      </trkpt>
      <trkpt lat="46.124378" lon="7.712101">
        <time>1970-01-01T00:00:00+00:00</time>
        <ele>3772.0</ele>
      </trkpt>
      <trkpt lat="46.124202" lon="7.712071">
        <time>1970-01-01T00:00:00+00:00</time>
        <ele>3779.0</ele>
      </trkpt>
      <trkpt lat="46.124202" lon="7.712071">
        <time>1970-01-01T00:00:00+00:00</time>
        <ele>3779.0</ele>
      </trkpt>
      <trkpt lat="46.12402304279882" lon="7.712097030138353">
        <time>1970-01-01T00:00:00+00:00</time>
        <ele>3787.0</ele>
      </trkpt>
      <trkpt lat="46.123982" lon="7.712103">
        <time>1970-01-01T00:00:00+00:00</time>
        <ele>3789.0</ele>
      </trkpt>
      <trkpt lat="46.123982" lon="7.712103">
        <time>1970-01-01T00:00:00+00:00</time>
        <ele>3789.0</ele>
      </trkpt>
      <trkpt lat="46.123916" lon="7.712151">
        <time>1970-01-01T00:00:00+00:00</time>
        <ele>3792.0</ele>
      </trkpt>
      <trkpt lat="46.123916" lon="7.712151">
        <time>1970-01-01T00:00:00+00:00</time>
        <ele>3792.0</ele>
      </trkpt>
      <trkpt lat="46.123774" lon="7.712213">
        <time>1970-01-01T00:00:00+00:00</time>
        <ele>3797.0</ele>
      </trkpt>
      <trkpt lat="46.123774" lon="7.712213">
        <time>1970-01-01T00:00:00+00:00</time>
        <ele>3797.0</ele>
      </trkpt>
      <trkpt lat="46.123635" lon="7.712275">
        <time>1970-01-01T00:00:00+00:00</time>
        <ele>3803.0</ele>
      </trkpt>
      <trkpt lat="46.123635" lon="7.712275">
        <time>1970-01-01T00:00:00+00:00</time>
        <ele>3803.0</ele>
      </trkpt>
      <trkpt lat="46.123539" lon="7.71235">
        <time>1970-01-01T00:00:00+00:00</time>
        <ele>3807.0</ele>
      </trkpt>
      <trkpt lat="46.123539" lon="7.71235">
        <time>1970-01-01T00:00:00+00:00</time>
        <ele>3807.0</ele>
      </trkpt>
      <trkpt lat="46.123489" lon="7.712422">
        <time>1970-01-01T00:00:00+00:00</time>
        <ele>3811.0</ele>
      </trkpt>
      <trkpt lat="46.123489" lon="7.712422">
        <time>1970-01-01T00:00:00+00:00</time>
        <ele>3811.0</ele>
      </trkpt>
      <trkpt lat="46.123348780678086" lon="7.712584526941313">
        <time>1970-01-01T00:00:00+00:00</time>
        <ele>3819.0</ele>
      </trkpt>
      <trkpt lat="46.123313" lon="7.712626">
        <time>1970-01-01T00:00:00+00:00</time>
        <ele>3820.0</ele>
      </trkpt>
      <trkpt lat="46.123313" lon="7.712626">
        <time>1970-01-01T00:00:00+00:00</time>
        <ele>3820.0</ele>
      </trkpt>
      <trkpt lat="46.123252" lon="7.712637">
        <time>1970-01-01T00:00:00+00:00</time>
        <ele>3822.0</ele>
      </trkpt>
      <trkpt lat="46.123252" lon="7.712637">
        <time>1970-01-01T00:00:00+00:00</time>
        <ele>3822.0</ele>
      </trkpt>
      <trkpt lat="46.123193" lon="7.712598">
        <time>1970-01-01T00:00:00+00:00</time>
        <ele>3822.0</ele>
      </trkpt>
      <trkpt lat="46.123193" lon="7.712598">
        <time>1970-01-01T00:00:00+00:00</time>
        <ele>3822.0</ele>
      </trkpt>
      <trkpt lat="46.12301577658645" lon="7.712642305853389">
        <time>1970-01-01T00:00:00+00:00</time>
        <ele>3829.0</ele>
      </trkpt>
      <trkpt lat="46.123005" lon="7.712645">
        <time>1970-01-01T00:00:00+00:00</time>
        <ele>3829.0</ele>
      </trkpt>
      <trkpt lat="46.123005" lon="7.712645">
        <time>1970-01-01T00:00:00+00:00</time>
        <ele>3829.0</ele>
      </trkpt>
      <trkpt lat="46.122926" lon="7.712755">
        <time>1970-01-01T00:00:00+00:00</time>
        <ele>3834.0</ele>
      </trkpt>
      <trkpt lat="46.122926" lon="7.712755">
        <time>1970-01-01T00:00:00+00:00</time>
        <ele>3834.0</ele>
      </trkpt>
      <trkpt lat="46.12275734376421" lon="7.712845172640914">
        <time>1970-01-01T00:00:00+00:00</time>
        <ele>3842.0</ele>
      </trkpt>
      <trkpt lat="46.122724" lon="7.712863">
        <time>1970-01-01T00:00:00+00:00</time>
        <ele>3843.0</ele>
      </trkpt>
      <trkpt lat="46.122724" lon="7.712863">
        <time>1970-01-01T00:00:00+00:00</time>
        <ele>3843.0</ele>
      </trkpt>
      <trkpt lat="46.12268" lon="7.712802">
        <time>1970-01-01T00:00:00+00:00</time>
        <ele>3843.0</ele>
      </trkpt>
      <trkpt lat="46.12268" lon="7.712802">
        <time>1970-01-01T00:00:00+00:00</time>
        <ele>3843.0</ele>
      </trkpt>
      <trkpt lat="46.122606" lon="7.712805">
        <time>1970-01-01T00:00:00+00:00</time>
        <ele>3846.0</ele>
      </trkpt>
      <trkpt lat="46.122606" lon="7.712805">
        <time>1970-01-01T00:00:00+00:00</time>
        <ele>3846.0</ele>
      </trkpt>
      <trkpt lat="46.122549" lon="7.712812">
        <time>1970-01-01T00:00:00+00:00</time>
        <ele>3849.0</ele>
      </trkpt>
      <trkpt lat="46.122549" lon="7.712812">
        <time>1970-01-01T00:00:00+00:00</time>
        <ele>3849.0</ele>
      </trkpt>
      <trkpt lat="46.122509" lon="7.712865">
        <time>1970-01-01T00:00:00+00:00</time>
        <ele>3853.0</ele>
      </trkpt>
      <trkpt lat="46.122509" lon="7.712865">
        <time>1970-01-01T00:00:00+00:00</time>
        <ele>3853.0</ele>
      </trkpt>
      <trkpt lat="46.122383" lon="7.713048">
        <time>1970-01-01T00:00:00+00:00</time>
        <ele>3864.0</ele>
      </trkpt>
      <trkpt lat="46.122383" lon="7.713048">
        <time>1970-01-01T00:00:00+00:00</time>
        <ele>3864.0</ele>
      </trkpt>
      <trkpt lat="46.122401" lon="7.713182">
        <time>1970-01-01T00:00:00+00:00</time>
        <ele>3866.0</ele>
      </trkpt>
      <trkpt lat="46.122401" lon="7.713182">
        <time>1970-01-01T00:00:00+00:00</time>
        <ele>3866.0</ele>
      </trkpt>
      <trkpt lat="46.122356" lon="7.713415">
        <time>1970-01-01T00:00:00+00:00</time>
        <ele>3874.0</ele>
      </trkpt>
      <trkpt lat="46.122356" lon="7.713415">
        <time>1970-01-01T00:00:00+00:00</time>
        <ele>3874.0</ele>
      </trkpt>
      <trkpt lat="46.122305" lon="7.713524">
        <time>1970-01-01T00:00:00+00:00</time>
        <ele>3879.0</ele>
      </trkpt>
      <trkpt lat="46.122305" lon="7.713524">
        <time>1970-01-01T00:00:00+00:00</time>
        <ele>3879.0</ele>
      </trkpt>
      <trkpt lat="46.122243" lon="7.713719">
        <time>1970-01-01T00:00:00+00:00</time>
        <ele>3883.0</ele>
      </trkpt>
      <trkpt lat="46.122243" lon="7.713719">
        <time>1970-01-01T00:00:00+00:00</time>
        <ele>3883.0</ele>
      </trkpt>
      <trkpt lat="46.122235" lon="7.713898">
        <time>1970-01-01T00:00:00+00:00</time>
        <ele>3886.0</ele>
      </trkpt>
      <trkpt lat="46.122235" lon="7.713898">
        <time>1970-01-01T00:00:00+00:00</time>
        <ele>3886.0</ele>
      </trkpt>
      <trkpt lat="46.12205738690326" lon="7.713938928235336">
        <time>1970-01-01T00:00:00+00:00</time>
        <ele>3893.0</ele>
      </trkpt>
      <trkpt lat="46.122005" lon="7.713951">
        <time>1970-01-01T00:00:00+00:00</time>
        <ele>3897.0</ele>
      </trkpt>
      <trkpt lat="46.122005" lon="7.713951">
        <time>1970-01-01T00:00:00+00:00</time>
        <ele>3897.0</ele>
      </trkpt>
      <trkpt lat="46.121883" lon="7.713921">
        <time>1970-01-01T00:00:00+00:00</time>
        <ele>3904.0</ele>
      </trkpt>
      <trkpt lat="46.121883" lon="7.713921">
        <time>1970-01-01T00:00:00+00:00</time>
        <ele>3904.0</ele>
      </trkpt>
      <trkpt lat="46.1217117830404" lon="7.713841506411615">
        <time>1970-01-01T00:00:00+00:00</time>
        <ele>3912.0</ele>
      </trkpt>
      <trkpt lat="46.121631" lon="7.713804">
        <time>1970-01-01T00:00:00+00:00</time>
        <ele>3914.0</ele>
      </trkpt>
      <trkpt lat="46.121631" lon="7.713804">
        <time>1970-01-01T00:00:00+00:00</time>
        <ele>3914.0</ele>
      </trkpt>
      <trkpt lat="46.121474" lon="7.713694">
        <time>1970-01-01T00:00:00+00:00</time>
        <ele>3920.0</ele>
      </trkpt>
      <trkpt lat="46.121474" lon="7.713694">
        <time>1970-01-01T00:00:00+00:00</time>
        <ele>3920.0</ele>
      </trkpt>
      <trkpt lat="46.121345" lon="7.713763">
        <time>1970-01-01T00:00:00+00:00</time>
        <ele>3928.0</ele>
      </trkpt>
      <trkpt lat="46.121345" lon="7.713763">
        <time>1970-01-01T00:00:00+00:00</time>
        <ele>3928.0</ele>
      </trkpt>
      <trkpt lat="46.12125" lon="7.713758">
        <time>1970-01-01T00:00:00+00:00</time>
        <ele>3934.0</ele>
      </trkpt>
      <trkpt lat="46.12125" lon="7.713758">
        <time>1970-01-01T00:00:00+00:00</time>
        <ele>3934.0</ele>
      </trkpt>
      <trkpt lat="46.1211" lon="7.713721">
        <time>1970-01-01T00:00:00+00:00</time>
        <ele>3943.0</ele>
      </trkpt>
      <trkpt lat="46.1211" lon="7.713721">
        <time>1970-01-01T00:00:00+00:00</time>
        <ele>3943.0</ele>
      </trkpt>
      <trkpt lat="46.12101" lon="7.713754">
        <time>1970-01-01T00:00:00+00:00</time>
        <ele>3948.0</ele>
      </trkpt>
      <trkpt lat="46.12101" lon="7.713754">
        <time>1970-01-01T00:00:00+00:00</time>
        <ele>3948.0</ele>
      </trkpt>
      <trkpt lat="46.120968" lon="7.713823">
        <time>1970-01-01T00:00:00+00:00</time>
        <ele>3950.0</ele>
      </trkpt>
      <trkpt lat="46.120968" lon="7.713823">
        <time>1970-01-01T00:00:00+00:00</time>
        <ele>3950.0</ele>
      </trkpt>
      <trkpt lat="46.120915" lon="7.713791">
        <time>1970-01-01T00:00:00+00:00</time>
        <ele>3953.0</ele>
      </trkpt>
      <trkpt lat="46.120915" lon="7.713791">
        <time>1970-01-01T00:00:00+00:00</time>
        <ele>3953.0</ele>
      </trkpt>
      <trkpt lat="46.120869" lon="7.713796">
        <time>1970-01-01T00:00:00+00:00</time>
        <ele>3956.0</ele>
      </trkpt>
      <trkpt lat="46.120869" lon="7.713796">
        <time>1970-01-01T00:00:00+00:00</time>
        <ele>3956.0</ele>
      </trkpt>
      <trkpt lat="46.120817" lon="7.713761">
        <time>1970-01-01T00:00:00+00:00</time>
        <ele>3959.0</ele>
      </trkpt>
      <trkpt lat="46.120817" lon="7.713761">
        <time>1970-01-01T00:00:00+00:00</time>
        <ele>3959.0</ele>
      </trkpt>
      <trkpt lat="46.120752" lon="7.71377">
        <time>1970-01-01T00:00:00+00:00</time>
        <ele>3963.0</ele>
      </trkpt>
      <trkpt lat="46.120752" lon="7.71377">
        <time>1970-01-01T00:00:00+00:00</time>
        <ele>3963.0</ele>
      </trkpt>
      <trkpt lat="46.12069" lon="7.713735">
        <time>1970-01-01T00:00:00+00:00</time>
        <ele>3967.0</ele>
      </trkpt>
      <trkpt lat="46.12069" lon="7.713735">
        <time>1970-01-01T00:00:00+00:00</time>
        <ele>3967.0</ele>
      </trkpt>
      <trkpt lat="46.120573" lon="7.713765">
        <time>1970-01-01T00:00:00+00:00</time>
        <ele>3976.0</ele>
      </trkpt>
      <trkpt lat="46.120573" lon="7.713765">
        <time>1970-01-01T00:00:00+00:00</time>
        <ele>3976.0</ele>
      </trkpt>
      <trkpt lat="46.120521" lon="7.713875">
        <time>1970-01-01T00:00:00+00:00</time>
        <ele>3980.0</ele>
      </trkpt>
      <trkpt lat="46.120521" lon="7.713875">
        <time>1970-01-01T00:00:00+00:00</time>
        <ele>3980.0</ele>
      </trkpt>
      <trkpt lat="46.120518" lon="7.713967">
        <time>1970-01-01T00:00:00+00:00</time>
        <ele>3981.0</ele>
      </trkpt>
      <trkpt lat="46.120518" lon="7.713967">
        <time>1970-01-01T00:00:00+00:00</time>
        <ele>3981.0</ele>
      </trkpt>
      <trkpt lat="46.120408" lon="7.713892">
        <time>1970-01-01T00:00:00+00:00</time>
        <ele>3986.0</ele>
      </trkpt>
      <trkpt lat="46.120408" lon="7.713892">
        <time>1970-01-01T00:00:00+00:00</time>
        <ele>3986.0</ele>
      </trkpt>
      <trkpt lat="46.12024895264464" lon="7.71377082106258">
        <time>1970-01-01T00:00:00+00:00</time>
        <ele>3995.0</ele>
      </trkpt>
      <trkpt lat="46.12024" lon="7.713764">
        <time>1970-01-01T00:00:00+00:00</time>
        <ele>3996.0</ele>
      </trkpt>
      <trkpt lat="46.12024" lon="7.713764">
        <time>1970-01-01T00:00:00+00:00</time>
        <ele>3996.0</ele>
      </trkpt>
      <trkpt lat="46.12024" lon="7.713683">
        <time>1970-01-01T00:00:00+00:00</time>
        <ele>3995.0</ele>
      </trkpt>
      <trkpt lat="46.12024" lon="7.713683">
        <time>1970-01-01T00:00:00+00:00</time>
        <ele>3995.0</ele>
      </trkpt>
      <trkpt lat="46.120189" lon="7.713637">
        <time>1970-01-01T00:00:00+00:00</time>
        <ele>3999.0</ele>
      </trkpt>
      <trkpt lat="46.120189" lon="7.713637">
        <time>1970-01-01T00:00:00+00:00</time>
        <ele>3999.0</ele>
      </trkpt>
      <trkpt lat="46.120157" lon="7.713704">
        <time>1970-01-01T00:00:00+00:00</time>
        <ele>4001.0</ele>
      </trkpt>
      <trkpt lat="46.120157" lon="7.713704">
        <time>1970-01-01T00:00:00+00:00</time>
        <ele>4001.0</ele>
      </trkpt>
      <trkpt lat="46.120183" lon="7.713782">
        <time>1970-01-01T00:00:00+00:00</time>
        <ele>4000.0</ele>
      </trkpt>
      <trkpt lat="46.120183" lon="7.713782">
        <time>1970-01-01T00:00:00+00:00</time>
        <ele>4000.0</ele>
      </trkpt>
      <trkpt lat="46.120181" lon="7.713918">
        <time>1970-01-01T00:00:00+00:00</time>
        <ele>4001.0</ele>
      </trkpt>
      <trkpt lat="46.120181" lon="7.713918">
        <time>1970-01-01T00:00:00+00:00</time>
        <ele>4001.0</ele>
      </trkpt>
      <trkpt lat="46.120166" lon="7.71401">
        <time>1970-01-01T00:00:00+00:00</time>
        <ele>4003.0</ele>
      </trkpt>
      <trkpt lat="46.120166" lon="7.71401">
        <time>1970-01-01T00:00:00+00:00</time>
        <ele>4003.0</ele>
      </trkpt>
      <trkpt lat="46.120169" lon="7.714105">
        <time>1970-01-01T00:00:00+00:00</time>
        <ele>4004.0</ele>
      </trkpt>
      <trkpt lat="46.120169" lon="7.714105">
        <time>1970-01-01T00:00:00+00:00</time>
        <ele>4004.0</ele>
      </trkpt>
      <trkpt lat="46.120127" lon="7.714225">
        <time>1970-01-01T00:00:00+00:00</time>
        <ele>4007.0</ele>
      </trkpt>
      <trkpt lat="46.120127" lon="7.714225">
        <time>1970-01-01T00:00:00+00:00</time>
        <ele>4007.0</ele>
      </trkpt>
      <trkpt lat="46.12007" lon="7.714305">
        <time>1970-01-01T00:00:00+00:00</time>
        <ele>4011.0</ele>
      </trkpt>
      <trkpt lat="46.12007" lon="7.714305">
        <time>1970-01-01T00:00:00+00:00</time>
        <ele>4011.0</ele>
      </trkpt>
      <trkpt lat="46.120063" lon="7.714389">
        <time>1970-01-01T00:00:00+00:00</time>
        <ele>4012.0</ele>
      </trkpt>
      <trkpt lat="46.120063" lon="7.714389">
        <time>1970-01-01T00:00:00+00:00</time>
        <ele>4012.0</ele>
      </trkpt>
      <trkpt lat="46.11997267230173" lon="7.714613393018868">
        <time>1970-01-01T00:00:00+00:00</time>
        <ele>4018.0</ele>
      </trkpt>
      <trkpt lat="46.119968" lon="7.714625">
        <time>1970-01-01T00:00:00+00:00</time>
        <ele>4018.0</ele>
      </trkpt>
      <trkpt lat="46.119968" lon="7.714625">
        <time>1970-01-01T00:00:00+00:00</time>
        <ele>4018.0</ele>
      </trkpt>
      <trkpt lat="46.119955" lon="7.714717">
        <time>1970-01-01T00:00:00+00:00</time>
        <ele>4020.0</ele>
      </trkpt>
      <trkpt lat="46.119955" lon="7.714717">
        <time>1970-01-01T00:00:00+00:00</time>
        <ele>4020.0</ele>
      </trkpt>
      <trkpt lat="46.119966" lon="7.714809">
        <time>1970-01-01T00:00:00+00:00</time>
        <ele>4020.0</ele>
      </trkpt>
      <trkpt lat="46.119966" lon="7.714809">
        <time>1970-01-01T00:00:00+00:00</time>
        <ele>4020.0</ele>
      </trkpt>
      <trkpt lat="46.11993" lon="7.715033">
        <time>1970-01-01T00:00:00+00:00</time>
        <ele>4024.0</ele>
      </trkpt>
      <trkpt lat="46.11993" lon="7.715033">
        <time>1970-01-01T00:00:00+00:00</time>
        <ele>4024.0</ele>
      </trkpt>
      <trkpt lat="46.119926" lon="7.714939">
        <time>1970-01-01T00:00:00+00:00</time>
        <ele>4023.0</ele>
      </trkpt>
      <trkpt lat="46.119926" lon="7.714939">
        <time>1970-01-01T00:00:00+00:00</time>
        <ele>4023.0</ele>
      </trkpt>
      <trkpt lat="46.119873" lon="7.714956">
        <time>1970-01-01T00:00:00+00:00</time>
        <ele>4025.0</ele>
      </trkpt>
      <trkpt lat="46.119873" lon="7.714956">
        <time>1970-01-01T00:00:00+00:00</time>
        <ele>4025.0</ele>
      </trkpt>
      <trkpt lat="46.119824" lon="7.714921">
        <time>1970-01-01T00:00:00+00:00</time>
        <ele>4026.0</ele>
      </trkpt>
      <trkpt lat="46.119824" lon="7.714921">
        <time>1970-01-01T00:00:00+00:00</time>
        <ele>4026.0</ele>
      </trkpt>
      <trkpt lat="46.119734" lon="7.715061">
        <time>1970-01-01T00:00:00+00:00</time>
        <ele>4032.0</ele>
      </trkpt>
      <trkpt lat="46.119734" lon="7.715061">
        <time>1970-01-01T00:00:00+00:00</time>
        <ele>4032.0</ele>
      </trkpt>
      <trkpt lat="46.119717" lon="7.715149">
        <time>1970-01-01T00:00:00+00:00</time>
        <ele>4033.0</ele>
      </trkpt>
      <trkpt lat="46.119717" lon="7.715149">
        <time>1970-01-01T00:00:00+00:00</time>
        <ele>4033.0</ele>
      </trkpt>
      <trkpt lat="46.119647" lon="7.715248">
        <time>1970-01-01T00:00:00+00:00</time>
        <ele>4037.0</ele>
      </trkpt>
      <trkpt lat="46.119647" lon="7.715248">
        <time>1970-01-01T00:00:00+00:00</time>
        <ele>4037.0</ele>
      </trkpt>
      <trkpt lat="46.119569" lon="7.71532">
        <time>1970-01-01T00:00:00+00:00</time>
        <ele>4041.0</ele>
      </trkpt>
      <trkpt lat="46.119569" lon="7.71532">
        <time>1970-01-01T00:00:00+00:00</time>
        <ele>4041.0</ele>
      </trkpt>
      <trkpt lat="46.119494" lon="7.715478">
        <time>1970-01-01T00:00:00+00:00</time>
        <ele>4046.0</ele>
      </trkpt>
      <trkpt lat="46.119494" lon="7.715478">
        <time>1970-01-01T00:00:00+00:00</time>
        <ele>4046.0</ele>
      </trkpt>
      <trkpt lat="46.11936550401873" lon="7.7156595704083255">
        <time>1970-01-01T00:00:00+00:00</time>
        <ele>4054.0</ele>
      </trkpt>
      <trkpt lat="46.119356" lon="7.715673">
        <time>1970-01-01T00:00:00+00:00</time>
        <ele>4054.0</ele>
      </trkpt>
      <trkpt lat="46.119356" lon="7.715673">
        <time>1970-01-01T00:00:00+00:00</time>
        <ele>4054.0</ele>
      </trkpt>
      <trkpt lat="46.119317" lon="7.715758">
        <time>1970-01-01T00:00:00+00:00</time>
        <ele>4057.0</ele>
      </trkpt>
      <trkpt lat="46.119317" lon="7.715758">
        <time>1970-01-01T00:00:00+00:00</time>
        <ele>4057.0</ele>
      </trkpt>
      <trkpt lat="46.119214" lon="7.715859">
        <time>1970-01-01T00:00:00+00:00</time>
        <ele>4062.0</ele>
      </trkpt>
      <trkpt lat="46.119214" lon="7.715859">
        <time>1970-01-01T00:00:00+00:00</time>
        <ele>4062.0</ele>
      </trkpt>
      <trkpt lat="46.11910723321339" lon="7.716067823273818">
        <time>1970-01-01T00:00:00+00:00</time>
        <ele>4069.0</ele>
      </trkpt>
      <trkpt lat="46.119078" lon="7.716125">
        <time>1970-01-01T00:00:00+00:00</time>
        <ele>4071.0</ele>
      </trkpt>
      <trkpt lat="46.119078" lon="7.716125">
        <time>1970-01-01T00:00:00+00:00</time>
        <ele>4071.0</ele>
      </trkpt>
      <trkpt lat="46.118951" lon="7.716286">
        <time>1970-01-01T00:00:00+00:00</time>
        <ele>4077.0</ele>
      </trkpt>
      <trkpt lat="46.118951" lon="7.716286">
        <time>1970-01-01T00:00:00+00:00</time>
        <ele>4077.0</ele>
      </trkpt>
      <trkpt lat="46.118856" lon="7.716492">
        <time>1970-01-01T00:00:00+00:00</time>
        <ele>4082.0</ele>
      </trkpt>
      <trkpt lat="46.118856" lon="7.716492">
        <time>1970-01-01T00:00:00+00:00</time>
        <ele>4082.0</ele>
      </trkpt>
      <trkpt lat="46.118769" lon="7.716524">
        <time>1970-01-01T00:00:00+00:00</time>
        <ele>4086.0</ele>
      </trkpt>
      <trkpt lat="46.118769" lon="7.716524">
        <time>1970-01-01T00:00:00+00:00</time>
        <ele>4086.0</ele>
      </trkpt>
      <trkpt lat="46.118711" lon="7.716507">
        <time>1970-01-01T00:00:00+00:00</time>
        <ele>4088.0</ele>
      </trkpt>
      <trkpt lat="46.118711" lon="7.716507">
        <time>1970-01-01T00:00:00+00:00</time>
        <ele>4088.0</ele>
      </trkpt>
      <trkpt lat="46.11859" lon="7.716559">
        <time>1970-01-01T00:00:00+00:00</time>
        <ele>4094.0</ele>
      </trkpt>
      <trkpt lat="46.11859" lon="7.716559">
        <time>1970-01-01T00:00:00+00:00</time>
        <ele>4094.0</ele>
      </trkpt>
      <trkpt lat="46.118411176833575" lon="7.716531121109911">
        <time>1970-01-01T00:00:00+00:00</time>
        <ele>4100.0</ele>
      </trkpt>
      <trkpt lat="46.11823235366714" lon="7.716503242219821">
        <time>1970-01-01T00:00:00+00:00</time>
        <ele>4104.0</ele>
      </trkpt>
      <trkpt lat="46.118141" lon="7.716489">
        <time>1970-01-01T00:00:00+00:00</time>
        <ele>4105.0</ele>
      </trkpt>
      <trkpt lat="46.118141" lon="7.716489">
        <time>1970-01-01T00:00:00+00:00</time>
        <ele>4105.0</ele>
      </trkpt>
      <trkpt lat="46.118088" lon="7.716443">
        <time>1970-01-01T00:00:00+00:00</time>
        <ele>4103.0</ele>
      </trkpt>
      <trkpt lat="46.118088" lon="7.716443">
        <time>1970-01-01T00:00:00+00:00</time>
        <ele>4103.0</ele>
      </trkpt>
      <trkpt lat="46.118027" lon="7.716336">
        <time>1970-01-01T00:00:00+00:00</time>
        <ele>4103.0</ele>
      </trkpt>
      <trkpt lat="46.118027" lon="7.716336">
        <time>1970-01-01T00:00:00+00:00</time>
        <ele>4103.0</ele>
      </trkpt>
      <trkpt lat="46.117975" lon="7.716194">
        <time>1970-01-01T00:00:00+00:00</time>
        <ele>4104.0</ele>
      </trkpt>
      <trkpt lat="46.117975" lon="7.716194">
        <time>1970-01-01T00:00:00+00:00</time>
        <ele>4104.0</ele>
      </trkpt>
      <trkpt lat="46.117919" lon="7.715961">
        <time>1970-01-01T00:00:00+00:00</time>
        <ele>4108.0</ele>
      </trkpt>
      <trkpt lat="46.117919" lon="7.715961">
        <time>1970-01-01T00:00:00+00:00</time>
        <ele>4108.0</ele>
      </trkpt>
      <trkpt lat="46.117879" lon="7.715888">
        <time>1970-01-01T00:00:00+00:00</time>
        <ele>4108.0</ele>
      </trkpt>
      <trkpt lat="46.117879" lon="7.715888">
        <time>1970-01-01T00:00:00+00:00</time>
        <ele>4108.0</ele>
      </trkpt>
      <trkpt lat="46.117842" lon="7.715642">
        <time>1970-01-01T00:00:00+00:00</time>
        <ele>4112.0</ele>
      </trkpt>
      <trkpt lat="46.117842" lon="7.715642">
        <time>1970-01-01T00:00:00+00:00</time>
        <ele>4112.0</ele>
      </trkpt>
      <trkpt lat="46.117838" lon="7.715494">
        <time>1970-01-01T00:00:00+00:00</time>
        <ele>4115.0</ele>
      </trkpt>
      <trkpt lat="46.117838" lon="7.715494">
        <time>1970-01-01T00:00:00+00:00</time>
        <ele>4115.0</ele>
      </trkpt>
      <trkpt lat="46.117756" lon="7.715389">
        <time>1970-01-01T00:00:00+00:00</time>
        <ele>4115.0</ele>
      </trkpt>
      <trkpt lat="46.117756" lon="7.715389">
        <time>1970-01-01T00:00:00+00:00</time>
        <ele>4115.0</ele>
      </trkpt>
      <trkpt lat="46.117717" lon="7.715259">
        <time>1970-01-01T00:00:00+00:00</time>
        <ele>4114.0</ele>
      </trkpt>
    </trkseg>
  </trk>
</gpx>
